﻿<?xml version="1.0" encoding="utf-8"?><gpx creator="Garmin Desktop App" version="1.1" xsi:schemaLocation="http://www.topografix.com/GPX/1/1 http://www.topografix.com/GPX/1/1/gpx.xsd http://www.garmin.com/xmlschemas/WaypointExtension/v1 http://www8.garmin.com/xmlschemas/WaypointExtensionv1.xsd http://www.garmin.com/xmlschemas/TrackPointExtension/v1 http://www.garmin.com/xmlschemas/TrackPointExtensionv1.xsd http://www.garmin.com/xmlschemas/GpxExtensions/v3 http://www8.garmin.com/xmlschemas/GpxExtensionsv3.xsd http://www.garmin.com/xmlschemas/ActivityExtension/v1 http://www8.garmin.com/xmlschemas/ActivityExtensionv1.xsd http://www.garmin.com/xmlschemas/AdventuresExtensions/v1 http://www8.garmin.com/xmlschemas/AdventuresExtensionv1.xsd http://www.garmin.com/xmlschemas/PressureExtension/v1 http://www.garmin.com/xmlschemas/PressureExtensionv1.xsd http://www.garmin.com/xmlschemas/TripExtensions/v1 http://www.garmin.com/xmlschemas/TripExtensionsv1.xsd http://www.garmin.com/xmlschemas/TripMetaDataExtensions/v1 http://www.garmin.com/xmlschemas/TripMetaDataExtensionsv1.xsd http://www.garmin.com/xmlschemas/ViaPointTransportationModeExtensions/v1 http://www.garmin.com/xmlschemas/ViaPointTransportationModeExtensionsv1.xsd http://www.garmin.com/xmlschemas/CreationTimeExtension/v1 http://www.garmin.com/xmlschemas/CreationTimeExtensionsv1.xsd http://www.garmin.com/xmlschemas/AccelerationExtension/v1 http://www.garmin.com/xmlschemas/AccelerationExtensionv1.xsd http://www.garmin.com/xmlschemas/PowerExtension/v1 http://www.garmin.com/xmlschemas/PowerExtensionv1.xsd http://www.garmin.com/xmlschemas/VideoExtension/v1 http://www.garmin.com/xmlschemas/VideoExtensionv1.xsd" xmlns="http://www.topografix.com/GPX/1/1" xmlns:xsi="http://www.w3.org/2001/XMLSchema-instance" xmlns:wptx1="http://www.garmin.com/xmlschemas/WaypointExtension/v1" xmlns:gpxtrx="http://www.garmin.com/xmlschemas/GpxExtensions/v3" xmlns:gpxtpx="http://www.garmin.com/xmlschemas/TrackPointExtension/v1" xmlns:gpxx="http://www.garmin.com/xmlschemas/GpxExtensions/v3" xmlns:trp="http://www.garmin.com/xmlschemas/TripExtensions/v1" xmlns:adv="http://www.garmin.com/xmlschemas/AdventuresExtensions/v1" xmlns:prs="http://www.garmin.com/xmlschemas/PressureExtension/v1" xmlns:tmd="http://www.garmin.com/xmlschemas/TripMetaDataExtensions/v1" xmlns:vptm="http://www.garmin.com/xmlschemas/ViaPointTransportationModeExtensions/v1" xmlns:ctx="http://www.garmin.com/xmlschemas/CreationTimeExtension/v1" xmlns:gpxacc="http://www.garmin.com/xmlschemas/AccelerationExtension/v1" xmlns:gpxpx="http://www.garmin.com/xmlschemas/PowerExtension/v1" xmlns:vidx1="http://www.garmin.com/xmlschemas/VideoExtension/v1">

  <metadata>
    <link href="http://www.garmin.com">
      <text>Garmin International</text>
    </link>
    <time>2022-07-11T10:54:32Z</time>
    <bounds maxlat="45.979918157681823" maxlon="9.387693582102656" minlat="45.953133869916201" minlon="9.359854934737086" />
  </metadata>

  <trk>
    <name>rifugio brioscchi da cainallo2022-07-10</name>
    <extensions>
      <gpxx:TrackExtension>
        <gpxx:DisplayColor>Yellow</gpxx:DisplayColor>
      </gpxx:TrackExtension>
      <gpxtrkx:TrackStatsExtension xmlns:gpxtrkx="http://www.garmin.com/xmlschemas/TrackStatsExtension/v1">
        <gpxtrkx:Distance>12278</gpxtrkx:Distance>
        <gpxtrkx:TotalElapsedTime>32075</gpxtrkx:TotalElapsedTime>
        <gpxtrkx:MovingTime>19628</gpxtrkx:MovingTime>
        <gpxtrkx:StoppedTime>12432</gpxtrkx:StoppedTime>
        <gpxtrkx:MovingSpeed>0.626</gpxtrkx:MovingSpeed>
        <gpxtrkx:MaxSpeed>6.278</gpxtrkx:MaxSpeed>
        <gpxtrkx:MaxElevation>2409.598</gpxtrkx:MaxElevation>
        <gpxtrkx:MinElevation>1414.735</gpxtrkx:MinElevation>
        <gpxtrkx:Ascent>1156</gpxtrkx:Ascent>
        <gpxtrkx:Descent>1181.264</gpxtrkx:Descent>
        <gpxtrkx:AvgAscentRate>0.064</gpxtrkx:AvgAscentRate>
        <gpxtrkx:MaxAscentRate>0.397</gpxtrkx:MaxAscentRate>
        <gpxtrkx:AvgDescentRate>0.066</gpxtrkx:AvgDescentRate>
        <gpxtrkx:MaxDescentRate>-0.523</gpxtrkx:MaxDescentRate>
      </gpxtrkx:TrackStatsExtension>
    </extensions>
    <trkseg>
      <trkpt lat="45.979531584307551" lon="9.363472480326891">
        <ele>1441.8099999999999</ele>
        <time>2022-07-10T06:27:36Z</time>
      </trkpt>
      <trkpt lat="45.979532087221742" lon="9.363471893593669">
        <ele>1441.8099999999999</ele>
        <time>2022-07-10T06:27:37Z</time>
      </trkpt>
      <trkpt lat="45.979546085000038" lon="9.36347289942205">
        <ele>1441.1400000000001</ele>
        <time>2022-07-10T06:28:01Z</time>
      </trkpt>
      <trkpt lat="45.97956326790154" lon="9.363443898037076">
        <ele>1439.97</ele>
        <time>2022-07-10T06:28:13Z</time>
      </trkpt>
      <trkpt lat="45.979573410004377" lon="9.363440880551934">
        <ele>1440</ele>
        <time>2022-07-10T06:28:29Z</time>
      </trkpt>
      <trkpt lat="45.979574080556631" lon="9.363417495042086">
        <ele>1439.6099999999999</ele>
        <time>2022-07-10T06:28:48Z</time>
      </trkpt>
      <trkpt lat="45.979587743058801" lon="9.363427804782987">
        <ele>1439.54</ele>
        <time>2022-07-10T06:29:10Z</time>
      </trkpt>
      <trkpt lat="45.979609368368983" lon="9.363390505313873">
        <ele>1438.46</ele>
        <time>2022-07-10T06:29:30Z</time>
      </trkpt>
      <trkpt lat="45.97959210164845" lon="9.363373322412372">
        <ele>1438.1800000000001</ele>
        <time>2022-07-10T06:29:50Z</time>
      </trkpt>
      <trkpt lat="45.979583384469151" lon="9.363387571647763">
        <ele>1437.9100000000001</ele>
        <time>2022-07-10T06:30:16Z</time>
      </trkpt>
      <trkpt lat="45.979578020051122" lon="9.36340693384409">
        <ele>1438.03</ele>
        <time>2022-07-10T06:30:38Z</time>
      </trkpt>
      <trkpt lat="45.979610960930586" lon="9.363433923572302">
        <ele>1438.1900000000001</ele>
        <time>2022-07-10T06:30:59Z</time>
      </trkpt>
      <trkpt lat="45.979618672281504" lon="9.363434426486492">
        <ele>1438.1300000000001</ele>
        <time>2022-07-10T06:31:19Z</time>
      </trkpt>
      <trkpt lat="45.979618839919567" lon="9.363441970199347">
        <ele>1438.0899999999999</ele>
        <time>2022-07-10T06:31:39Z</time>
      </trkpt>
      <trkpt lat="45.979610960930586" lon="9.363427804782987">
        <ele>1438.1099999999999</ele>
        <time>2022-07-10T06:31:58Z</time>
      </trkpt>
      <trkpt lat="45.979612888768315" lon="9.363388326019049">
        <ele>1438.1099999999999</ele>
        <time>2022-07-10T06:32:14Z</time>
      </trkpt>
      <trkpt lat="45.979625210165977" lon="9.363388242200017">
        <ele>1438.3599999999999</ele>
        <time>2022-07-10T06:32:38Z</time>
      </trkpt>
      <trkpt lat="45.979642979800701" lon="9.363408274948597">
        <ele>1437.6500000000001</ele>
        <time>2022-07-10T06:32:53Z</time>
      </trkpt>
      <trkpt lat="45.979632921516895" lon="9.363395450636745">
        <ele>1436.8499999999999</ele>
        <time>2022-07-10T06:33:09Z</time>
      </trkpt>
      <trkpt lat="45.979619929566979" lon="9.36339033767581">
        <ele>1437.8099999999999</ele>
        <time>2022-07-10T06:33:21Z</time>
      </trkpt>
      <trkpt lat="45.979608613997698" lon="9.363384637981653">
        <ele>1438.0799999999999</ele>
        <time>2022-07-10T06:33:38Z</time>
      </trkpt>
      <trkpt lat="45.979605847969651" lon="9.363396540284157">
        <ele>1437.9200000000001</ele>
        <time>2022-07-10T06:33:55Z</time>
      </trkpt>
      <trkpt lat="45.979605428874493" lon="9.363408107310534">
        <ele>1438.27</ele>
        <time>2022-07-10T06:34:18Z</time>
      </trkpt>
      <trkpt lat="45.979588497430086" lon="9.36340550892055">
        <ele>1438.46</ele>
        <time>2022-07-10T06:34:31Z</time>
      </trkpt>
      <trkpt lat="45.979600483551621" lon="9.363385727629066">
        <ele>1438.49</ele>
        <time>2022-07-10T06:34:51Z</time>
      </trkpt>
      <trkpt lat="45.979598723351955" lon="9.363393355160952">
        <ele>1438.52</ele>
        <time>2022-07-10T06:35:14Z</time>
      </trkpt>
      <trkpt lat="45.979584474116564" lon="9.363377094268799">
        <ele>1438.9300000000001</ele>
        <time>2022-07-10T06:35:30Z</time>
      </trkpt>
      <trkpt lat="45.979522950947285" lon="9.363271733745933">
        <ele>1440.6300000000001</ele>
        <time>2022-07-10T06:35:45Z</time>
      </trkpt>
      <trkpt lat="45.979516496881843" lon="9.363170731812716">
        <ele>1442.22</ele>
        <time>2022-07-10T06:35:58Z</time>
      </trkpt>
      <trkpt lat="45.979514652863145" lon="9.363002171739936">
        <ele>1444.97</ele>
        <time>2022-07-10T06:36:15Z</time>
      </trkpt>
      <trkpt lat="45.97951440140605" lon="9.362903432920575">
        <ele>1447.1199999999999</ele>
        <time>2022-07-10T06:36:29Z</time>
      </trkpt>
      <trkpt lat="45.979500655084848" lon="9.36280301772058">
        <ele>1449.1800000000001</ele>
        <time>2022-07-10T06:36:45Z</time>
      </trkpt>
      <trkpt lat="45.979504594579339" lon="9.362634373828769">
        <ele>1452.2</ele>
        <time>2022-07-10T06:37:03Z</time>
      </trkpt>
      <trkpt lat="45.979505265131593" lon="9.362531024962664">
        <ele>1453.6099999999999</ele>
        <time>2022-07-10T06:37:16Z</time>
      </trkpt>
      <trkpt lat="45.979478945955634" lon="9.362430777400732">
        <ele>1455.96</ele>
        <time>2022-07-10T06:37:30Z</time>
      </trkpt>
      <trkpt lat="45.979459416121244" lon="9.362314771860838">
        <ele>1457.8499999999999</ele>
        <time>2022-07-10T06:37:48Z</time>
      </trkpt>
      <trkpt lat="45.979465367272496" lon="9.36223816126585">
        <ele>1458.6199999999999</ele>
        <time>2022-07-10T06:38:02Z</time>
      </trkpt>
      <trkpt lat="45.979466373100877" lon="9.362246375530958">
        <ele>1458.6300000000001</ele>
        <time>2022-07-10T06:38:23Z</time>
      </trkpt>
      <trkpt lat="45.979431504383683" lon="9.362260876223445">
        <ele>1460.1300000000001</ele>
        <time>2022-07-10T06:38:36Z</time>
      </trkpt>
      <trkpt lat="45.979387918487191" lon="9.362274287268519">
        <ele>1463.1199999999999</ele>
        <time>2022-07-10T06:38:50Z</time>
      </trkpt>
      <trkpt lat="45.979338884353638" lon="9.362327009439468">
        <ele>1465.6800000000001</ele>
        <time>2022-07-10T06:39:05Z</time>
      </trkpt>
      <trkpt lat="45.979280546307564" lon="9.362365482375026">
        <ele>1468.54</ele>
        <time>2022-07-10T06:39:21Z</time>
      </trkpt>
      <trkpt lat="45.979208713397384" lon="9.362376546487212">
        <ele>1470.8</ele>
        <time>2022-07-10T06:39:36Z</time>
      </trkpt>
      <trkpt lat="45.979149537160993" lon="9.362437566742301">
        <ele>1472.53</ele>
        <time>2022-07-10T06:39:48Z</time>
      </trkpt>
      <trkpt lat="45.979051049798727" lon="9.362454414367676">
        <ele>1475.3299999999999</ele>
        <time>2022-07-10T06:40:03Z</time>
      </trkpt>
      <trkpt lat="45.978974942117929" lon="9.362383000552654">
        <ele>1476.4200000000001</ele>
        <time>2022-07-10T06:40:16Z</time>
      </trkpt>
      <trkpt lat="45.97894954495132" lon="9.362359698861837">
        <ele>1475.9400000000001</ele>
        <time>2022-07-10T06:40:19Z</time>
      </trkpt>
      <trkpt lat="45.978886764496565" lon="9.362300941720605">
        <ele>1475.8399999999999</ele>
        <time>2022-07-10T06:40:26Z</time>
      </trkpt>
      <trkpt lat="45.97888165153563" lon="9.36228652484715">
        <ele>1475.8299999999999</ele>
        <time>2022-07-10T06:40:27Z</time>
      </trkpt>
      <trkpt lat="45.978857846930623" lon="9.362223660573363">
        <ele>1474.8900000000001</ele>
        <time>2022-07-10T06:40:32Z</time>
      </trkpt>
      <trkpt lat="45.978811243548989" lon="9.362145625054836">
        <ele>1474.75</ele>
        <time>2022-07-10T06:40:40Z</time>
      </trkpt>
      <trkpt lat="45.978773860260844" lon="9.362013107165694">
        <ele>1473.6199999999999</ele>
        <time>2022-07-10T06:40:53Z</time>
      </trkpt>
      <trkpt lat="45.978792048990726" lon="9.36189316213131">
        <ele>1471.8299999999999</ele>
        <time>2022-07-10T06:41:04Z</time>
      </trkpt>
      <trkpt lat="45.978754833340645" lon="9.361706748604775">
        <ele>1470.98</ele>
        <time>2022-07-10T06:41:16Z</time>
      </trkpt>
      <trkpt lat="45.978733124211431" lon="9.361572051420808">
        <ele>1470.9000000000001</ele>
        <time>2022-07-10T06:41:25Z</time>
      </trkpt>
      <trkpt lat="45.978730022907257" lon="9.361557299271226">
        <ele>1470.8699999999999</ele>
        <time>2022-07-10T06:41:26Z</time>
      </trkpt>
      <trkpt lat="45.978691298514605" lon="9.361407347023487">
        <ele>1471.76</ele>
        <time>2022-07-10T06:41:38Z</time>
      </trkpt>
      <trkpt lat="45.978579986840487" lon="9.361328138038516">
        <ele>1474.1400000000001</ele>
        <time>2022-07-10T06:41:53Z</time>
      </trkpt>
      <trkpt lat="45.978465992957354" lon="9.361278684809804">
        <ele>1476.48</ele>
        <time>2022-07-10T06:42:09Z</time>
      </trkpt>
      <trkpt lat="45.978364739567041" lon="9.361315732821822">
        <ele>1479.55</ele>
        <time>2022-07-10T06:42:28Z</time>
      </trkpt>
      <trkpt lat="45.978268850594759" lon="9.36137423850596">
        <ele>1482.0999999999999</ele>
        <time>2022-07-10T06:42:42Z</time>
      </trkpt>
      <trkpt lat="45.97819559276104" lon="9.361437186598778">
        <ele>1484.5599999999999</ele>
        <time>2022-07-10T06:42:58Z</time>
      </trkpt>
      <trkpt lat="45.978134656324983" lon="9.3614930100739">
        <ele>1487</ele>
        <time>2022-07-10T06:43:12Z</time>
      </trkpt>
      <trkpt lat="45.978076318278909" lon="9.361455459147692">
        <ele>1489.1300000000001</ele>
        <time>2022-07-10T06:43:26Z</time>
      </trkpt>
      <trkpt lat="45.977977747097611" lon="9.361408771947026">
        <ele>1487.8</ele>
        <time>2022-07-10T06:43:40Z</time>
      </trkpt>
      <trkpt lat="45.977967940270901" lon="9.361389745026827">
        <ele>1487.53</ele>
        <time>2022-07-10T06:43:42Z</time>
      </trkpt>
      <trkpt lat="45.977946147322655" lon="9.361357809975743">
        <ele>1487.1300000000001</ele>
        <time>2022-07-10T06:43:45Z</time>
      </trkpt>
      <trkpt lat="45.97793810069561" lon="9.361345823854208">
        <ele>1487.0599999999999</ele>
        <time>2022-07-10T06:43:46Z</time>
      </trkpt>
      <trkpt lat="45.977828381583095" lon="9.361223699524999">
        <ele>1486.47</ele>
        <time>2022-07-10T06:43:59Z</time>
      </trkpt>
      <trkpt lat="45.977707514539361" lon="9.361137449741364">
        <ele>1487.6600000000001</ele>
        <time>2022-07-10T06:44:15Z</time>
      </trkpt>
      <trkpt lat="45.97762193530798" lon="9.361107610166073">
        <ele>1489.4000000000001</ele>
        <time>2022-07-10T06:44:29Z</time>
      </trkpt>
      <trkpt lat="45.977527219802141" lon="9.361125798895955">
        <ele>1491.55</ele>
        <time>2022-07-10T06:44:46Z</time>
      </trkpt>
      <trkpt lat="45.97745287232101" lon="9.361112723127008">
        <ele>1493.3800000000001</ele>
        <time>2022-07-10T06:45:02Z</time>
      </trkpt>
      <trkpt lat="45.97741867415607" lon="9.361056396737695">
        <ele>1493.6300000000001</ele>
        <time>2022-07-10T06:45:16Z</time>
      </trkpt>
      <trkpt lat="45.9773238748312" lon="9.36096578836441">
        <ele>1492.3699999999999</ele>
        <time>2022-07-10T06:45:35Z</time>
      </trkpt>
      <trkpt lat="45.977191692218184" lon="9.3608592543751">
        <ele>1491.9000000000001</ele>
        <time>2022-07-10T06:45:52Z</time>
      </trkpt>
      <trkpt lat="45.977073255926371" lon="9.360791947692633">
        <ele>1491.1199999999999</ele>
        <time>2022-07-10T06:46:04Z</time>
      </trkpt>
      <trkpt lat="45.976979713886976" lon="9.360766215249896">
        <ele>1491.79</ele>
        <time>2022-07-10T06:46:14Z</time>
      </trkpt>
      <trkpt lat="45.976888686418533" lon="9.360731011256576">
        <ele>1492.4000000000001</ele>
        <time>2022-07-10T06:46:27Z</time>
      </trkpt>
      <trkpt lat="45.976802352815866" lon="9.360676528885961">
        <ele>1492.1900000000001</ele>
        <time>2022-07-10T06:46:38Z</time>
      </trkpt>
      <trkpt lat="45.976791121065617" lon="9.360671751201153">
        <ele>1492.29</ele>
        <time>2022-07-10T06:46:39Z</time>
      </trkpt>
      <trkpt lat="45.976780140772462" lon="9.360663704574108">
        <ele>1492.4400000000001</ele>
        <time>2022-07-10T06:46:40Z</time>
      </trkpt>
      <trkpt lat="45.976725574582815" lon="9.360650377348065">
        <ele>1492.5799999999999</ele>
        <time>2022-07-10T06:46:45Z</time>
      </trkpt>
      <trkpt lat="45.976715851575136" lon="9.360644677653909">
        <ele>1492.6600000000001</ele>
        <time>2022-07-10T06:46:46Z</time>
      </trkpt>
      <trkpt lat="45.976619040593505" lon="9.360633194446564">
        <ele>1494.77</ele>
        <time>2022-07-10T06:46:59Z</time>
      </trkpt>
      <trkpt lat="45.976513093337417" lon="9.360731933265925">
        <ele>1496.95</ele>
        <time>2022-07-10T06:47:15Z</time>
      </trkpt>
      <trkpt lat="45.976438745856285" lon="9.360833438113332">
        <ele>1497.8599999999999</ele>
        <time>2022-07-10T06:47:27Z</time>
      </trkpt>
      <trkpt lat="45.976346796378493" lon="9.360840478911996">
        <ele>1499.76</ele>
        <time>2022-07-10T06:47:41Z</time>
      </trkpt>
      <trkpt lat="45.976287201046944" lon="9.360773172229528">
        <ele>1501.46</ele>
        <time>2022-07-10T06:47:53Z</time>
      </trkpt>
      <trkpt lat="45.976222660392523" lon="9.360684491693974">
        <ele>1503.22</ele>
        <time>2022-07-10T06:48:07Z</time>
      </trkpt>
      <trkpt lat="45.976104978471994" lon="9.36063445173204">
        <ele>1506.04</ele>
        <time>2022-07-10T06:48:23Z</time>
      </trkpt>
      <trkpt lat="45.97603926435113" lon="9.36065792106092">
        <ele>1507.4200000000001</ele>
        <time>2022-07-10T06:48:36Z</time>
      </trkpt>
      <trkpt lat="45.975991571322083" lon="9.360595643520355">
        <ele>1509.02</ele>
        <time>2022-07-10T06:48:49Z</time>
      </trkpt>
      <trkpt lat="45.975951505824924" lon="9.360564043745399">
        <ele>1509.8199999999999</ele>
        <time>2022-07-10T06:48:54Z</time>
      </trkpt>
      <trkpt lat="45.975939771160483" lon="9.36055725440383">
        <ele>1509.8800000000001</ele>
        <time>2022-07-10T06:48:55Z</time>
      </trkpt>
      <trkpt lat="45.975841199979186" lon="9.360501263290644">
        <ele>1510.52</ele>
        <time>2022-07-10T06:49:06Z</time>
      </trkpt>
      <trkpt lat="45.975755620747805" lon="9.360476704314351">
        <ele>1512.6600000000001</ele>
        <time>2022-07-10T06:49:18Z</time>
      </trkpt>
      <trkpt lat="45.975654618814588" lon="9.360449546948075">
        <ele>1514.1800000000001</ele>
        <time>2022-07-10T06:49:31Z</time>
      </trkpt>
      <trkpt lat="45.975579181686044" lon="9.360456168651581">
        <ele>1515.24</ele>
        <time>2022-07-10T06:49:43Z</time>
      </trkpt>
      <trkpt lat="45.975491339340806" lon="9.360479637980461">
        <ele>1517.1800000000001</ele>
        <time>2022-07-10T06:49:57Z</time>
      </trkpt>
      <trkpt lat="45.975412297993898" lon="9.360435800626874">
        <ele>1520.2</ele>
        <time>2022-07-10T06:50:15Z</time>
      </trkpt>
      <trkpt lat="45.975340967997909" lon="9.360380731523037">
        <ele>1522.22</ele>
        <time>2022-07-10T06:50:28Z</time>
      </trkpt>
      <trkpt lat="45.975316744297743" lon="9.360349886119366">
        <ele>1521.3</ele>
        <time>2022-07-10T06:50:31Z</time>
      </trkpt>
      <trkpt lat="45.975312050431967" lon="9.360334714874625">
        <ele>1521.04</ele>
        <time>2022-07-10T06:50:32Z</time>
      </trkpt>
      <trkpt lat="45.975305009633303" lon="9.360321136191487">
        <ele>1520.8399999999999</ele>
        <time>2022-07-10T06:50:33Z</time>
      </trkpt>
      <trkpt lat="45.975296208634973" lon="9.360307389870286">
        <ele>1520.5599999999999</ele>
        <time>2022-07-10T06:50:34Z</time>
      </trkpt>
      <trkpt lat="45.975287323817611" lon="9.360295487567782">
        <ele>1520.3800000000001</ele>
        <time>2022-07-10T06:50:35Z</time>
      </trkpt>
      <trkpt lat="45.975238541141152" lon="9.360209153965116">
        <ele>1520.1500000000001</ele>
        <time>2022-07-10T06:50:42Z</time>
      </trkpt>
      <trkpt lat="45.975174587219954" lon="9.360144194215536">
        <ele>1521.05</ele>
        <time>2022-07-10T06:50:52Z</time>
      </trkpt>
      <trkpt lat="45.975048523396254" lon="9.360086861997843">
        <ele>1523.8199999999999</ele>
        <time>2022-07-10T06:51:09Z</time>
      </trkpt>
      <trkpt lat="45.974956825375557" lon="9.360096920281649">
        <ele>1526.02</ele>
        <time>2022-07-10T06:51:23Z</time>
      </trkpt>
      <trkpt lat="45.974901001900434" lon="9.36011309735477">
        <ele>1528.1300000000001</ele>
        <time>2022-07-10T06:51:35Z</time>
      </trkpt>
      <trkpt lat="45.97486755810678" lon="9.360149810090661">
        <ele>1528.4300000000001</ele>
        <time>2022-07-10T06:51:51Z</time>
      </trkpt>
      <trkpt lat="45.974787091836333" lon="9.360140506178141">
        <ele>1528.5999999999999</ele>
        <time>2022-07-10T06:52:03Z</time>
      </trkpt>
      <trkpt lat="45.974759515374899" lon="9.360107649117708">
        <ele>1528.9200000000001</ele>
        <time>2022-07-10T06:52:18Z</time>
      </trkpt>
      <trkpt lat="45.97473906353116" lon="9.360084515064955">
        <ele>1528.6199999999999</ele>
        <time>2022-07-10T06:52:41Z</time>
      </trkpt>
      <trkpt lat="45.974754067137837" lon="9.360083844512701">
        <ele>1529.22</ele>
        <time>2022-07-10T06:53:02Z</time>
      </trkpt>
      <trkpt lat="45.974763622507453" lon="9.360094238072634">
        <ele>1529.1700000000001</ele>
        <time>2022-07-10T06:53:15Z</time>
      </trkpt>
      <trkpt lat="45.97472732886672" lon="9.360053837299347">
        <ele>1529.77</ele>
        <time>2022-07-10T06:53:30Z</time>
      </trkpt>
      <trkpt lat="45.974648371338844" lon="9.360005976632237">
        <ele>1531.5799999999999</ele>
        <time>2022-07-10T06:53:46Z</time>
      </trkpt>
      <trkpt lat="45.974550722166896" lon="9.359948895871639">
        <ele>1534.5799999999999</ele>
        <time>2022-07-10T06:54:03Z</time>
      </trkpt>
      <trkpt lat="45.974496155977249" lon="9.359937580302358">
        <ele>1536.1500000000001</ele>
        <time>2022-07-10T06:54:18Z</time>
      </trkpt>
      <trkpt lat="45.974454917013645" lon="9.359924420714378">
        <ele>1537.8599999999999</ele>
        <time>2022-07-10T06:54:33Z</time>
      </trkpt>
      <trkpt lat="45.97440529614687" lon="9.359923079609871">
        <ele>1539.1400000000001</ele>
        <time>2022-07-10T06:54:41Z</time>
      </trkpt>
      <trkpt lat="45.974323153495789" lon="9.359928863123059">
        <ele>1538.1099999999999</ele>
        <time>2022-07-10T06:54:51Z</time>
      </trkpt>
      <trkpt lat="45.974313598126173" lon="9.359930623322725">
        <ele>1537.8099999999999</ele>
        <time>2022-07-10T06:54:52Z</time>
      </trkpt>
      <trkpt lat="45.974302953109145" lon="9.359934478998184">
        <ele>1537.6700000000001</ele>
        <time>2022-07-10T06:54:53Z</time>
      </trkpt>
      <trkpt lat="45.974219720810652" lon="9.360012849792838">
        <ele>1537.79</ele>
        <time>2022-07-10T06:55:07Z</time>
      </trkpt>
      <trkpt lat="45.974209327250719" lon="9.360120976343751">
        <ele>1537.98</ele>
        <time>2022-07-10T06:55:21Z</time>
      </trkpt>
      <trkpt lat="45.974147971719503" lon="9.360145116224885">
        <ele>1536.6900000000001</ele>
        <time>2022-07-10T06:55:30Z</time>
      </trkpt>
      <trkpt lat="45.974135817959905" lon="9.360145619139075">
        <ele>1536.45</ele>
        <time>2022-07-10T06:55:31Z</time>
      </trkpt>
      <trkpt lat="45.974123412743211" lon="9.360143775120378">
        <ele>1536.3199999999999</ele>
        <time>2022-07-10T06:55:32Z</time>
      </trkpt>
      <trkpt lat="45.974028278142214" lon="9.360110918059945">
        <ele>1537.73</ele>
        <time>2022-07-10T06:55:45Z</time>
      </trkpt>
      <trkpt lat="45.973955942317843" lon="9.360139584168792">
        <ele>1539.03</ele>
        <time>2022-07-10T06:55:56Z</time>
      </trkpt>
      <trkpt lat="45.97385217435658" lon="9.360142350196838">
        <ele>1539.3199999999999</ele>
        <time>2022-07-10T06:56:08Z</time>
      </trkpt>
      <trkpt lat="45.97373440861702" lon="9.360168501734734">
        <ele>1540.3099999999999</ele>
        <time>2022-07-10T06:56:20Z</time>
      </trkpt>
      <trkpt lat="45.973654026165605" lon="9.36020839959383">
        <ele>1542.79</ele>
        <time>2022-07-10T06:56:36Z</time>
      </trkpt>
      <trkpt lat="45.973587390035391" lon="9.360239999368787">
        <ele>1545.52</ele>
        <time>2022-07-10T06:56:52Z</time>
      </trkpt>
      <trkpt lat="45.973489489406347" lon="9.360267408192158">
        <ele>1548.05</ele>
        <time>2022-07-10T06:57:10Z</time>
      </trkpt>
      <trkpt lat="45.973434504121542" lon="9.36025626026094">
        <ele>1549.98</ele>
        <time>2022-07-10T06:57:22Z</time>
      </trkpt>
      <trkpt lat="45.973365101963282" lon="9.360225414857268">
        <ele>1552.73</ele>
        <time>2022-07-10T06:57:37Z</time>
      </trkpt>
      <trkpt lat="45.9732277225703" lon="9.360167495906353">
        <ele>1553.21</ele>
        <time>2022-07-10T06:57:51Z</time>
      </trkpt>
      <trkpt lat="45.973160834982991" lon="9.360179482027888">
        <ele>1553.8299999999999</ele>
        <time>2022-07-10T06:57:57Z</time>
      </trkpt>
      <trkpt lat="45.973075591027737" lon="9.360244777053595">
        <ele>1554.5699999999999</ele>
        <time>2022-07-10T06:58:08Z</time>
      </trkpt>
      <trkpt lat="45.973051032051444" lon="9.360298756510019">
        <ele>1555.1099999999999</ele>
        <time>2022-07-10T06:58:13Z</time>
      </trkpt>
      <trkpt lat="45.973037118092179" lon="9.36032272875309">
        <ele>1555.24</ele>
        <time>2022-07-10T06:58:15Z</time>
      </trkpt>
      <trkpt lat="45.973029909655452" lon="9.360334044322372">
        <ele>1555.3</ele>
        <time>2022-07-10T06:58:16Z</time>
      </trkpt>
      <trkpt lat="45.972945252433419" lon="9.360399674624205">
        <ele>1556.55</ele>
        <time>2022-07-10T06:58:27Z</time>
      </trkpt>
      <trkpt lat="45.972844585776329" lon="9.360390705987811">
        <ele>1557.96</ele>
        <time>2022-07-10T06:58:39Z</time>
      </trkpt>
      <trkpt lat="45.972759090363979" lon="9.360408810898662">
        <ele>1558.9000000000001</ele>
        <time>2022-07-10T06:58:49Z</time>
      </trkpt>
      <trkpt lat="45.972653478384018" lon="9.360370673239231">
        <ele>1559.4200000000001</ele>
        <time>2022-07-10T06:59:01Z</time>
      </trkpt>
      <trkpt lat="45.972572341561317" lon="9.360339157283306">
        <ele>1559.8399999999999</ele>
        <time>2022-07-10T06:59:09Z</time>
      </trkpt>
      <trkpt lat="45.972484415397048" lon="9.360420629382134">
        <ele>1561.3299999999999</ele>
        <time>2022-07-10T06:59:18Z</time>
      </trkpt>
      <trkpt lat="45.972419455647469" lon="9.360516266897321">
        <ele>1563.8</ele>
        <time>2022-07-10T06:59:33Z</time>
      </trkpt>
      <trkpt lat="45.972376707941294" lon="9.360620370134711">
        <ele>1566.4200000000001</ele>
        <time>2022-07-10T06:59:51Z</time>
      </trkpt>
      <trkpt lat="45.97231543622911" lon="9.360758252441883">
        <ele>1566.26</ele>
        <time>2022-07-10T07:00:01Z</time>
      </trkpt>
      <trkpt lat="45.972284842282534" lon="9.360883813351393">
        <ele>1567.1900000000001</ele>
        <time>2022-07-10T07:00:12Z</time>
      </trkpt>
      <trkpt lat="45.972258187830448" lon="9.361053798347712">
        <ele>1569.9100000000001</ele>
        <time>2022-07-10T07:00:28Z</time>
      </trkpt>
      <trkpt lat="45.972186774015427" lon="9.361118003726006">
        <ele>1571.6700000000001</ele>
        <time>2022-07-10T07:00:44Z</time>
      </trkpt>
      <trkpt lat="45.972096081823111" lon="9.361184975132346">
        <ele>1573.51</ele>
        <time>2022-07-10T07:00:57Z</time>
      </trkpt>
      <trkpt lat="45.972026260569692" lon="9.36128337867558">
        <ele>1575.5899999999999</ele>
        <time>2022-07-10T07:01:12Z</time>
      </trkpt>
      <trkpt lat="45.971999522298574" lon="9.36132830567658">
        <ele>1577.29</ele>
        <time>2022-07-10T07:01:25Z</time>
      </trkpt>
      <trkpt lat="45.971965072676539" lon="9.361448669806123">
        <ele>1579.23</ele>
        <time>2022-07-10T07:01:38Z</time>
      </trkpt>
      <trkpt lat="45.971941268071532" lon="9.36153600923717">
        <ele>1581.1800000000001</ele>
        <time>2022-07-10T07:01:51Z</time>
      </trkpt>
      <trkpt lat="45.971920983865857" lon="9.36157020740211">
        <ele>1582.4400000000001</ele>
        <time>2022-07-10T07:02:05Z</time>
      </trkpt>
      <trkpt lat="45.971919223666191" lon="9.361686883494258">
        <ele>1584.3</ele>
        <time>2022-07-10T07:02:18Z</time>
      </trkpt>
      <trkpt lat="45.971873793751001" lon="9.361797943711281">
        <ele>1586.48</ele>
        <time>2022-07-10T07:02:32Z</time>
      </trkpt>
      <trkpt lat="45.971784275025129" lon="9.361855275928974">
        <ele>1584.25</ele>
        <time>2022-07-10T07:02:42Z</time>
      </trkpt>
      <trkpt lat="45.971663240343332" lon="9.361952338367701">
        <ele>1582.8800000000001</ele>
        <time>2022-07-10T07:02:55Z</time>
      </trkpt>
      <trkpt lat="45.971588892862201" lon="9.362016962841153">
        <ele>1583.1099999999999</ele>
        <time>2022-07-10T07:03:04Z</time>
      </trkpt>
      <trkpt lat="45.971519742161036" lon="9.36215752735734">
        <ele>1583.9400000000001</ele>
        <time>2022-07-10T07:03:15Z</time>
      </trkpt>
      <trkpt lat="45.971505660563707" lon="9.362287782132626">
        <ele>1585.3399999999999</ele>
        <time>2022-07-10T07:03:30Z</time>
      </trkpt>
      <trkpt lat="45.971470708027482" lon="9.36241602525115">
        <ele>1587.1700000000001</ele>
        <time>2022-07-10T07:03:43Z</time>
      </trkpt>
      <trkpt lat="45.971425110474229" lon="9.362465981394053">
        <ele>1587.28</ele>
        <time>2022-07-10T07:03:49Z</time>
      </trkpt>
      <trkpt lat="45.971414633095264" lon="9.362471932545304">
        <ele>1587.0599999999999</ele>
        <time>2022-07-10T07:03:50Z</time>
      </trkpt>
      <trkpt lat="45.97140172496438" lon="9.36247805133462">
        <ele>1586.8399999999999</ele>
        <time>2022-07-10T07:03:51Z</time>
      </trkpt>
      <trkpt lat="45.971326204016805" lon="9.36252448707819">
        <ele>1586.45</ele>
        <time>2022-07-10T07:03:59Z</time>
      </trkpt>
      <trkpt lat="45.971315642818809" lon="9.362537898123264">
        <ele>1586.3</ele>
        <time>2022-07-10T07:04:00Z</time>
      </trkpt>
      <trkpt lat="45.971304997801781" lon="9.362551476806402">
        <ele>1586.23</ele>
        <time>2022-07-10T07:04:01Z</time>
      </trkpt>
      <trkpt lat="45.971296280622482" lon="9.362566731870174">
        <ele>1586.1800000000001</ele>
        <time>2022-07-10T07:04:02Z</time>
      </trkpt>
      <trkpt lat="45.971216401085258" lon="9.362701009958983">
        <ele>1586.27</ele>
        <time>2022-07-10T07:04:12Z</time>
      </trkpt>
      <trkpt lat="45.971169713884592" lon="9.362850375473499">
        <ele>1586.9100000000001</ele>
        <time>2022-07-10T07:04:23Z</time>
      </trkpt>
      <trkpt lat="45.971137946471572" lon="9.363028993830085">
        <ele>1588.1800000000001</ele>
        <time>2022-07-10T07:04:33Z</time>
      </trkpt>
      <trkpt lat="45.971131660044193" lon="9.363057492300868">
        <ele>1588.24</ele>
        <time>2022-07-10T07:04:34Z</time>
      </trkpt>
      <trkpt lat="45.971148759126663" lon="9.36305464245379">
        <ele>1588.54</ele>
        <time>2022-07-10T07:04:38Z</time>
      </trkpt>
      <trkpt lat="45.971115902066231" lon="9.363125050440431">
        <ele>1590.3099999999999</ele>
        <time>2022-07-10T07:04:50Z</time>
      </trkpt>
      <trkpt lat="45.971054462715983" lon="9.36314893886447">
        <ele>1591.55</ele>
        <time>2022-07-10T07:05:01Z</time>
      </trkpt>
      <trkpt lat="45.970969386398792" lon="9.363195793703198">
        <ele>1592.8900000000001</ele>
        <time>2022-07-10T07:05:18Z</time>
      </trkpt>
      <trkpt lat="45.970881627872586" lon="9.363223202526569">
        <ele>1594.8399999999999</ele>
        <time>2022-07-10T07:05:35Z</time>
      </trkpt>
      <trkpt lat="45.970795378088951" lon="9.36325547285378">
        <ele>1597.9000000000001</ele>
        <time>2022-07-10T07:05:52Z</time>
      </trkpt>
      <trkpt lat="45.970747182145715" lon="9.363344069570303">
        <ele>1600.9100000000001</ele>
        <time>2022-07-10T07:06:08Z</time>
      </trkpt>
      <trkpt lat="45.97074843943119" lon="9.36329947784543">
        <ele>1602.76</ele>
        <time>2022-07-10T07:06:24Z</time>
      </trkpt>
      <trkpt lat="45.970740644261241" lon="9.36318464577198">
        <ele>1605.75</ele>
        <time>2022-07-10T07:06:39Z</time>
      </trkpt>
      <trkpt lat="45.970740644261241" lon="9.363116081804037">
        <ele>1608.2</ele>
        <time>2022-07-10T07:06:53Z</time>
      </trkpt>
      <trkpt lat="45.970699908211827" lon="9.363092193379998">
        <ele>1611.22</ele>
        <time>2022-07-10T07:07:12Z</time>
      </trkpt>
      <trkpt lat="45.970702758058906" lon="9.363012816756964">
        <ele>1613.73</ele>
        <time>2022-07-10T07:07:27Z</time>
      </trkpt>
      <trkpt lat="45.970706697553396" lon="9.362940480932593">
        <ele>1616.3900000000001</ele>
        <time>2022-07-10T07:07:44Z</time>
      </trkpt>
      <trkpt lat="45.97066730260849" lon="9.362947521731257">
        <ele>1619.1199999999999</ele>
        <time>2022-07-10T07:07:59Z</time>
      </trkpt>
      <trkpt lat="45.970652718096972" lon="9.362911563366652">
        <ele>1621.4300000000001</ele>
        <time>2022-07-10T07:08:16Z</time>
      </trkpt>
      <trkpt lat="45.970609299838543" lon="9.362869821488857">
        <ele>1624.78</ele>
        <time>2022-07-10T07:08:33Z</time>
      </trkpt>
      <trkpt lat="45.970606869086623" lon="9.362789019942284">
        <ele>1627.02</ele>
        <time>2022-07-10T07:08:47Z</time>
      </trkpt>
      <trkpt lat="45.970624051988125" lon="9.362767729908228">
        <ele>1626.6099999999999</ele>
        <time>2022-07-10T07:09:02Z</time>
      </trkpt>
      <trkpt lat="45.970630422234535" lon="9.362763538956642">
        <ele>1626.3099999999999</ele>
        <time>2022-07-10T07:09:22Z</time>
      </trkpt>
      <trkpt lat="45.970628326758742" lon="9.362778877839446">
        <ele>1626.3800000000001</ele>
        <time>2022-07-10T07:09:35Z</time>
      </trkpt>
      <trkpt lat="45.970630841329694" lon="9.362797904759646">
        <ele>1626.3599999999999</ele>
        <time>2022-07-10T07:09:59Z</time>
      </trkpt>
      <trkpt lat="45.970640229061246" lon="9.36279765330255">
        <ele>1625.3099999999999</ele>
        <time>2022-07-10T07:10:13Z</time>
      </trkpt>
      <trkpt lat="45.970644587650895" lon="9.362794384360313">
        <ele>1626.05</ele>
        <time>2022-07-10T07:10:47Z</time>
      </trkpt>
      <trkpt lat="45.97063067369163" lon="9.362800922244787">
        <ele>1626.22</ele>
        <time>2022-07-10T07:11:06Z</time>
      </trkpt>
      <trkpt lat="45.97062723711133" lon="9.362806873396039">
        <ele>1626.26</ele>
        <time>2022-07-10T07:11:22Z</time>
      </trkpt>
      <trkpt lat="45.970621202141047" lon="9.362803855910897">
        <ele>1626.49</ele>
        <time>2022-07-10T07:11:40Z</time>
      </trkpt>
      <trkpt lat="45.970597146078944" lon="9.362824726849794">
        <ele>1625.8399999999999</ele>
        <time>2022-07-10T07:11:55Z</time>
      </trkpt>
      <trkpt lat="45.970607874915004" lon="9.36282011680305">
        <ele>1626.3099999999999</ele>
        <time>2022-07-10T07:12:16Z</time>
      </trkpt>
      <trkpt lat="45.970616424456239" lon="9.362827073782682">
        <ele>1625.5999999999999</ele>
        <time>2022-07-10T07:12:35Z</time>
      </trkpt>
      <trkpt lat="45.970619441941381" lon="9.362829169258475">
        <ele>1625.4400000000001</ele>
        <time>2022-07-10T07:12:49Z</time>
      </trkpt>
      <trkpt lat="45.970614664256573" lon="9.362819949164987">
        <ele>1626.01</ele>
        <time>2022-07-10T07:13:08Z</time>
      </trkpt>
      <trkpt lat="45.970584070309997" lon="9.362867306917906">
        <ele>1626.22</ele>
        <time>2022-07-10T07:13:21Z</time>
      </trkpt>
      <trkpt lat="45.970570659264922" lon="9.362881472334266">
        <ele>1626.22</ele>
        <time>2022-07-10T07:13:23Z</time>
      </trkpt>
      <trkpt lat="45.97056127153337" lon="9.362889938056469">
        <ele>1626.24</ele>
        <time>2022-07-10T07:13:24Z</time>
      </trkpt>
      <trkpt lat="45.970550207421184" lon="9.362898990511894">
        <ele>1626.0799999999999</ele>
        <time>2022-07-10T07:13:25Z</time>
      </trkpt>
      <trkpt lat="45.970424311235547" lon="9.363043662160635">
        <ele>1624</ele>
        <time>2022-07-10T07:13:38Z</time>
      </trkpt>
      <trkpt lat="45.970326159149408" lon="9.363226303830743">
        <ele>1623.55</ele>
        <time>2022-07-10T07:13:51Z</time>
      </trkpt>
      <trkpt lat="45.970276957377791" lon="9.363275589421392">
        <ele>1622.5999999999999</ele>
        <time>2022-07-10T07:13:58Z</time>
      </trkpt>
      <trkpt lat="45.970249129459262" lon="9.363312134519219">
        <ele>1622.4300000000001</ele>
        <time>2022-07-10T07:14:01Z</time>
      </trkpt>
      <trkpt lat="45.970126083120704" lon="9.363448843359947">
        <ele>1624.3499999999999</ele>
        <time>2022-07-10T07:14:18Z</time>
      </trkpt>
      <trkpt lat="45.970048634335399" lon="9.36353400349617">
        <ele>1625.0699999999999</ele>
        <time>2022-07-10T07:14:34Z</time>
      </trkpt>
      <trkpt lat="45.9699104167521" lon="9.363601813092828">
        <ele>1627.8399999999999</ele>
        <time>2022-07-10T07:14:51Z</time>
      </trkpt>
      <trkpt lat="45.969836572185159" lon="9.363639112561941">
        <ele>1630.9200000000001</ele>
        <time>2022-07-10T07:15:05Z</time>
      </trkpt>
      <trkpt lat="45.969802206382155" lon="9.36374606564641">
        <ele>1631.8</ele>
        <time>2022-07-10T07:15:20Z</time>
      </trkpt>
      <trkpt lat="45.969811929389834" lon="9.363812366500497">
        <ele>1630.73</ele>
        <time>2022-07-10T07:15:25Z</time>
      </trkpt>
      <trkpt lat="45.969811342656612" lon="9.363826448097825">
        <ele>1630.4100000000001</ele>
        <time>2022-07-10T07:15:26Z</time>
      </trkpt>
      <trkpt lat="45.969815533608198" lon="9.364017136394978">
        <ele>1629.3900000000001</ele>
        <time>2022-07-10T07:15:38Z</time>
      </trkpt>
      <trkpt lat="45.969794746488333" lon="9.364045467227697">
        <ele>1629.22</ele>
        <time>2022-07-10T07:15:54Z</time>
      </trkpt>
      <trkpt lat="45.969788711518049" lon="9.364072289317846">
        <ele>1628.8900000000001</ele>
        <time>2022-07-10T07:16:08Z</time>
      </trkpt>
      <trkpt lat="45.969802625477314" lon="9.364133644849062">
        <ele>1628.79</ele>
        <time>2022-07-10T07:16:15Z</time>
      </trkpt>
      <trkpt lat="45.969807151705027" lon="9.364148564636707">
        <ele>1628.6500000000001</ele>
        <time>2022-07-10T07:16:16Z</time>
      </trkpt>
      <trkpt lat="45.969830369576812" lon="9.364214362576604">
        <ele>1629</ele>
        <time>2022-07-10T07:16:27Z</time>
      </trkpt>
      <trkpt lat="45.969848474487662" lon="9.364295164123178">
        <ele>1629.1300000000001</ele>
        <time>2022-07-10T07:16:35Z</time>
      </trkpt>
      <trkpt lat="45.969879319891334" lon="9.364459197968245">
        <ele>1631.1400000000001</ele>
        <time>2022-07-10T07:16:49Z</time>
      </trkpt>
      <trkpt lat="45.969895496964455" lon="9.364577634260058">
        <ele>1632.8699999999999</ele>
        <time>2022-07-10T07:17:01Z</time>
      </trkpt>
      <trkpt lat="45.96987915225327" lon="9.36462608166039">
        <ele>1632.47</ele>
        <time>2022-07-10T07:17:05Z</time>
      </trkpt>
      <trkpt lat="45.969875045120716" lon="9.364653406664729">
        <ele>1632.1199999999999</ele>
        <time>2022-07-10T07:17:07Z</time>
      </trkpt>
      <trkpt lat="45.969871524721384" lon="9.364669835194945">
        <ele>1632.1099999999999</ele>
        <time>2022-07-10T07:17:08Z</time>
      </trkpt>
      <trkpt lat="45.969866076484323" lon="9.364684587344527">
        <ele>1632.3</ele>
        <time>2022-07-10T07:17:09Z</time>
      </trkpt>
      <trkpt lat="45.969791226089001" lon="9.364814506843686">
        <ele>1632.0899999999999</ele>
        <time>2022-07-10T07:17:22Z</time>
      </trkpt>
      <trkpt lat="45.969722913578153" lon="9.364903690293431">
        <ele>1635.0899999999999</ele>
        <time>2022-07-10T07:17:35Z</time>
      </trkpt>
      <trkpt lat="45.969667509198189" lon="9.36500527895987">
        <ele>1637.6500000000001</ele>
        <time>2022-07-10T07:17:51Z</time>
      </trkpt>
      <trkpt lat="45.969656025990844" lon="9.365012152120471">
        <ele>1638.3499999999999</ele>
        <time>2022-07-10T07:17:53Z</time>
      </trkpt>
      <trkpt lat="45.969576817005873" lon="9.365103682503104">
        <ele>1640.5599999999999</ele>
        <time>2022-07-10T07:18:09Z</time>
      </trkpt>
      <trkpt lat="45.969506492838264" lon="9.365159925073385">
        <ele>1643.6700000000001</ele>
        <time>2022-07-10T07:18:22Z</time>
      </trkpt>
      <trkpt lat="45.969428457319736" lon="9.365234775468707">
        <ele>1645.79</ele>
        <time>2022-07-10T07:18:37Z</time>
      </trkpt>
      <trkpt lat="45.969397444278002" lon="9.365300321951509">
        <ele>1648.05</ele>
        <time>2022-07-10T07:18:52Z</time>
      </trkpt>
      <trkpt lat="45.969373136758804" lon="9.365349942818284">
        <ele>1650.1500000000001</ele>
        <time>2022-07-10T07:19:05Z</time>
      </trkpt>
      <trkpt lat="45.969327790662646" lon="9.365468043833971">
        <ele>1651.72</ele>
        <time>2022-07-10T07:19:23Z</time>
      </trkpt>
      <trkpt lat="45.969280181452632" lon="9.365535518154502">
        <ele>1654.8299999999999</ele>
        <time>2022-07-10T07:19:37Z</time>
      </trkpt>
      <trkpt lat="45.969200134277344" lon="9.365585977211595">
        <ele>1657.98</ele>
        <time>2022-07-10T07:19:55Z</time>
      </trkpt>
      <trkpt lat="45.969120170921087" lon="9.365631239488721">
        <ele>1660.5</ele>
        <time>2022-07-10T07:20:11Z</time>
      </trkpt>
      <trkpt lat="45.969138024374843" lon="9.365722266957164">
        <ele>1662.96</ele>
        <time>2022-07-10T07:20:26Z</time>
      </trkpt>
      <trkpt lat="45.969118243083358" lon="9.365775156766176">
        <ele>1664.9300000000001</ele>
        <time>2022-07-10T07:20:40Z</time>
      </trkpt>
      <trkpt lat="45.969074321910739" lon="9.365788400173187">
        <ele>1668</ele>
        <time>2022-07-10T07:20:53Z</time>
      </trkpt>
      <trkpt lat="45.969045152887702" lon="9.365857634693384">
        <ele>1669.6400000000001</ele>
        <time>2022-07-10T07:21:08Z</time>
      </trkpt>
      <trkpt lat="45.969023443758488" lon="9.365920666605234">
        <ele>1671.72</ele>
        <time>2022-07-10T07:21:21Z</time>
      </trkpt>
      <trkpt lat="45.969006177037954" lon="9.366006329655647">
        <ele>1674.4300000000001</ele>
        <time>2022-07-10T07:21:35Z</time>
      </trkpt>
      <trkpt lat="45.968973571434617" lon="9.366100206971169">
        <ele>1676.5599999999999</ele>
        <time>2022-07-10T07:21:51Z</time>
      </trkpt>
      <trkpt lat="45.968910623341799" lon="9.366174470633268">
        <ele>1678.3399999999999</ele>
        <time>2022-07-10T07:22:06Z</time>
      </trkpt>
      <trkpt lat="45.968888411298394" lon="9.366250578314066">
        <ele>1680.8499999999999</ele>
        <time>2022-07-10T07:22:21Z</time>
      </trkpt>
      <trkpt lat="45.968837197870016" lon="9.366342024877667">
        <ele>1683.0699999999999</ele>
        <time>2022-07-10T07:22:37Z</time>
      </trkpt>
      <trkpt lat="45.96883300691843" lon="9.366416372358799">
        <ele>1684.4400000000001</ele>
        <time>2022-07-10T07:22:53Z</time>
      </trkpt>
      <trkpt lat="45.96878070384264" lon="9.366487869992852">
        <ele>1687.3</ele>
        <time>2022-07-10T07:23:10Z</time>
      </trkpt>
      <trkpt lat="45.968735609203577" lon="9.366525504738092">
        <ele>1688.6900000000001</ele>
        <time>2022-07-10T07:23:27Z</time>
      </trkpt>
      <trkpt lat="45.968700824305415" lon="9.366532629355788">
        <ele>1691.99</ele>
        <time>2022-07-10T07:23:40Z</time>
      </trkpt>
      <trkpt lat="45.968667464330792" lon="9.366526175290346">
        <ele>1693.3800000000001</ele>
        <time>2022-07-10T07:23:53Z</time>
      </trkpt>
      <trkpt lat="45.968601414933801" lon="9.366562636569142">
        <ele>1696.3199999999999</ele>
        <time>2022-07-10T07:24:10Z</time>
      </trkpt>
      <trkpt lat="45.968525223433971" lon="9.366592979058623">
        <ele>1699.02</ele>
        <time>2022-07-10T07:24:25Z</time>
      </trkpt>
      <trkpt lat="45.968445595353842" lon="9.36658644117415">
        <ele>1700.79</ele>
        <time>2022-07-10T07:24:40Z</time>
      </trkpt>
      <trkpt lat="45.968397818505764" lon="9.366590632125735">
        <ele>1703.3800000000001</ele>
        <time>2022-07-10T07:24:56Z</time>
      </trkpt>
      <trkpt lat="45.968361860141158" lon="9.366585854440928">
        <ele>1704.7</ele>
        <time>2022-07-10T07:25:09Z</time>
      </trkpt>
      <trkpt lat="45.968356495723128" lon="9.366597924381495">
        <ele>1704.9400000000001</ele>
        <time>2022-07-10T07:25:32Z</time>
      </trkpt>
      <trkpt lat="45.96832724288106" lon="9.366611754521728">
        <ele>1708.26</ele>
        <time>2022-07-10T07:25:44Z</time>
      </trkpt>
      <trkpt lat="45.968278124928474" lon="9.366590296849608">
        <ele>1709.8900000000001</ele>
        <time>2022-07-10T07:26:00Z</time>
      </trkpt>
      <trkpt lat="45.968265049159527" lon="9.366618376225233">
        <ele>1710.1900000000001</ele>
        <time>2022-07-10T07:26:12Z</time>
      </trkpt>
      <trkpt lat="45.968265049159527" lon="9.366624159738421">
        <ele>1709.7</ele>
        <time>2022-07-10T07:26:38Z</time>
      </trkpt>
      <trkpt lat="45.968257589265704" lon="9.366628518328071">
        <ele>1709.8</ele>
        <time>2022-07-10T07:26:53Z</time>
      </trkpt>
      <trkpt lat="45.968220038339496" lon="9.366691382601857">
        <ele>1711.9100000000001</ele>
        <time>2022-07-10T07:27:04Z</time>
      </trkpt>
      <trkpt lat="45.968148373067379" lon="9.366776375100017">
        <ele>1714.6700000000001</ele>
        <time>2022-07-10T07:27:21Z</time>
      </trkpt>
      <trkpt lat="45.968105709180236" lon="9.366835886612535">
        <ele>1716.95</ele>
        <time>2022-07-10T07:27:39Z</time>
      </trkpt>
      <trkpt lat="45.968070840463042" lon="9.36686740256846">
        <ele>1718.7</ele>
        <time>2022-07-10T07:27:55Z</time>
      </trkpt>
      <trkpt lat="45.968057094141841" lon="9.366917526349425">
        <ele>1721.3099999999999</ele>
        <time>2022-07-10T07:28:08Z</time>
      </trkpt>
      <trkpt lat="45.968002863228321" lon="9.366950802505016">
        <ele>1724.3599999999999</ele>
        <time>2022-07-10T07:28:20Z</time>
      </trkpt>
      <trkpt lat="45.967958942055702" lon="9.367025485262275">
        <ele>1727.4100000000001</ele>
        <time>2022-07-10T07:28:37Z</time>
      </trkpt>
      <trkpt lat="45.967894066125154" lon="9.367134952917695">
        <ele>1729.27</ele>
        <time>2022-07-10T07:28:56Z</time>
      </trkpt>
      <trkpt lat="45.967836147174239" lon="9.367180382832885">
        <ele>1730.71</ele>
        <time>2022-07-10T07:29:08Z</time>
      </trkpt>
      <trkpt lat="45.967821897938848" lon="9.367192620411515">
        <ele>1730.6300000000001</ele>
        <time>2022-07-10T07:29:10Z</time>
      </trkpt>
      <trkpt lat="45.967756099998951" lon="9.367261854931712">
        <ele>1730.6099999999999</ele>
        <time>2022-07-10T07:29:23Z</time>
      </trkpt>
      <trkpt lat="45.967744784429669" lon="9.367272919043899">
        <ele>1733.9300000000001</ele>
        <time>2022-07-10T07:29:25Z</time>
      </trkpt>
      <trkpt lat="45.967737827450037" lon="9.367276104167104">
        <ele>1732.8199999999999</ele>
        <time>2022-07-10T07:29:26Z</time>
      </trkpt>
      <trkpt lat="45.967661384493113" lon="9.367275014519692">
        <ele>1734.25</ele>
        <time>2022-07-10T07:29:40Z</time>
      </trkpt>
      <trkpt lat="45.96758452244103" lon="9.367328071966767">
        <ele>1737.3099999999999</ele>
        <time>2022-07-10T07:29:57Z</time>
      </trkpt>
      <trkpt lat="45.967551916837692" lon="9.367357408627868">
        <ele>1738.8</ele>
        <time>2022-07-10T07:30:10Z</time>
      </trkpt>
      <trkpt lat="45.967493494972587" lon="9.36745279468596">
        <ele>1741.51</ele>
        <time>2022-07-10T07:30:27Z</time>
      </trkpt>
      <trkpt lat="45.967445131391287" lon="9.36752412468195">
        <ele>1743.3199999999999</ele>
        <time>2022-07-10T07:30:40Z</time>
      </trkpt>
      <trkpt lat="45.967400120571256" lon="9.367549521848559">
        <ele>1744.6300000000001</ele>
        <time>2022-07-10T07:30:52Z</time>
      </trkpt>
      <trkpt lat="45.967393582686782" lon="9.367545917630196">
        <ele>1744.3199999999999</ele>
        <time>2022-07-10T07:31:09Z</time>
      </trkpt>
      <trkpt lat="45.967351170256734" lon="9.367551114410162">
        <ele>1743.72</ele>
        <time>2022-07-10T07:31:23Z</time>
      </trkpt>
      <trkpt lat="45.967282690107822" lon="9.367583971470594">
        <ele>1744.27</ele>
        <time>2022-07-10T07:31:36Z</time>
      </trkpt>
      <trkpt lat="45.967214964330196" lon="9.367590006440878">
        <ele>1745.8299999999999</ele>
        <time>2022-07-10T07:31:52Z</time>
      </trkpt>
      <trkpt lat="45.96721270121634" lon="9.367600232362747">
        <ele>1746.8</ele>
        <time>2022-07-10T07:32:09Z</time>
      </trkpt>
      <trkpt lat="45.967261148616672" lon="9.367616409435868">
        <ele>1748.97</ele>
        <time>2022-07-10T07:32:25Z</time>
      </trkpt>
      <trkpt lat="45.967316636815667" lon="9.367651361972094">
        <ele>1751.75</ele>
        <time>2022-07-10T07:32:42Z</time>
      </trkpt>
      <trkpt lat="45.967284785583615" lon="9.367737360298634">
        <ele>1754.75</ele>
        <time>2022-07-10T07:33:02Z</time>
      </trkpt>
      <trkpt lat="45.967256790027022" lon="9.367789914831519">
        <ele>1757.1400000000001</ele>
        <time>2022-07-10T07:33:17Z</time>
      </trkpt>
      <trkpt lat="45.967291994020343" lon="9.367775833234191">
        <ele>1759.01</ele>
        <time>2022-07-10T07:33:29Z</time>
      </trkpt>
      <trkpt lat="45.96730649471283" lon="9.367792429402471">
        <ele>1762.1099999999999</ele>
        <time>2022-07-10T07:33:41Z</time>
      </trkpt>
      <trkpt lat="45.967331891879439" lon="9.367780443280935">
        <ele>1763.53</ele>
        <time>2022-07-10T07:33:47Z</time>
      </trkpt>
      <trkpt lat="45.967353349551558" lon="9.36778019182384">
        <ele>1764.6800000000001</ele>
        <time>2022-07-10T07:33:55Z</time>
      </trkpt>
      <trkpt lat="45.967386541888118" lon="9.367781197652221">
        <ele>1765.5899999999999</ele>
        <time>2022-07-10T07:34:03Z</time>
      </trkpt>
      <trkpt lat="45.967368017882109" lon="9.367829477414489">
        <ele>1767.54</ele>
        <time>2022-07-10T07:34:16Z</time>
      </trkpt>
      <trkpt lat="45.967335999011993" lon="9.36790969222784">
        <ele>1768.7</ele>
        <time>2022-07-10T07:34:29Z</time>
      </trkpt>
      <trkpt lat="45.967307249084115" lon="9.367964258417487">
        <ele>1770.5</ele>
        <time>2022-07-10T07:34:42Z</time>
      </trkpt>
      <trkpt lat="45.967291491106153" lon="9.367981273680925">
        <ele>1772.5899999999999</ele>
        <time>2022-07-10T07:34:53Z</time>
      </trkpt>
      <trkpt lat="45.967262573540211" lon="9.368027793243527">
        <ele>1774.3499999999999</ele>
        <time>2022-07-10T07:35:04Z</time>
      </trkpt>
      <trkpt lat="45.967245139181614" lon="9.36805285513401">
        <ele>1775.5799999999999</ele>
        <time>2022-07-10T07:35:15Z</time>
      </trkpt>
      <trkpt lat="45.967260813340545" lon="9.368090908974409">
        <ele>1777.2</ele>
        <time>2022-07-10T07:35:25Z</time>
      </trkpt>
      <trkpt lat="45.967225860804319" lon="9.368105828762054">
        <ele>1778.0599999999999</ele>
        <time>2022-07-10T07:35:37Z</time>
      </trkpt>
      <trkpt lat="45.967169869691133" lon="9.368170453235507">
        <ele>1780.5999999999999</ele>
        <time>2022-07-10T07:35:53Z</time>
      </trkpt>
      <trkpt lat="45.967161655426025" lon="9.368153186514974">
        <ele>1782.3</ele>
        <time>2022-07-10T07:36:03Z</time>
      </trkpt>
      <trkpt lat="45.967099126428366" lon="9.368194425478578">
        <ele>1785.1600000000001</ele>
        <time>2022-07-10T07:36:16Z</time>
      </trkpt>
      <trkpt lat="45.967066437005997" lon="9.368223929777741">
        <ele>1788.4100000000001</ele>
        <time>2022-07-10T07:36:32Z</time>
      </trkpt>
      <trkpt lat="45.967028634622693" lon="9.368211776018143">
        <ele>1790.3399999999999</ele>
        <time>2022-07-10T07:36:45Z</time>
      </trkpt>
      <trkpt lat="45.967025198042393" lon="9.368214709684253">
        <ele>1790.55</ele>
        <time>2022-07-10T07:36:46Z</time>
      </trkpt>
      <trkpt lat="45.967001309618354" lon="9.368247482925654">
        <ele>1791.1900000000001</ele>
        <time>2022-07-10T07:37:02Z</time>
      </trkpt>
      <trkpt lat="45.96699770539999" lon="9.368256786838174">
        <ele>1790.78</ele>
        <time>2022-07-10T07:37:20Z</time>
      </trkpt>
      <trkpt lat="45.966995190829039" lon="9.368264582008123">
        <ele>1790.24</ele>
        <time>2022-07-10T07:37:38Z</time>
      </trkpt>
      <trkpt lat="45.966987814754248" lon="9.368266006931663">
        <ele>1790.6600000000001</ele>
        <time>2022-07-10T07:37:59Z</time>
      </trkpt>
      <trkpt lat="45.966960741207004" lon="9.368307581171393">
        <ele>1790.71</ele>
        <time>2022-07-10T07:38:16Z</time>
      </trkpt>
      <trkpt lat="45.966893099248409" lon="9.368383269757032">
        <ele>1791.4100000000001</ele>
        <time>2022-07-10T07:38:30Z</time>
      </trkpt>
      <trkpt lat="45.966829564422369" lon="9.368451749905944">
        <ele>1793.02</ele>
        <time>2022-07-10T07:38:45Z</time>
      </trkpt>
      <trkpt lat="45.966769214719534" lon="9.368619304150343">
        <ele>1795.21</ele>
        <time>2022-07-10T07:39:03Z</time>
      </trkpt>
      <trkpt lat="45.966756138950586" lon="9.368722820654512">
        <ele>1795.8699999999999</ele>
        <time>2022-07-10T07:39:17Z</time>
      </trkpt>
      <trkpt lat="45.966764856129885" lon="9.368772860616446">
        <ele>1794.9200000000001</ele>
        <time>2022-07-10T07:39:30Z</time>
      </trkpt>
      <trkpt lat="45.966779105365276" lon="9.368863301351667">
        <ele>1795.6099999999999</ele>
        <time>2022-07-10T07:39:43Z</time>
      </trkpt>
      <trkpt lat="45.966800479218364" lon="9.368918789550662">
        <ele>1796.9100000000001</ele>
        <time>2022-07-10T07:39:58Z</time>
      </trkpt>
      <trkpt lat="45.966816572472453" lon="9.3689358048141">
        <ele>1797.04</ele>
        <time>2022-07-10T07:40:11Z</time>
      </trkpt>
      <trkpt lat="45.966839957982302" lon="9.368954747915268">
        <ele>1796.2</ele>
        <time>2022-07-10T07:40:24Z</time>
      </trkpt>
      <trkpt lat="45.966852866113186" lon="9.368986934423447">
        <ele>1795.4400000000001</ele>
        <time>2022-07-10T07:40:34Z</time>
      </trkpt>
      <trkpt lat="45.966866360977292" lon="9.369001099839807">
        <ele>1795.22</ele>
        <time>2022-07-10T07:40:41Z</time>
      </trkpt>
      <trkpt lat="45.966863594949245" lon="9.369004368782044">
        <ele>1795.8399999999999</ele>
        <time>2022-07-10T07:40:49Z</time>
      </trkpt>
      <trkpt lat="45.966880023479462" lon="9.369027754291892">
        <ele>1795.7</ele>
        <time>2022-07-10T07:41:00Z</time>
      </trkpt>
      <trkpt lat="45.966900223866105" lon="9.369096904993057">
        <ele>1796.3900000000001</ele>
        <time>2022-07-10T07:41:12Z</time>
      </trkpt>
      <trkpt lat="45.966904498636723" lon="9.369159685447812">
        <ele>1795.23</ele>
        <time>2022-07-10T07:41:24Z</time>
      </trkpt>
      <trkpt lat="45.966902319341898" lon="9.369187764823437">
        <ele>1794.5699999999999</ele>
        <time>2022-07-10T07:41:39Z</time>
      </trkpt>
      <trkpt lat="45.966904666274786" lon="9.36921969987452">
        <ele>1794.48</ele>
        <time>2022-07-10T07:42:00Z</time>
      </trkpt>
      <trkpt lat="45.966910952702165" lon="9.369257669895887">
        <ele>1794.79</ele>
        <time>2022-07-10T07:42:09Z</time>
      </trkpt>
      <trkpt lat="45.966910282149911" lon="9.369276445358992">
        <ele>1794.96</ele>
        <time>2022-07-10T07:42:22Z</time>
      </trkpt>
      <trkpt lat="45.966929979622364" lon="9.369277283549309">
        <ele>1795.7</ele>
        <time>2022-07-10T07:42:35Z</time>
      </trkpt>
      <trkpt lat="45.966928135603666" lon="9.369293795898557">
        <ele>1795.0999999999999</ele>
        <time>2022-07-10T07:42:51Z</time>
      </trkpt>
      <trkpt lat="45.966931907460093" lon="9.369303351268172">
        <ele>1794.7</ele>
        <time>2022-07-10T07:43:11Z</time>
      </trkpt>
      <trkpt lat="45.966926878318191" lon="9.369353642687202">
        <ele>1793.4100000000001</ele>
        <time>2022-07-10T07:43:32Z</time>
      </trkpt>
      <trkpt lat="45.966928638517857" lon="9.369371244683862">
        <ele>1793.3499999999999</ele>
        <time>2022-07-10T07:43:33Z</time>
      </trkpt>
      <trkpt lat="45.96691220998764" lon="9.369577188044787">
        <ele>1791.98</ele>
        <time>2022-07-10T07:43:46Z</time>
      </trkpt>
      <trkpt lat="45.966880610212684" lon="9.369728649035096">
        <ele>1792.0599999999999</ele>
        <time>2022-07-10T07:43:59Z</time>
      </trkpt>
      <trkpt lat="45.966884633526206" lon="9.36979285441339">
        <ele>1792.45</ele>
        <time>2022-07-10T07:44:11Z</time>
      </trkpt>
      <trkpt lat="45.966850770637393" lon="9.369906345382333">
        <ele>1790.53</ele>
        <time>2022-07-10T07:44:24Z</time>
      </trkpt>
      <trkpt lat="45.966822355985641" lon="9.370030146092176">
        <ele>1790.1700000000001</ele>
        <time>2022-07-10T07:44:37Z</time>
      </trkpt>
      <trkpt lat="45.966801065951586" lon="9.370151096954942">
        <ele>1789.8900000000001</ele>
        <time>2022-07-10T07:44:49Z</time>
      </trkpt>
      <trkpt lat="45.966801233589649" lon="9.370167525485158">
        <ele>1789.8599999999999</ele>
        <time>2022-07-10T07:44:50Z</time>
      </trkpt>
      <trkpt lat="45.966801233589649" lon="9.370185630396009">
        <ele>1789.8099999999999</ele>
        <time>2022-07-10T07:44:51Z</time>
      </trkpt>
      <trkpt lat="45.966786229982972" lon="9.370331559330225">
        <ele>1790.8900000000001</ele>
        <time>2022-07-10T07:45:04Z</time>
      </trkpt>
      <trkpt lat="45.966784302145243" lon="9.370357459411025">
        <ele>1791.1600000000001</ele>
        <time>2022-07-10T07:45:06Z</time>
      </trkpt>
      <trkpt lat="45.966787403449416" lon="9.370490815490484">
        <ele>1793.3199999999999</ele>
        <time>2022-07-10T07:45:19Z</time>
      </trkpt>
      <trkpt lat="45.966785391792655" lon="9.370515961199999">
        <ele>1793.76</ele>
        <time>2022-07-10T07:45:21Z</time>
      </trkpt>
      <trkpt lat="45.966766281053424" lon="9.370657112449408">
        <ele>1794.8599999999999</ele>
        <time>2022-07-10T07:45:33Z</time>
      </trkpt>
      <trkpt lat="45.966755887493491" lon="9.370807064697146">
        <ele>1796.9000000000001</ele>
        <time>2022-07-10T07:45:47Z</time>
      </trkpt>
      <trkpt lat="45.966732837259769" lon="9.37086682766676">
        <ele>1797.8900000000001</ele>
        <time>2022-07-10T07:45:59Z</time>
      </trkpt>
      <trkpt lat="45.966733507812023" lon="9.370883759111166">
        <ele>1797.9100000000001</ele>
        <time>2022-07-10T07:46:16Z</time>
      </trkpt>
      <trkpt lat="45.966735603287816" lon="9.370896331965923">
        <ele>1798.0899999999999</ele>
        <time>2022-07-10T07:46:32Z</time>
      </trkpt>
      <trkpt lat="45.966741973534226" lon="9.370897589251399">
        <ele>1798.0999999999999</ele>
        <time>2022-07-10T07:46:52Z</time>
      </trkpt>
      <trkpt lat="45.966740800067782" lon="9.370901361107826">
        <ele>1798.7</ele>
        <time>2022-07-10T07:47:18Z</time>
      </trkpt>
      <trkpt lat="45.966740632429719" lon="9.370909240096808">
        <ele>1798.6700000000001</ele>
        <time>2022-07-10T07:47:44Z</time>
      </trkpt>
      <trkpt lat="45.96674021333456" lon="9.370943186804652">
        <ele>1798.6500000000001</ele>
        <time>2022-07-10T07:47:55Z</time>
      </trkpt>
      <trkpt lat="45.966681456193328" lon="9.371052654460073">
        <ele>1799.99</ele>
        <time>2022-07-10T07:48:08Z</time>
      </trkpt>
      <trkpt lat="45.966628734022379" lon="9.371164888143539">
        <ele>1803.1199999999999</ele>
        <time>2022-07-10T07:48:23Z</time>
      </trkpt>
      <trkpt lat="45.966576850041747" lon="9.37127972021699">
        <ele>1805.1300000000001</ele>
        <time>2022-07-10T07:48:37Z</time>
      </trkpt>
      <trkpt lat="45.96652957610786" lon="9.371392708271742">
        <ele>1807.3399999999999</ele>
        <time>2022-07-10T07:48:50Z</time>
      </trkpt>
      <trkpt lat="45.966472746804357" lon="9.371471079066396">
        <ele>1809.98</ele>
        <time>2022-07-10T07:49:04Z</time>
      </trkpt>
      <trkpt lat="45.966419856995344" lon="9.371519275009632">
        <ele>1812.4000000000001</ele>
        <time>2022-07-10T07:49:19Z</time>
      </trkpt>
      <trkpt lat="45.966366212815046" lon="9.371583480387926">
        <ele>1814.49</ele>
        <time>2022-07-10T07:49:35Z</time>
      </trkpt>
      <trkpt lat="45.966312987729907" lon="9.371655732393265">
        <ele>1816.4300000000001</ele>
        <time>2022-07-10T07:49:47Z</time>
      </trkpt>
      <trkpt lat="45.966271748766303" lon="9.371703173965216">
        <ele>1818.48</ele>
        <time>2022-07-10T07:50:00Z</time>
      </trkpt>
      <trkpt lat="45.966245094314218" lon="9.371781460940838">
        <ele>1819.71</ele>
        <time>2022-07-10T07:50:13Z</time>
      </trkpt>
      <trkpt lat="45.966233611106873" lon="9.371772995218635">
        <ele>1821.03</ele>
        <time>2022-07-10T07:50:16Z</time>
      </trkpt>
      <trkpt lat="45.966211818158627" lon="9.371826555579901">
        <ele>1822.77</ele>
        <time>2022-07-10T07:50:29Z</time>
      </trkpt>
      <trkpt lat="45.966159095987678" lon="9.37183627858758">
        <ele>1825.4000000000001</ele>
        <time>2022-07-10T07:50:44Z</time>
      </trkpt>
      <trkpt lat="45.966129088774323" lon="9.371872404590249">
        <ele>1827.23</ele>
        <time>2022-07-10T07:50:58Z</time>
      </trkpt>
      <trkpt lat="45.966084664687514" lon="9.371912973001599">
        <ele>1829.2</ele>
        <time>2022-07-10T07:51:10Z</time>
      </trkpt>
      <trkpt lat="45.966031439602375" lon="9.371932754293084">
        <ele>1831.6500000000001</ele>
        <time>2022-07-10T07:51:26Z</time>
      </trkpt>
      <trkpt lat="45.965992296114564" lon="9.371958822011948">
        <ele>1833.6500000000001</ele>
        <time>2022-07-10T07:51:41Z</time>
      </trkpt>
      <trkpt lat="45.965957175940275" lon="9.371986817568541">
        <ele>1835.72</ele>
        <time>2022-07-10T07:51:54Z</time>
      </trkpt>
      <trkpt lat="45.965948710218072" lon="9.372005173936486">
        <ele>1836.6700000000001</ele>
        <time>2022-07-10T07:52:07Z</time>
      </trkpt>
      <trkpt lat="45.965912248939276" lon="9.372012801468372">
        <ele>1838.0699999999999</ele>
        <time>2022-07-10T07:52:19Z</time>
      </trkpt>
      <trkpt lat="45.965891880914569" lon="9.37202537432313">
        <ele>1839.72</ele>
        <time>2022-07-10T07:52:26Z</time>
      </trkpt>
      <trkpt lat="45.965858269482851" lon="9.372075330466032">
        <ele>1841.8399999999999</ele>
        <time>2022-07-10T07:52:39Z</time>
      </trkpt>
      <trkpt lat="45.965842679142952" lon="9.372092010453343">
        <ele>1843.02</ele>
        <time>2022-07-10T07:52:53Z</time>
      </trkpt>
      <trkpt lat="45.965818036347628" lon="9.372116820886731">
        <ele>1844.22</ele>
        <time>2022-07-10T07:53:11Z</time>
      </trkpt>
      <trkpt lat="45.965761542320251" lon="9.372132159769535">
        <ele>1847.24</ele>
        <time>2022-07-10T07:53:24Z</time>
      </trkpt>
      <trkpt lat="45.965696582570672" lon="9.372171135619283">
        <ele>1848.9000000000001</ele>
        <time>2022-07-10T07:53:37Z</time>
      </trkpt>
      <trkpt lat="45.965630952268839" lon="9.372196616604924">
        <ele>1850.3</ele>
        <time>2022-07-10T07:53:50Z</time>
      </trkpt>
      <trkpt lat="45.965619971975684" lon="9.372229306027293">
        <ele>1851.21</ele>
        <time>2022-07-10T07:54:01Z</time>
      </trkpt>
      <trkpt lat="45.965591389685869" lon="9.37224380671978">
        <ele>1852.55</ele>
        <time>2022-07-10T07:54:16Z</time>
      </trkpt>
      <trkpt lat="45.965546043589711" lon="9.372268281877041">
        <ele>1855.6900000000001</ele>
        <time>2022-07-10T07:54:30Z</time>
      </trkpt>
      <trkpt lat="45.965507151558995" lon="9.372333660721779">
        <ele>1857.27</ele>
        <time>2022-07-10T07:54:42Z</time>
      </trkpt>
      <trkpt lat="45.965463733300567" lon="9.372356710955501">
        <ele>1859.3</ele>
        <time>2022-07-10T07:54:56Z</time>
      </trkpt>
      <trkpt lat="45.965451914817095" lon="9.372407170012593">
        <ele>1861.0999999999999</ele>
        <time>2022-07-10T07:55:08Z</time>
      </trkpt>
      <trkpt lat="45.965434312820435" lon="9.372437177225947">
        <ele>1862.97</ele>
        <time>2022-07-10T07:55:19Z</time>
      </trkpt>
      <trkpt lat="45.965413693338633" lon="9.372488223016262">
        <ele>1864.54</ele>
        <time>2022-07-10T07:55:33Z</time>
      </trkpt>
      <trkpt lat="45.965414363890886" lon="9.372495263814926">
        <ele>1864.9100000000001</ele>
        <time>2022-07-10T07:55:51Z</time>
      </trkpt>
      <trkpt lat="45.965403551235795" lon="9.372545806691051">
        <ele>1866</ele>
        <time>2022-07-10T07:56:05Z</time>
      </trkpt>
      <trkpt lat="45.965406149625778" lon="9.372575227171183">
        <ele>1866.77</ele>
        <time>2022-07-10T07:56:17Z</time>
      </trkpt>
      <trkpt lat="45.965370442718267" lon="9.372587129473686">
        <ele>1868.95</ele>
        <time>2022-07-10T07:56:28Z</time>
      </trkpt>
      <trkpt lat="45.965350409969687" lon="9.372601546347141">
        <ele>1869.9200000000001</ele>
        <time>2022-07-10T07:56:39Z</time>
      </trkpt>
      <trkpt lat="45.965281343087554" lon="9.372580926865339">
        <ele>1872.6600000000001</ele>
        <time>2022-07-10T07:56:56Z</time>
      </trkpt>
      <trkpt lat="45.965230045840144" lon="9.372554440051317">
        <ele>1874.73</ele>
        <time>2022-07-10T07:57:08Z</time>
      </trkpt>
      <trkpt lat="45.96518293954432" lon="9.37253356911242">
        <ele>1877.3900000000001</ele>
        <time>2022-07-10T07:57:20Z</time>
      </trkpt>
      <trkpt lat="45.965161146596074" lon="9.372560726478696">
        <ele>1878.8399999999999</ele>
        <time>2022-07-10T07:57:33Z</time>
      </trkpt>
      <trkpt lat="45.965110436081886" lon="9.372581848874688">
        <ele>1881.3099999999999</ele>
        <time>2022-07-10T07:57:45Z</time>
      </trkpt>
      <trkpt lat="45.965081518515944" lon="9.372612191364169">
        <ele>1883.0999999999999</ele>
        <time>2022-07-10T07:57:56Z</time>
      </trkpt>
      <trkpt lat="45.965036423876882" lon="9.372591152787209">
        <ele>1885.1500000000001</ele>
        <time>2022-07-10T07:58:08Z</time>
      </trkpt>
      <trkpt lat="45.964993759989738" lon="9.372618645429611">
        <ele>1887.4200000000001</ele>
        <time>2022-07-10T07:58:20Z</time>
      </trkpt>
      <trkpt lat="45.964957214891911" lon="9.372617555782199">
        <ele>1889.3299999999999</ele>
        <time>2022-07-10T07:58:34Z</time>
      </trkpt>
      <trkpt lat="45.964913126081228" lon="9.372616298496723">
        <ele>1891.8199999999999</ele>
        <time>2022-07-10T07:58:46Z</time>
      </trkpt>
      <trkpt lat="45.964912790805101" lon="9.37262593768537">
        <ele>1892.74</ele>
        <time>2022-07-10T07:59:01Z</time>
      </trkpt>
      <trkpt lat="45.964911114424467" lon="9.372631553560495">
        <ele>1892.4200000000001</ele>
        <time>2022-07-10T07:59:18Z</time>
      </trkpt>
      <trkpt lat="45.964916395023465" lon="9.37262593768537">
        <ele>1892.98</ele>
        <time>2022-07-10T07:59:38Z</time>
      </trkpt>
      <trkpt lat="45.964915892109275" lon="9.372628452256322">
        <ele>1893.3099999999999</ele>
        <time>2022-07-10T07:59:58Z</time>
      </trkpt>
      <trkpt lat="45.964888483285904" lon="9.372625099495053">
        <ele>1894.4400000000001</ele>
        <time>2022-07-10T08:00:13Z</time>
      </trkpt>
      <trkpt lat="45.964882029220462" lon="9.372703721746802">
        <ele>1896.05</ele>
        <time>2022-07-10T08:00:25Z</time>
      </trkpt>
      <trkpt lat="45.964837605133653" lon="9.372778739780188">
        <ele>1898.3699999999999</ele>
        <time>2022-07-10T08:00:38Z</time>
      </trkpt>
      <trkpt lat="45.964794103056192" lon="9.372805058956146">
        <ele>1901.1800000000001</ele>
        <time>2022-07-10T08:00:52Z</time>
      </trkpt>
      <trkpt lat="45.964773986488581" lon="9.372772369533777">
        <ele>1903.47</ele>
        <time>2022-07-10T08:01:02Z</time>
      </trkpt>
      <trkpt lat="45.964754289016128" lon="9.3727539293468">
        <ele>1906.27</ele>
        <time>2022-07-10T08:01:14Z</time>
      </trkpt>
      <trkpt lat="45.964732663705945" lon="9.372719144448638">
        <ele>1908.4000000000001</ele>
        <time>2022-07-10T08:01:29Z</time>
      </trkpt>
      <trkpt lat="45.964696537703276" lon="9.372714953497052">
        <ele>1911.01</ele>
        <time>2022-07-10T08:01:42Z</time>
      </trkpt>
      <trkpt lat="45.964669296517968" lon="9.372692238539457">
        <ele>1913.6800000000001</ele>
        <time>2022-07-10T08:01:53Z</time>
      </trkpt>
      <trkpt lat="45.964605174958706" lon="9.372728113085032">
        <ele>1913.9200000000001</ele>
        <time>2022-07-10T08:02:07Z</time>
      </trkpt>
      <trkpt lat="45.964543987065554" lon="9.372696597129107">
        <ele>1917.1900000000001</ele>
        <time>2022-07-10T08:02:19Z</time>
      </trkpt>
      <trkpt lat="45.964515656232834" lon="9.372750828042626">
        <ele>1918.1099999999999</ele>
        <time>2022-07-10T08:02:32Z</time>
      </trkpt>
      <trkpt lat="45.964481206610799" lon="9.372779410332441">
        <ele>1920.9100000000001</ele>
        <time>2022-07-10T08:02:45Z</time>
      </trkpt>
      <trkpt lat="45.96444608643651" lon="9.372795838862658">
        <ele>1923.3800000000001</ele>
        <time>2022-07-10T08:02:57Z</time>
      </trkpt>
      <trkpt lat="45.964418677613139" lon="9.372826600447297">
        <ele>1924.8800000000001</ele>
        <time>2022-07-10T08:03:11Z</time>
      </trkpt>
      <trkpt lat="45.964400740340352" lon="9.372801035642624">
        <ele>1926.0799999999999</ele>
        <time>2022-07-10T08:03:30Z</time>
      </trkpt>
      <trkpt lat="45.964354136958718" lon="9.372825007885695">
        <ele>1928.0899999999999</ele>
        <time>2022-07-10T08:03:42Z</time>
      </trkpt>
      <trkpt lat="45.964319352060556" lon="9.372880915179849">
        <ele>1931.27</ele>
        <time>2022-07-10T08:03:55Z</time>
      </trkpt>
      <trkpt lat="45.964269647374749" lon="9.372867085039616">
        <ele>1933.51</ele>
        <time>2022-07-10T08:04:09Z</time>
      </trkpt>
      <trkpt lat="45.964244920760393" lon="9.372953418642283">
        <ele>1936.4400000000001</ele>
        <time>2022-07-10T08:04:24Z</time>
      </trkpt>
      <trkpt lat="45.964221619069576" lon="9.373031705617905">
        <ele>1935.8099999999999</ele>
        <time>2022-07-10T08:04:34Z</time>
      </trkpt>
      <trkpt lat="45.964184990152717" lon="9.373127426952124">
        <ele>1935.98</ele>
        <time>2022-07-10T08:04:48Z</time>
      </trkpt>
      <trkpt lat="45.964138470590115" lon="9.373243767768145">
        <ele>1935.0999999999999</ele>
        <time>2022-07-10T08:05:01Z</time>
      </trkpt>
      <trkpt lat="45.964131597429514" lon="9.373254748061299">
        <ele>1936.3699999999999</ele>
        <time>2022-07-10T08:05:16Z</time>
      </trkpt>
      <trkpt lat="45.964092453941703" lon="9.373282659798861">
        <ele>1937.3499999999999</ele>
        <time>2022-07-10T08:05:29Z</time>
      </trkpt>
      <trkpt lat="45.964070577174425" lon="9.373357761651278">
        <ele>1936.3199999999999</ele>
        <time>2022-07-10T08:05:37Z</time>
      </trkpt>
      <trkpt lat="45.964065715670586" lon="9.373374106362462">
        <ele>1935.8399999999999</ele>
        <time>2022-07-10T08:05:38Z</time>
      </trkpt>
      <trkpt lat="45.964059764519334" lon="9.3733876850456">
        <ele>1935.8800000000001</ele>
        <time>2022-07-10T08:05:39Z</time>
      </trkpt>
      <trkpt lat="45.964003521949053" lon="9.373436300083995">
        <ele>1937.8800000000001</ele>
        <time>2022-07-10T08:05:51Z</time>
      </trkpt>
      <trkpt lat="45.963973430916667" lon="9.373473431915045">
        <ele>1938.4100000000001</ele>
        <time>2022-07-10T08:06:12Z</time>
      </trkpt>
      <trkpt lat="45.963967312127352" lon="9.373472258448601">
        <ele>1938.4200000000001</ele>
        <time>2022-07-10T08:06:24Z</time>
      </trkpt>
      <trkpt lat="45.963948117569089" lon="9.373479718342423">
        <ele>1938.9300000000001</ele>
        <time>2022-07-10T08:06:39Z</time>
      </trkpt>
      <trkpt lat="45.963948117569089" lon="9.373478796333075">
        <ele>1938.77</ele>
        <time>2022-07-10T08:06:55Z</time>
      </trkpt>
      <trkpt lat="45.96392422914505" lon="9.373535206541419">
        <ele>1939.8399999999999</ele>
        <time>2022-07-10T08:07:05Z</time>
      </trkpt>
      <trkpt lat="45.963898915797472" lon="9.373543588444591">
        <ele>1942.6300000000001</ele>
        <time>2022-07-10T08:07:18Z</time>
      </trkpt>
      <trkpt lat="45.963819874450564" lon="9.373596645891666">
        <ele>1944.97</ele>
        <time>2022-07-10T08:07:34Z</time>
      </trkpt>
      <trkpt lat="45.963771007955074" lon="9.373635957017541">
        <ele>1947.27</ele>
        <time>2022-07-10T08:07:47Z</time>
      </trkpt>
      <trkpt lat="45.96377863548696" lon="9.373664874583483">
        <ele>1948.28</ele>
        <time>2022-07-10T08:08:06Z</time>
      </trkpt>
      <trkpt lat="45.963776288554072" lon="9.373715585097671">
        <ele>1950.1400000000001</ele>
        <time>2022-07-10T08:08:21Z</time>
      </trkpt>
      <trkpt lat="45.963777462020516" lon="9.373733941465616">
        <ele>1951.6900000000001</ele>
        <time>2022-07-10T08:08:43Z</time>
      </trkpt>
      <trkpt lat="45.963742090389132" lon="9.373752884566784">
        <ele>1953.8599999999999</ele>
        <time>2022-07-10T08:08:58Z</time>
      </trkpt>
      <trkpt lat="45.963679645210505" lon="9.373803846538067">
        <ele>1956.8399999999999</ele>
        <time>2022-07-10T08:09:12Z</time>
      </trkpt>
      <trkpt lat="45.963635640218854" lon="9.373869141563773">
        <ele>1958.6099999999999</ele>
        <time>2022-07-10T08:09:26Z</time>
      </trkpt>
      <trkpt lat="45.96360856667161" lon="9.373896550387144">
        <ele>1960.0999999999999</ele>
        <time>2022-07-10T08:09:39Z</time>
      </trkpt>
      <trkpt lat="45.963571183383465" lon="9.373937118798494">
        <ele>1962.5899999999999</ele>
        <time>2022-07-10T08:09:56Z</time>
      </trkpt>
      <trkpt lat="45.96354897134006" lon="9.37395740300417">
        <ele>1963.72</ele>
        <time>2022-07-10T08:10:15Z</time>
      </trkpt>
      <trkpt lat="45.963526591658592" lon="9.37400677241385">
        <ele>1965.9100000000001</ele>
        <time>2022-07-10T08:10:28Z</time>
      </trkpt>
      <trkpt lat="45.963490968570113" lon="9.374016914516687">
        <ele>1968.1800000000001</ele>
        <time>2022-07-10T08:10:42Z</time>
      </trkpt>
      <trkpt lat="45.96345174126327" lon="9.374035270884633">
        <ele>1969.95</ele>
        <time>2022-07-10T08:10:56Z</time>
      </trkpt>
      <trkpt lat="45.963470181450248" lon="9.374083047732711">
        <ele>1971.1900000000001</ele>
        <time>2022-07-10T08:11:10Z</time>
      </trkpt>
      <trkpt lat="45.963489543646574" lon="9.37409620732069">
        <ele>1971.5699999999999</ele>
        <time>2022-07-10T08:11:27Z</time>
      </trkpt>
      <trkpt lat="45.963501948863268" lon="9.374103248119354">
        <ele>1972.5</ele>
        <time>2022-07-10T08:11:48Z</time>
      </trkpt>
      <trkpt lat="45.963498009368777" lon="9.374131159856916">
        <ele>1973.97</ele>
        <time>2022-07-10T08:12:01Z</time>
      </trkpt>
      <trkpt lat="45.963501194491982" lon="9.37415236607194">
        <ele>1975.53</ele>
        <time>2022-07-10T08:12:22Z</time>
      </trkpt>
      <trkpt lat="45.963508822023869" lon="9.37417876906693">
        <ele>1977.45</ele>
        <time>2022-07-10T08:12:35Z</time>
      </trkpt>
      <trkpt lat="45.963486442342401" lon="9.374223612248898">
        <ele>1979.22</ele>
        <time>2022-07-10T08:12:50Z</time>
      </trkpt>
      <trkpt lat="45.96345660276711" lon="9.374270383268595">
        <ele>1980.5599999999999</ele>
        <time>2022-07-10T08:13:03Z</time>
      </trkpt>
      <trkpt lat="45.963464397937059" lon="9.374299636110663">
        <ele>1981.6199999999999</ele>
        <time>2022-07-10T08:13:18Z</time>
      </trkpt>
      <trkpt lat="45.96347319893539" lon="9.374324195086956">
        <ele>1983.8399999999999</ele>
        <time>2022-07-10T08:13:37Z</time>
      </trkpt>
      <trkpt lat="45.963529692962766" lon="9.374313298612833">
        <ele>1985.46</ele>
        <time>2022-07-10T08:13:48Z</time>
      </trkpt>
      <trkpt lat="45.96356020309031" lon="9.374276669695973">
        <ele>1987.8199999999999</ele>
        <time>2022-07-10T08:14:02Z</time>
      </trkpt>
      <trkpt lat="45.963525585830212" lon="9.374348251149058">
        <ele>1988.3499999999999</ele>
        <time>2022-07-10T08:14:15Z</time>
      </trkpt>
      <trkpt lat="45.963483927771449" lon="9.374410780146718">
        <ele>1991.1099999999999</ele>
        <time>2022-07-10T08:14:25Z</time>
      </trkpt>
      <trkpt lat="45.963456183671951" lon="9.374441206455231">
        <ele>1992.6400000000001</ele>
        <time>2022-07-10T08:14:38Z</time>
      </trkpt>
      <trkpt lat="45.963423829525709" lon="9.374462245032191">
        <ele>1993.6199999999999</ele>
        <time>2022-07-10T08:14:53Z</time>
      </trkpt>
      <trkpt lat="45.963427936658263" lon="9.374477751553059">
        <ele>1995.9100000000001</ele>
        <time>2022-07-10T08:15:06Z</time>
      </trkpt>
      <trkpt lat="45.96343606710434" lon="9.374479679390788">
        <ele>1996.23</ele>
        <time>2022-07-10T08:15:22Z</time>
      </trkpt>
      <trkpt lat="45.963428439572453" lon="9.374539609998465">
        <ele>1997.27</ele>
        <time>2022-07-10T08:15:37Z</time>
      </trkpt>
      <trkpt lat="45.963400946930051" lon="9.374573053792119">
        <ele>1998.7</ele>
        <time>2022-07-10T08:15:47Z</time>
      </trkpt>
      <trkpt lat="45.963382758200169" lon="9.374609431251884">
        <ele>1997.8299999999999</ele>
        <time>2022-07-10T08:15:58Z</time>
      </trkpt>
      <trkpt lat="45.963376890867949" lon="9.37464882619679">
        <ele>1999.8699999999999</ele>
        <time>2022-07-10T08:16:12Z</time>
      </trkpt>
      <trkpt lat="45.963348895311356" lon="9.374662069603801">
        <ele>2001.8199999999999</ele>
        <time>2022-07-10T08:16:29Z</time>
      </trkpt>
      <trkpt lat="45.963348727673292" lon="9.374661315232515">
        <ele>2002.01</ele>
        <time>2022-07-10T08:16:30Z</time>
      </trkpt>
      <trkpt lat="45.963341267779469" lon="9.374644467607141">
        <ele>2003.8399999999999</ele>
        <time>2022-07-10T08:16:45Z</time>
      </trkpt>
      <trkpt lat="45.963328694924712" lon="9.374649580568075">
        <ele>2004.27</ele>
        <time>2022-07-10T08:16:59Z</time>
      </trkpt>
      <trkpt lat="45.963315283879638" lon="9.37464882619679">
        <ele>2004.9000000000001</ele>
        <time>2022-07-10T08:17:12Z</time>
      </trkpt>
      <trkpt lat="45.963287623599172" lon="9.374643294140697">
        <ele>2007.99</ele>
        <time>2022-07-10T08:17:22Z</time>
      </trkpt>
      <trkpt lat="45.963257616385818" lon="9.374650418758392">
        <ele>2008.1800000000001</ele>
        <time>2022-07-10T08:17:34Z</time>
      </trkpt>
      <trkpt lat="45.963210007175803" lon="9.374676905572414">
        <ele>2009.99</ele>
        <time>2022-07-10T08:17:44Z</time>
      </trkpt>
      <trkpt lat="45.963178826496005" lon="9.374674391001463">
        <ele>2011.4400000000001</ele>
        <time>2022-07-10T08:17:50Z</time>
      </trkpt>
      <trkpt lat="45.963122835382819" lon="9.374731974676251">
        <ele>2013.1900000000001</ele>
        <time>2022-07-10T08:18:03Z</time>
      </trkpt>
      <trkpt lat="45.963101964443922" lon="9.374781595543027">
        <ele>2013.3800000000001</ele>
        <time>2022-07-10T08:18:18Z</time>
      </trkpt>
      <trkpt lat="45.963083859533072" lon="9.374784361571074">
        <ele>2014.71</ele>
        <time>2022-07-10T08:18:32Z</time>
      </trkpt>
      <trkpt lat="45.963073382154107" lon="9.374765334650874">
        <ele>2016.04</ele>
        <time>2022-07-10T08:18:49Z</time>
      </trkpt>
      <trkpt lat="45.963046560063958" lon="9.374772626906633">
        <ele>2017.22</ele>
        <time>2022-07-10T08:19:01Z</time>
      </trkpt>
      <trkpt lat="45.96304471604526" lon="9.374790312722325">
        <ele>2016.6900000000001</ele>
        <time>2022-07-10T08:19:17Z</time>
      </trkpt>
      <trkpt lat="45.963030215352774" lon="9.374791150912643">
        <ele>2019.0699999999999</ele>
        <time>2022-07-10T08:19:28Z</time>
      </trkpt>
      <trkpt lat="45.963001884520054" lon="9.374808752909303">
        <ele>2020.45</ele>
        <time>2022-07-10T08:19:37Z</time>
      </trkpt>
      <trkpt lat="45.962997442111373" lon="9.374804645776749">
        <ele>2022.1900000000001</ele>
        <time>2022-07-10T08:19:52Z</time>
      </trkpt>
      <trkpt lat="45.963005572557449" lon="9.374802047386766">
        <ele>2022.28</ele>
        <time>2022-07-10T08:20:11Z</time>
      </trkpt>
      <trkpt lat="45.963005907833576" lon="9.374803137034178">
        <ele>2021.46</ele>
        <time>2022-07-10T08:20:33Z</time>
      </trkpt>
      <trkpt lat="45.96300607547164" lon="9.374803137034178">
        <ele>2022.54</ele>
        <time>2022-07-10T08:20:50Z</time>
      </trkpt>
      <trkpt lat="45.963005656376481" lon="9.37480422668159">
        <ele>2022.46</ele>
        <time>2022-07-10T08:21:08Z</time>
      </trkpt>
      <trkpt lat="45.96300414763391" lon="9.374807244166732">
        <ele>2023.21</ele>
        <time>2022-07-10T08:21:25Z</time>
      </trkpt>
      <trkpt lat="45.963004399091005" lon="9.374810932204127">
        <ele>2022.5899999999999</ele>
        <time>2022-07-10T08:21:35Z</time>
      </trkpt>
      <trkpt lat="45.96300657838583" lon="9.374807327985764">
        <ele>2022.22</ele>
        <time>2022-07-10T08:22:01Z</time>
      </trkpt>
      <trkpt lat="45.963003393262625" lon="9.374805148690939">
        <ele>2023.7</ele>
        <time>2022-07-10T08:22:27Z</time>
      </trkpt>
      <trkpt lat="45.96298998221755" lon="9.374822834506631">
        <ele>2024.75</ele>
        <time>2022-07-10T08:22:46Z</time>
      </trkpt>
      <trkpt lat="45.962974643334746" lon="9.374811351299286">
        <ele>2025.6800000000001</ele>
        <time>2022-07-10T08:22:57Z</time>
      </trkpt>
      <trkpt lat="45.962953101843596" lon="9.3748037237674">
        <ele>2028.1400000000001</ele>
        <time>2022-07-10T08:23:14Z</time>
      </trkpt>
      <trkpt lat="45.962920160964131" lon="9.374812105670571">
        <ele>2029.3399999999999</ele>
        <time>2022-07-10T08:23:25Z</time>
      </trkpt>
      <trkpt lat="45.962895434349775" lon="9.37483892776072">
        <ele>2028.74</ele>
        <time>2022-07-10T08:23:39Z</time>
      </trkpt>
      <trkpt lat="45.962884118780494" lon="9.374850494787097">
        <ele>2028.9200000000001</ele>
        <time>2022-07-10T08:23:53Z</time>
      </trkpt>
      <trkpt lat="45.962889147922397" lon="9.374853176996112">
        <ele>2028.95</ele>
        <time>2022-07-10T08:24:13Z</time>
      </trkpt>
      <trkpt lat="45.962869534268975" lon="9.374878574162722">
        <ele>2030.3699999999999</ele>
        <time>2022-07-10T08:24:31Z</time>
      </trkpt>
      <trkpt lat="45.962853943929076" lon="9.374875891953707">
        <ele>2031.98</ele>
        <time>2022-07-10T08:24:47Z</time>
      </trkpt>
      <trkpt lat="45.962839107960463" lon="9.374871030449867">
        <ele>2033.28</ele>
        <time>2022-07-10T08:25:04Z</time>
      </trkpt>
      <trkpt lat="45.962811447679996" lon="9.374863319098949">
        <ele>2036.48</ele>
        <time>2022-07-10T08:25:18Z</time>
      </trkpt>
      <trkpt lat="45.962813459336758" lon="9.374845381826162">
        <ele>2036.8199999999999</ele>
        <time>2022-07-10T08:25:35Z</time>
      </trkpt>
      <trkpt lat="45.962809016928077" lon="9.374841274693608">
        <ele>2036.8499999999999</ele>
        <time>2022-07-10T08:25:50Z</time>
      </trkpt>
      <trkpt lat="45.962807843461633" lon="9.37487849034369">
        <ele>2038.71</ele>
        <time>2022-07-10T08:26:03Z</time>
      </trkpt>
      <trkpt lat="45.962808933109045" lon="9.374898942187429">
        <ele>2039.79</ele>
        <time>2022-07-10T08:26:13Z</time>
      </trkpt>
      <trkpt lat="45.962785128504038" lon="9.374890308827162">
        <ele>2041.4100000000001</ele>
        <time>2022-07-10T08:26:24Z</time>
      </trkpt>
      <trkpt lat="45.96274665556848" lon="9.374885866418481">
        <ele>2042.6500000000001</ele>
        <time>2022-07-10T08:26:35Z</time>
      </trkpt>
      <trkpt lat="45.962686976417899" lon="9.374875975772739">
        <ele>2044.5999999999999</ele>
        <time>2022-07-10T08:26:45Z</time>
      </trkpt>
      <trkpt lat="45.962632996961474" lon="9.374859714880586">
        <ele>2046.25</ele>
        <time>2022-07-10T08:26:58Z</time>
      </trkpt>
      <trkpt lat="45.962597541511059" lon="9.374862145632505">
        <ele>2047.46</ele>
        <time>2022-07-10T08:27:07Z</time>
      </trkpt>
      <trkpt lat="45.962590500712395" lon="9.374864157289267">
        <ele>2048.9200000000001</ele>
        <time>2022-07-10T08:27:24Z</time>
      </trkpt>
      <trkpt lat="45.962585220113397" lon="9.374853344634175">
        <ele>2047.29</ele>
        <time>2022-07-10T08:27:47Z</time>
      </trkpt>
      <trkpt lat="45.962571138516068" lon="9.374855188652873">
        <ele>2048.9699999999998</ele>
        <time>2022-07-10T08:28:00Z</time>
      </trkpt>
      <trkpt lat="45.962542472407222" lon="9.374875472858548">
        <ele>2047.6500000000001</ele>
        <time>2022-07-10T08:28:13Z</time>
      </trkpt>
      <trkpt lat="45.962488744407892" lon="9.374916963279247">
        <ele>2046.25</ele>
        <time>2022-07-10T08:28:26Z</time>
      </trkpt>
      <trkpt lat="45.962462341412902" lon="9.374919561669231">
        <ele>2046.0599999999999</ele>
        <time>2022-07-10T08:28:30Z</time>
      </trkpt>
      <trkpt lat="45.962391011416912" lon="9.374978318810463">
        <ele>2046.9300000000001</ele>
        <time>2022-07-10T08:28:42Z</time>
      </trkpt>
      <trkpt lat="45.962366368621588" lon="9.374999525025487">
        <ele>2047.3900000000001</ele>
        <time>2022-07-10T08:28:45Z</time>
      </trkpt>
      <trkpt lat="45.962293446063995" lon="9.375069094821811">
        <ele>2049.3099999999999</ele>
        <time>2022-07-10T08:28:59Z</time>
      </trkpt>
      <trkpt lat="45.962258158251643" lon="9.3750817514956">
        <ele>2050.7600000000002</ele>
        <time>2022-07-10T08:29:12Z</time>
      </trkpt>
      <trkpt lat="45.962242567911744" lon="9.375099102035165">
        <ele>2050.0300000000002</ele>
        <time>2022-07-10T08:29:21Z</time>
      </trkpt>
      <trkpt lat="45.962215075269341" lon="9.375116620212793">
        <ele>2050.8499999999999</ele>
        <time>2022-07-10T08:29:33Z</time>
      </trkpt>
      <trkpt lat="45.9622154943645" lon="9.375132294371724">
        <ele>2049.6599999999999</ele>
        <time>2022-07-10T08:29:50Z</time>
      </trkpt>
      <trkpt lat="45.962216835469007" lon="9.375148136168718">
        <ele>2050.9499999999998</ele>
        <time>2022-07-10T08:30:04Z</time>
      </trkpt>
      <trkpt lat="45.962200406938791" lon="9.375172695145011">
        <ele>2052.6399999999999</ele>
        <time>2022-07-10T08:30:15Z</time>
      </trkpt>
      <trkpt lat="45.962198311462998" lon="9.375151069834828">
        <ele>2054.0900000000001</ele>
        <time>2022-07-10T08:30:27Z</time>
      </trkpt>
      <trkpt lat="45.962185570970178" lon="9.375119637697935">
        <ele>2055.0999999999999</ele>
        <time>2022-07-10T08:30:38Z</time>
      </trkpt>
      <trkpt lat="45.96217836253345" lon="9.375141933560371">
        <ele>2055.5999999999999</ele>
        <time>2022-07-10T08:30:53Z</time>
      </trkpt>
      <trkpt lat="45.962140979245305" lon="9.375184094533324">
        <ele>2057.9400000000001</ele>
        <time>2022-07-10T08:31:05Z</time>
      </trkpt>
      <trkpt lat="45.962080713361502" lon="9.37519951723516">
        <ele>2060.6199999999999</ele>
        <time>2022-07-10T08:31:19Z</time>
      </trkpt>
      <trkpt lat="45.962031427770853" lon="9.375227428972721">
        <ele>2062.1700000000001</ele>
        <time>2022-07-10T08:31:30Z</time>
      </trkpt>
      <trkpt lat="45.962018184363842" lon="9.375229608267546">
        <ele>2062.9000000000001</ele>
        <time>2022-07-10T08:31:40Z</time>
      </trkpt>
      <trkpt lat="45.962009634822607" lon="9.375258861109614">
        <ele>2063.9499999999998</ele>
        <time>2022-07-10T08:31:57Z</time>
      </trkpt>
      <trkpt lat="45.961992871016264" lon="9.37526791356504">
        <ele>2065.96</ele>
        <time>2022-07-10T08:32:11Z</time>
      </trkpt>
      <trkpt lat="45.96195456571877" lon="9.375275708734989">
        <ele>2068.5500000000002</ele>
        <time>2022-07-10T08:32:24Z</time>
      </trkpt>
      <trkpt lat="45.961938221007586" lon="9.375270595774055">
        <ele>2069.4699999999998</ele>
        <time>2022-07-10T08:32:34Z</time>
      </trkpt>
      <trkpt lat="45.961931683123112" lon="9.375325329601765">
        <ele>2070.6100000000001</ele>
        <time>2022-07-10T08:32:44Z</time>
      </trkpt>
      <trkpt lat="45.961900250986218" lon="9.375365730375052">
        <ele>2072.6399999999999</ele>
        <time>2022-07-10T08:32:56Z</time>
      </trkpt>
      <trkpt lat="45.961872339248657" lon="9.375410489737988">
        <ele>2072.8200000000002</ele>
        <time>2022-07-10T08:33:15Z</time>
      </trkpt>
      <trkpt lat="45.961866891011596" lon="9.37548684887588">
        <ele>2073.7399999999998</ele>
        <time>2022-07-10T08:33:28Z</time>
      </trkpt>
      <trkpt lat="45.9618338663131" lon="9.375551892444491">
        <ele>2075.9400000000001</ele>
        <time>2022-07-10T08:33:40Z</time>
      </trkpt>
      <trkpt lat="45.961814504116774" lon="9.375563878566027">
        <ele>2079.1199999999999</ele>
        <time>2022-07-10T08:33:48Z</time>
      </trkpt>
      <trkpt lat="45.961791956797242" lon="9.375547701492906">
        <ele>2081.6300000000001</ele>
        <time>2022-07-10T08:33:58Z</time>
      </trkpt>
      <trkpt lat="45.961755076423287" lon="9.375566644594073">
        <ele>2083.5500000000002</ele>
        <time>2022-07-10T08:34:12Z</time>
      </trkpt>
      <trkpt lat="45.96175130456686" lon="9.375562286004424">
        <ele>2083.6700000000001</ele>
        <time>2022-07-10T08:34:31Z</time>
      </trkpt>
      <trkpt lat="45.961742922663689" lon="9.375608889386058">
        <ele>2084.8099999999999</ele>
        <time>2022-07-10T08:34:44Z</time>
      </trkpt>
      <trkpt lat="45.96171023324132" lon="9.37563537620008">
        <ele>2087.6999999999998</ele>
        <time>2022-07-10T08:34:54Z</time>
      </trkpt>
      <trkpt lat="45.961693050339818" lon="9.375666556879878">
        <ele>2088.8000000000002</ele>
        <time>2022-07-10T08:35:08Z</time>
      </trkpt>
      <trkpt lat="45.96167603507638" lon="9.375720536336303">
        <ele>2091.1500000000001</ele>
        <time>2022-07-10T08:35:20Z</time>
      </trkpt>
      <trkpt lat="45.96163840033114" lon="9.375744508579373">
        <ele>2092.7800000000002</ele>
        <time>2022-07-10T08:35:32Z</time>
      </trkpt>
      <trkpt lat="45.961605375632644" lon="9.375787423923612">
        <ele>2094.9299999999998</ele>
        <time>2022-07-10T08:35:45Z</time>
      </trkpt>
      <trkpt lat="45.9615592751652" lon="9.375839978456497">
        <ele>2096</ele>
        <time>2022-07-10T08:35:58Z</time>
      </trkpt>
      <trkpt lat="45.961544942110777" lon="9.375855233520269">
        <ele>2095.9499999999998</ele>
        <time>2022-07-10T08:36:09Z</time>
      </trkpt>
      <trkpt lat="45.961537398397923" lon="9.375856909900904">
        <ele>2095.6599999999999</ele>
        <time>2022-07-10T08:36:20Z</time>
      </trkpt>
      <trkpt lat="45.961529267951846" lon="9.37586210668087">
        <ele>2094.3299999999999</ele>
        <time>2022-07-10T08:36:46Z</time>
      </trkpt>
      <trkpt lat="45.961531531065702" lon="9.375861352309585">
        <ele>2095.6100000000001</ele>
        <time>2022-07-10T08:37:18Z</time>
      </trkpt>
      <trkpt lat="45.961528848856688" lon="9.375862441956997">
        <ele>2095.54</ele>
        <time>2022-07-10T08:37:58Z</time>
      </trkpt>
      <trkpt lat="45.961535386741161" lon="9.375864285975695">
        <ele>2096.25</ele>
        <time>2022-07-10T08:38:42Z</time>
      </trkpt>
      <trkpt lat="45.9615333750844" lon="9.375872081145644">
        <ele>2096.2199999999998</ele>
        <time>2022-07-10T08:39:07Z</time>
      </trkpt>
      <trkpt lat="45.961541505530477" lon="9.37588113360107">
        <ele>2096.8299999999999</ele>
        <time>2022-07-10T08:39:43Z</time>
      </trkpt>
      <trkpt lat="45.961525915190578" lon="9.375879960134625">
        <ele>2096.8800000000001</ele>
        <time>2022-07-10T08:40:02Z</time>
      </trkpt>
      <trkpt lat="45.961518371477723" lon="9.37587920576334">
        <ele>2096.6199999999999</ele>
        <time>2022-07-10T08:40:20Z</time>
      </trkpt>
      <trkpt lat="45.961522813886404" lon="9.37588457018137">
        <ele>2096.98</ele>
        <time>2022-07-10T08:40:36Z</time>
      </trkpt>
      <trkpt lat="45.961530776694417" lon="9.375878367573023">
        <ele>2096.4000000000001</ele>
        <time>2022-07-10T08:41:11Z</time>
      </trkpt>
      <trkpt lat="45.961535889655352" lon="9.375870823860169">
        <ele>2096.9299999999998</ele>
        <time>2022-07-10T08:41:44Z</time>
      </trkpt>
      <trkpt lat="45.961533458903432" lon="9.375863028690219">
        <ele>2097.6500000000001</ele>
        <time>2022-07-10T08:42:12Z</time>
      </trkpt>
      <trkpt lat="45.961517449468374" lon="9.375870823860169">
        <ele>2098.4699999999998</ele>
        <time>2022-07-10T08:42:27Z</time>
      </trkpt>
      <trkpt lat="45.961518287658691" lon="9.375907704234123">
        <ele>2099.04</ele>
        <time>2022-07-10T08:42:41Z</time>
      </trkpt>
      <trkpt lat="45.96151577308774" lon="9.375917091965675">
        <ele>2099.1199999999999</ele>
        <time>2022-07-10T08:43:02Z</time>
      </trkpt>
      <trkpt lat="45.961514096707106" lon="9.375904938206077">
        <ele>2098.6900000000001</ele>
        <time>2022-07-10T08:43:26Z</time>
      </trkpt>
      <trkpt lat="45.961517868563533" lon="9.37590854242444">
        <ele>2098.79</ele>
        <time>2022-07-10T08:43:50Z</time>
      </trkpt>
      <trkpt lat="45.961516946554184" lon="9.375909129157662">
        <ele>2092.3899999999999</ele>
        <time>2022-07-10T08:43:56Z</time>
      </trkpt>
      <trkpt lat="45.961517365649343" lon="9.375909296795726">
        <ele>2093.6999999999998</ele>
        <time>2022-07-10T08:43:57Z</time>
      </trkpt>
      <trkpt lat="45.961516862735152" lon="9.375908626243472">
        <ele>2098.3400000000001</ele>
        <time>2022-07-10T08:43:59Z</time>
      </trkpt>
      <trkpt lat="45.961517533287406" lon="9.375909799709916">
        <ele>2098.5</ele>
        <time>2022-07-10T08:44:00Z</time>
      </trkpt>
      <trkpt lat="45.961516946554184" lon="9.37590996734798">
        <ele>2100.5</ele>
        <time>2022-07-10T08:44:03Z</time>
      </trkpt>
      <trkpt lat="45.961516527459025" lon="9.375911559909582">
        <ele>2094.3299999999999</ele>
        <time>2022-07-10T08:44:08Z</time>
      </trkpt>
      <trkpt lat="45.961516527459025" lon="9.375912733376026">
        <ele>2095.5900000000001</ele>
        <time>2022-07-10T08:44:09Z</time>
      </trkpt>
      <trkpt lat="45.961517114192247" lon="9.375915583223105">
        <ele>2099.8000000000002</ele>
        <time>2022-07-10T08:44:12Z</time>
      </trkpt>
      <trkpt lat="45.961522478610277" lon="9.375924468040466">
        <ele>2103.3699999999999</ele>
        <time>2022-07-10T08:44:23Z</time>
      </trkpt>
      <trkpt lat="45.96152113750577" lon="9.375924887135625">
        <ele>2100.3200000000002</ele>
        <time>2022-07-10T08:44:25Z</time>
      </trkpt>
      <trkpt lat="45.961518790572882" lon="9.37592220492661">
        <ele>2099.4899999999998</ele>
        <time>2022-07-10T08:44:27Z</time>
      </trkpt>
      <trkpt lat="45.961508732289076" lon="9.375916672870517">
        <ele>2098.8699999999999</ele>
        <time>2022-07-10T08:44:48Z</time>
      </trkpt>
      <trkpt lat="45.961514767259359" lon="9.37590510584414">
        <ele>2098.4899999999998</ele>
        <time>2022-07-10T08:45:07Z</time>
      </trkpt>
      <trkpt lat="45.961514851078391" lon="9.375905441120267">
        <ele>2099.8200000000002</ele>
        <time>2022-07-10T08:45:20Z</time>
      </trkpt>
      <trkpt lat="45.961517030373216" lon="9.375909883528948">
        <ele>2098.9899999999998</ele>
        <time>2022-07-10T08:45:36Z</time>
      </trkpt>
      <trkpt lat="45.961515940725803" lon="9.375913655385375">
        <ele>2098.9000000000001</ele>
        <time>2022-07-10T08:45:51Z</time>
      </trkpt>
      <trkpt lat="45.961516192182899" lon="9.375910386443138">
        <ele>2099.3699999999999</ele>
        <time>2022-07-10T08:46:09Z</time>
      </trkpt>
      <trkpt lat="45.961517784744501" lon="9.375908877700567">
        <ele>2099.7600000000002</ele>
        <time>2022-07-10T08:46:34Z</time>
      </trkpt>
      <trkpt lat="45.961514767259359" lon="9.375930419191718">
        <ele>2098.9400000000001</ele>
        <time>2022-07-10T08:46:56Z</time>
      </trkpt>
      <trkpt lat="45.961518455296755" lon="9.375918013975024">
        <ele>2099.5900000000001</ele>
        <time>2022-07-10T08:47:09Z</time>
      </trkpt>
      <trkpt lat="45.9615109115839" lon="9.375928742811084">
        <ele>2099.4699999999998</ele>
        <time>2022-07-10T08:47:21Z</time>
      </trkpt>
      <trkpt lat="45.96154117025435" lon="9.375895215198398">
        <ele>2099.4699999999998</ele>
        <time>2022-07-10T08:47:27Z</time>
      </trkpt>
      <trkpt lat="45.961550306528807" lon="9.375886665657163">
        <ele>2099.3800000000001</ele>
        <time>2022-07-10T08:47:28Z</time>
      </trkpt>
      <trkpt lat="45.961565980687737" lon="9.375868896022439">
        <ele>2099.2199999999998</ele>
        <time>2022-07-10T08:47:30Z</time>
      </trkpt>
      <trkpt lat="45.961545528843999" lon="9.375872584059835">
        <ele>2100.3600000000001</ele>
        <time>2022-07-10T08:47:39Z</time>
      </trkpt>
      <trkpt lat="45.961536727845669" lon="9.375902591273189">
        <ele>2100.1599999999999</ele>
        <time>2022-07-10T08:47:50Z</time>
      </trkpt>
      <trkpt lat="45.961538823321462" lon="9.375909380614758">
        <ele>2100.3899999999999</ele>
        <time>2022-07-10T08:48:02Z</time>
      </trkpt>
      <trkpt lat="45.961519293487072" lon="9.37593687325716">
        <ele>2099.3099999999999</ele>
        <time>2022-07-10T08:48:24Z</time>
      </trkpt>
      <trkpt lat="45.961496746167541" lon="9.376009460538626">
        <ele>2098.3200000000002</ele>
        <time>2022-07-10T08:48:34Z</time>
      </trkpt>
      <trkpt lat="45.961471349000931" lon="9.37611666508019">
        <ele>2098.6199999999999</ele>
        <time>2022-07-10T08:48:45Z</time>
      </trkpt>
      <trkpt lat="45.961431115865707" lon="9.376253793016076">
        <ele>2097.5999999999999</ele>
        <time>2022-07-10T08:49:00Z</time>
      </trkpt>
      <trkpt lat="45.961390966549516" lon="9.37634046189487">
        <ele>2095.4499999999998</ele>
        <time>2022-07-10T08:49:11Z</time>
      </trkpt>
      <trkpt lat="45.96133497543633" lon="9.376413468271494">
        <ele>2095.9200000000001</ele>
        <time>2022-07-10T08:49:24Z</time>
      </trkpt>
      <trkpt lat="45.961284935474396" lon="9.376489156857133">
        <ele>2096.98</ele>
        <time>2022-07-10T08:49:34Z</time>
      </trkpt>
      <trkpt lat="45.961219556629658" lon="9.376525953412056">
        <ele>2098.1500000000001</ele>
        <time>2022-07-10T08:49:44Z</time>
      </trkpt>
      <trkpt lat="45.961201284080744" lon="9.37655788846314">
        <ele>2098.0599999999999</ele>
        <time>2022-07-10T08:49:47Z</time>
      </trkpt>
      <trkpt lat="45.961193740367889" lon="9.376571802422404">
        <ele>2098.1599999999999</ele>
        <time>2022-07-10T08:49:48Z</time>
      </trkpt>
      <trkpt lat="45.961159961298108" lon="9.37666391953826">
        <ele>2097.4699999999998</ele>
        <time>2022-07-10T08:50:00Z</time>
      </trkpt>
      <trkpt lat="45.96116004511714" lon="9.376666182652116">
        <ele>2097.7199999999998</ele>
        <time>2022-07-10T08:50:01Z</time>
      </trkpt>
      <trkpt lat="45.961136408150196" lon="9.376687556505203">
        <ele>2096.4899999999998</ele>
        <time>2022-07-10T08:50:14Z</time>
      </trkpt>
      <trkpt lat="45.961134899407625" lon="9.376678755506873">
        <ele>2097.3299999999999</ele>
        <time>2022-07-10T08:50:16Z</time>
      </trkpt>
      <trkpt lat="45.961133809760213" lon="9.376661321148276">
        <ele>2097.3099999999999</ele>
        <time>2022-07-10T08:50:31Z</time>
      </trkpt>
      <trkpt lat="45.961137916892767" lon="9.376704404130578">
        <ele>2095.8699999999999</ele>
        <time>2022-07-10T08:50:46Z</time>
      </trkpt>
      <trkpt lat="45.961133642122149" lon="9.376716557890177">
        <ele>2095.1900000000001</ele>
        <time>2022-07-10T08:50:59Z</time>
      </trkpt>
      <trkpt lat="45.961139006540179" lon="9.376744721084833">
        <ele>2092.8699999999999</ele>
        <time>2022-07-10T08:51:17Z</time>
      </trkpt>
      <trkpt lat="45.961127607151866" lon="9.376768190413714">
        <ele>2092.27</ele>
        <time>2022-07-10T08:51:34Z</time>
      </trkpt>
      <trkpt lat="45.961121656000614" lon="9.376797610893846">
        <ele>2090.1500000000001</ele>
        <time>2022-07-10T08:51:49Z</time>
      </trkpt>
      <trkpt lat="45.961123667657375" lon="9.376792246475816">
        <ele>2092.02</ele>
        <time>2022-07-10T08:51:54Z</time>
      </trkpt>
      <trkpt lat="45.961122745648026" lon="9.376799874007702">
        <ele>2091.02</ele>
        <time>2022-07-10T08:51:58Z</time>
      </trkpt>
      <trkpt lat="45.961110843345523" lon="9.376829126849771">
        <ele>2090.2199999999998</ele>
        <time>2022-07-10T08:52:15Z</time>
      </trkpt>
      <trkpt lat="45.961109753698111" lon="9.376883022487164">
        <ele>2088.3000000000002</ele>
        <time>2022-07-10T08:52:28Z</time>
      </trkpt>
      <trkpt lat="45.961100868880749" lon="9.376899283379316">
        <ele>2089.6799999999998</ele>
        <time>2022-07-10T08:52:39Z</time>
      </trkpt>
      <trkpt lat="45.961087206378579" lon="9.376918142661452">
        <ele>2088.3899999999999</ele>
        <time>2022-07-10T08:52:54Z</time>
      </trkpt>
      <trkpt lat="45.96109801903367" lon="9.376926105469465">
        <ele>2087.1999999999998</ele>
        <time>2022-07-10T08:53:06Z</time>
      </trkpt>
      <trkpt lat="45.96109215170145" lon="9.376947395503521">
        <ele>2086.2399999999998</ele>
        <time>2022-07-10T08:53:19Z</time>
      </trkpt>
      <trkpt lat="45.961099276319146" lon="9.376957453787327">
        <ele>2085.9099999999999</ele>
        <time>2022-07-10T08:53:35Z</time>
      </trkpt>
      <trkpt lat="45.961124170571566" lon="9.376947646960616">
        <ele>2084.25</ele>
        <time>2022-07-10T08:53:48Z</time>
      </trkpt>
      <trkpt lat="45.961133558303118" lon="9.376942785456777">
        <ele>2083.54</ele>
        <time>2022-07-10T08:54:03Z</time>
      </trkpt>
      <trkpt lat="45.961150322109461" lon="9.376960890367627">
        <ele>2081.4499999999998</ele>
        <time>2022-07-10T08:54:16Z</time>
      </trkpt>
      <trkpt lat="45.961140682920814" lon="9.377000536769629">
        <ele>2080.8299999999999</ele>
        <time>2022-07-10T08:54:28Z</time>
      </trkpt>
      <trkpt lat="45.961134396493435" lon="9.377014450728893">
        <ele>2080.1199999999999</ele>
        <time>2022-07-10T08:54:41Z</time>
      </trkpt>
      <trkpt lat="45.961121656000614" lon="9.377027694135904">
        <ele>2081.0799999999999</ele>
        <time>2022-07-10T08:54:55Z</time>
      </trkpt>
      <trkpt lat="45.961091313511133" lon="9.37704068608582">
        <ele>2079.77</ele>
        <time>2022-07-10T08:55:11Z</time>
      </trkpt>
      <trkpt lat="45.961068850010633" lon="9.377065328881145">
        <ele>2078.8200000000002</ele>
        <time>2022-07-10T08:55:18Z</time>
      </trkpt>
      <trkpt lat="45.961048314347863" lon="9.377152249217033">
        <ele>2078.8099999999999</ele>
        <time>2022-07-10T08:55:29Z</time>
      </trkpt>
      <trkpt lat="45.961029203608632" lon="9.377234056591988">
        <ele>2079.9000000000001</ele>
        <time>2022-07-10T08:55:39Z</time>
      </trkpt>
      <trkpt lat="45.960994334891438" lon="9.377297088503838">
        <ele>2076.9699999999998</ele>
        <time>2022-07-10T08:55:54Z</time>
      </trkpt>
      <trkpt lat="45.960982432588935" lon="9.377318294718862">
        <ele>2076.04</ele>
        <time>2022-07-10T08:56:05Z</time>
      </trkpt>
      <trkpt lat="45.960963908582926" lon="9.37735048122704">
        <ele>2074.71</ele>
        <time>2022-07-10T08:56:15Z</time>
      </trkpt>
      <trkpt lat="45.960946641862392" lon="9.377388199791312">
        <ele>2073.7399999999998</ele>
        <time>2022-07-10T08:56:27Z</time>
      </trkpt>
      <trkpt lat="45.960932476446033" lon="9.377409238368273">
        <ele>2072.5300000000002</ele>
        <time>2022-07-10T08:56:41Z</time>
      </trkpt>
      <trkpt lat="45.96088838763535" lon="9.377484088763595">
        <ele>2072.2199999999998</ele>
        <time>2022-07-10T08:56:50Z</time>
      </trkpt>
      <trkpt lat="45.960832647979259" lon="9.377573607489467">
        <ele>2072.21</ele>
        <time>2022-07-10T08:57:02Z</time>
      </trkpt>
      <trkpt lat="45.960831809788942" lon="9.377581737935543">
        <ele>2072.3400000000001</ele>
        <time>2022-07-10T08:57:12Z</time>
      </trkpt>
      <trkpt lat="45.960823427885771" lon="9.377618785947561">
        <ele>2070.5300000000002</ele>
        <time>2022-07-10T08:57:29Z</time>
      </trkpt>
      <trkpt lat="45.960823930799961" lon="9.377634292468429">
        <ele>2069.79</ele>
        <time>2022-07-10T08:57:42Z</time>
      </trkpt>
      <trkpt lat="45.960832061246037" lon="9.377673016861081">
        <ele>2068.0500000000002</ele>
        <time>2022-07-10T08:57:59Z</time>
      </trkpt>
      <trkpt lat="45.960820578038692" lon="9.377756668254733">
        <ele>2065.9200000000001</ele>
        <time>2022-07-10T08:58:11Z</time>
      </trkpt>
      <trkpt lat="45.960814710706472" lon="9.37777167186141">
        <ele>2065.6500000000001</ele>
        <time>2022-07-10T08:58:12Z</time>
      </trkpt>
      <trkpt lat="45.960809178650379" lon="9.377786172553897">
        <ele>2065.29</ele>
        <time>2022-07-10T08:58:13Z</time>
      </trkpt>
      <trkpt lat="45.960787888616323" lon="9.377832608297467">
        <ele>2065.1300000000001</ele>
        <time>2022-07-10T08:58:24Z</time>
      </trkpt>
      <trkpt lat="45.960737764835358" lon="9.377865381538868">
        <ele>2065.9099999999999</ele>
        <time>2022-07-10T08:58:37Z</time>
      </trkpt>
      <trkpt lat="45.960725443437696" lon="9.377886252477765">
        <ele>2066.6599999999999</ele>
        <time>2022-07-10T08:58:55Z</time>
      </trkpt>
      <trkpt lat="45.960721671581268" lon="9.377903854474425">
        <ele>2066.1999999999998</ele>
        <time>2022-07-10T08:59:19Z</time>
      </trkpt>
      <trkpt lat="45.960721168667078" lon="9.37790016643703">
        <ele>2066.3899999999999</ele>
        <time>2022-07-10T08:59:39Z</time>
      </trkpt>
      <trkpt lat="45.960720330476761" lon="9.377919444814324">
        <ele>2066.0799999999999</ele>
        <time>2022-07-10T08:59:53Z</time>
      </trkpt>
      <trkpt lat="45.96071831882" lon="9.377934280782938">
        <ele>2067.0599999999999</ele>
        <time>2022-07-10T09:00:09Z</time>
      </trkpt>
      <trkpt lat="45.960705410689116" lon="9.377945009618998">
        <ele>2066.23</ele>
        <time>2022-07-10T09:00:25Z</time>
      </trkpt>
      <trkpt lat="45.960694765672088" lon="9.377976944670081">
        <ele>2067.6599999999999</ele>
        <time>2022-07-10T09:00:38Z</time>
      </trkpt>
      <trkpt lat="45.960686635226011" lon="9.377992786467075">
        <ele>2068.2199999999998</ele>
        <time>2022-07-10T09:00:51Z</time>
      </trkpt>
      <trkpt lat="45.960669787600636" lon="9.3780208658427">
        <ele>2068.5799999999999</ele>
        <time>2022-07-10T09:01:08Z</time>
      </trkpt>
      <trkpt lat="45.96064941957593" lon="9.378037126734853">
        <ele>2067.5500000000002</ele>
        <time>2022-07-10T09:01:18Z</time>
      </trkpt>
      <trkpt lat="45.960635002702475" lon="9.378085909411311">
        <ele>2067.5100000000002</ele>
        <time>2022-07-10T09:01:28Z</time>
      </trkpt>
      <trkpt lat="45.960631314665079" lon="9.378086747601628">
        <ele>2067.5100000000002</ele>
        <time>2022-07-10T09:01:44Z</time>
      </trkpt>
      <trkpt lat="45.960614215582609" lon="9.378120610490441">
        <ele>2067.9899999999998</ele>
        <time>2022-07-10T09:01:58Z</time>
      </trkpt>
      <trkpt lat="45.960589740425348" lon="9.378164866939187">
        <ele>2070.1900000000001</ele>
        <time>2022-07-10T09:02:10Z</time>
      </trkpt>
      <trkpt lat="45.960574066266418" lon="9.378220355138183">
        <ele>2072.4200000000001</ele>
        <time>2022-07-10T09:02:24Z</time>
      </trkpt>
      <trkpt lat="45.960543556138873" lon="9.378242567181587">
        <ele>2074.4699999999998</ele>
        <time>2022-07-10T09:02:38Z</time>
      </trkpt>
      <trkpt lat="45.96050675958395" lon="9.378254134207964">
        <ele>2076.5</ele>
        <time>2022-07-10T09:02:53Z</time>
      </trkpt>
      <trkpt lat="45.960449930280447" lon="9.378312136977911">
        <ele>2078.7199999999998</ele>
        <time>2022-07-10T09:03:08Z</time>
      </trkpt>
      <trkpt lat="45.96039779484272" lon="9.378339713439345">
        <ele>2081.0100000000002</ele>
        <time>2022-07-10T09:03:23Z</time>
      </trkpt>
      <trkpt lat="45.960357310250401" lon="9.378379276022315">
        <ele>2083.8899999999999</ele>
        <time>2022-07-10T09:03:38Z</time>
      </trkpt>
      <trkpt lat="45.960312131792307" lon="9.378411211073399">
        <ele>2085.6300000000001</ele>
        <time>2022-07-10T09:03:53Z</time>
      </trkpt>
      <trkpt lat="45.960300397127867" lon="9.378426382318139">
        <ele>2086.8200000000002</ele>
        <time>2022-07-10T09:04:08Z</time>
      </trkpt>
      <trkpt lat="45.960262091830373" lon="9.378417329862714">
        <ele>2088.6999999999998</ele>
        <time>2022-07-10T09:04:21Z</time>
      </trkpt>
      <trkpt lat="45.960200903937221" lon="9.378403332084417">
        <ele>2091.8200000000002</ele>
        <time>2022-07-10T09:04:32Z</time>
      </trkpt>
      <trkpt lat="45.960158491507173" lon="9.378399224951863">
        <ele>2095.0599999999999</ele>
        <time>2022-07-10T09:04:42Z</time>
      </trkpt>
      <trkpt lat="45.960149941965938" lon="9.378350106999278">
        <ele>2097.29</ele>
        <time>2022-07-10T09:04:51Z</time>
      </trkpt>
      <trkpt lat="45.96015203744173" lon="9.378329487517476">
        <ele>2097.1300000000001</ele>
        <time>2022-07-10T09:05:05Z</time>
      </trkpt>
      <trkpt lat="45.960130747407675" lon="9.378343317657709">
        <ele>2097.5100000000002</ele>
        <time>2022-07-10T09:05:20Z</time>
      </trkpt>
      <trkpt lat="45.960112223401666" lon="9.378376677632332">
        <ele>2098.73</ele>
        <time>2022-07-10T09:05:35Z</time>
      </trkpt>
      <trkpt lat="45.960104344412684" lon="9.378386735916138">
        <ele>2098.3899999999999</ele>
        <time>2022-07-10T09:05:48Z</time>
      </trkpt>
      <trkpt lat="45.960104092955589" lon="9.378382964059711">
        <ele>2098.3099999999999</ele>
        <time>2022-07-10T09:06:17Z</time>
      </trkpt>
      <trkpt lat="45.960095291957259" lon="9.378420012071729">
        <ele>2098.5900000000001</ele>
        <time>2022-07-10T09:06:33Z</time>
      </trkpt>
      <trkpt lat="45.960075343027711" lon="9.378475584089756">
        <ele>2099.52</ele>
        <time>2022-07-10T09:06:44Z</time>
      </trkpt>
      <trkpt lat="45.960064949467778" lon="9.37849871814251">
        <ele>2101.5799999999999</ele>
        <time>2022-07-10T09:06:55Z</time>
      </trkpt>
      <trkpt lat="45.960048688575625" lon="9.378551607951522">
        <ele>2102.0900000000001</ele>
        <time>2022-07-10T09:07:05Z</time>
      </trkpt>
      <trkpt lat="45.960022369399667" lon="9.378565521910787">
        <ele>2104.5300000000002</ele>
        <time>2022-07-10T09:07:11Z</time>
      </trkpt>
      <trkpt lat="45.959985069930553" lon="9.378628134727478">
        <ele>2106.27</ele>
        <time>2022-07-10T09:07:23Z</time>
      </trkpt>
      <trkpt lat="45.959959253668785" lon="9.378660321235657">
        <ele>2107.0999999999999</ele>
        <time>2022-07-10T09:07:33Z</time>
      </trkpt>
      <trkpt lat="45.95993896946311" lon="9.378681275993586">
        <ele>2108.7199999999998</ele>
        <time>2022-07-10T09:07:46Z</time>
      </trkpt>
      <trkpt lat="45.959932180121541" lon="9.378678258508444">
        <ele>2107.8400000000001</ele>
        <time>2022-07-10T09:08:03Z</time>
      </trkpt>
      <trkpt lat="45.959905693307519" lon="9.378714384511113">
        <ele>2110.2399999999998</ele>
        <time>2022-07-10T09:08:17Z</time>
      </trkpt>
      <trkpt lat="45.959903011098504" lon="9.378723353147507">
        <ele>2110.8200000000002</ele>
        <time>2022-07-10T09:08:36Z</time>
      </trkpt>
      <trkpt lat="45.959865543991327" lon="9.378754869103432">
        <ele>2112.4299999999998</ele>
        <time>2022-07-10T09:08:47Z</time>
      </trkpt>
      <trkpt lat="45.959817348048091" lon="9.378766436129808">
        <ele>2115.46</ele>
        <time>2022-07-10T09:08:59Z</time>
      </trkpt>
      <trkpt lat="45.959789855405688" lon="9.378822259604931">
        <ele>2115.7800000000002</ele>
        <time>2022-07-10T09:09:10Z</time>
      </trkpt>
      <trkpt lat="45.95975331030786" lon="9.37887498177588">
        <ele>2117.8000000000002</ele>
        <time>2022-07-10T09:09:23Z</time>
      </trkpt>
      <trkpt lat="45.959709975868464" lon="9.378918316215277">
        <ele>2120.0700000000002</ele>
        <time>2022-07-10T09:09:35Z</time>
      </trkpt>
      <trkpt lat="45.959670497104526" lon="9.378955783322454">
        <ele>2121.9899999999998</ele>
        <time>2022-07-10T09:09:49Z</time>
      </trkpt>
      <trkpt lat="45.959637640044093" lon="9.379008505493403">
        <ele>2123.79</ele>
        <time>2022-07-10T09:10:01Z</time>
      </trkpt>
      <trkpt lat="45.959604950621724" lon="9.379060305655003">
        <ele>2125.27</ele>
        <time>2022-07-10T09:10:13Z</time>
      </trkpt>
      <trkpt lat="45.959575949236751" lon="9.379141526296735">
        <ele>2126.9499999999998</ele>
        <time>2022-07-10T09:10:27Z</time>
      </trkpt>
      <trkpt lat="45.959544433280826" lon="9.379146806895733">
        <ele>2129.3699999999999</ele>
        <time>2022-07-10T09:10:43Z</time>
      </trkpt>
      <trkpt lat="45.959524651989341" lon="9.379188884049654">
        <ele>2131.0700000000002</ele>
        <time>2022-07-10T09:10:56Z</time>
      </trkpt>
      <trkpt lat="45.959518197923899" lon="9.379218639805913">
        <ele>2131.6900000000001</ele>
        <time>2022-07-10T09:11:08Z</time>
      </trkpt>
      <trkpt lat="45.959501434117556" lon="9.379302207380533">
        <ele>2132.3200000000002</ele>
        <time>2022-07-10T09:11:19Z</time>
      </trkpt>
      <trkpt lat="45.95946061424911" lon="9.379404634237289">
        <ele>2134.2399999999998</ele>
        <time>2022-07-10T09:11:32Z</time>
      </trkpt>
      <trkpt lat="45.959443431347609" lon="9.37942617572844">
        <ele>2134.9299999999998</ele>
        <time>2022-07-10T09:11:45Z</time>
      </trkpt>
      <trkpt lat="45.95944007858634" lon="9.379431372508407">
        <ele>2135.21</ele>
        <time>2022-07-10T09:12:04Z</time>
      </trkpt>
      <trkpt lat="45.959418453276157" lon="9.379472779110074">
        <ele>2135.75</ele>
        <time>2022-07-10T09:12:17Z</time>
      </trkpt>
      <trkpt lat="45.959403282031417" lon="9.379499601200223">
        <ele>2135.8499999999999</ele>
        <time>2022-07-10T09:12:25Z</time>
      </trkpt>
      <trkpt lat="45.959394397214055" lon="9.379510581493378">
        <ele>2136.04</ele>
        <time>2022-07-10T09:12:26Z</time>
      </trkpt>
      <trkpt lat="45.959357768297195" lon="9.379545534029603">
        <ele>2136.77</ele>
        <time>2022-07-10T09:12:31Z</time>
      </trkpt>
      <trkpt lat="45.959298508241773" lon="9.379662461578846">
        <ele>2136.9499999999998</ele>
        <time>2022-07-10T09:12:42Z</time>
      </trkpt>
      <trkpt lat="45.959295909851789" lon="9.379659527912736">
        <ele>2138.21</ele>
        <time>2022-07-10T09:12:58Z</time>
      </trkpt>
      <trkpt lat="45.959300436079502" lon="9.379650140181184">
        <ele>2138.0500000000002</ele>
        <time>2022-07-10T09:13:12Z</time>
      </trkpt>
      <trkpt lat="45.959284342825413" lon="9.379679141566157">
        <ele>2137.6599999999999</ele>
        <time>2022-07-10T09:13:31Z</time>
      </trkpt>
      <trkpt lat="45.959237823262811" lon="9.379780730232596">
        <ele>2139.1900000000001</ele>
        <time>2022-07-10T09:13:44Z</time>
      </trkpt>
      <trkpt lat="45.959218880161643" lon="9.379846025258303">
        <ele>2141.4299999999998</ele>
        <time>2022-07-10T09:13:52Z</time>
      </trkpt>
      <trkpt lat="45.959170432761312" lon="9.37998172827065">
        <ele>2142.27</ele>
        <time>2022-07-10T09:14:05Z</time>
      </trkpt>
      <trkpt lat="45.959085021167994" lon="9.380035540089011">
        <ele>2144.1300000000001</ele>
        <time>2022-07-10T09:14:20Z</time>
      </trkpt>
      <trkpt lat="45.959024587646127" lon="9.38001986593008">
        <ele>2145.9200000000001</ele>
        <time>2022-07-10T09:14:31Z</time>
      </trkpt>
      <trkpt lat="45.958978570997715" lon="9.380047358572483">
        <ele>2147.3099999999999</ele>
        <time>2022-07-10T09:14:43Z</time>
      </trkpt>
      <trkpt lat="45.958917634561658" lon="9.380084406584501">
        <ele>2149.2800000000002</ele>
        <time>2022-07-10T09:14:57Z</time>
      </trkpt>
      <trkpt lat="45.958850160241127" lon="9.380100248381496">
        <ele>2152.2199999999998</ele>
        <time>2022-07-10T09:15:13Z</time>
      </trkpt>
      <trkpt lat="45.958782518282533" lon="9.380118101835251">
        <ele>2153.75</ele>
        <time>2022-07-10T09:15:25Z</time>
      </trkpt>
      <trkpt lat="45.958739519119263" lon="9.380168728530407">
        <ele>2154.6399999999999</ele>
        <time>2022-07-10T09:15:39Z</time>
      </trkpt>
      <trkpt lat="45.958682186901569" lon="9.380196053534746">
        <ele>2156.1500000000001</ele>
        <time>2022-07-10T09:15:51Z</time>
      </trkpt>
      <trkpt lat="45.958616305142641" lon="9.380250787362456">
        <ele>2156.9899999999998</ele>
        <time>2022-07-10T09:16:03Z</time>
      </trkpt>
      <trkpt lat="45.958561655133963" lon="9.380265958607197">
        <ele>2157.4200000000001</ele>
        <time>2022-07-10T09:16:15Z</time>
      </trkpt>
      <trkpt lat="45.958498707041144" lon="9.380343239754438">
        <ele>2159.6199999999999</ele>
        <time>2022-07-10T09:16:30Z</time>
      </trkpt>
      <trkpt lat="45.958454450592399" lon="9.380399649962783">
        <ele>2161.1999999999998</ele>
        <time>2022-07-10T09:16:42Z</time>
      </trkpt>
      <trkpt lat="45.958407679572701" lon="9.380439464002848">
        <ele>2162.2600000000002</ele>
        <time>2022-07-10T09:16:51Z</time>
      </trkpt>
      <trkpt lat="45.958347413688898" lon="9.380497382953763">
        <ele>2164.1999999999998</ele>
        <time>2022-07-10T09:17:05Z</time>
      </trkpt>
      <trkpt lat="45.95831086859107" lon="9.380579022690654">
        <ele>2165.2199999999998</ele>
        <time>2022-07-10T09:17:16Z</time>
      </trkpt>
      <trkpt lat="45.958256050944328" lon="9.380673654377461">
        <ele>2165.1100000000001</ele>
        <time>2022-07-10T09:17:29Z</time>
      </trkpt>
      <trkpt lat="45.958220595493913" lon="9.380745403468609">
        <ele>2163.54</ele>
        <time>2022-07-10T09:17:42Z</time>
      </trkpt>
      <trkpt lat="45.958190001547337" lon="9.380801897495985">
        <ele>2163.3299999999999</ele>
        <time>2022-07-10T09:17:52Z</time>
      </trkpt>
      <trkpt lat="45.958159575238824" lon="9.380845315754414">
        <ele>2164.4499999999998</ele>
        <time>2022-07-10T09:18:02Z</time>
      </trkpt>
      <trkpt lat="45.958131914958358" lon="9.380852691829205">
        <ele>2164.1900000000001</ele>
        <time>2022-07-10T09:18:14Z</time>
      </trkpt>
      <trkpt lat="45.958124035969377" lon="9.380862498655915">
        <ele>2164.0300000000002</ele>
        <time>2022-07-10T09:18:33Z</time>
      </trkpt>
      <trkpt lat="45.958128729835153" lon="9.380851099267602">
        <ele>2165.04</ele>
        <time>2022-07-10T09:18:48Z</time>
      </trkpt>
      <trkpt lat="45.958112888038158" lon="9.380840873345733">
        <ele>2164.3600000000001</ele>
        <time>2022-07-10T09:19:06Z</time>
      </trkpt>
      <trkpt lat="45.958081288263202" lon="9.380873814225197">
        <ele>2164.5799999999999</ele>
        <time>2022-07-10T09:19:16Z</time>
      </trkpt>
      <trkpt lat="45.958049856126308" lon="9.380929050967097">
        <ele>2166.0799999999999</ele>
        <time>2022-07-10T09:19:30Z</time>
      </trkpt>
      <trkpt lat="45.958048012107611" lon="9.380963249132037">
        <ele>2166.6100000000001</ele>
        <time>2022-07-10T09:19:34Z</time>
      </trkpt>
      <trkpt lat="45.958038792014122" lon="9.380969787016511">
        <ele>2167.8200000000002</ele>
        <time>2022-07-10T09:19:44Z</time>
      </trkpt>
      <trkpt lat="45.958014233037829" lon="9.38099468126893">
        <ele>2167.98</ele>
        <time>2022-07-10T09:19:58Z</time>
      </trkpt>
      <trkpt lat="45.957960085943341" lon="9.380991328507662">
        <ele>2168.9400000000001</ele>
        <time>2022-07-10T09:20:11Z</time>
      </trkpt>
      <trkpt lat="45.957918260246515" lon="9.381045727059245">
        <ele>2170.5999999999999</ele>
        <time>2022-07-10T09:20:21Z</time>
      </trkpt>
      <trkpt lat="45.957900574430823" lon="9.381097359582782">
        <ele>2172.1799999999998</ele>
        <time>2022-07-10T09:20:34Z</time>
      </trkpt>
      <trkpt lat="45.957905016839504" lon="9.381086966022849">
        <ele>2172.0500000000002</ele>
        <time>2022-07-10T09:20:46Z</time>
      </trkpt>
      <trkpt lat="45.957908201962709" lon="9.381060814484954">
        <ele>2171.9699999999998</ele>
        <time>2022-07-10T09:21:03Z</time>
      </trkpt>
      <trkpt lat="45.957900742068887" lon="9.381072381511331">
        <ele>2172.2399999999998</ele>
        <time>2022-07-10T09:21:27Z</time>
      </trkpt>
      <trkpt lat="45.957867968827486" lon="9.381121750921011">
        <ele>2171.48</ele>
        <time>2022-07-10T09:21:40Z</time>
      </trkpt>
      <trkpt lat="45.957868387922645" lon="9.381133234128356">
        <ele>2170.29</ele>
        <time>2022-07-10T09:21:52Z</time>
      </trkpt>
      <trkpt lat="45.957859251648188" lon="9.38115444034338">
        <ele>2169</ele>
        <time>2022-07-10T09:22:06Z</time>
      </trkpt>
      <trkpt lat="45.957857994362712" lon="9.381155613809824">
        <ele>2169.3200000000002</ele>
        <time>2022-07-10T09:22:25Z</time>
      </trkpt>
      <trkpt lat="45.957854557782412" lon="9.381152680143714">
        <ele>2169.6700000000001</ele>
        <time>2022-07-10T09:22:39Z</time>
      </trkpt>
      <trkpt lat="45.95784910954535" lon="9.381153183057904">
        <ele>2169.2399999999998</ele>
        <time>2022-07-10T09:22:57Z</time>
      </trkpt>
      <trkpt lat="45.957831256091595" lon="9.381199199706316">
        <ele>2170.71</ele>
        <time>2022-07-10T09:23:08Z</time>
      </trkpt>
      <trkpt lat="45.957811390981078" lon="9.381250245496631">
        <ele>2171.9299999999998</ele>
        <time>2022-07-10T09:23:18Z</time>
      </trkpt>
      <trkpt lat="45.957752298563719" lon="9.381257705390453">
        <ele>2173.6799999999998</ele>
        <time>2022-07-10T09:23:29Z</time>
      </trkpt>
      <trkpt lat="45.957755316048861" lon="9.381260722875595">
        <ele>2173.0599999999999</ele>
        <time>2022-07-10T09:23:40Z</time>
      </trkpt>
      <trkpt lat="45.957724889740348" lon="9.381283689290285">
        <ele>2174.5900000000001</ele>
        <time>2022-07-10T09:23:52Z</time>
      </trkpt>
      <trkpt lat="45.957689015194774" lon="9.381259800866246">
        <ele>2177.2600000000002</ele>
        <time>2022-07-10T09:24:04Z</time>
      </trkpt>
      <trkpt lat="45.957649536430836" lon="9.381246222183108">
        <ele>2180.21</ele>
        <time>2022-07-10T09:24:16Z</time>
      </trkpt>
      <trkpt lat="45.957655906677246" lon="9.381227614358068">
        <ele>2180.52</ele>
        <time>2022-07-10T09:24:25Z</time>
      </trkpt>
      <trkpt lat="45.957653392106295" lon="9.381230212748051">
        <ele>2180.3899999999999</ele>
        <time>2022-07-10T09:24:38Z</time>
      </trkpt>
      <trkpt lat="45.957653224468231" lon="9.381230631843209">
        <ele>2180.54</ele>
        <time>2022-07-10T09:24:59Z</time>
      </trkpt>
      <trkpt lat="45.957619110122323" lon="9.381238510832191">
        <ele>2181.6100000000001</ele>
        <time>2022-07-10T09:25:20Z</time>
      </trkpt>
      <trkpt lat="45.957548785954714" lon="9.38122577033937">
        <ele>2183.5</ele>
        <time>2022-07-10T09:25:31Z</time>
      </trkpt>
      <trkpt lat="45.957507211714983" lon="9.381276899948716">
        <ele>2185.96</ele>
        <time>2022-07-10T09:25:42Z</time>
      </trkpt>
      <trkpt lat="45.957444598898292" lon="9.38132400624454">
        <ele>2188.5999999999999</ele>
        <time>2022-07-10T09:25:55Z</time>
      </trkpt>
      <trkpt lat="45.957391792908311" lon="9.38132006675005">
        <ele>2190.9099999999999</ele>
        <time>2022-07-10T09:26:08Z</time>
      </trkpt>
      <trkpt lat="45.957387182861567" lon="9.381383182480931">
        <ele>2192.8699999999999</ele>
        <time>2022-07-10T09:26:20Z</time>
      </trkpt>
      <trkpt lat="45.957375867292285" lon="9.381447052583098">
        <ele>2193.4000000000001</ele>
        <time>2022-07-10T09:26:32Z</time>
      </trkpt>
      <trkpt lat="45.95734728500247" lon="9.381467336788774">
        <ele>2194.9499999999998</ele>
        <time>2022-07-10T09:26:43Z</time>
      </trkpt>
      <trkpt lat="45.957310236990452" lon="9.381499188020825">
        <ele>2194.3699999999999</ele>
        <time>2022-07-10T09:26:52Z</time>
      </trkpt>
      <trkpt lat="45.957271596416831" lon="9.381561130285263">
        <ele>2193.8499999999999</ele>
        <time>2022-07-10T09:26:58Z</time>
      </trkpt>
      <trkpt lat="45.957261873409152" lon="9.381586695089936">
        <ele>2193.9499999999998</ele>
        <time>2022-07-10T09:27:00Z</time>
      </trkpt>
      <trkpt lat="45.957224238663912" lon="9.381657857447863">
        <ele>2195.98</ele>
        <time>2022-07-10T09:27:12Z</time>
      </trkpt>
      <trkpt lat="45.957197416573763" lon="9.381708148866892">
        <ele>2197.1799999999998</ele>
        <time>2022-07-10T09:27:25Z</time>
      </trkpt>
      <trkpt lat="45.957166319712996" lon="9.381704293191433">
        <ele>2199.0900000000001</ele>
        <time>2022-07-10T09:27:37Z</time>
      </trkpt>
      <trkpt lat="45.957147376611829" lon="9.381751734763384">
        <ele>2200.5</ele>
        <time>2022-07-10T09:27:51Z</time>
      </trkpt>
      <trkpt lat="45.957109658047557" lon="9.381804121658206">
        <ele>2202.3499999999999</ele>
        <time>2022-07-10T09:28:05Z</time>
      </trkpt>
      <trkpt lat="45.957102198153734" lon="9.381815101951361">
        <ele>2203.3200000000002</ele>
        <time>2022-07-10T09:28:23Z</time>
      </trkpt>
      <trkpt lat="45.957071185112" lon="9.381816778331995">
        <ele>2205.6999999999998</ele>
        <time>2022-07-10T09:28:35Z</time>
      </trkpt>
      <trkpt lat="45.957023994997144" lon="9.381883917376399">
        <ele>2204.8699999999999</ele>
        <time>2022-07-10T09:28:48Z</time>
      </trkpt>
      <trkpt lat="45.956982001662254" lon="9.381941584870219">
        <ele>2204.3899999999999</ele>
        <time>2022-07-10T09:28:54Z</time>
      </trkpt>
      <trkpt lat="45.95697496086359" lon="9.381952732801437">
        <ele>2204.52</ele>
        <time>2022-07-10T09:28:55Z</time>
      </trkpt>
      <trkpt lat="45.956967500969768" lon="9.381964299827814">
        <ele>2204.77</ele>
        <time>2022-07-10T09:28:56Z</time>
      </trkpt>
      <trkpt lat="45.956884352490306" lon="9.382157670333982">
        <ele>2204.0900000000001</ele>
        <time>2022-07-10T09:29:12Z</time>
      </trkpt>
      <trkpt lat="45.956880580633879" lon="9.382158508524299">
        <ele>2204.0300000000002</ele>
        <time>2022-07-10T09:29:27Z</time>
      </trkpt>
      <trkpt lat="45.956880412995815" lon="9.382159346714616">
        <ele>2204.27</ele>
        <time>2022-07-10T09:29:46Z</time>
      </trkpt>
      <trkpt lat="45.956881167367101" lon="9.382160604000092">
        <ele>2205.5999999999999</ele>
        <time>2022-07-10T09:29:53Z</time>
      </trkpt>
      <trkpt lat="45.956882759928703" lon="9.382159598171711">
        <ele>2203.6599999999999</ele>
        <time>2022-07-10T09:29:56Z</time>
      </trkpt>
      <trkpt lat="45.956881837919354" lon="9.382163286209106">
        <ele>2200.4899999999998</ele>
        <time>2022-07-10T09:30:08Z</time>
      </trkpt>
      <trkpt lat="45.956881670281291" lon="9.38216295093298">
        <ele>2201.71</ele>
        <time>2022-07-10T09:30:09Z</time>
      </trkpt>
      <trkpt lat="45.956881418824196" lon="9.382163034752011">
        <ele>2203.6999999999998</ele>
        <time>2022-07-10T09:30:11Z</time>
      </trkpt>
      <trkpt lat="45.956882173195481" lon="9.382162448018789">
        <ele>2206.6700000000001</ele>
        <time>2022-07-10T09:30:13Z</time>
      </trkpt>
      <trkpt lat="45.956881754100323" lon="9.382163202390075">
        <ele>2203.3800000000001</ele>
        <time>2022-07-10T09:30:15Z</time>
      </trkpt>
      <trkpt lat="45.956883179023862" lon="9.382166219875217">
        <ele>2204.2199999999998</ele>
        <time>2022-07-10T09:30:32Z</time>
      </trkpt>
      <trkpt lat="45.956884017214179" lon="9.382165716961026">
        <ele>2204.0300000000002</ele>
        <time>2022-07-10T09:30:51Z</time>
      </trkpt>
      <trkpt lat="45.956884017214179" lon="9.382165465503931">
        <ele>2204.3899999999999</ele>
        <time>2022-07-10T09:31:14Z</time>
      </trkpt>
      <trkpt lat="45.956882340833545" lon="9.382158340886235">
        <ele>2204.6300000000001</ele>
        <time>2022-07-10T09:31:32Z</time>
      </trkpt>
      <trkpt lat="45.956882927566767" lon="9.382155910134316">
        <ele>2204.8800000000001</ele>
        <time>2022-07-10T09:31:51Z</time>
      </trkpt>
      <trkpt lat="45.956884184852242" lon="9.38215708360076">
        <ele>2204.7399999999998</ele>
        <time>2022-07-10T09:32:23Z</time>
      </trkpt>
      <trkpt lat="45.956883933395147" lon="9.382160771638155">
        <ele>2205.2800000000002</ele>
        <time>2022-07-10T09:32:43Z</time>
      </trkpt>
      <trkpt lat="45.95688502304256" lon="9.382162448018789">
        <ele>2201.6100000000001</ele>
        <time>2022-07-10T09:32:47Z</time>
      </trkpt>
      <trkpt lat="45.956884939223528" lon="9.382162867113948">
        <ele>2202.9099999999999</ele>
        <time>2022-07-10T09:32:48Z</time>
      </trkpt>
      <trkpt lat="45.956885442137718" lon="9.382163118571043">
        <ele>2208.0900000000001</ele>
        <time>2022-07-10T09:32:50Z</time>
      </trkpt>
      <trkpt lat="45.956885693594813" lon="9.382163789123297">
        <ele>2207.8600000000001</ele>
        <time>2022-07-10T09:32:51Z</time>
      </trkpt>
      <trkpt lat="45.956886950880289" lon="9.382163286209106">
        <ele>2204.8200000000002</ele>
        <time>2022-07-10T09:32:54Z</time>
      </trkpt>
      <trkpt lat="45.956886447966099" lon="9.382168650627136">
        <ele>2204.7399999999998</ele>
        <time>2022-07-10T09:33:16Z</time>
      </trkpt>
      <trkpt lat="45.956884101033211" lon="9.382169656455517">
        <ele>2204.9299999999998</ele>
        <time>2022-07-10T09:33:37Z</time>
      </trkpt>
      <trkpt lat="45.956881837919354" lon="9.382174937054515">
        <ele>2205.1300000000001</ele>
        <time>2022-07-10T09:33:56Z</time>
      </trkpt>
      <trkpt lat="45.956864152103662" lon="9.382259761914611">
        <ele>2204.8000000000002</ele>
        <time>2022-07-10T09:34:13Z</time>
      </trkpt>
      <trkpt lat="45.956848645582795" lon="9.382301503792405">
        <ele>2204.3400000000001</ele>
        <time>2022-07-10T09:34:27Z</time>
      </trkpt>
      <trkpt lat="45.956847807392478" lon="9.382346095517278">
        <ele>2202.9899999999998</ele>
        <time>2022-07-10T09:34:39Z</time>
      </trkpt>
      <trkpt lat="45.956800365820527" lon="9.382422203198075">
        <ele>2201.3400000000001</ele>
        <time>2022-07-10T09:34:49Z</time>
      </trkpt>
      <trkpt lat="45.956790391355753" lon="9.382428238168359">
        <ele>2200.8899999999999</ele>
        <time>2022-07-10T09:34:50Z</time>
      </trkpt>
      <trkpt lat="45.956766670569777" lon="9.382468136027455">
        <ele>2200.9499999999998</ele>
        <time>2022-07-10T09:35:00Z</time>
      </trkpt>
      <trkpt lat="45.956754684448242" lon="9.382540890946984">
        <ele>2201.3600000000001</ele>
        <time>2022-07-10T09:35:16Z</time>
      </trkpt>
      <trkpt lat="45.956756863743067" lon="9.382589505985379">
        <ele>2203.3200000000002</ele>
        <time>2022-07-10T09:35:28Z</time>
      </trkpt>
      <trkpt lat="45.956728784367442" lon="9.38260174356401">
        <ele>2204.21</ele>
        <time>2022-07-10T09:35:45Z</time>
      </trkpt>
      <trkpt lat="45.956727443262935" lon="9.382601995021105">
        <ele>2204.4200000000001</ele>
        <time>2022-07-10T09:36:00Z</time>
      </trkpt>
      <trkpt lat="45.956707997247577" lon="9.382646586745977">
        <ele>2204.7199999999998</ele>
        <time>2022-07-10T09:36:14Z</time>
      </trkpt>
      <trkpt lat="45.956656616181135" lon="9.38274591229856">
        <ele>2206.6300000000001</ele>
        <time>2022-07-10T09:36:25Z</time>
      </trkpt>
      <trkpt lat="45.956623759120703" lon="9.382822355255485">
        <ele>2207.8400000000001</ele>
        <time>2022-07-10T09:36:34Z</time>
      </trkpt>
      <trkpt lat="45.956561733037233" lon="9.382893014699221">
        <ele>2210.0700000000002</ele>
        <time>2022-07-10T09:36:46Z</time>
      </trkpt>
      <trkpt lat="45.956518147140741" lon="9.382976414635778">
        <ele>2210.6100000000001</ele>
        <time>2022-07-10T09:36:58Z</time>
      </trkpt>
      <trkpt lat="45.956483194604516" lon="9.383022850379348">
        <ele>2211.6199999999999</ele>
        <time>2022-07-10T09:37:07Z</time>
      </trkpt>
      <trkpt lat="45.956445224583149" lon="9.383044559508562">
        <ele>2213.4000000000001</ele>
        <time>2022-07-10T09:37:18Z</time>
      </trkpt>
      <trkpt lat="45.956444470211864" lon="9.383049001917243">
        <ele>2213.6900000000001</ele>
        <time>2022-07-10T09:37:36Z</time>
      </trkpt>
      <trkpt lat="45.956410858780146" lon="9.383093426004052">
        <ele>2212.5</ele>
        <time>2022-07-10T09:37:53Z</time>
      </trkpt>
      <trkpt lat="45.956353694200516" lon="9.38314757309854">
        <ele>2211.6900000000001</ele>
        <time>2022-07-10T09:38:04Z</time>
      </trkpt>
      <trkpt lat="45.956327626481652" lon="9.383199205622077">
        <ele>2211.6100000000001</ele>
        <time>2022-07-10T09:38:09Z</time>
      </trkpt>
      <trkpt lat="45.956270880997181" lon="9.383292160928249">
        <ele>2210.71</ele>
        <time>2022-07-10T09:38:21Z</time>
      </trkpt>
      <trkpt lat="45.956265600398183" lon="9.383303727954626">
        <ele>2210.7800000000002</ele>
        <time>2022-07-10T09:38:22Z</time>
      </trkpt>
      <trkpt lat="45.956238023936749" lon="9.383342284709215">
        <ele>2211.4400000000001</ele>
        <time>2022-07-10T09:38:33Z</time>
      </trkpt>
      <trkpt lat="45.956238275393844" lon="9.383326107636094">
        <ele>2211.1100000000001</ele>
        <time>2022-07-10T09:38:53Z</time>
      </trkpt>
      <trkpt lat="45.956237353384495" lon="9.383343541994691">
        <ele>2212.6999999999998</ele>
        <time>2022-07-10T09:39:08Z</time>
      </trkpt>
      <trkpt lat="45.956238610669971" lon="9.383358294144273">
        <ele>2212.9499999999998</ele>
        <time>2022-07-10T09:39:25Z</time>
      </trkpt>
      <trkpt lat="45.956244561821222" lon="9.383365837857127">
        <ele>2213.2600000000002</ele>
        <time>2022-07-10T09:39:37Z</time>
      </trkpt>
      <trkpt lat="45.956246824935079" lon="9.383364915847778">
        <ele>2213.29</ele>
        <time>2022-07-10T09:39:48Z</time>
      </trkpt>
      <trkpt lat="45.95624933950603" lon="9.38336399383843">
        <ele>2213.2199999999998</ele>
        <time>2022-07-10T09:40:02Z</time>
      </trkpt>
      <trkpt lat="45.956248501315713" lon="9.383366089314222">
        <ele>2213.1900000000001</ele>
        <time>2022-07-10T09:40:22Z</time>
      </trkpt>
      <trkpt lat="45.956248920410872" lon="9.383366424590349">
        <ele>2212.75</ele>
        <time>2022-07-10T09:40:39Z</time>
      </trkpt>
      <trkpt lat="45.956249674782157" lon="9.383368100970984">
        <ele>2212.6500000000001</ele>
        <time>2022-07-10T09:40:53Z</time>
      </trkpt>
      <trkpt lat="45.956251854076982" lon="9.383392324671149">
        <ele>2213.52</ele>
        <time>2022-07-10T09:41:09Z</time>
      </trkpt>
      <trkpt lat="45.956248501315713" lon="9.383393414318562">
        <ele>2213.2600000000002</ele>
        <time>2022-07-10T09:41:25Z</time>
      </trkpt>
      <trkpt lat="45.956248585134745" lon="9.383390145376325">
        <ele>2213.1700000000001</ele>
        <time>2022-07-10T09:41:45Z</time>
      </trkpt>
      <trkpt lat="45.956245986744761" lon="9.383398275822401">
        <ele>2213.3099999999999</ele>
        <time>2022-07-10T09:42:08Z</time>
      </trkpt>
      <trkpt lat="45.95623224042356" lon="9.383406741544604">
        <ele>2214.5599999999999</ele>
        <time>2022-07-10T09:42:26Z</time>
      </trkpt>
      <trkpt lat="45.956173567101359" lon="9.383376315236092">
        <ele>2216.9699999999998</ele>
        <time>2022-07-10T09:42:39Z</time>
      </trkpt>
      <trkpt lat="45.956137189641595" lon="9.383360054343939">
        <ele>2219.5599999999999</ele>
        <time>2022-07-10T09:42:46Z</time>
      </trkpt>
      <trkpt lat="45.95617163926363" lon="9.383381512016058">
        <ele>2217.3400000000001</ele>
        <time>2022-07-10T09:43:00Z</time>
      </trkpt>
      <trkpt lat="45.956180607900023" lon="9.38339676707983">
        <ele>2217.04</ele>
        <time>2022-07-10T09:43:15Z</time>
      </trkpt>
      <trkpt lat="45.956193935126066" lon="9.383453093469143">
        <ele>2216.6100000000001</ele>
        <time>2022-07-10T09:43:27Z</time>
      </trkpt>
      <trkpt lat="45.956177171319723" lon="9.383501959964633">
        <ele>2218.3899999999999</ele>
        <time>2022-07-10T09:43:40Z</time>
      </trkpt>
      <trkpt lat="45.956137022003531" lon="9.383567674085498">
        <ele>2219.0999999999999</ele>
        <time>2022-07-10T09:43:51Z</time>
      </trkpt>
      <trkpt lat="45.956092597916722" lon="9.38358929939568">
        <ele>2220.6300000000001</ele>
        <time>2022-07-10T09:44:04Z</time>
      </trkpt>
      <trkpt lat="45.95606368035078" lon="9.383641434833407">
        <ele>2220.73</ele>
        <time>2022-07-10T09:44:16Z</time>
      </trkpt>
      <trkpt lat="45.956053622066975" lon="9.383674543350935">
        <ele>2221.8099999999999</ele>
        <time>2022-07-10T09:44:20Z</time>
      </trkpt>
      <trkpt lat="45.956031074747443" lon="9.383815862238407">
        <ele>2222.0900000000001</ele>
        <time>2022-07-10T09:44:33Z</time>
      </trkpt>
      <trkpt lat="45.956029398366809" lon="9.383929269388318">
        <ele>2223.1999999999998</ele>
        <time>2022-07-10T09:44:43Z</time>
      </trkpt>
      <trkpt lat="45.956004587933421" lon="9.384033875539899">
        <ele>2224.1999999999998</ele>
        <time>2022-07-10T09:44:57Z</time>
      </trkpt>
      <trkpt lat="45.955977765843272" lon="9.384087352082133">
        <ele>2224.9499999999998</ele>
        <time>2022-07-10T09:45:13Z</time>
      </trkpt>
      <trkpt lat="45.95597181469202" lon="9.38408768735826">
        <ele>2224.98</ele>
        <time>2022-07-10T09:45:32Z</time>
      </trkpt>
      <trkpt lat="45.955970389768481" lon="9.384094309061766">
        <ele>2224.8299999999999</ele>
        <time>2022-07-10T09:45:48Z</time>
      </trkpt>
      <trkpt lat="45.955961421132088" lon="9.384134458377957">
        <ele>2224.27</ele>
        <time>2022-07-10T09:46:06Z</time>
      </trkpt>
      <trkpt lat="45.955959660932422" lon="9.384171674028039">
        <ele>2223.0999999999999</ele>
        <time>2022-07-10T09:46:19Z</time>
      </trkpt>
      <trkpt lat="45.955961169674993" lon="9.384220791980624">
        <ele>2221.3400000000001</ele>
        <time>2022-07-10T09:46:29Z</time>
      </trkpt>
      <trkpt lat="45.955974832177162" lon="9.384263623505831">
        <ele>2220.52</ele>
        <time>2022-07-10T09:46:43Z</time>
      </trkpt>
      <trkpt lat="45.955978520214558" lon="9.384295390918851">
        <ele>2219.4699999999998</ele>
        <time>2022-07-10T09:46:47Z</time>
      </trkpt>
      <trkpt lat="45.955977011471987" lon="9.384312238544226">
        <ele>2219.1399999999999</ele>
        <time>2022-07-10T09:46:48Z</time>
      </trkpt>
      <trkpt lat="45.955976592376828" lon="9.38433151692152">
        <ele>2218.75</ele>
        <time>2022-07-10T09:46:49Z</time>
      </trkpt>
      <trkpt lat="45.955976257100701" lon="9.384349705651403">
        <ele>2218.5300000000002</ele>
        <time>2022-07-10T09:46:50Z</time>
      </trkpt>
      <trkpt lat="45.955944573506713" lon="9.384482810273767">
        <ele>2218.6399999999999</ele>
        <time>2022-07-10T09:47:01Z</time>
      </trkpt>
      <trkpt lat="45.955901490524411" lon="9.384576184675098">
        <ele>2218.6500000000001</ele>
        <time>2022-07-10T09:47:10Z</time>
      </trkpt>
      <trkpt lat="45.955898892134428" lon="9.384592780843377">
        <ele>2218.6700000000001</ele>
        <time>2022-07-10T09:47:11Z</time>
      </trkpt>
      <trkpt lat="45.95589704811573" lon="9.384648436680436">
        <ele>2218.3699999999999</ele>
        <time>2022-07-10T09:47:16Z</time>
      </trkpt>
      <trkpt lat="45.955925127491355" lon="9.384779278188944">
        <ele>2217.9000000000001</ele>
        <time>2022-07-10T09:47:26Z</time>
      </trkpt>
      <trkpt lat="45.955904675647616" lon="9.384887320920825">
        <ele>2218.8699999999999</ele>
        <time>2022-07-10T09:47:38Z</time>
      </trkpt>
      <trkpt lat="45.955894952639937" lon="9.384970804676414">
        <ele>2218.71</ele>
        <time>2022-07-10T09:47:50Z</time>
      </trkpt>
      <trkpt lat="45.955904172733426" lon="9.385011121630669">
        <ele>2218.1100000000001</ele>
        <time>2022-07-10T09:47:57Z</time>
      </trkpt>
      <trkpt lat="45.955885984003544" lon="9.385069711133838">
        <ele>2218.9499999999998</ele>
        <time>2022-07-10T09:48:06Z</time>
      </trkpt>
      <trkpt lat="45.955868465825915" lon="9.38512553460896">
        <ele>2219.7399999999998</ele>
        <time>2022-07-10T09:48:14Z</time>
      </trkpt>
      <trkpt lat="45.955846086144447" lon="9.385181944817305">
        <ele>2221.1100000000001</ele>
        <time>2022-07-10T09:48:22Z</time>
      </trkpt>
      <trkpt lat="45.95584524795413" lon="9.385234415531158">
        <ele>2222.5100000000002</ele>
        <time>2022-07-10T09:48:32Z</time>
      </trkpt>
      <trkpt lat="45.955808786675334" lon="9.385269954800606">
        <ele>2224.3000000000002</ele>
        <time>2022-07-10T09:48:46Z</time>
      </trkpt>
      <trkpt lat="45.955786323174834" lon="9.385305410251021">
        <ele>2226.25</ele>
        <time>2022-07-10T09:48:59Z</time>
      </trkpt>
      <trkpt lat="45.955769140273333" lon="9.385369615629315">
        <ele>2227.5500000000002</ele>
        <time>2022-07-10T09:49:12Z</time>
      </trkpt>
      <trkpt lat="45.955750700086355" lon="9.385423511266708">
        <ele>2229.71</ele>
        <time>2022-07-10T09:49:26Z</time>
      </trkpt>
      <trkpt lat="45.955728488042951" lon="9.385452177375555">
        <ele>2230.9000000000001</ele>
        <time>2022-07-10T09:49:40Z</time>
      </trkpt>
      <trkpt lat="45.955706695094705" lon="9.385502804070711">
        <ele>2232.71</ele>
        <time>2022-07-10T09:49:53Z</time>
      </trkpt>
      <trkpt lat="45.955682555213571" lon="9.385501714423299">
        <ele>2233.1199999999999</ele>
        <time>2022-07-10T09:50:07Z</time>
      </trkpt>
      <trkpt lat="45.955670149996877" lon="9.385529542341828">
        <ele>2234.3200000000002</ele>
        <time>2022-07-10T09:50:13Z</time>
      </trkpt>
      <trkpt lat="45.955633772537112" lon="9.385557370260358">
        <ele>2236.1199999999999</ele>
        <time>2022-07-10T09:50:28Z</time>
      </trkpt>
      <trkpt lat="45.955589432269335" lon="9.385575307533145">
        <ele>2237.6100000000001</ele>
        <time>2022-07-10T09:50:43Z</time>
      </trkpt>
      <trkpt lat="45.955554228276014" lon="9.385592909529805">
        <ele>2239.9200000000001</ele>
        <time>2022-07-10T09:50:56Z</time>
      </trkpt>
      <trkpt lat="45.95551542006433" lon="9.385634567588568">
        <ele>2242.1300000000001</ele>
        <time>2022-07-10T09:51:11Z</time>
      </trkpt>
      <trkpt lat="45.955480635166168" lon="9.385610343888402">
        <ele>2243.5999999999999</ele>
        <time>2022-07-10T09:51:25Z</time>
      </trkpt>
      <trkpt lat="45.955445431172848" lon="9.385669603943825">
        <ele>2245.0900000000001</ele>
        <time>2022-07-10T09:51:39Z</time>
      </trkpt>
      <trkpt lat="45.955407628789544" lon="9.385712016373873">
        <ele>2246.8899999999999</ele>
        <time>2022-07-10T09:51:54Z</time>
      </trkpt>
      <trkpt lat="45.955378711223602" lon="9.385769348591566">
        <ele>2248.3899999999999</ele>
        <time>2022-07-10T09:52:10Z</time>
      </trkpt>
      <trkpt lat="45.955337639898062" lon="9.385798601433635">
        <ele>2250.3600000000001</ele>
        <time>2022-07-10T09:52:25Z</time>
      </trkpt>
      <trkpt lat="45.955307297408581" lon="9.385852916166186">
        <ele>2252.7399999999998</ele>
        <time>2022-07-10T09:52:39Z</time>
      </trkpt>
      <trkpt lat="45.95529162324965" lon="9.38590781763196">
        <ele>2253.77</ele>
        <time>2022-07-10T09:52:57Z</time>
      </trkpt>
      <trkpt lat="45.955272512510419" lon="9.385910080745816">
        <ele>2254.5900000000001</ele>
        <time>2022-07-10T09:53:14Z</time>
      </trkpt>
      <trkpt lat="45.955263711512089" lon="9.385910080745816">
        <ele>2254.73</ele>
        <time>2022-07-10T09:53:38Z</time>
      </trkpt>
      <trkpt lat="45.955263879150152" lon="9.385905889794231">
        <ele>2254.27</ele>
        <time>2022-07-10T09:53:56Z</time>
      </trkpt>
      <trkpt lat="45.955255748704076" lon="9.385912427678704">
        <ele>2254.7199999999998</ele>
        <time>2022-07-10T09:54:24Z</time>
      </trkpt>
      <trkpt lat="45.955248540267348" lon="9.385906141251326">
        <ele>2255.1100000000001</ele>
        <time>2022-07-10T09:54:42Z</time>
      </trkpt>
      <trkpt lat="45.955202439799905" lon="9.385977052152157">
        <ele>2258.0300000000002</ele>
        <time>2022-07-10T09:54:54Z</time>
      </trkpt>
      <trkpt lat="45.955173522233963" lon="9.385986523702741">
        <ele>2259.6999999999998</ele>
        <time>2022-07-10T09:55:03Z</time>
      </trkpt>
      <trkpt lat="45.955129181966186" lon="9.386049220338464">
        <ele>2262.7800000000002</ele>
        <time>2022-07-10T09:55:15Z</time>
      </trkpt>
      <trkpt lat="45.955055085942149" lon="9.386148629710078">
        <ele>2265.25</ele>
        <time>2022-07-10T09:55:32Z</time>
      </trkpt>
      <trkpt lat="45.954997418448329" lon="9.386169668287039">
        <ele>2267.46</ele>
        <time>2022-07-10T09:55:48Z</time>
      </trkpt>
      <trkpt lat="45.954970931634307" lon="9.386173943057656">
        <ele>2268.9499999999998</ele>
        <time>2022-07-10T09:56:02Z</time>
      </trkpt>
      <trkpt lat="45.954958610236645" lon="9.38620537519455">
        <ele>2270.5799999999999</ele>
        <time>2022-07-10T09:56:10Z</time>
      </trkpt>
      <trkpt lat="45.95493690110743" lon="9.386255918070674">
        <ele>2272.6900000000001</ele>
        <time>2022-07-10T09:56:21Z</time>
      </trkpt>
      <trkpt lat="45.954911923035979" lon="9.38630604185164">
        <ele>2274.6399999999999</ele>
        <time>2022-07-10T09:56:36Z</time>
      </trkpt>
      <trkpt lat="45.954890130087733" lon="9.386352393776178">
        <ele>2276.8299999999999</ele>
        <time>2022-07-10T09:56:49Z</time>
      </trkpt>
      <trkpt lat="45.954877808690071" lon="9.386390447616577">
        <ele>2278.3400000000001</ele>
        <time>2022-07-10T09:57:01Z</time>
      </trkpt>
      <trkpt lat="45.954873450100422" lon="9.386454485356808">
        <ele>2279.3899999999999</ele>
        <time>2022-07-10T09:57:13Z</time>
      </trkpt>
      <trkpt lat="45.954873031005263" lon="9.386486671864986">
        <ele>2279.4699999999998</ele>
        <time>2022-07-10T09:57:24Z</time>
      </trkpt>
      <trkpt lat="45.954874539747834" lon="9.386570658534765">
        <ele>2281.4899999999998</ele>
        <time>2022-07-10T09:57:35Z</time>
      </trkpt>
      <trkpt lat="45.954867415130138" lon="9.386593038216233">
        <ele>2282</ele>
        <time>2022-07-10T09:57:47Z</time>
      </trkpt>
      <trkpt lat="45.954831121489406" lon="9.386661853641272">
        <ele>2283.9499999999998</ele>
        <time>2022-07-10T09:58:01Z</time>
      </trkpt>
      <trkpt lat="45.95481569878757" lon="9.386709965765476">
        <ele>2284.3499999999999</ele>
        <time>2022-07-10T09:58:12Z</time>
      </trkpt>
      <trkpt lat="45.954803712666035" lon="9.386727819219232">
        <ele>2285.0599999999999</ele>
        <time>2022-07-10T09:58:30Z</time>
      </trkpt>
      <trkpt lat="45.954773621633649" lon="9.386803423985839">
        <ele>2285.98</ele>
        <time>2022-07-10T09:58:41Z</time>
      </trkpt>
      <trkpt lat="45.954761719331145" lon="9.386849021539092">
        <ele>2287.1199999999999</ele>
        <time>2022-07-10T09:58:48Z</time>
      </trkpt>
      <trkpt lat="45.954755432903767" lon="9.386870646849275">
        <ele>2287.48</ele>
        <time>2022-07-10T09:58:57Z</time>
      </trkpt>
      <trkpt lat="45.954745709896088" lon="9.386920016258955">
        <ele>2288.9099999999999</ele>
        <time>2022-07-10T09:59:08Z</time>
      </trkpt>
      <trkpt lat="45.954711260274053" lon="9.386985646560788">
        <ele>2291.2199999999998</ele>
        <time>2022-07-10T09:59:20Z</time>
      </trkpt>
      <trkpt lat="45.954670608043671" lon="9.387036943808198">
        <ele>2293.8800000000001</ele>
        <time>2022-07-10T09:59:34Z</time>
      </trkpt>
      <trkpt lat="45.954647054895759" lon="9.38709519803524">
        <ele>2295.7800000000002</ele>
        <time>2022-07-10T09:59:46Z</time>
      </trkpt>
      <trkpt lat="45.954611180350184" lon="9.387127216905356">
        <ele>2297.8099999999999</ele>
        <time>2022-07-10T09:59:57Z</time>
      </trkpt>
      <trkpt lat="45.954583939164877" lon="9.387158313766122">
        <ele>2299.4899999999998</ele>
        <time>2022-07-10T10:00:08Z</time>
      </trkpt>
      <trkpt lat="45.954556362703443" lon="9.387170132249594">
        <ele>2300.5</ele>
        <time>2022-07-10T10:00:20Z</time>
      </trkpt>
      <trkpt lat="45.954538425430655" lon="9.387160744518042">
        <ele>2300.6900000000001</ele>
        <time>2022-07-10T10:00:28Z</time>
      </trkpt>
      <trkpt lat="45.954546136781573" lon="9.387164264917374">
        <ele>2300.6999999999998</ele>
        <time>2022-07-10T10:00:37Z</time>
      </trkpt>
      <trkpt lat="45.95454110763967" lon="9.387165354564786">
        <ele>2301.48</ele>
        <time>2022-07-10T10:00:43Z</time>
      </trkpt>
      <trkpt lat="45.954534150660038" lon="9.387135179713368">
        <ele>2301.2399999999998</ele>
        <time>2022-07-10T10:00:51Z</time>
      </trkpt>
      <trkpt lat="45.954500120133162" lon="9.387118332087994">
        <ele>2302.6500000000001</ele>
        <time>2022-07-10T10:01:08Z</time>
      </trkpt>
      <trkpt lat="45.954488385468721" lon="9.387092432007194">
        <ele>2302.9400000000001</ele>
        <time>2022-07-10T10:01:19Z</time>
      </trkpt>
      <trkpt lat="45.954466760158539" lon="9.387060580775142">
        <ele>2304.0500000000002</ele>
        <time>2022-07-10T10:01:30Z</time>
      </trkpt>
      <trkpt lat="45.954441949725151" lon="9.387040212750435">
        <ele>2304.9200000000001</ele>
        <time>2022-07-10T10:01:37Z</time>
      </trkpt>
      <trkpt lat="45.954432310536504" lon="9.387007271870971">
        <ele>2306.8600000000001</ele>
        <time>2022-07-10T10:01:46Z</time>
      </trkpt>
      <trkpt lat="45.954388054087758" lon="9.387023700401187">
        <ele>2308.25</ele>
        <time>2022-07-10T10:01:55Z</time>
      </trkpt>
      <trkpt lat="45.95437740907073" lon="9.387090252712369">
        <ele>2309.5500000000002</ele>
        <time>2022-07-10T10:02:05Z</time>
      </trkpt>
      <trkpt lat="45.954351928085089" lon="9.387088911607862">
        <ele>2310.0300000000002</ele>
        <time>2022-07-10T10:02:09Z</time>
      </trkpt>
      <trkpt lat="45.954310689121485" lon="9.387056222185493">
        <ele>2311.4699999999998</ele>
        <time>2022-07-10T10:02:20Z</time>
      </trkpt>
      <trkpt lat="45.954303815960884" lon="9.387019006535411">
        <ele>2312.46</ele>
        <time>2022-07-10T10:02:33Z</time>
      </trkpt>
      <trkpt lat="45.954283950850368" lon="9.38696863129735">
        <ele>2313.4899999999998</ele>
        <time>2022-07-10T10:02:51Z</time>
      </trkpt>
      <trkpt lat="45.954248579218984" lon="9.386915070936084">
        <ele>2315.8899999999999</ele>
        <time>2022-07-10T10:03:00Z</time>
      </trkpt>
      <trkpt lat="45.954233156517148" lon="9.386876095086336">
        <ele>2317.1100000000001</ele>
        <time>2022-07-10T10:03:08Z</time>
      </trkpt>
      <trkpt lat="45.954242208972573" lon="9.386824797838926">
        <ele>2318.2399999999998</ele>
        <time>2022-07-10T10:03:22Z</time>
      </trkpt>
      <trkpt lat="45.954217733815312" lon="9.386869389563799">
        <ele>2319.4499999999998</ele>
        <time>2022-07-10T10:03:38Z</time>
      </trkpt>
      <trkpt lat="45.954200634732842" lon="9.386912221089006">
        <ele>2320.5500000000002</ele>
        <time>2022-07-10T10:03:52Z</time>
      </trkpt>
      <trkpt lat="45.95418294891715" lon="9.386926051229239">
        <ele>2321.6999999999998</ele>
        <time>2022-07-10T10:04:03Z</time>
      </trkpt>
      <trkpt lat="45.954159898683429" lon="9.38696276396513">
        <ele>2323.48</ele>
        <time>2022-07-10T10:04:17Z</time>
      </trkpt>
      <trkpt lat="45.954162999987602" lon="9.387021353468299">
        <ele>2324.4899999999998</ele>
        <time>2022-07-10T10:04:25Z</time>
      </trkpt>
      <trkpt lat="45.954167610034347" lon="9.387040380388498">
        <ele>2324.5500000000002</ele>
        <time>2022-07-10T10:04:26Z</time>
      </trkpt>
      <trkpt lat="45.954172555357218" lon="9.387058736756444">
        <ele>2324.75</ele>
        <time>2022-07-10T10:04:27Z</time>
      </trkpt>
      <trkpt lat="45.954165430739522" lon="9.387061586603522">
        <ele>2325.48</ele>
        <time>2022-07-10T10:04:35Z</time>
      </trkpt>
      <trkpt lat="45.954124359413981" lon="9.38700333237648">
        <ele>2326.6700000000001</ele>
        <time>2022-07-10T10:04:47Z</time>
      </trkpt>
      <trkpt lat="45.954111283645034" lon="9.387038620188832">
        <ele>2327.6700000000001</ele>
        <time>2022-07-10T10:04:55Z</time>
      </trkpt>
      <trkpt lat="45.954077169299126" lon="9.387006936594844">
        <ele>2329.25</ele>
        <time>2022-07-10T10:05:10Z</time>
      </trkpt>
      <trkpt lat="45.95406224951148" lon="9.387052534148097">
        <ele>2330.5999999999999</ele>
        <time>2022-07-10T10:05:23Z</time>
      </trkpt>
      <trkpt lat="45.954058896750212" lon="9.387088576331735">
        <ele>2331.5100000000002</ele>
        <time>2022-07-10T10:05:37Z</time>
      </trkpt>
      <trkpt lat="45.954056968912482" lon="9.387127803638578">
        <ele>2332.75</ele>
        <time>2022-07-10T10:05:50Z</time>
      </trkpt>
      <trkpt lat="45.954041462391615" lon="9.38715722411871">
        <ele>2333.7199999999998</ele>
        <time>2022-07-10T10:05:59Z</time>
      </trkpt>
      <trkpt lat="45.95403584651649" lon="9.38722712919116">
        <ele>2335.8099999999999</ele>
        <time>2022-07-10T10:06:12Z</time>
      </trkpt>
      <trkpt lat="45.954025955870748" lon="9.387272307649255">
        <ele>2337.3299999999999</ele>
        <time>2022-07-10T10:06:26Z</time>
      </trkpt>
      <trkpt lat="45.953984465450048" lon="9.387271888554096">
        <ele>2339.23</ele>
        <time>2022-07-10T10:06:39Z</time>
      </trkpt>
      <trkpt lat="45.95396644435823" lon="9.38730918802321">
        <ele>2340.3800000000001</ele>
        <time>2022-07-10T10:06:50Z</time>
      </trkpt>
      <trkpt lat="45.953951776027679" lon="9.387355037033558">
        <ele>2341.5900000000001</ele>
        <time>2022-07-10T10:07:04Z</time>
      </trkpt>
      <trkpt lat="45.953937945887446" lon="9.387405915185809">
        <ele>2343.3499999999999</ele>
        <time>2022-07-10T10:07:18Z</time>
      </trkpt>
      <trkpt lat="45.953910453245044" lon="9.387425528839231">
        <ele>2344.3200000000002</ele>
        <time>2022-07-10T10:07:27Z</time>
      </trkpt>
      <trkpt lat="45.953900730237365" lon="9.387450674548745">
        <ele>2345.2800000000002</ele>
        <time>2022-07-10T10:07:39Z</time>
      </trkpt>
      <trkpt lat="45.953907519578934" lon="9.38748168759048">
        <ele>2346.02</ele>
        <time>2022-07-10T10:07:52Z</time>
      </trkpt>
      <trkpt lat="45.953881116583943" lon="9.387499038130045">
        <ele>2347.46</ele>
        <time>2022-07-10T10:08:02Z</time>
      </trkpt>
      <trkpt lat="45.953834680840373" lon="9.38747975975275">
        <ele>2349.3899999999999</ele>
        <time>2022-07-10T10:08:16Z</time>
      </trkpt>
      <trkpt lat="45.953799644485116" lon="9.387472635135055">
        <ele>2351.3499999999999</ele>
        <time>2022-07-10T10:08:26Z</time>
      </trkpt>
      <trkpt lat="45.953791178762913" lon="9.387426031753421">
        <ele>2352.6300000000001</ele>
        <time>2022-07-10T10:08:40Z</time>
      </trkpt>
      <trkpt lat="45.953754046931863" lon="9.387401640415192">
        <ele>2353.71</ele>
        <time>2022-07-10T10:08:54Z</time>
      </trkpt>
      <trkpt lat="45.953753879293799" lon="9.387406334280968">
        <ele>2354.1700000000001</ele>
        <time>2022-07-10T10:09:07Z</time>
      </trkpt>
      <trkpt lat="45.953754717484117" lon="9.387406418099999">
        <ele>2354.0900000000001</ele>
        <time>2022-07-10T10:09:22Z</time>
      </trkpt>
      <trkpt lat="45.953759327530861" lon="9.387423181906343">
        <ele>2354.2399999999998</ele>
        <time>2022-07-10T10:09:35Z</time>
      </trkpt>
      <trkpt lat="45.953758656978607" lon="9.387428797781467">
        <ele>2354.5300000000002</ele>
        <time>2022-07-10T10:09:59Z</time>
      </trkpt>
      <trkpt lat="45.95374952070415" lon="9.387456374242902">
        <ele>2355.27</ele>
        <time>2022-07-10T10:10:15Z</time>
      </trkpt>
      <trkpt lat="45.95371431671083" lon="9.387433994561434">
        <ele>2357.48</ele>
        <time>2022-07-10T10:10:27Z</time>
      </trkpt>
      <trkpt lat="45.953684728592634" lon="9.387431982904673">
        <ele>2357.9000000000001</ele>
        <time>2022-07-10T10:10:32Z</time>
      </trkpt>
      <trkpt lat="45.953658660873771" lon="9.387386720627546">
        <ele>2360.04</ele>
        <time>2022-07-10T10:10:44Z</time>
      </trkpt>
      <trkpt lat="45.953647848218679" lon="9.38737221993506">
        <ele>2360.9000000000001</ele>
        <time>2022-07-10T10:10:47Z</time>
      </trkpt>
      <trkpt lat="45.953634772449732" lon="9.387354366481304">
        <ele>2360.9400000000001</ele>
        <time>2022-07-10T10:10:48Z</time>
      </trkpt>
      <trkpt lat="45.953625719994307" lon="9.387344643473625">
        <ele>2361.1100000000001</ele>
        <time>2022-07-10T10:10:49Z</time>
      </trkpt>
      <trkpt lat="45.953610129654408" lon="9.387314133346081">
        <ele>2362.1999999999998</ele>
        <time>2022-07-10T10:10:59Z</time>
      </trkpt>
      <trkpt lat="45.953597389161587" lon="9.387282617390156">
        <ele>2362.48</ele>
        <time>2022-07-10T10:11:13Z</time>
      </trkpt>
      <trkpt lat="45.953589091077447" lon="9.387272642925382">
        <ele>2364.1399999999999</ele>
        <time>2022-07-10T10:11:27Z</time>
      </trkpt>
      <trkpt lat="45.953588839620352" lon="9.387232912704349">
        <ele>2364.8600000000001</ele>
        <time>2022-07-10T10:11:40Z</time>
      </trkpt>
      <trkpt lat="45.953592862933874" lon="9.387231990695">
        <ele>2364.9499999999998</ele>
        <time>2022-07-10T10:11:56Z</time>
      </trkpt>
      <trkpt lat="45.953578865155578" lon="9.38722712919116">
        <ele>2366.0500000000002</ele>
        <time>2022-07-10T10:12:19Z</time>
      </trkpt>
      <trkpt lat="45.953532177954912" lon="9.387209778651595">
        <ele>2368.96</ele>
        <time>2022-07-10T10:12:35Z</time>
      </trkpt>
      <trkpt lat="45.953529831022024" lon="9.387210784479976">
        <ele>2369.7800000000002</ele>
        <time>2022-07-10T10:12:51Z</time>
      </trkpt>
      <trkpt lat="45.953506864607334" lon="9.387198463082314">
        <ele>2371.3200000000002</ele>
        <time>2022-07-10T10:13:07Z</time>
      </trkpt>
      <trkpt lat="45.953499991446733" lon="9.387146830558777">
        <ele>2373.02</ele>
        <time>2022-07-10T10:13:22Z</time>
      </trkpt>
      <trkpt lat="45.953490855172276" lon="9.387114308774471">
        <ele>2373.3200000000002</ele>
        <time>2022-07-10T10:13:38Z</time>
      </trkpt>
      <trkpt lat="45.953475935384631" lon="9.387091509997845">
        <ele>2374.1500000000001</ele>
        <time>2022-07-10T10:13:41Z</time>
      </trkpt>
      <trkpt lat="45.953463362529874" lon="9.387051947414875">
        <ele>2375.8600000000001</ele>
        <time>2022-07-10T10:13:51Z</time>
      </trkpt>
      <trkpt lat="45.953446682542562" lon="9.387028058990836">
        <ele>2377.4299999999998</ele>
        <time>2022-07-10T10:14:00Z</time>
      </trkpt>
      <trkpt lat="45.953455986455083" lon="9.387042140588164">
        <ele>2378.21</ele>
        <time>2022-07-10T10:14:19Z</time>
      </trkpt>
      <trkpt lat="45.953439641743898" lon="9.387017916887999">
        <ele>2379.6199999999999</ele>
        <time>2022-07-10T10:14:33Z</time>
      </trkpt>
      <trkpt lat="45.953414496034384" lon="9.387002745643258">
        <ele>2381.7199999999998</ele>
        <time>2022-07-10T10:14:46Z</time>
      </trkpt>
      <trkpt lat="45.953387590125203" lon="9.386996543034911">
        <ele>2383.46</ele>
        <time>2022-07-10T10:14:57Z</time>
      </trkpt>
      <trkpt lat="45.953359678387642" lon="9.386950777843595">
        <ele>2386.1500000000001</ele>
        <time>2022-07-10T10:15:10Z</time>
      </trkpt>
      <trkpt lat="45.953342830762267" lon="9.386920938268304">
        <ele>2389.1599999999999</ele>
        <time>2022-07-10T10:15:22Z</time>
      </trkpt>
      <trkpt lat="45.953324055299163" lon="9.386918926611543">
        <ele>2390.77</ele>
        <time>2022-07-10T10:15:33Z</time>
      </trkpt>
      <trkpt lat="45.953326905146241" lon="9.386921022087336">
        <ele>2391.6999999999998</ele>
        <time>2022-07-10T10:15:48Z</time>
      </trkpt>
      <trkpt lat="45.953327994793653" lon="9.386918591335416">
        <ele>2390.9299999999998</ele>
        <time>2022-07-10T10:16:04Z</time>
      </trkpt>
      <trkpt lat="45.953295053914189" lon="9.386935858055949">
        <ele>2393.3299999999999</ele>
        <time>2022-07-10T10:16:22Z</time>
      </trkpt>
      <trkpt lat="45.95329949632287" lon="9.386978019028902">
        <ele>2394.02</ele>
        <time>2022-07-10T10:16:33Z</time>
      </trkpt>
      <trkpt lat="45.9533082973212" lon="9.387036021798849">
        <ele>2394.23</ele>
        <time>2022-07-10T10:16:47Z</time>
      </trkpt>
      <trkpt lat="45.953326318413019" lon="9.387095700949431">
        <ele>2395.5500000000002</ele>
        <time>2022-07-10T10:16:59Z</time>
      </trkpt>
      <trkpt lat="45.953352134674788" lon="9.387124702334404">
        <ele>2397.1199999999999</ele>
        <time>2022-07-10T10:17:11Z</time>
      </trkpt>
      <trkpt lat="45.95331072807312" lon="9.387155463919044">
        <ele>2397.2199999999998</ele>
        <time>2022-07-10T10:17:24Z</time>
      </trkpt>
      <trkpt lat="45.953301843255758" lon="9.387144818902016">
        <ele>2396.9499999999998</ele>
        <time>2022-07-10T10:17:45Z</time>
      </trkpt>
      <trkpt lat="45.953297568485141" lon="9.387141214683652">
        <ele>2397.1500000000001</ele>
        <time>2022-07-10T10:17:57Z</time>
      </trkpt>
      <trkpt lat="45.953305866569281" lon="9.387154625728726">
        <ele>2396.98</ele>
        <time>2022-07-10T10:18:09Z</time>
      </trkpt>
      <trkpt lat="45.9533082973212" lon="9.38715579919517">
        <ele>2397.21</ele>
        <time>2022-07-10T10:18:20Z</time>
      </trkpt>
      <trkpt lat="45.953305531293154" lon="9.387152027338743">
        <ele>2397.0799999999999</ele>
        <time>2022-07-10T10:18:31Z</time>
      </trkpt>
      <trkpt lat="45.953313577920198" lon="9.387193853035569">
        <ele>2397.8400000000001</ele>
        <time>2022-07-10T10:18:40Z</time>
      </trkpt>
      <trkpt lat="45.953311901539564" lon="9.387201983481646">
        <ele>2399.4499999999998</ele>
        <time>2022-07-10T10:18:46Z</time>
      </trkpt>
      <trkpt lat="45.953332856297493" lon="9.387233247980475">
        <ele>2401.1199999999999</ele>
        <time>2022-07-10T10:18:55Z</time>
      </trkpt>
      <trkpt lat="45.953317182138562" lon="9.387307008728385">
        <ele>2402.9000000000001</ele>
        <time>2022-07-10T10:19:04Z</time>
      </trkpt>
      <trkpt lat="45.953321289271116" lon="9.38732335343957">
        <ele>2402.9699999999998</ele>
        <time>2022-07-10T10:19:05Z</time>
      </trkpt>
      <trkpt lat="45.953332018107176" lon="9.387355037033558">
        <ele>2403.1799999999998</ele>
        <time>2022-07-10T10:19:07Z</time>
      </trkpt>
      <trkpt lat="45.953357918187976" lon="9.38744698651135">
        <ele>2404</ele>
        <time>2022-07-10T10:19:17Z</time>
      </trkpt>
      <trkpt lat="45.953352386131883" lon="9.387466181069613">
        <ele>2404.1999999999998</ele>
        <time>2022-07-10T10:19:21Z</time>
      </trkpt>
      <trkpt lat="45.953352972865105" lon="9.387536672875285">
        <ele>2405.1900000000001</ele>
        <time>2022-07-10T10:19:28Z</time>
      </trkpt>
      <trkpt lat="45.953352050855756" lon="9.387631975114346">
        <ele>2405.1900000000001</ele>
        <time>2022-07-10T10:19:37Z</time>
      </trkpt>
      <trkpt lat="45.953345596790314" lon="9.38764538615942">
        <ele>2404.9400000000001</ele>
        <time>2022-07-10T10:19:44Z</time>
      </trkpt>
      <trkpt lat="45.95334735698998" lon="9.387639183551073">
        <ele>2404.0500000000002</ele>
        <time>2022-07-10T10:19:52Z</time>
      </trkpt>
      <trkpt lat="45.95334836281836" lon="9.387635160237551">
        <ele>2403.71</ele>
        <time>2022-07-10T10:19:59Z</time>
      </trkpt>
      <trkpt lat="45.953338388353586" lon="9.387637842446566">
        <ele>2404.0999999999999</ele>
        <time>2022-07-10T10:20:11Z</time>
      </trkpt>
      <trkpt lat="45.953325731679797" lon="9.387645302340388">
        <ele>2404.0500000000002</ele>
        <time>2022-07-10T10:20:21Z</time>
      </trkpt>
      <trkpt lat="45.953321624547243" lon="9.387645050883293">
        <ele>2403.9099999999999</ele>
        <time>2022-07-10T10:20:32Z</time>
      </trkpt>
      <trkpt lat="45.953325983136892" lon="9.387645972892642">
        <ele>2403.8000000000002</ele>
        <time>2022-07-10T10:20:39Z</time>
      </trkpt>
      <trkpt lat="45.953322881832719" lon="9.387653432786465">
        <ele>2403.9499999999998</ele>
        <time>2022-07-10T10:20:49Z</time>
      </trkpt>
      <trkpt lat="45.953317852690816" lon="9.387654606252909">
        <ele>2403.6199999999999</ele>
        <time>2022-07-10T10:20:59Z</time>
      </trkpt>
      <trkpt lat="45.953317182138562" lon="9.387646894901991">
        <ele>2403.8400000000001</ele>
        <time>2022-07-10T10:21:10Z</time>
      </trkpt>
      <trkpt lat="45.953316343948245" lon="9.387640608474612">
        <ele>2403.8699999999999</ele>
        <time>2022-07-10T10:21:21Z</time>
      </trkpt>
      <trkpt lat="45.953316930681467" lon="9.387634824961424">
        <ele>2403.98</ele>
        <time>2022-07-10T10:21:47Z</time>
      </trkpt>
      <trkpt lat="45.953317936509848" lon="9.387633064761758">
        <ele>2403.96</ele>
        <time>2022-07-10T10:22:35Z</time>
      </trkpt>
      <trkpt lat="45.953320283442736" lon="9.387628454715014">
        <ele>2404.52</ele>
        <time>2022-07-10T10:23:17Z</time>
      </trkpt>
      <trkpt lat="45.953318858519197" lon="9.38763314858079">
        <ele>2404.77</ele>
        <time>2022-07-10T10:24:12Z</time>
      </trkpt>
      <trkpt lat="45.953326569870114" lon="9.387637171894312">
        <ele>2404.4000000000001</ele>
        <time>2022-07-10T10:25:03Z</time>
      </trkpt>
      <trkpt lat="45.953327156603336" lon="9.387630550190806">
        <ele>2404.8400000000001</ele>
        <time>2022-07-10T10:25:42Z</time>
      </trkpt>
      <trkpt lat="45.953361941501498" lon="9.38755058683455">
        <ele>2404.98</ele>
        <time>2022-07-10T10:26:08Z</time>
      </trkpt>
      <trkpt lat="45.953387841582298" lon="9.387511694803834">
        <ele>2404.9099999999999</ele>
        <time>2022-07-10T10:27:41Z</time>
      </trkpt>
      <trkpt lat="45.953363114967942" lon="9.38753298483789">
        <ele>2404.6999999999998</ele>
        <time>2022-07-10T10:28:29Z</time>
      </trkpt>
      <trkpt lat="45.953365378081799" lon="9.38753885217011">
        <ele>2405.4000000000001</ele>
        <time>2022-07-10T10:28:55Z</time>
      </trkpt>
      <trkpt lat="45.953432014212012" lon="9.387461990118027">
        <ele>2405.1399999999999</ele>
        <time>2022-07-10T10:30:07Z</time>
      </trkpt>
      <trkpt lat="45.953394044190645" lon="9.387594340369105">
        <ele>2405.4099999999999</ele>
        <time>2022-07-10T10:31:14Z</time>
      </trkpt>
      <trkpt lat="45.953406281769276" lon="9.387563327327371">
        <ele>2405.3200000000002</ele>
        <time>2022-07-10T10:31:48Z</time>
      </trkpt>
      <trkpt lat="45.953380716964602" lon="9.387554107233882">
        <ele>2405.04</ele>
        <time>2022-07-10T10:33:18Z</time>
      </trkpt>
      <trkpt lat="45.953382644802332" lon="9.387518484145403">
        <ele>2405.25</ele>
        <time>2022-07-10T10:35:42Z</time>
      </trkpt>
      <trkpt lat="45.953357247635722" lon="9.387509683147073">
        <ele>2405.2199999999998</ele>
        <time>2022-07-10T10:36:12Z</time>
      </trkpt>
      <trkpt lat="45.953402342274785" lon="9.387496691197157">
        <ele>2405.29</ele>
        <time>2022-07-10T10:36:42Z</time>
      </trkpt>
      <trkpt lat="45.953380884602666" lon="9.387543126940727">
        <ele>2405.3099999999999</ele>
        <time>2022-07-10T10:37:22Z</time>
      </trkpt>
      <trkpt lat="45.953374179080129" lon="9.38753642141819">
        <ele>2405.6100000000001</ele>
        <time>2022-07-10T10:37:45Z</time>
      </trkpt>
      <trkpt lat="45.953348446637392" lon="9.387563746422529">
        <ele>2405.3499999999999</ele>
        <time>2022-07-10T10:38:09Z</time>
      </trkpt>
      <trkpt lat="45.953403934836388" lon="9.387540947645903">
        <ele>2405.29</ele>
        <time>2022-07-10T10:38:29Z</time>
      </trkpt>
      <trkpt lat="45.953406197950244" lon="9.387541450560093">
        <ele>2405.0700000000002</ele>
        <time>2022-07-10T10:38:56Z</time>
      </trkpt>
      <trkpt lat="45.953397480770946" lon="9.387542959302664">
        <ele>2405.0599999999999</ele>
        <time>2022-07-10T10:39:26Z</time>
      </trkpt>
      <trkpt lat="45.953420279547572" lon="9.387507839128375">
        <ele>2404.96</ele>
        <time>2022-07-10T10:40:02Z</time>
      </trkpt>
      <trkpt lat="45.953421369194984" lon="9.387558465823531">
        <ele>2404.54</ele>
        <time>2022-07-10T10:40:28Z</time>
      </trkpt>
      <trkpt lat="45.953396894037724" lon="9.387573469430208">
        <ele>2404.6500000000001</ele>
        <time>2022-07-10T10:41:01Z</time>
      </trkpt>
      <trkpt lat="45.953389434143901" lon="9.387552179396153">
        <ele>2404.54</ele>
        <time>2022-07-10T10:41:24Z</time>
      </trkpt>
      <trkpt lat="45.953416842967272" lon="9.387536169961095">
        <ele>2404.48</ele>
        <time>2022-07-10T10:42:17Z</time>
      </trkpt>
      <trkpt lat="45.953373927623034" lon="9.387514712288976">
        <ele>2404.6199999999999</ele>
        <time>2022-07-10T10:42:34Z</time>
      </trkpt>
      <trkpt lat="45.953405192121863" lon="9.387493170797825">
        <ele>2404.8899999999999</ele>
        <time>2022-07-10T10:43:16Z</time>
      </trkpt>
      <trkpt lat="45.953367222100496" lon="9.387491075322032">
        <ele>2404.4699999999998</ele>
        <time>2022-07-10T10:44:15Z</time>
      </trkpt>
      <trkpt lat="45.953361941501498" lon="9.387525357306004">
        <ele>2401.1300000000001</ele>
        <time>2022-07-10T10:44:52Z</time>
      </trkpt>
      <trkpt lat="45.953367473557591" lon="9.387535834684968">
        <ele>2407.0999999999999</ele>
        <time>2022-07-10T10:44:56Z</time>
      </trkpt>
      <trkpt lat="45.953371077775955" lon="9.387552347034216">
        <ele>2405.1700000000001</ele>
        <time>2022-07-10T10:45:00Z</time>
      </trkpt>
      <trkpt lat="45.953382728621364" lon="9.387577911838889">
        <ele>2404.4899999999998</ele>
        <time>2022-07-10T10:45:40Z</time>
      </trkpt>
      <trkpt lat="45.953398067504168" lon="9.387560226023197">
        <ele>2404.23</ele>
        <time>2022-07-10T10:45:57Z</time>
      </trkpt>
      <trkpt lat="45.953375268727541" lon="9.387572212144733">
        <ele>2403.9899999999998</ele>
        <time>2022-07-10T10:46:19Z</time>
      </trkpt>
      <trkpt lat="45.953378286212683" lon="9.387587299570441">
        <ele>2403.6399999999999</ele>
        <time>2022-07-10T10:46:43Z</time>
      </trkpt>
      <trkpt lat="45.953362444415689" lon="9.387578247115016">
        <ele>2403.6300000000001</ele>
        <time>2022-07-10T10:47:39Z</time>
      </trkpt>
      <trkpt lat="45.953359007835388" lon="9.387576235458255">
        <ele>2403.8200000000002</ele>
        <time>2022-07-10T10:48:11Z</time>
      </trkpt>
      <trkpt lat="45.953349703922868" lon="9.387576906010509">
        <ele>2404.0700000000002</ele>
        <time>2022-07-10T10:48:35Z</time>
      </trkpt>
      <trkpt lat="45.953333945944905" lon="9.387602638453245">
        <ele>2403.5500000000002</ele>
        <time>2022-07-10T10:49:06Z</time>
      </trkpt>
      <trkpt lat="45.953374514356256" lon="9.387601800262928">
        <ele>2403.4000000000001</ele>
        <time>2022-07-10T10:49:32Z</time>
      </trkpt>
      <trkpt lat="45.953362947329879" lon="9.387595346197486">
        <ele>2403.6799999999998</ele>
        <time>2022-07-10T10:49:51Z</time>
      </trkpt>
      <trkpt lat="45.953350374475121" lon="9.387536002323031">
        <ele>2403.4499999999998</ele>
        <time>2022-07-10T10:50:15Z</time>
      </trkpt>
      <trkpt lat="45.953370910137892" lon="9.387557459995151">
        <ele>2403.3600000000001</ele>
        <time>2022-07-10T10:50:33Z</time>
      </trkpt>
      <trkpt lat="45.953376106917858" lon="9.38758579082787">
        <ele>2403.3299999999999</ele>
        <time>2022-07-10T10:50:55Z</time>
      </trkpt>
      <trkpt lat="45.953352302312851" lon="9.387537678703666">
        <ele>2403.7800000000002</ele>
        <time>2022-07-10T10:51:23Z</time>
      </trkpt>
      <trkpt lat="45.953373005613685" lon="9.3875168915838">
        <ele>2403.6100000000001</ele>
        <time>2022-07-10T10:51:39Z</time>
      </trkpt>
      <trkpt lat="45.953352553769946" lon="9.387571038678289">
        <ele>2403.3800000000001</ele>
        <time>2022-07-10T10:51:58Z</time>
      </trkpt>
      <trkpt lat="45.953360516577959" lon="9.387573217973113">
        <ele>2403.3499999999999</ele>
        <time>2022-07-10T10:52:16Z</time>
      </trkpt>
      <trkpt lat="45.953357834368944" lon="9.38760825432837">
        <ele>2403.3600000000001</ele>
        <time>2022-07-10T10:52:43Z</time>
      </trkpt>
      <trkpt lat="45.953374933451414" lon="9.387555029243231">
        <ele>2403.6700000000001</ele>
        <time>2022-07-10T10:53:03Z</time>
      </trkpt>
      <trkpt lat="45.953367976471782" lon="9.387557292357087">
        <ele>2403.6599999999999</ele>
        <time>2022-07-10T10:53:24Z</time>
      </trkpt>
      <trkpt lat="45.953362863510847" lon="9.387566596269608">
        <ele>2403.23</ele>
        <time>2022-07-10T10:53:51Z</time>
      </trkpt>
      <trkpt lat="45.95336445607245" lon="9.387585874646902">
        <ele>2403.4200000000001</ele>
        <time>2022-07-10T10:54:07Z</time>
      </trkpt>
      <trkpt lat="45.95336445607245" lon="9.387581013143063">
        <ele>2403.5700000000002</ele>
        <time>2022-07-10T10:54:34Z</time>
      </trkpt>
      <trkpt lat="45.953373676165938" lon="9.387555280700326">
        <ele>2403.21</ele>
        <time>2022-07-10T10:54:49Z</time>
      </trkpt>
      <trkpt lat="45.953382980078459" lon="9.387534828856587">
        <ele>2402.96</ele>
        <time>2022-07-10T10:55:13Z</time>
      </trkpt>
      <trkpt lat="45.953377615660429" lon="9.387542959302664">
        <ele>2403.1599999999999</ele>
        <time>2022-07-10T10:55:34Z</time>
      </trkpt>
      <trkpt lat="45.95336789265275" lon="9.387560309842229">
        <ele>2403.3200000000002</ele>
        <time>2022-07-10T10:55:59Z</time>
      </trkpt>
      <trkpt lat="45.953370071947575" lon="9.387556118890643">
        <ele>2403.3800000000001</ele>
        <time>2022-07-10T10:56:22Z</time>
      </trkpt>
      <trkpt lat="45.953343333676457" lon="9.387610852718353">
        <ele>2403.5900000000001</ele>
        <time>2022-07-10T10:56:44Z</time>
      </trkpt>
      <trkpt lat="45.953348111361265" lon="9.387605655938387">
        <ele>2403.6999999999998</ele>
        <time>2022-07-10T10:57:07Z</time>
      </trkpt>
      <trkpt lat="45.953366803005338" lon="9.387584701180458">
        <ele>2403.8099999999999</ele>
        <time>2022-07-10T10:57:33Z</time>
      </trkpt>
      <trkpt lat="45.953377531841397" lon="9.387542037293315">
        <ele>2403.79</ele>
        <time>2022-07-10T10:57:56Z</time>
      </trkpt>
      <trkpt lat="45.953352889046073" lon="9.387605739757419">
        <ele>2404.0900000000001</ele>
        <time>2022-07-10T10:58:17Z</time>
      </trkpt>
      <trkpt lat="45.953344004228711" lon="9.387623425573111">
        <ele>2403.79</ele>
        <time>2022-07-10T10:58:37Z</time>
      </trkpt>
      <trkpt lat="45.953343501314521" lon="9.387623341754079">
        <ele>2403.6900000000001</ele>
        <time>2022-07-10T10:59:01Z</time>
      </trkpt>
      <trkpt lat="45.953337298706174" lon="9.38763172365725">
        <ele>2403.7800000000002</ele>
        <time>2022-07-10T10:59:27Z</time>
      </trkpt>
      <trkpt lat="45.953353308141232" lon="9.387603560462594">
        <ele>2404.0999999999999</ele>
        <time>2022-07-10T10:59:53Z</time>
      </trkpt>
      <trkpt lat="45.953349201008677" lon="9.38762728124857">
        <ele>2403.54</ele>
        <time>2022-07-10T11:00:31Z</time>
      </trkpt>
      <trkpt lat="45.953354649245739" lon="9.387623006477952">
        <ele>2403.4899999999998</ele>
        <time>2022-07-10T11:01:10Z</time>
      </trkpt>
      <trkpt lat="45.953363198786974" lon="9.387632142752409">
        <ele>2403.6999999999998</ele>
        <time>2022-07-10T11:02:01Z</time>
      </trkpt>
      <trkpt lat="45.953366970643401" lon="9.387634992599487">
        <ele>2403.9699999999998</ele>
        <time>2022-07-10T11:02:56Z</time>
      </trkpt>
      <trkpt lat="45.953363282606006" lon="9.387637674808502">
        <ele>2403.8800000000001</ele>
        <time>2022-07-10T11:03:27Z</time>
      </trkpt>
      <trkpt lat="45.953366467729211" lon="9.387637423351407">
        <ele>2404.0599999999999</ele>
        <time>2022-07-10T11:04:08Z</time>
      </trkpt>
      <trkpt lat="45.953364288434386" lon="9.387638010084629">
        <ele>2404.23</ele>
        <time>2022-07-10T11:04:50Z</time>
      </trkpt>
      <trkpt lat="45.953359426930547" lon="9.387634322047234">
        <ele>2404.4400000000001</ele>
        <time>2022-07-10T11:05:35Z</time>
      </trkpt>
      <trkpt lat="45.953344088047743" lon="9.387628873810172">
        <ele>2404.9000000000001</ele>
        <time>2022-07-10T11:06:20Z</time>
      </trkpt>
      <trkpt lat="45.953352386131883" lon="9.387629376724362">
        <ele>2405.54</ele>
        <time>2022-07-10T11:07:03Z</time>
      </trkpt>
      <trkpt lat="45.953351715579629" lon="9.387623844668269">
        <ele>2404.6999999999998</ele>
        <time>2022-07-10T11:07:24Z</time>
      </trkpt>
      <trkpt lat="45.953355403617024" lon="9.387613451108336">
        <ele>2404.1900000000001</ele>
        <time>2022-07-10T11:08:02Z</time>
      </trkpt>
      <trkpt lat="45.953359846025705" lon="9.387606158852577">
        <ele>2404.0300000000002</ele>
        <time>2022-07-10T11:08:38Z</time>
      </trkpt>
      <trkpt lat="45.953356744721532" lon="9.387609930709004">
        <ele>2403.6900000000001</ele>
        <time>2022-07-10T11:09:18Z</time>
      </trkpt>
      <trkpt lat="45.953359678387642" lon="9.387603057548404">
        <ele>2403.5799999999999</ele>
        <time>2022-07-10T11:09:52Z</time>
      </trkpt>
      <trkpt lat="45.953359762206674" lon="9.387609511613846">
        <ele>2403.6500000000001</ele>
        <time>2022-07-10T11:10:32Z</time>
      </trkpt>
      <trkpt lat="45.953361690044403" lon="9.387600710615516">
        <ele>2403.48</ele>
        <time>2022-07-10T11:11:14Z</time>
      </trkpt>
      <trkpt lat="45.953359175473452" lon="9.387598782777786">
        <ele>2404.0100000000002</ele>
        <time>2022-07-10T11:11:57Z</time>
      </trkpt>
      <trkpt lat="45.953353475779295" lon="9.387617558240891">
        <ele>2404.1399999999999</ele>
        <time>2022-07-10T11:12:34Z</time>
      </trkpt>
      <trkpt lat="45.953352302312851" lon="9.387637339532375">
        <ele>2404.54</ele>
        <time>2022-07-10T11:13:20Z</time>
      </trkpt>
      <trkpt lat="45.953346770256758" lon="9.387639351189137">
        <ele>2403.8800000000001</ele>
        <time>2022-07-10T11:14:04Z</time>
      </trkpt>
      <trkpt lat="45.953349033370614" lon="9.387637842446566">
        <ele>2403.73</ele>
        <time>2022-07-10T11:14:48Z</time>
      </trkpt>
      <trkpt lat="45.95335129648447" lon="9.387637926265597">
        <ele>2404.0500000000002</ele>
        <time>2022-07-10T11:15:36Z</time>
      </trkpt>
      <trkpt lat="45.953349955379963" lon="9.38764488324523">
        <ele>2403.7399999999998</ele>
        <time>2022-07-10T11:16:35Z</time>
      </trkpt>
      <trkpt lat="45.953354649245739" lon="9.387643542140722">
        <ele>2403.8299999999999</ele>
        <time>2022-07-10T11:17:25Z</time>
      </trkpt>
      <trkpt lat="45.953356912359595" lon="9.387641111388803">
        <ele>2404.04</ele>
        <time>2022-07-10T11:18:15Z</time>
      </trkpt>
      <trkpt lat="45.953356409445405" lon="9.38764588907361">
        <ele>2404.1199999999999</ele>
        <time>2022-07-10T11:19:06Z</time>
      </trkpt>
      <trkpt lat="45.95335272140801" lon="9.38764588907361">
        <ele>2404.3099999999999</ele>
        <time>2022-07-10T11:19:58Z</time>
      </trkpt>
      <trkpt lat="45.95335423015058" lon="9.387643039226532">
        <ele>2404.23</ele>
        <time>2022-07-10T11:20:47Z</time>
      </trkpt>
      <trkpt lat="45.953353308141232" lon="9.387648655101657">
        <ele>2404</ele>
        <time>2022-07-10T11:21:30Z</time>
      </trkpt>
      <trkpt lat="45.953347776085138" lon="9.387650918215513">
        <ele>2404.8299999999999</ele>
        <time>2022-07-10T11:21:52Z</time>
      </trkpt>
      <trkpt lat="45.953345093876123" lon="9.387640440836549">
        <ele>2404.3499999999999</ele>
        <time>2022-07-10T11:22:14Z</time>
      </trkpt>
      <trkpt lat="45.953341070562601" lon="9.387629209086299">
        <ele>2404.5599999999999</ele>
        <time>2022-07-10T11:23:04Z</time>
      </trkpt>
      <trkpt lat="45.953340902924538" lon="9.38761604949832">
        <ele>2404.7199999999998</ele>
        <time>2022-07-10T11:23:52Z</time>
      </trkpt>
      <trkpt lat="45.953338136896491" lon="9.387629795819521">
        <ele>2404.46</ele>
        <time>2022-07-10T11:24:46Z</time>
      </trkpt>
      <trkpt lat="45.953338472172618" lon="9.38762191683054">
        <ele>2404.4299999999998</ele>
        <time>2022-07-10T11:25:36Z</time>
      </trkpt>
      <trkpt lat="45.953341154381633" lon="9.387620408087969">
        <ele>2405.4699999999998</ele>
        <time>2022-07-10T11:26:19Z</time>
      </trkpt>
      <trkpt lat="45.953348865732551" lon="9.387618396431208">
        <ele>2405.5599999999999</ele>
        <time>2022-07-10T11:27:06Z</time>
      </trkpt>
      <trkpt lat="45.95335716381669" lon="9.387620408087969">
        <ele>2405.7800000000002</ele>
        <time>2022-07-10T11:27:56Z</time>
      </trkpt>
      <trkpt lat="45.953353308141232" lon="9.387624263763428">
        <ele>2405.2600000000002</ele>
        <time>2022-07-10T11:28:39Z</time>
      </trkpt>
      <trkpt lat="45.953351547941566" lon="9.387640608474612">
        <ele>2405.4000000000001</ele>
        <time>2022-07-10T11:29:19Z</time>
      </trkpt>
      <trkpt lat="45.953349033370614" lon="9.387625101953745">
        <ele>2406.5500000000002</ele>
        <time>2022-07-10T11:29:39Z</time>
      </trkpt>
      <trkpt lat="45.953353475779295" lon="9.387631304562092">
        <ele>2407.5</ele>
        <time>2022-07-10T11:29:52Z</time>
      </trkpt>
      <trkpt lat="45.953356744721532" lon="9.38762585632503">
        <ele>2404.6399999999999</ele>
        <time>2022-07-10T11:29:56Z</time>
      </trkpt>
      <trkpt lat="45.953356493264437" lon="9.387627197429538">
        <ele>2409.3899999999999</ele>
        <time>2022-07-10T11:29:57Z</time>
      </trkpt>
      <trkpt lat="45.953355738893151" lon="9.387627365067601">
        <ele>2409.46</ele>
        <time>2022-07-10T11:29:58Z</time>
      </trkpt>
      <trkpt lat="45.953358756378293" lon="9.387625185772777">
        <ele>2407.71</ele>
        <time>2022-07-10T11:30:16Z</time>
      </trkpt>
      <trkpt lat="45.953366719186306" lon="9.387622587382793">
        <ele>2408.1199999999999</ele>
        <time>2022-07-10T11:30:35Z</time>
      </trkpt>
      <trkpt lat="45.953367222100496" lon="9.387622671201825">
        <ele>2408.1500000000001</ele>
        <time>2022-07-10T11:30:56Z</time>
      </trkpt>
      <trkpt lat="45.953368730843067" lon="9.387627029791474">
        <ele>2408.4899999999998</ele>
        <time>2022-07-10T11:31:10Z</time>
      </trkpt>
      <trkpt lat="45.953366886824369" lon="9.387629879638553">
        <ele>2408.29</ele>
        <time>2022-07-10T11:31:33Z</time>
      </trkpt>
      <trkpt lat="45.953370742499828" lon="9.387625269591808">
        <ele>2408.04</ele>
        <time>2022-07-10T11:31:55Z</time>
      </trkpt>
      <trkpt lat="45.953371496871114" lon="9.387626443058252">
        <ele>2408.4400000000001</ele>
        <time>2022-07-10T11:32:24Z</time>
      </trkpt>
      <trkpt lat="45.953368311747909" lon="9.387627029791474">
        <ele>2408.4699999999998</ele>
        <time>2022-07-10T11:32:48Z</time>
      </trkpt>
      <trkpt lat="45.953377531841397" lon="9.38764245249331">
        <ele>2408.98</ele>
        <time>2022-07-10T11:33:10Z</time>
      </trkpt>
      <trkpt lat="45.953355403617024" lon="9.387665586546063">
        <ele>2408.1799999999998</ele>
        <time>2022-07-10T11:33:23Z</time>
      </trkpt>
      <trkpt lat="45.953334113582969" lon="9.387690396979451">
        <ele>2406.6199999999999</ele>
        <time>2022-07-10T11:33:36Z</time>
      </trkpt>
      <trkpt lat="45.953298155218363" lon="9.387675141915679">
        <ele>2405.7199999999998</ele>
        <time>2022-07-10T11:33:50Z</time>
      </trkpt>
      <trkpt lat="45.953272255137563" lon="9.387661898508668">
        <ele>2405.1100000000001</ele>
        <time>2022-07-10T11:34:10Z</time>
      </trkpt>
      <trkpt lat="45.953248282894492" lon="9.38768838532269">
        <ele>2403.04</ele>
        <time>2022-07-10T11:34:20Z</time>
      </trkpt>
      <trkpt lat="45.953229675069451" lon="9.387693582102656">
        <ele>2402.29</ele>
        <time>2022-07-10T11:34:31Z</time>
      </trkpt>
      <trkpt lat="45.953200338408351" lon="9.387645134702325">
        <ele>2401.3699999999999</ele>
        <time>2022-07-10T11:34:38Z</time>
      </trkpt>
      <trkpt lat="45.953192543238401" lon="9.387574726715684">
        <ele>2401.5300000000002</ele>
        <time>2022-07-10T11:34:43Z</time>
      </trkpt>
      <trkpt lat="45.953148035332561" lon="9.387460565194488">
        <ele>2401.2800000000002</ele>
        <time>2022-07-10T11:34:54Z</time>
      </trkpt>
      <trkpt lat="45.953133869916201" lon="9.387371214106679">
        <ele>2400.4400000000001</ele>
        <time>2022-07-10T11:35:06Z</time>
      </trkpt>
      <trkpt lat="45.953175192698836" lon="9.387265183031559">
        <ele>2401.0900000000001</ele>
        <time>2022-07-10T11:35:18Z</time>
      </trkpt>
      <trkpt lat="45.953263286501169" lon="9.387233247980475">
        <ele>2401.1300000000001</ele>
        <time>2022-07-10T11:35:28Z</time>
      </trkpt>
      <trkpt lat="45.95331416465342" lon="9.387152530252934">
        <ele>2401.1100000000001</ele>
        <time>2022-07-10T11:35:41Z</time>
      </trkpt>
      <trkpt lat="45.953314919024706" lon="9.387138448655605">
        <ele>2400.6399999999999</ele>
        <time>2022-07-10T11:35:54Z</time>
      </trkpt>
      <trkpt lat="45.953319696709514" lon="9.387126797810197">
        <ele>2400.7600000000002</ele>
        <time>2022-07-10T11:36:15Z</time>
      </trkpt>
      <trkpt lat="45.953324139118195" lon="9.387120343744755">
        <ele>2400.6900000000001</ele>
        <time>2022-07-10T11:36:32Z</time>
      </trkpt>
      <trkpt lat="45.953336544334888" lon="9.38711523078382">
        <ele>2400.8699999999999</ele>
        <time>2022-07-10T11:36:52Z</time>
      </trkpt>
      <trkpt lat="45.953342998400331" lon="9.387102322652936">
        <ele>2400.9400000000001</ele>
        <time>2022-07-10T11:37:06Z</time>
      </trkpt>
      <trkpt lat="45.953367976471782" lon="9.387104921042919">
        <ele>2400.7800000000002</ele>
        <time>2022-07-10T11:37:23Z</time>
      </trkpt>
      <trkpt lat="45.953331179916859" lon="9.387059658765793">
        <ele>2399.1700000000001</ele>
        <time>2022-07-10T11:37:36Z</time>
      </trkpt>
      <trkpt lat="45.953308632597327" lon="9.386990088969469">
        <ele>2397.9899999999998</ele>
        <time>2022-07-10T11:37:47Z</time>
      </trkpt>
      <trkpt lat="45.953315002843738" lon="9.386962093412876">
        <ele>2398.3699999999999</ele>
        <time>2022-07-10T11:38:01Z</time>
      </trkpt>
      <trkpt lat="45.953336711972952" lon="9.386931834742427">
        <ele>2397.2600000000002</ele>
        <time>2022-07-10T11:38:15Z</time>
      </trkpt>
      <trkpt lat="45.953351045027375" lon="9.386922363191843">
        <ele>2396.77</ele>
        <time>2022-07-10T11:38:17Z</time>
      </trkpt>
      <trkpt lat="45.953379040583968" lon="9.386896463111043">
        <ele>2395.7199999999998</ele>
        <time>2022-07-10T11:38:29Z</time>
      </trkpt>
      <trkpt lat="45.953404856845737" lon="9.386890679597855">
        <ele>2394.8200000000002</ele>
        <time>2022-07-10T11:38:55Z</time>
      </trkpt>
      <trkpt lat="45.953440982848406" lon="9.38684793189168">
        <ele>2394.4299999999998</ele>
        <time>2022-07-10T11:39:07Z</time>
      </trkpt>
      <trkpt lat="45.953460345044732" lon="9.386860504746437">
        <ele>2393.3600000000001</ele>
        <time>2022-07-10T11:39:19Z</time>
      </trkpt>
      <trkpt lat="45.953464284539223" lon="9.38686746172607">
        <ele>2392.8400000000001</ele>
        <time>2022-07-10T11:39:39Z</time>
      </trkpt>
      <trkpt lat="45.95345875248313" lon="9.386868299916387">
        <ele>2392.5999999999999</ele>
        <time>2022-07-10T11:40:00Z</time>
      </trkpt>
      <trkpt lat="45.953457159921527" lon="9.386870143935084">
        <ele>2392.02</ele>
        <time>2022-07-10T11:40:22Z</time>
      </trkpt>
      <trkpt lat="45.953457746654749" lon="9.386866372078657">
        <ele>2392.6500000000001</ele>
        <time>2022-07-10T11:40:57Z</time>
      </trkpt>
      <trkpt lat="45.953458836302161" lon="9.386864025145769">
        <ele>2392.0500000000002</ele>
        <time>2022-07-10T11:41:20Z</time>
      </trkpt>
      <trkpt lat="45.953463781625032" lon="9.386877352371812">
        <ele>2391.8499999999999</ele>
        <time>2022-07-10T11:41:37Z</time>
      </trkpt>
      <trkpt lat="45.953479455783963" lon="9.386876598000526">
        <ele>2391.2399999999998</ele>
        <time>2022-07-10T11:41:51Z</time>
      </trkpt>
      <trkpt lat="45.953497057780623" lon="9.386878022924066">
        <ele>2389.8000000000002</ele>
        <time>2022-07-10T11:42:05Z</time>
      </trkpt>
      <trkpt lat="45.95349739305675" lon="9.386903587728739">
        <ele>2388.6199999999999</ele>
        <time>2022-07-10T11:42:20Z</time>
      </trkpt>
      <trkpt lat="45.953494878485799" lon="9.386907108128071">
        <ele>2388.71</ele>
        <time>2022-07-10T11:42:37Z</time>
      </trkpt>
      <trkpt lat="45.953495884314179" lon="9.386908784508705">
        <ele>2388.6900000000001</ele>
        <time>2022-07-10T11:42:58Z</time>
      </trkpt>
      <trkpt lat="45.953494878485799" lon="9.386904342100024">
        <ele>2388.7800000000002</ele>
        <time>2022-07-10T11:43:18Z</time>
      </trkpt>
      <trkpt lat="45.953491106629372" lon="9.386922866106033">
        <ele>2388.4099999999999</ele>
        <time>2022-07-10T11:43:38Z</time>
      </trkpt>
      <trkpt lat="45.953495046123862" lon="9.386943904682994">
        <ele>2387.5100000000002</ele>
        <time>2022-07-10T11:43:51Z</time>
      </trkpt>
      <trkpt lat="45.953508792445064" lon="9.386977348476648">
        <ele>2385.8000000000002</ele>
        <time>2022-07-10T11:44:02Z</time>
      </trkpt>
      <trkpt lat="45.953509211540222" lon="9.387018587440252">
        <ele>2383.2199999999998</ele>
        <time>2022-07-10T11:44:09Z</time>
      </trkpt>
      <trkpt lat="45.953517174348235" lon="9.387026885524392">
        <ele>2382.4400000000001</ele>
        <time>2022-07-10T11:44:20Z</time>
      </trkpt>
      <trkpt lat="45.953522957861423" lon="9.38704046420753">
        <ele>2381.48</ele>
        <time>2022-07-10T11:44:31Z</time>
      </trkpt>
      <trkpt lat="45.953522538766265" lon="9.387044068425894">
        <ele>2380.3200000000002</ele>
        <time>2022-07-10T11:44:39Z</time>
      </trkpt>
      <trkpt lat="45.953554809093475" lon="9.387073488906026">
        <ele>2379.1399999999999</ele>
        <time>2022-07-10T11:44:49Z</time>
      </trkpt>
      <trkpt lat="45.95357115380466" lon="9.387084469199181">
        <ele>2378.1500000000001</ele>
        <time>2022-07-10T11:45:01Z</time>
      </trkpt>
      <trkpt lat="45.953579703345895" lon="9.38709176145494">
        <ele>2376.98</ele>
        <time>2022-07-10T11:45:14Z</time>
      </trkpt>
      <trkpt lat="45.953577104955912" lon="9.387100646272302">
        <ele>2377.0900000000001</ele>
        <time>2022-07-10T11:45:25Z</time>
      </trkpt>
      <trkpt lat="45.953576350584626" lon="9.387107351794839">
        <ele>2376.8699999999999</ele>
        <time>2022-07-10T11:45:41Z</time>
      </trkpt>
      <trkpt lat="45.953587414696813" lon="9.387114308774471">
        <ele>2376.1700000000001</ele>
        <time>2022-07-10T11:45:54Z</time>
      </trkpt>
      <trkpt lat="45.953596467152238" lon="9.387114895507693">
        <ele>2375.73</ele>
        <time>2022-07-10T11:46:06Z</time>
      </trkpt>
      <trkpt lat="45.95359068363905" lon="9.387125456705689">
        <ele>2375.3299999999999</ele>
        <time>2022-07-10T11:46:25Z</time>
      </trkpt>
      <trkpt lat="45.953607195988297" lon="9.387140208855271">
        <ele>2375.54</ele>
        <time>2022-07-10T11:46:36Z</time>
      </trkpt>
      <trkpt lat="45.953621612861753" lon="9.387137442827225">
        <ele>2374.8200000000002</ele>
        <time>2022-07-10T11:46:52Z</time>
      </trkpt>
      <trkpt lat="45.953629743307829" lon="9.38714942894876">
        <ele>2373.6300000000001</ele>
        <time>2022-07-10T11:47:04Z</time>
      </trkpt>
      <trkpt lat="45.95362831838429" lon="9.387148758396506">
        <ele>2373.3800000000001</ele>
        <time>2022-07-10T11:47:17Z</time>
      </trkpt>
      <trkpt lat="45.953636113554239" lon="9.38714649528265">
        <ele>2373.54</ele>
        <time>2022-07-10T11:47:24Z</time>
      </trkpt>
      <trkpt lat="45.953644411638379" lon="9.387150434777141">
        <ele>2373.02</ele>
        <time>2022-07-10T11:47:48Z</time>
      </trkpt>
      <trkpt lat="45.953649273142219" lon="9.387153787538409">
        <ele>2372.5300000000002</ele>
        <time>2022-07-10T11:48:02Z</time>
      </trkpt>
      <trkpt lat="45.953637957572937" lon="9.387164432555437">
        <ele>2372.48</ele>
        <time>2022-07-10T11:48:11Z</time>
      </trkpt>
      <trkpt lat="45.953644076362252" lon="9.387190667912364">
        <ele>2371.9899999999998</ele>
        <time>2022-07-10T11:48:31Z</time>
      </trkpt>
      <trkpt lat="45.953646926209331" lon="9.387203576043248">
        <ele>2370.6900000000001</ele>
        <time>2022-07-10T11:48:45Z</time>
      </trkpt>
      <trkpt lat="45.953652122989297" lon="9.387193769216538">
        <ele>2370.6599999999999</ele>
        <time>2022-07-10T11:49:03Z</time>
      </trkpt>
      <trkpt lat="45.953674418851733" lon="9.387191757559776">
        <ele>2370.54</ele>
        <time>2022-07-10T11:49:15Z</time>
      </trkpt>
      <trkpt lat="45.953687243163586" lon="9.387193433940411">
        <ele>2370.48</ele>
        <time>2022-07-10T11:49:28Z</time>
      </trkpt>
      <trkpt lat="45.953696044161916" lon="9.387189075350761">
        <ele>2370.0999999999999</ele>
        <time>2022-07-10T11:49:41Z</time>
      </trkpt>
      <trkpt lat="45.953692188486457" lon="9.387203073129058">
        <ele>2369.8299999999999</ele>
        <time>2022-07-10T11:49:52Z</time>
      </trkpt>
      <trkpt lat="45.953709287568927" lon="9.387217070907354">
        <ele>2368.2199999999998</ele>
        <time>2022-07-10T11:50:05Z</time>
      </trkpt>
      <trkpt lat="45.953723536804318" lon="9.3872613273561">
        <ele>2367.2800000000002</ele>
        <time>2022-07-10T11:50:19Z</time>
      </trkpt>
      <trkpt lat="45.953718088567257" lon="9.387261243537068">
        <ele>2366.7399999999998</ele>
        <time>2022-07-10T11:50:30Z</time>
      </trkpt>
      <trkpt lat="45.953703420236707" lon="9.387261243537068">
        <ele>2366.02</ele>
        <time>2022-07-10T11:50:53Z</time>
      </trkpt>
      <trkpt lat="45.953711131587625" lon="9.387265015393496">
        <ele>2365.8400000000001</ele>
        <time>2022-07-10T11:51:07Z</time>
      </trkpt>
      <trkpt lat="45.953725799918175" lon="9.387300470843911">
        <ele>2365.0599999999999</ele>
        <time>2022-07-10T11:51:17Z</time>
      </trkpt>
      <trkpt lat="45.953741557896137" lon="9.387322766706348">
        <ele>2364.6999999999998</ele>
        <time>2022-07-10T11:51:25Z</time>
      </trkpt>
      <trkpt lat="45.953780449926853" lon="9.387369621545076">
        <ele>2362.5599999999999</ele>
        <time>2022-07-10T11:51:36Z</time>
      </trkpt>
      <trkpt lat="45.953795285895467" lon="9.387381272390485">
        <ele>2361.04</ele>
        <time>2022-07-10T11:51:46Z</time>
      </trkpt>
      <trkpt lat="45.953805176541209" lon="9.387360569089651">
        <ele>2360.1799999999998</ele>
        <time>2022-07-10T11:51:52Z</time>
      </trkpt>
      <trkpt lat="45.953839039430022" lon="9.387350846081972">
        <ele>2358.8200000000002</ele>
        <time>2022-07-10T11:51:58Z</time>
      </trkpt>
      <trkpt lat="45.953859575092793" lon="9.387375824153423">
        <ele>2356.2800000000002</ele>
        <time>2022-07-10T11:52:04Z</time>
      </trkpt>
      <trkpt lat="45.95387801527977" lon="9.387431479990482">
        <ele>2354.98</ele>
        <time>2022-07-10T11:52:15Z</time>
      </trkpt>
      <trkpt lat="45.953885307535529" lon="9.387445477768779">
        <ele>2354.9899999999998</ele>
        <time>2022-07-10T11:52:17Z</time>
      </trkpt>
      <trkpt lat="45.953905005007982" lon="9.387471713125706">
        <ele>2354.3600000000001</ele>
        <time>2022-07-10T11:52:27Z</time>
      </trkpt>
      <trkpt lat="45.953914560377598" lon="9.387477161362767">
        <ele>2352.8499999999999</ele>
        <time>2022-07-10T11:52:41Z</time>
      </trkpt>
      <trkpt lat="45.953909531235695" lon="9.387460649013519">
        <ele>2351.8299999999999</ele>
        <time>2022-07-10T11:52:52Z</time>
      </trkpt>
      <trkpt lat="45.953915230929852" lon="9.387462912127376">
        <ele>2351.4000000000001</ele>
        <time>2022-07-10T11:52:55Z</time>
      </trkpt>
      <trkpt lat="45.953931324183941" lon="9.387402730062604">
        <ele>2349.54</ele>
        <time>2022-07-10T11:53:03Z</time>
      </trkpt>
      <trkpt lat="45.953928055241704" lon="9.387400550767779">
        <ele>2348.5100000000002</ele>
        <time>2022-07-10T11:53:16Z</time>
      </trkpt>
      <trkpt lat="45.953929061070085" lon="9.387400969862938">
        <ele>2348.2399999999998</ele>
        <time>2022-07-10T11:53:22Z</time>
      </trkpt>
      <trkpt lat="45.953925373032689" lon="9.38739568926394">
        <ele>2348.1100000000001</ele>
        <time>2022-07-10T11:53:28Z</time>
      </trkpt>
      <trkpt lat="45.953925540670753" lon="9.387393007054925">
        <ele>2347.96</ele>
        <time>2022-07-10T11:53:33Z</time>
      </trkpt>
      <trkpt lat="45.953923193737864" lon="9.387385128065944">
        <ele>2348.0500000000002</ele>
        <time>2022-07-10T11:53:39Z</time>
      </trkpt>
      <trkpt lat="45.953927300870419" lon="9.387384708970785">
        <ele>2347.5100000000002</ele>
        <time>2022-07-10T11:53:52Z</time>
      </trkpt>
      <trkpt lat="45.953936018049717" lon="9.387383870780468">
        <ele>2347.3400000000001</ele>
        <time>2022-07-10T11:54:02Z</time>
      </trkpt>
      <trkpt lat="45.95394641160965" lon="9.387380853295326">
        <ele>2347.48</ele>
        <time>2022-07-10T11:54:13Z</time>
      </trkpt>
      <trkpt lat="45.953945824876428" lon="9.387382948771119">
        <ele>2347.1100000000001</ele>
        <time>2022-07-10T11:54:23Z</time>
      </trkpt>
      <trkpt lat="45.953944316133857" lon="9.387379512190819">
        <ele>2346.9000000000001</ele>
        <time>2022-07-10T11:54:29Z</time>
      </trkpt>
      <trkpt lat="45.953940460458398" lon="9.38737859018147">
        <ele>2346.8800000000001</ele>
        <time>2022-07-10T11:54:36Z</time>
      </trkpt>
      <trkpt lat="45.95394104719162" lon="9.387383451685309">
        <ele>2346.9000000000001</ele>
        <time>2022-07-10T11:54:43Z</time>
      </trkpt>
      <trkpt lat="45.953944735229015" lon="9.387393845245242">
        <ele>2347.2600000000002</ele>
        <time>2022-07-10T11:55:01Z</time>
      </trkpt>
      <trkpt lat="45.953943729400635" lon="9.387397952377796">
        <ele>2346.9899999999998</ele>
        <time>2022-07-10T11:55:07Z</time>
      </trkpt>
      <trkpt lat="45.953948507085443" lon="9.387385798618197">
        <ele>2346.6900000000001</ele>
        <time>2022-07-10T11:55:14Z</time>
      </trkpt>
      <trkpt lat="45.953940376639366" lon="9.387389989569783">
        <ele>2346.4200000000001</ele>
        <time>2022-07-10T11:55:40Z</time>
      </trkpt>
      <trkpt lat="45.953950099647045" lon="9.387334836646915">
        <ele>2344.6100000000001</ele>
        <time>2022-07-10T11:55:55Z</time>
      </trkpt>
      <trkpt lat="45.953957810997963" lon="9.387328801676631">
        <ele>2344.4299999999998</ele>
        <time>2022-07-10T11:55:57Z</time>
      </trkpt>
      <trkpt lat="45.953973066061735" lon="9.387279851362109">
        <ele>2342.9899999999998</ele>
        <time>2022-07-10T11:56:03Z</time>
      </trkpt>
      <trkpt lat="45.954012963920832" lon="9.38724716193974">
        <ele>2341.1100000000001</ele>
        <time>2022-07-10T11:56:12Z</time>
      </trkpt>
      <trkpt lat="45.954018915072083" lon="9.387228386476636">
        <ele>2340.71</ele>
        <time>2022-07-10T11:56:14Z</time>
      </trkpt>
      <trkpt lat="45.954031068831682" lon="9.38717189244926">
        <ele>2339.3899999999999</ele>
        <time>2022-07-10T11:56:21Z</time>
      </trkpt>
      <trkpt lat="45.954062836244702" lon="9.387086732313037">
        <ele>2336.3800000000001</ele>
        <time>2022-07-10T11:56:33Z</time>
      </trkpt>
      <trkpt lat="45.954082030802965" lon="9.386972906067967">
        <ele>2333.9299999999998</ele>
        <time>2022-07-10T11:56:44Z</time>
      </trkpt>
      <trkpt lat="45.954119833186269" lon="9.387009451165795">
        <ele>2332.0999999999999</ele>
        <time>2022-07-10T11:56:53Z</time>
      </trkpt>
      <trkpt lat="45.95416534692049" lon="9.386993944644928">
        <ele>2330</ele>
        <time>2022-07-10T11:57:05Z</time>
      </trkpt>
      <trkpt lat="45.954163670539856" lon="9.386989669874311">
        <ele>2329.8400000000001</ele>
        <time>2022-07-10T11:57:10Z</time>
      </trkpt>
      <trkpt lat="45.954182278364897" lon="9.386955723166466">
        <ele>2328.8000000000002</ele>
        <time>2022-07-10T11:57:16Z</time>
      </trkpt>
      <trkpt lat="45.954190576449037" lon="9.386921357363462">
        <ele>2327.6900000000001</ele>
        <time>2022-07-10T11:57:22Z</time>
      </trkpt>
      <trkpt lat="45.954196527600288" lon="9.386910377070308">
        <ele>2326.9299999999998</ele>
        <time>2022-07-10T11:57:30Z</time>
      </trkpt>
      <trkpt lat="45.954204238951206" lon="9.386895205825567">
        <ele>2326.7399999999998</ele>
        <time>2022-07-10T11:57:36Z</time>
      </trkpt>
      <trkpt lat="45.954259475693107" lon="9.38685430213809">
        <ele>2324.8200000000002</ele>
        <time>2022-07-10T11:57:45Z</time>
      </trkpt>
      <trkpt lat="45.954267689958215" lon="9.386838208884001">
        <ele>2324.0999999999999</ele>
        <time>2022-07-10T11:58:02Z</time>
      </trkpt>
      <trkpt lat="45.954294428229332" lon="9.386806022375822">
        <ele>2321.8299999999999</ele>
        <time>2022-07-10T11:58:16Z</time>
      </trkpt>
      <trkpt lat="45.954300714656711" lon="9.386832593008876">
        <ele>2320.9899999999998</ele>
        <time>2022-07-10T11:58:18Z</time>
      </trkpt>
      <trkpt lat="45.954353688284755" lon="9.386963434517384">
        <ele>2316.9499999999998</ele>
        <time>2022-07-10T11:58:30Z</time>
      </trkpt>
      <trkpt lat="45.954358046874404" lon="9.386973576620221">
        <ele>2316.6900000000001</ele>
        <time>2022-07-10T11:58:31Z</time>
      </trkpt>
      <trkpt lat="45.954416049644351" lon="9.387057647109032">
        <ele>2314.5700000000002</ele>
        <time>2022-07-10T11:58:44Z</time>
      </trkpt>
      <trkpt lat="45.954436333850026" lon="9.387009702622891">
        <ele>2312.6399999999999</ele>
        <time>2022-07-10T11:58:56Z</time>
      </trkpt>
      <trkpt lat="45.954441530629992" lon="9.386996459215879">
        <ele>2311.5100000000002</ele>
        <time>2022-07-10T11:59:04Z</time>
      </trkpt>
      <trkpt lat="45.954458713531494" lon="9.386994112282991">
        <ele>2310.54</ele>
        <time>2022-07-10T11:59:13Z</time>
      </trkpt>
      <trkpt lat="45.954473130404949" lon="9.387034177780151">
        <ele>2309.27</ele>
        <time>2022-07-10T11:59:22Z</time>
      </trkpt>
      <trkpt lat="45.954494420439005" lon="9.387023197486997">
        <ele>2307.9000000000001</ele>
        <time>2022-07-10T11:59:28Z</time>
      </trkpt>
      <trkpt lat="45.954539934173226" lon="9.38708933070302">
        <ele>2305.21</ele>
        <time>2022-07-10T11:59:42Z</time>
      </trkpt>
      <trkpt lat="45.954574383795261" lon="9.387096036225557">
        <ele>2303.7600000000002</ele>
        <time>2022-07-10T11:59:49Z</time>
      </trkpt>
      <trkpt lat="45.954594835639" lon="9.38708983361721">
        <ele>2302.4000000000001</ele>
        <time>2022-07-10T11:59:55Z</time>
      </trkpt>
      <trkpt lat="45.954625681042671" lon="9.387056054547429">
        <ele>2300.9899999999998</ele>
        <time>2022-07-10T12:00:07Z</time>
      </trkpt>
      <trkpt lat="45.954658202826977" lon="9.387021185830236">
        <ele>2299.1500000000001</ele>
        <time>2022-07-10T12:00:18Z</time>
      </trkpt>
      <trkpt lat="45.954693825915456" lon="9.386974582448602">
        <ele>2296.52</ele>
        <time>2022-07-10T12:00:28Z</time>
      </trkpt>
      <trkpt lat="45.95472626388073" lon="9.386906437575817">
        <ele>2294.0700000000002</ele>
        <time>2022-07-10T12:00:39Z</time>
      </trkpt>
      <trkpt lat="45.954758115112782" lon="9.386832593008876">
        <ele>2291.7199999999998</ele>
        <time>2022-07-10T12:00:51Z</time>
      </trkpt>
      <trkpt lat="45.954777225852013" lon="9.38674483448267">
        <ele>2289.79</ele>
        <time>2022-07-10T12:01:04Z</time>
      </trkpt>
      <trkpt lat="45.954786948859692" lon="9.386716336011887">
        <ele>2288.9699999999998</ele>
        <time>2022-07-10T12:01:13Z</time>
      </trkpt>
      <trkpt lat="45.954811675474048" lon="9.386656740680337">
        <ele>2288.3600000000001</ele>
        <time>2022-07-10T12:01:25Z</time>
      </trkpt>
      <trkpt lat="45.95484159886837" lon="9.386581052094698">
        <ele>2287.3499999999999</ele>
        <time>2022-07-10T12:01:37Z</time>
      </trkpt>
      <trkpt lat="45.954861799255013" lon="9.386547273024917">
        <ele>2286.6599999999999</ele>
        <time>2022-07-10T12:01:50Z</time>
      </trkpt>
      <trkpt lat="45.954875545576215" lon="9.386505195870996">
        <ele>2285.5300000000002</ele>
        <time>2022-07-10T12:02:00Z</time>
      </trkpt>
      <trkpt lat="45.954881580546498" lon="9.386480385437608">
        <ele>2283.5799999999999</ele>
        <time>2022-07-10T12:02:14Z</time>
      </trkpt>
      <trkpt lat="45.954880155622959" lon="9.386471919715405">
        <ele>2283.3299999999999</ele>
        <time>2022-07-10T12:02:16Z</time>
      </trkpt>
      <trkpt lat="45.954881412908435" lon="9.386429339647293">
        <ele>2282.52</ele>
        <time>2022-07-10T12:02:22Z</time>
      </trkpt>
      <trkpt lat="45.954881832003593" lon="9.386366559192538">
        <ele>2281.8099999999999</ele>
        <time>2022-07-10T12:02:32Z</time>
      </trkpt>
      <trkpt lat="45.954883005470037" lon="9.38633294776082">
        <ele>2281.4400000000001</ele>
        <time>2022-07-10T12:02:42Z</time>
      </trkpt>
      <trkpt lat="45.954903457313776" lon="9.38628408126533">
        <ele>2279.8899999999999</ele>
        <time>2022-07-10T12:02:55Z</time>
      </trkpt>
      <trkpt lat="45.954922148957849" lon="9.386247871443629">
        <ele>2277.6399999999999</ele>
        <time>2022-07-10T12:03:11Z</time>
      </trkpt>
      <trkpt lat="45.954937404021621" lon="9.386234125122428">
        <ele>2276.8099999999999</ele>
        <time>2022-07-10T12:03:24Z</time>
      </trkpt>
      <trkpt lat="45.954959113150835" lon="9.386200681328774">
        <ele>2274.8200000000002</ele>
        <time>2022-07-10T12:03:35Z</time>
      </trkpt>
      <trkpt lat="45.954974535852671" lon="9.386178217828274">
        <ele>2274.2600000000002</ele>
        <time>2022-07-10T12:03:48Z</time>
      </trkpt>
      <trkpt lat="45.954979062080383" lon="9.386159610003233">
        <ele>2273.3200000000002</ele>
        <time>2022-07-10T12:04:07Z</time>
      </trkpt>
      <trkpt lat="45.954996831715107" lon="9.386142091825604">
        <ele>2271.2600000000002</ele>
        <time>2022-07-10T12:04:20Z</time>
      </trkpt>
      <trkpt lat="45.955018121749163" lon="9.386155838146806">
        <ele>2269.8699999999999</ele>
        <time>2022-07-10T12:04:29Z</time>
      </trkpt>
      <trkpt lat="45.955046033486724" lon="9.386181319132447">
        <ele>2269.02</ele>
        <time>2022-07-10T12:04:39Z</time>
      </trkpt>
      <trkpt lat="45.955056510865688" lon="9.386182241141796">
        <ele>2268.6300000000001</ele>
        <time>2022-07-10T12:04:53Z</time>
      </trkpt>
      <trkpt lat="45.955055169761181" lon="9.386169668287039">
        <ele>2267.0700000000002</ele>
        <time>2022-07-10T12:05:02Z</time>
      </trkpt>
      <trkpt lat="45.955058438703418" lon="9.386177463456988">
        <ele>2267.3000000000002</ele>
        <time>2022-07-10T12:05:29Z</time>
      </trkpt>
      <trkpt lat="45.955054080113769" lon="9.386176206171513">
        <ele>2267.9099999999999</ele>
        <time>2022-07-10T12:05:40Z</time>
      </trkpt>
      <trkpt lat="45.955044440925121" lon="9.386179810389876">
        <ele>2268.23</ele>
        <time>2022-07-10T12:05:56Z</time>
      </trkpt>
      <trkpt lat="45.955043854191899" lon="9.386179558932781">
        <ele>2268.1500000000001</ele>
        <time>2022-07-10T12:06:00Z</time>
      </trkpt>
      <trkpt lat="45.955032790079713" lon="9.386175284162164">
        <ele>2268.4200000000001</ele>
        <time>2022-07-10T12:06:12Z</time>
      </trkpt>
      <trkpt lat="45.955037316307425" lon="9.386179642751813">
        <ele>2267.9000000000001</ele>
        <time>2022-07-10T12:06:27Z</time>
      </trkpt>
      <trkpt lat="45.955028850585222" lon="9.386187521740794">
        <ele>2267.8400000000001</ele>
        <time>2022-07-10T12:06:45Z</time>
      </trkpt>
      <trkpt lat="45.955031700432301" lon="9.386168327182531">
        <ele>2267.9099999999999</ele>
        <time>2022-07-10T12:07:02Z</time>
      </trkpt>
      <trkpt lat="45.955114848911762" lon="9.386049974709749">
        <ele>2266.0300000000002</ele>
        <time>2022-07-10T12:07:15Z</time>
      </trkpt>
      <trkpt lat="45.955191208049655" lon="9.385936735197902">
        <ele>2262.5700000000002</ele>
        <time>2022-07-10T12:07:27Z</time>
      </trkpt>
      <trkpt lat="45.955227585509419" lon="9.385936232283711">
        <ele>2260.9299999999998</ele>
        <time>2022-07-10T12:07:35Z</time>
      </trkpt>
      <trkpt lat="45.955281648784876" lon="9.385885521769524">
        <ele>2258.0300000000002</ele>
        <time>2022-07-10T12:07:46Z</time>
      </trkpt>
      <trkpt lat="45.955329844728112" lon="9.385804971680045">
        <ele>2254.96</ele>
        <time>2022-07-10T12:07:59Z</time>
      </trkpt>
      <trkpt lat="45.955371083691716" lon="9.385768426582217">
        <ele>2252.3600000000001</ele>
        <time>2022-07-10T12:08:09Z</time>
      </trkpt>
      <trkpt lat="45.95541525632143" lon="9.385681338608265">
        <ele>2250.1399999999999</ele>
        <time>2022-07-10T12:08:19Z</time>
      </trkpt>
      <trkpt lat="45.955444676801562" lon="9.385638842359185">
        <ele>2248.23</ele>
        <time>2022-07-10T12:08:25Z</time>
      </trkpt>
      <trkpt lat="45.955489771440625" lon="9.385581593960524">
        <ele>2246.0900000000001</ele>
        <time>2022-07-10T12:08:36Z</time>
      </trkpt>
      <trkpt lat="45.955532100051641" lon="9.385594418272376">
        <ele>2244.02</ele>
        <time>2022-07-10T12:08:45Z</time>
      </trkpt>
      <trkpt lat="45.955580715090036" lon="9.385534655302763">
        <ele>2241.8600000000001</ele>
        <time>2022-07-10T12:08:54Z</time>
      </trkpt>
      <trkpt lat="45.955647015944123" lon="9.385514874011278">
        <ele>2239</ele>
        <time>2022-07-10T12:09:07Z</time>
      </trkpt>
      <trkpt lat="45.955659840255976" lon="9.385496266186237">
        <ele>2238.5700000000002</ele>
        <time>2022-07-10T12:09:09Z</time>
      </trkpt>
      <trkpt lat="45.955683225765824" lon="9.385493751615286">
        <ele>2237.3299999999999</ele>
        <time>2022-07-10T12:09:13Z</time>
      </trkpt>
      <trkpt lat="45.955713735893369" lon="9.385471707209945">
        <ele>2235.3299999999999</ele>
        <time>2022-07-10T12:09:18Z</time>
      </trkpt>
      <trkpt lat="45.95572991296649" lon="9.385429294779897">
        <ele>2234.1799999999998</ele>
        <time>2022-07-10T12:09:24Z</time>
      </trkpt>
      <trkpt lat="45.955749275162816" lon="9.385374896228313">
        <ele>2231.9400000000001</ele>
        <time>2022-07-10T12:09:32Z</time>
      </trkpt>
      <trkpt lat="45.955764781683683" lon="9.385344218462706">
        <ele>2230.7199999999998</ele>
        <time>2022-07-10T12:09:35Z</time>
      </trkpt>
      <trkpt lat="45.955792861059308" lon="9.385238438844681">
        <ele>2227.2600000000002</ele>
        <time>2022-07-10T12:09:46Z</time>
      </trkpt>
      <trkpt lat="45.95582177862525" lon="9.385203318670392">
        <ele>2225.5799999999999</ele>
        <time>2022-07-10T12:09:57Z</time>
      </trkpt>
      <trkpt lat="45.955849438905716" lon="9.385108016431332">
        <ele>2223.7800000000002</ele>
        <time>2022-07-10T12:10:09Z</time>
      </trkpt>
      <trkpt lat="45.95585647970438" lon="9.385080859065056">
        <ele>2223.23</ele>
        <time>2022-07-10T12:10:11Z</time>
      </trkpt>
      <trkpt lat="45.955870058387518" lon="9.38503609970212">
        <ele>2221.6199999999999</ele>
        <time>2022-07-10T12:10:24Z</time>
      </trkpt>
      <trkpt lat="45.955906100571156" lon="9.384966446086764">
        <ele>2219.6199999999999</ele>
        <time>2022-07-10T12:10:34Z</time>
      </trkpt>
      <trkpt lat="45.955937365069985" lon="9.384909868240356">
        <ele>2216.5799999999999</ele>
        <time>2022-07-10T12:10:44Z</time>
      </trkpt>
      <trkpt lat="45.955972652882338" lon="9.384841388091445">
        <ele>2214.8000000000002</ele>
        <time>2022-07-10T12:10:55Z</time>
      </trkpt>
      <trkpt lat="45.95600500702858" lon="9.384783552959561">
        <ele>2212.0799999999999</ele>
        <time>2022-07-10T12:11:04Z</time>
      </trkpt>
      <trkpt lat="45.956026213243604" lon="9.384679868817329">
        <ele>2209.27</ele>
        <time>2022-07-10T12:11:15Z</time>
      </trkpt>
      <trkpt lat="45.956063261255622" lon="9.384637959301472">
        <ele>2207.4200000000001</ele>
        <time>2022-07-10T12:11:24Z</time>
      </trkpt>
      <trkpt lat="45.956110283732414" lon="9.384659249335527">
        <ele>2205.48</ele>
        <time>2022-07-10T12:11:35Z</time>
      </trkpt>
      <trkpt lat="45.956153953447938" lon="9.384599570184946">
        <ele>2203.0599999999999</ele>
        <time>2022-07-10T12:11:46Z</time>
      </trkpt>
      <trkpt lat="45.956197790801525" lon="9.384534191340208">
        <ele>2201.2199999999998</ele>
        <time>2022-07-10T12:11:56Z</time>
      </trkpt>
      <trkpt lat="45.95624883659184" lon="9.384477278217673">
        <ele>2198.73</ele>
        <time>2022-07-10T12:12:08Z</time>
      </trkpt>
      <trkpt lat="45.956276999786496" lon="9.384486079216003">
        <ele>2197.75</ele>
        <time>2022-07-10T12:12:17Z</time>
      </trkpt>
      <trkpt lat="45.956301810219884" lon="9.384477445855737">
        <ele>2196.2399999999998</ele>
        <time>2022-07-10T12:12:30Z</time>
      </trkpt>
      <trkpt lat="45.956320920959115" lon="9.384510470554233">
        <ele>2194.5</ele>
        <time>2022-07-10T12:12:35Z</time>
      </trkpt>
      <trkpt lat="45.956333242356777" lon="9.384574089199305">
        <ele>2192.8600000000001</ele>
        <time>2022-07-10T12:12:45Z</time>
      </trkpt>
      <trkpt lat="45.956330560147762" lon="9.384570233523846">
        <ele>2193.0799999999999</ele>
        <time>2022-07-10T12:13:00Z</time>
      </trkpt>
      <trkpt lat="45.956367859616876" lon="9.384540393948555">
        <ele>2192.9499999999998</ele>
        <time>2022-07-10T12:13:11Z</time>
      </trkpt>
      <trkpt lat="45.956360483542085" lon="9.384506950154901">
        <ele>2192.6999999999998</ele>
        <time>2022-07-10T12:13:18Z</time>
      </trkpt>
      <trkpt lat="45.956389987841249" lon="9.384467303752899">
        <ele>2191.0100000000002</ele>
        <time>2022-07-10T12:13:28Z</time>
      </trkpt>
      <trkpt lat="45.956422844901681" lon="9.384441990405321">
        <ele>2189.5300000000002</ele>
        <time>2022-07-10T12:13:39Z</time>
      </trkpt>
      <trkpt lat="45.956467017531395" lon="9.384423047304153">
        <ele>2186.79</ele>
        <time>2022-07-10T12:13:51Z</time>
      </trkpt>
      <trkpt lat="45.956474309787154" lon="9.384412821382284">
        <ele>2186.1999999999998</ele>
        <time>2022-07-10T12:13:55Z</time>
      </trkpt>
      <trkpt lat="45.956497611477971" lon="9.384403685107827">
        <ele>2185.0500000000002</ele>
        <time>2022-07-10T12:14:01Z</time>
      </trkpt>
      <trkpt lat="45.956515045836568" lon="9.384314836934209">
        <ele>2182.9899999999998</ele>
        <time>2022-07-10T12:14:12Z</time>
      </trkpt>
      <trkpt lat="45.956526193767786" lon="9.384249877184629">
        <ele>2181.1799999999998</ele>
        <time>2022-07-10T12:14:25Z</time>
      </trkpt>
      <trkpt lat="45.95652686432004" lon="9.384231939911842">
        <ele>2180.5700000000002</ele>
        <time>2022-07-10T12:14:31Z</time>
      </trkpt>
      <trkpt lat="45.956544047221541" lon="9.384246440604329">
        <ele>2180.54</ele>
        <time>2022-07-10T12:14:40Z</time>
      </trkpt>
      <trkpt lat="45.956548070535064" lon="9.384209141135216">
        <ele>2179.02</ele>
        <time>2022-07-10T12:14:53Z</time>
      </trkpt>
      <trkpt lat="45.95655519515276" lon="9.384195310994983">
        <ele>2178.1300000000001</ele>
        <time>2022-07-10T12:15:05Z</time>
      </trkpt>
      <trkpt lat="45.956579837948084" lon="9.38415658660233">
        <ele>2175.9699999999998</ele>
        <time>2022-07-10T12:15:22Z</time>
      </trkpt>
      <trkpt lat="45.956574641168118" lon="9.384154826402664">
        <ele>2175.7800000000002</ele>
        <time>2022-07-10T12:15:35Z</time>
      </trkpt>
      <trkpt lat="45.956592829898" lon="9.384137224406004">
        <ele>2175.1199999999999</ele>
        <time>2022-07-10T12:15:48Z</time>
      </trkpt>
      <trkpt lat="45.956595512107015" lon="9.384163543581963">
        <ele>2175.2199999999998</ele>
        <time>2022-07-10T12:16:06Z</time>
      </trkpt>
      <trkpt lat="45.956578496843576" lon="9.384162286296487">
        <ele>2176.3899999999999</ele>
        <time>2022-07-10T12:16:27Z</time>
      </trkpt>
      <trkpt lat="45.956577071920037" lon="9.384155748412013">
        <ele>2175.8299999999999</ele>
        <time>2022-07-10T12:16:50Z</time>
      </trkpt>
      <trkpt lat="45.956574892625213" lon="9.384152563288808">
        <ele>2174.5999999999999</ele>
        <time>2022-07-10T12:17:12Z</time>
      </trkpt>
      <trkpt lat="45.956571456044912" lon="9.384158598259091">
        <ele>2174.4499999999998</ele>
        <time>2022-07-10T12:17:28Z</time>
      </trkpt>
      <trkpt lat="45.956578915938735" lon="9.384161112830043">
        <ele>2175.1399999999999</ele>
        <time>2022-07-10T12:17:47Z</time>
      </trkpt>
      <trkpt lat="45.956575395539403" lon="9.384168153628707">
        <ele>2174.6700000000001</ele>
        <time>2022-07-10T12:18:06Z</time>
      </trkpt>
      <trkpt lat="45.956574305891991" lon="9.384157592430711">
        <ele>2174.27</ele>
        <time>2022-07-10T12:18:24Z</time>
      </trkpt>
      <trkpt lat="45.956574557349086" lon="9.384166644886136">
        <ele>2174.6100000000001</ele>
        <time>2022-07-10T12:18:32Z</time>
      </trkpt>
      <trkpt lat="45.956574054434896" lon="9.384145773947239">
        <ele>2174.3499999999999</ele>
        <time>2022-07-10T12:18:42Z</time>
      </trkpt>
      <trkpt lat="45.956583106890321" lon="9.384158849716187">
        <ele>2174.3099999999999</ele>
        <time>2022-07-10T12:18:59Z</time>
      </trkpt>
      <trkpt lat="45.956583442166448" lon="9.384156251326203">
        <ele>2174.9400000000001</ele>
        <time>2022-07-10T12:19:15Z</time>
      </trkpt>
      <trkpt lat="45.95659383572638" lon="9.384167063981295">
        <ele>2174.4499999999998</ele>
        <time>2022-07-10T12:19:33Z</time>
      </trkpt>
      <trkpt lat="45.95662166364491" lon="9.384153066202998">
        <ele>2173.1199999999999</ele>
        <time>2022-07-10T12:19:45Z</time>
      </trkpt>
      <trkpt lat="45.956654353067279" lon="9.384140074253082">
        <ele>2171.6799999999998</ele>
        <time>2022-07-10T12:19:56Z</time>
      </trkpt>
      <trkpt lat="45.956667428836226" lon="9.384098583832383">
        <ele>2170.5799999999999</ele>
        <time>2022-07-10T12:20:07Z</time>
      </trkpt>
      <trkpt lat="45.956665081903338" lon="9.38407888635993">
        <ele>2170.6100000000001</ele>
        <time>2022-07-10T12:20:09Z</time>
      </trkpt>
      <trkpt lat="45.956663908436894" lon="9.384047454223037">
        <ele>2170.5599999999999</ele>
        <time>2022-07-10T12:20:11Z</time>
      </trkpt>
      <trkpt lat="45.95671009272337" lon="9.383990624919534">
        <ele>2168.6599999999999</ele>
        <time>2022-07-10T12:20:22Z</time>
      </trkpt>
      <trkpt lat="45.956744374707341" lon="9.383970592170954">
        <ele>2166.3800000000001</ele>
        <time>2022-07-10T12:20:35Z</time>
      </trkpt>
      <trkpt lat="45.956746386364102" lon="9.383948547765613">
        <ele>2166.2800000000002</ele>
        <time>2022-07-10T12:20:36Z</time>
      </trkpt>
      <trkpt lat="45.956752672791481" lon="9.383939076215029">
        <ele>2165.98</ele>
        <time>2022-07-10T12:20:37Z</time>
      </trkpt>
      <trkpt lat="45.956796761602163" lon="9.383900435641408">
        <ele>2164.0599999999999</ele>
        <time>2022-07-10T12:20:44Z</time>
      </trkpt>
      <trkpt lat="45.956829786300659" lon="9.38386925496161">
        <ele>2161.1700000000001</ele>
        <time>2022-07-10T12:20:56Z</time>
      </trkpt>
      <trkpt lat="45.956823583692312" lon="9.383874200284481">
        <ele>2160.6999999999998</ele>
        <time>2022-07-10T12:21:08Z</time>
      </trkpt>
      <trkpt lat="45.956817045807838" lon="9.383881827816367">
        <ele>2161.1199999999999</ele>
        <time>2022-07-10T12:21:24Z</time>
      </trkpt>
      <trkpt lat="45.95681126229465" lon="9.383882833644748">
        <ele>2160.6199999999999</ele>
        <time>2022-07-10T12:21:41Z</time>
      </trkpt>
      <trkpt lat="45.956806484609842" lon="9.383880570530891">
        <ele>2160.8000000000002</ele>
        <time>2022-07-10T12:21:57Z</time>
      </trkpt>
      <trkpt lat="45.956803131848574" lon="9.383887276053429">
        <ele>2160.9099999999999</ele>
        <time>2022-07-10T12:22:16Z</time>
      </trkpt>
      <trkpt lat="45.956804808229208" lon="9.383886270225048">
        <ele>2160.5700000000002</ele>
        <time>2022-07-10T12:22:44Z</time>
      </trkpt>
      <trkpt lat="45.956812351942062" lon="9.383878139778972">
        <ele>2160.3000000000002</ele>
        <time>2022-07-10T12:23:11Z</time>
      </trkpt>
      <trkpt lat="45.95680832862854" lon="9.383884761482477">
        <ele>2160.5900000000001</ele>
        <time>2022-07-10T12:23:31Z</time>
      </trkpt>
      <trkpt lat="45.956803467124701" lon="9.38388149254024">
        <ele>2160.1599999999999</ele>
        <time>2022-07-10T12:23:46Z</time>
      </trkpt>
      <trkpt lat="45.956806065514684" lon="9.383879648521543">
        <ele>2160.4099999999999</ele>
        <time>2022-07-10T12:23:58Z</time>
      </trkpt>
      <trkpt lat="45.95680832862854" lon="9.383875792846084">
        <ele>2160.4099999999999</ele>
        <time>2022-07-10T12:24:18Z</time>
      </trkpt>
      <trkpt lat="45.956804808229208" lon="9.383872104808688">
        <ele>2160.6700000000001</ele>
        <time>2022-07-10T12:24:35Z</time>
      </trkpt>
      <trkpt lat="45.956802209839225" lon="9.383871350437403">
        <ele>2160.4299999999998</ele>
        <time>2022-07-10T12:24:53Z</time>
      </trkpt>
      <trkpt lat="45.956807490438223" lon="9.383869674056768">
        <ele>2160.21</ele>
        <time>2022-07-10T12:25:21Z</time>
      </trkpt>
      <trkpt lat="45.956812519580126" lon="9.383867159485817">
        <ele>2160.3099999999999</ele>
        <time>2022-07-10T12:25:52Z</time>
      </trkpt>
      <trkpt lat="45.956814950332046" lon="9.38386581838131">
        <ele>2160.3400000000001</ele>
        <time>2022-07-10T12:26:12Z</time>
      </trkpt>
      <trkpt lat="45.956807658076286" lon="9.383877301588655">
        <ele>2160.1199999999999</ele>
        <time>2022-07-10T12:26:32Z</time>
      </trkpt>
      <trkpt lat="45.956807490438223" lon="9.383871434256434">
        <ele>2159.9699999999998</ele>
        <time>2022-07-10T12:26:57Z</time>
      </trkpt>
      <trkpt lat="45.956803718581796" lon="9.383876128122211">
        <ele>2159.8499999999999</ele>
        <time>2022-07-10T12:27:15Z</time>
      </trkpt>
      <trkpt lat="45.956807574257255" lon="9.383871266618371">
        <ele>2159.77</ele>
        <time>2022-07-10T12:27:31Z</time>
      </trkpt>
      <trkpt lat="45.956812771037221" lon="9.383860286325216">
        <ele>2159.7600000000002</ele>
        <time>2022-07-10T12:27:56Z</time>
      </trkpt>
      <trkpt lat="45.956813609227538" lon="9.383862297981978">
        <ele>2159.6999999999998</ele>
        <time>2022-07-10T12:28:11Z</time>
      </trkpt>
      <trkpt lat="45.956813273951411" lon="9.383862968534231">
        <ele>2159.9200000000001</ele>
        <time>2022-07-10T12:28:24Z</time>
      </trkpt>
      <trkpt lat="45.956817381083965" lon="9.383860370144248">
        <ele>2159.5</ele>
        <time>2022-07-10T12:28:44Z</time>
      </trkpt>
      <trkpt lat="45.956824757158756" lon="9.38385752029717">
        <ele>2159.75</ele>
        <time>2022-07-10T12:29:08Z</time>
      </trkpt>
      <trkpt lat="45.956827271729708" lon="9.383858861401677">
        <ele>2159.6199999999999</ele>
        <time>2022-07-10T12:29:21Z</time>
      </trkpt>
      <trkpt lat="45.956826768815517" lon="9.383863052353263">
        <ele>2159.46</ele>
        <time>2022-07-10T12:29:41Z</time>
      </trkpt>
      <trkpt lat="45.956857949495316" lon="9.383845534175634">
        <ele>2158.6599999999999</ele>
        <time>2022-07-10T12:29:52Z</time>
      </trkpt>
      <trkpt lat="45.956873539835215" lon="9.383842013776302">
        <ele>2158.5100000000002</ele>
        <time>2022-07-10T12:30:10Z</time>
      </trkpt>
      <trkpt lat="45.956912683323026" lon="9.383856933563948">
        <ele>2156.1100000000001</ele>
        <time>2022-07-10T12:30:21Z</time>
      </trkpt>
      <trkpt lat="45.956976553425193" lon="9.383850814774633">
        <ele>2153.8800000000001</ele>
        <time>2022-07-10T12:30:33Z</time>
      </trkpt>
      <trkpt lat="45.957035645842552" lon="9.383824830874801">
        <ele>2151.21</ele>
        <time>2022-07-10T12:30:46Z</time>
      </trkpt>
      <trkpt lat="45.957082416862249" lon="9.383764732629061">
        <ele>2149.1500000000001</ele>
        <time>2022-07-10T12:30:57Z</time>
      </trkpt>
      <trkpt lat="45.957133378833532" lon="9.383741598576307">
        <ele>2146.9200000000001</ele>
        <time>2022-07-10T12:31:08Z</time>
      </trkpt>
      <trkpt lat="45.957157351076603" lon="9.383712932467461">
        <ele>2146.25</ele>
        <time>2022-07-10T12:31:20Z</time>
      </trkpt>
      <trkpt lat="45.957179060205817" lon="9.383687283843756">
        <ele>2145.8400000000001</ele>
        <time>2022-07-10T12:31:29Z</time>
      </trkpt>
      <trkpt lat="45.957190711051226" lon="9.383671693503857">
        <ele>2147.8899999999999</ele>
        <time>2022-07-10T12:31:42Z</time>
      </trkpt>
      <trkpt lat="45.957188364118338" lon="9.38366892747581">
        <ele>2148.2800000000002</ele>
        <time>2022-07-10T12:32:00Z</time>
      </trkpt>
      <trkpt lat="45.957210911437869" lon="9.383649649098516">
        <ele>2147.6700000000001</ele>
        <time>2022-07-10T12:32:13Z</time>
      </trkpt>
      <trkpt lat="45.957223065197468" lon="9.383614780381322">
        <ele>2147.96</ele>
        <time>2022-07-10T12:32:26Z</time>
      </trkpt>
      <trkpt lat="45.957256089895964" lon="9.383574211969972">
        <ele>2147.0100000000002</ele>
        <time>2022-07-10T12:32:39Z</time>
      </trkpt>
      <trkpt lat="45.957264471799135" lon="9.383514616638422">
        <ele>2148.5500000000002</ele>
        <time>2022-07-10T12:32:49Z</time>
      </trkpt>
      <trkpt lat="45.957295233383775" lon="9.383408250287175">
        <ele>2149.4000000000001</ele>
        <time>2022-07-10T12:33:02Z</time>
      </trkpt>
      <trkpt lat="45.957328760996461" lon="9.383351923897862">
        <ele>2148.9099999999999</ele>
        <time>2022-07-10T12:33:16Z</time>
      </trkpt>
      <trkpt lat="45.957332532852888" lon="9.383348235860467">
        <ele>2148.9699999999998</ele>
        <time>2022-07-10T12:33:33Z</time>
      </trkpt>
      <trkpt lat="45.957342172041535" lon="9.383249245584011">
        <ele>2148.9299999999998</ele>
        <time>2022-07-10T12:33:45Z</time>
      </trkpt>
      <trkpt lat="45.957401432096958" lon="9.383146315813065">
        <ele>2148.3800000000001</ele>
        <time>2022-07-10T12:33:57Z</time>
      </trkpt>
      <trkpt lat="45.957456585019827" lon="9.383074399083853">
        <ele>2147.9200000000001</ele>
        <time>2022-07-10T12:34:08Z</time>
      </trkpt>
      <trkpt lat="45.957517940551043" lon="9.382987143471837">
        <ele>2146.7600000000002</ele>
        <time>2022-07-10T12:34:19Z</time>
      </trkpt>
      <trkpt lat="45.957541577517986" lon="9.382903827354312">
        <ele>2146.8800000000001</ele>
        <time>2022-07-10T12:34:30Z</time>
      </trkpt>
      <trkpt lat="45.957544008269906" lon="9.382861834019423">
        <ele>2148.4400000000001</ele>
        <time>2022-07-10T12:34:42Z</time>
      </trkpt>
      <trkpt lat="45.957558341324329" lon="9.382812716066837">
        <ele>2149.54</ele>
        <time>2022-07-10T12:34:53Z</time>
      </trkpt>
      <trkpt lat="45.957592958584428" lon="9.382751192897558">
        <ele>2147.5500000000002</ele>
        <time>2022-07-10T12:35:05Z</time>
      </trkpt>
      <trkpt lat="45.957592371851206" lon="9.382729483768344">
        <ele>2147.5</ele>
        <time>2022-07-10T12:35:07Z</time>
      </trkpt>
      <trkpt lat="45.95759597606957" lon="9.38271607272327">
        <ele>2147.4899999999998</ele>
        <time>2022-07-10T12:35:08Z</time>
      </trkpt>
      <trkpt lat="45.957633024081588" lon="9.382637115195394">
        <ele>2147.7399999999998</ele>
        <time>2022-07-10T12:35:19Z</time>
      </trkpt>
      <trkpt lat="45.957657499238849" lon="9.382564695551992">
        <ele>2147.0799999999999</ele>
        <time>2022-07-10T12:35:30Z</time>
      </trkpt>
      <trkpt lat="45.957669652998447" lon="9.382519097998738">
        <ele>2146.4899999999998</ele>
        <time>2022-07-10T12:35:40Z</time>
      </trkpt>
      <trkpt lat="45.957709634676576" lon="9.382428992539644">
        <ele>2145.8699999999999</ele>
        <time>2022-07-10T12:35:51Z</time>
      </trkpt>
      <trkpt lat="45.957741905003786" lon="9.382360177114606">
        <ele>2145.3899999999999</ele>
        <time>2022-07-10T12:36:00Z</time>
      </trkpt>
      <trkpt lat="45.957773169502616" lon="9.382305108010769">
        <ele>2143.8099999999999</ele>
        <time>2022-07-10T12:36:10Z</time>
      </trkpt>
      <trkpt lat="45.957802170887589" lon="9.382294043898583">
        <ele>2143.21</ele>
        <time>2022-07-10T12:36:14Z</time>
      </trkpt>
      <trkpt lat="45.957810385152698" lon="9.382281387224793">
        <ele>2143.0599999999999</ele>
        <time>2022-07-10T12:36:15Z</time>
      </trkpt>
      <trkpt lat="45.957819186151028" lon="9.382268814370036">
        <ele>2142.8400000000001</ele>
        <time>2022-07-10T12:36:16Z</time>
      </trkpt>
      <trkpt lat="45.957901747897267" lon="9.382158508524299">
        <ele>2142.21</ele>
        <time>2022-07-10T12:36:27Z</time>
      </trkpt>
      <trkpt lat="45.957964193075895" lon="9.382061529904604">
        <ele>2140.75</ele>
        <time>2022-07-10T12:36:37Z</time>
      </trkpt>
      <trkpt lat="45.95797223970294" lon="9.38205205835402">
        <ele>2140.6700000000001</ele>
        <time>2022-07-10T12:36:38Z</time>
      </trkpt>
      <trkpt lat="45.958019345998764" lon="9.381937645375729">
        <ele>2140.1900000000001</ele>
        <time>2022-07-10T12:36:52Z</time>
      </trkpt>
      <trkpt lat="45.95805773511529" lon="9.381913840770721">
        <ele>2138.27</ele>
        <time>2022-07-10T12:37:02Z</time>
      </trkpt>
      <trkpt lat="45.95812076702714" lon="9.381867488846183">
        <ele>2136.04</ele>
        <time>2022-07-10T12:37:13Z</time>
      </trkpt>
      <trkpt lat="45.958192432299256" lon="9.381888695061207">
        <ele>2133.8299999999999</ele>
        <time>2022-07-10T12:37:25Z</time>
      </trkpt>
      <trkpt lat="45.958241131156683" lon="9.381863465532661">
        <ele>2131.9200000000001</ele>
        <time>2022-07-10T12:37:36Z</time>
      </trkpt>
      <trkpt lat="45.958312628790736" lon="9.381789537146688">
        <ele>2130.0900000000001</ele>
        <time>2022-07-10T12:37:49Z</time>
      </trkpt>
      <trkpt lat="45.95835579559207" lon="9.381730780005455">
        <ele>2127.52</ele>
        <time>2022-07-10T12:38:02Z</time>
      </trkpt>
      <trkpt lat="45.958390831947327" lon="9.381720721721649">
        <ele>2126.5300000000002</ele>
        <time>2022-07-10T12:38:14Z</time>
      </trkpt>
      <trkpt lat="45.95844816416502" lon="9.381712255999446">
        <ele>2124.0999999999999</ele>
        <time>2022-07-10T12:38:27Z</time>
      </trkpt>
      <trkpt lat="45.958501975983381" lon="9.381722314283252">
        <ele>2122.0599999999999</ele>
        <time>2022-07-10T12:38:38Z</time>
      </trkpt>
      <trkpt lat="45.958514213562012" lon="9.381708735600114">
        <ele>2121.6399999999999</ele>
        <time>2022-07-10T12:38:40Z</time>
      </trkpt>
      <trkpt lat="45.958522763103247" lon="9.381695408374071">
        <ele>2121.52</ele>
        <time>2022-07-10T12:38:41Z</time>
      </trkpt>
      <trkpt lat="45.958531899377704" lon="9.381682248786092">
        <ele>2121.1500000000001</ele>
        <time>2022-07-10T12:38:42Z</time>
      </trkpt>
      <trkpt lat="45.958543047308922" lon="9.381672777235508">
        <ele>2120.96</ele>
        <time>2022-07-10T12:38:43Z</time>
      </trkpt>
      <trkpt lat="45.958554111421108" lon="9.381664814427495">
        <ele>2120.8699999999999</ele>
        <time>2022-07-10T12:38:44Z</time>
      </trkpt>
      <trkpt lat="45.958635667338967" lon="9.381603207439184">
        <ele>2119.4899999999998</ele>
        <time>2022-07-10T12:38:55Z</time>
      </trkpt>
      <trkpt lat="45.958662070333958" lon="9.381583258509636">
        <ele>2119.5500000000002</ele>
        <time>2022-07-10T12:39:05Z</time>
      </trkpt>
      <trkpt lat="45.958682522177696" lon="9.381585605442524">
        <ele>2119.1799999999998</ele>
        <time>2022-07-10T12:39:20Z</time>
      </trkpt>
      <trkpt lat="45.95872568897903" lon="9.38158392906189">
        <ele>2117.8299999999999</ele>
        <time>2022-07-10T12:39:34Z</time>
      </trkpt>
      <trkpt lat="45.958742117509246" lon="9.381580408662558">
        <ele>2117.2600000000002</ele>
        <time>2022-07-10T12:39:36Z</time>
      </trkpt>
      <trkpt lat="45.958754774183035" lon="9.381583007052541">
        <ele>2117.21</ele>
        <time>2022-07-10T12:39:37Z</time>
      </trkpt>
      <trkpt lat="45.958782518282533" lon="9.381586527451873">
        <ele>2116.6599999999999</ele>
        <time>2022-07-10T12:39:39Z</time>
      </trkpt>
      <trkpt lat="45.958844879642129" lon="9.38158443197608">
        <ele>2115.6999999999998</ele>
        <time>2022-07-10T12:39:51Z</time>
      </trkpt>
      <trkpt lat="45.958895673975348" lon="9.38161913305521">
        <ele>2114.27</ele>
        <time>2022-07-10T12:40:02Z</time>
      </trkpt>
      <trkpt lat="45.958955436944962" lon="9.381623407825828">
        <ele>2113.1900000000001</ele>
        <time>2022-07-10T12:40:13Z</time>
      </trkpt>
      <trkpt lat="45.959016792476177" lon="9.381570015102625">
        <ele>2112.7399999999998</ele>
        <time>2022-07-10T12:40:23Z</time>
      </trkpt>
      <trkpt lat="45.959023833274841" lon="9.381535481661558">
        <ele>2111.4200000000001</ele>
        <time>2022-07-10T12:40:35Z</time>
      </trkpt>
      <trkpt lat="45.95906532369554" lon="9.381513018161058">
        <ele>2109.5300000000002</ele>
        <time>2022-07-10T12:40:46Z</time>
      </trkpt>
      <trkpt lat="45.95911368727684" lon="9.381508408114314">
        <ele>2107.8800000000001</ele>
        <time>2022-07-10T12:40:57Z</time>
      </trkpt>
      <trkpt lat="45.959140928462148" lon="9.381472785025835">
        <ele>2106.3299999999999</ele>
        <time>2022-07-10T12:41:10Z</time>
      </trkpt>
      <trkpt lat="45.959195159375668" lon="9.381460715085268">
        <ele>2104.1999999999998</ele>
        <time>2022-07-10T12:41:21Z</time>
      </trkpt>
      <trkpt lat="45.959230614826083" lon="9.3814383354038">
        <ele>2103.0900000000001</ele>
        <time>2022-07-10T12:41:28Z</time>
      </trkpt>
      <trkpt lat="45.959241343662143" lon="9.381437497213483">
        <ele>2103.0799999999999</ele>
        <time>2022-07-10T12:41:29Z</time>
      </trkpt>
      <trkpt lat="45.959266740828753" lon="9.381431881338358">
        <ele>2102.7600000000002</ele>
        <time>2022-07-10T12:41:33Z</time>
      </trkpt>
      <trkpt lat="45.959314350038767" lon="9.38141000457108">
        <ele>2102.9400000000001</ele>
        <time>2022-07-10T12:41:39Z</time>
      </trkpt>
      <trkpt lat="45.959323486313224" lon="9.381398353725672">
        <ele>2102.8400000000001</ele>
        <time>2022-07-10T12:41:40Z</time>
      </trkpt>
      <trkpt lat="45.959333125501871" lon="9.381387960165739">
        <ele>2102.77</ele>
        <time>2022-07-10T12:41:41Z</time>
      </trkpt>
      <trkpt lat="45.959342429414392" lon="9.38138117082417">
        <ele>2102.6799999999998</ele>
        <time>2022-07-10T12:41:42Z</time>
      </trkpt>
      <trkpt lat="45.959379728883505" lon="9.381310259923339">
        <ele>2102.3299999999999</ele>
        <time>2022-07-10T12:41:51Z</time>
      </trkpt>
      <trkpt lat="45.959377633407712" lon="9.381241695955396">
        <ele>2101.25</ele>
        <time>2022-07-10T12:42:05Z</time>
      </trkpt>
      <trkpt lat="45.95938534475863" lon="9.381176987662911">
        <ele>2099.0100000000002</ele>
        <time>2022-07-10T12:42:16Z</time>
      </trkpt>
      <trkpt lat="45.959417363628745" lon="9.381132647395134">
        <ele>2097.5100000000002</ele>
        <time>2022-07-10T12:42:23Z</time>
      </trkpt>
      <trkpt lat="45.95943421125412" lon="9.381116051226854">
        <ele>2097.1300000000001</ele>
        <time>2022-07-10T12:42:25Z</time>
      </trkpt>
      <trkpt lat="45.959475785493851" lon="9.381089815869927">
        <ele>2095.8499999999999</ele>
        <time>2022-07-10T12:42:30Z</time>
      </trkpt>
      <trkpt lat="45.959577122703195" lon="9.381088558584452">
        <ele>2097.3299999999999</ele>
        <time>2022-07-10T12:42:42Z</time>
      </trkpt>
      <trkpt lat="45.959681645035744" lon="9.381105322390795">
        <ele>2098</ele>
        <time>2022-07-10T12:42:54Z</time>
      </trkpt>
      <trkpt lat="45.959740737453103" lon="9.381036087870598">
        <ele>2099.6300000000001</ele>
        <time>2022-07-10T12:43:05Z</time>
      </trkpt>
      <trkpt lat="45.959768313914537" lon="9.381008762866259">
        <ele>2100.0700000000002</ele>
        <time>2022-07-10T12:43:09Z</time>
      </trkpt>
      <trkpt lat="45.959821622818708" lon="9.38097121194005">
        <ele>2100.8499999999999</ele>
        <time>2022-07-10T12:43:17Z</time>
      </trkpt>
      <trkpt lat="45.959834195673466" lon="9.380970541387796">
        <ele>2100.6500000000001</ele>
        <time>2022-07-10T12:43:18Z</time>
      </trkpt>
      <trkpt lat="45.959945255890489" lon="9.380900636315346">
        <ele>2101.0900000000001</ele>
        <time>2022-07-10T12:43:32Z</time>
      </trkpt>
      <trkpt lat="45.959994792938232" lon="9.380884543061256">
        <ele>2101.4699999999998</ele>
        <time>2022-07-10T12:43:45Z</time>
      </trkpt>
      <trkpt lat="45.96000443212688" lon="9.380877669900656">
        <ele>2101.5900000000001</ele>
        <time>2022-07-10T12:44:00Z</time>
      </trkpt>
      <trkpt lat="45.959999486804008" lon="9.380887225270271">
        <ele>2100.71</ele>
        <time>2022-07-10T12:44:12Z</time>
      </trkpt>
      <trkpt lat="45.959991021081805" lon="9.38091111369431">
        <ele>2100.8099999999999</ele>
        <time>2022-07-10T12:44:42Z</time>
      </trkpt>
      <trkpt lat="45.959988925606012" lon="9.380941540002823">
        <ele>2100.98</ele>
        <time>2022-07-10T12:45:27Z</time>
      </trkpt>
      <trkpt lat="45.959992026910186" lon="9.380933158099651">
        <ele>2100.6199999999999</ele>
        <time>2022-07-10T12:45:57Z</time>
      </trkpt>
      <trkpt lat="45.959993954747915" lon="9.380926452577114">
        <ele>2100.1900000000001</ele>
        <time>2022-07-10T12:46:21Z</time>
      </trkpt>
      <trkpt lat="45.959994038566947" lon="9.380929889157414">
        <ele>2099.8099999999999</ele>
        <time>2022-07-10T12:47:15Z</time>
      </trkpt>
      <trkpt lat="45.959994876757264" lon="9.380930978804827">
        <ele>2099.3099999999999</ele>
        <time>2022-07-10T12:48:10Z</time>
      </trkpt>
      <trkpt lat="45.959991523995996" lon="9.380929889157414">
        <ele>2099.0500000000002</ele>
        <time>2022-07-10T12:49:01Z</time>
      </trkpt>
      <trkpt lat="45.959989344701171" lon="9.380928799510002">
        <ele>2099.25</ele>
        <time>2022-07-10T12:49:56Z</time>
      </trkpt>
      <trkpt lat="45.959995379671454" lon="9.380927877500653">
        <ele>2099.1900000000001</ele>
        <time>2022-07-10T12:50:36Z</time>
      </trkpt>
      <trkpt lat="45.959995966404676" lon="9.380924440920353">
        <ele>2099.3200000000002</ele>
        <time>2022-07-10T12:50:44Z</time>
      </trkpt>
      <trkpt lat="45.959995044395328" lon="9.380904156714678">
        <ele>2099.9899999999998</ele>
        <time>2022-07-10T12:50:53Z</time>
      </trkpt>
      <trkpt lat="45.960020776838064" lon="9.380886973813176">
        <ele>2100.54</ele>
        <time>2022-07-10T12:51:09Z</time>
      </trkpt>
      <trkpt lat="45.960038881748915" lon="9.380872054025531">
        <ele>2100.6500000000001</ele>
        <time>2022-07-10T12:51:24Z</time>
      </trkpt>
      <trkpt lat="45.960038965567946" lon="9.380872640758753">
        <ele>2100.5900000000001</ele>
        <time>2022-07-10T12:51:51Z</time>
      </trkpt>
      <trkpt lat="45.960040558129549" lon="9.380892002955079">
        <ele>2100.9099999999999</ele>
        <time>2022-07-10T12:52:18Z</time>
      </trkpt>
      <trkpt lat="45.960092945024371" lon="9.380914550274611">
        <ele>2100.9699999999998</ele>
        <time>2022-07-10T12:52:28Z</time>
      </trkpt>
      <trkpt lat="45.960102500393987" lon="9.380907844752073">
        <ele>2100.8800000000001</ele>
        <time>2022-07-10T12:52:29Z</time>
      </trkpt>
      <trkpt lat="45.960112810134888" lon="9.380904659628868">
        <ele>2100.7199999999998</ele>
        <time>2022-07-10T12:52:30Z</time>
      </trkpt>
      <trkpt lat="45.960122952237725" lon="9.380906587466598">
        <ele>2100.6100000000001</ele>
        <time>2022-07-10T12:52:31Z</time>
      </trkpt>
      <trkpt lat="45.960218757390976" lon="9.380927039310336">
        <ele>2101.4000000000001</ele>
        <time>2022-07-10T12:52:44Z</time>
      </trkpt>
      <trkpt lat="45.960290506482124" lon="9.380926117300987">
        <ele>2101.8000000000002</ele>
        <time>2022-07-10T12:52:57Z</time>
      </trkpt>
      <trkpt lat="45.960379103198647" lon="9.380972385406494">
        <ele>2100.9200000000001</ele>
        <time>2022-07-10T12:53:09Z</time>
      </trkpt>
      <trkpt lat="45.960463341325521" lon="9.380996273830533">
        <ele>2099.4299999999998</ele>
        <time>2022-07-10T12:53:21Z</time>
      </trkpt>
      <trkpt lat="45.960515476763248" lon="9.381011025980115">
        <ele>2098.73</ele>
        <time>2022-07-10T12:53:34Z</time>
      </trkpt>
      <trkpt lat="45.960594434291124" lon="9.381022425368428">
        <ele>2096.9499999999998</ele>
        <time>2022-07-10T12:53:44Z</time>
      </trkpt>
      <trkpt lat="45.960621424019337" lon="9.381033489480615">
        <ele>2096.4699999999998</ele>
        <time>2022-07-10T12:53:47Z</time>
      </trkpt>
      <trkpt lat="45.960704321041703" lon="9.381107836961746">
        <ele>2094.02</ele>
        <time>2022-07-10T12:54:00Z</time>
      </trkpt>
      <trkpt lat="45.96075402572751" lon="9.38110213726759">
        <ele>2092.25</ele>
        <time>2022-07-10T12:54:06Z</time>
      </trkpt>
      <trkpt lat="45.960764503106475" lon="9.381098281592131">
        <ele>2092.2600000000002</ele>
        <time>2022-07-10T12:54:07Z</time>
      </trkpt>
      <trkpt lat="45.960775064304471" lon="9.381097108125687">
        <ele>2092.1199999999999</ele>
        <time>2022-07-10T12:54:08Z</time>
      </trkpt>
      <trkpt lat="45.960838263854384" lon="9.381163911893964">
        <ele>2089.52</ele>
        <time>2022-07-10T12:54:18Z</time>
      </trkpt>
      <trkpt lat="45.960911605507135" lon="9.381205821409822">
        <ele>2087.1599999999999</ele>
        <time>2022-07-10T12:54:29Z</time>
      </trkpt>
      <trkpt lat="45.960923591628671" lon="9.381206659600139">
        <ele>2086.8899999999999</ele>
        <time>2022-07-10T12:54:30Z</time>
      </trkpt>
      <trkpt lat="45.960934488102794" lon="9.381204983219504">
        <ele>2086.73</ele>
        <time>2022-07-10T12:54:31Z</time>
      </trkpt>
      <trkpt lat="45.96094555221498" lon="9.381201211363077">
        <ele>2086.6300000000001</ele>
        <time>2022-07-10T12:54:32Z</time>
      </trkpt>
      <trkpt lat="45.961015624925494" lon="9.381184531375766">
        <ele>2084.2199999999998</ele>
        <time>2022-07-10T12:54:44Z</time>
      </trkpt>
      <trkpt lat="45.961069269105792" lon="9.381239013746381">
        <ele>2081.52</ele>
        <time>2022-07-10T12:54:54Z</time>
      </trkpt>
      <trkpt lat="45.961112687364221" lon="9.381198780611157">
        <ele>2080.9200000000001</ele>
        <time>2022-07-10T12:55:05Z</time>
      </trkpt>
      <trkpt lat="45.961134899407625" lon="9.381204061210156">
        <ele>2079.3099999999999</ele>
        <time>2022-07-10T12:55:18Z</time>
      </trkpt>
      <trkpt lat="45.961147304624319" lon="9.381237588822842">
        <ele>2077.5100000000002</ele>
        <time>2022-07-10T12:55:27Z</time>
      </trkpt>
      <trkpt lat="45.961195835843682" lon="9.381256029009819">
        <ele>2075.46</ele>
        <time>2022-07-10T12:55:37Z</time>
      </trkpt>
      <trkpt lat="45.961258783936501" lon="9.381268015131354">
        <ele>2073.2600000000002</ele>
        <time>2022-07-10T12:55:47Z</time>
      </trkpt>
      <trkpt lat="45.9613296110183" lon="9.381200959905982">
        <ele>2070.4000000000001</ele>
        <time>2022-07-10T12:55:58Z</time>
      </trkpt>
      <trkpt lat="45.961359199136496" lon="9.381224513053894">
        <ele>2068.6599999999999</ele>
        <time>2022-07-10T12:56:07Z</time>
      </trkpt>
      <trkpt lat="45.961407646536827" lon="9.381181597709656">
        <ele>2065.9299999999998</ele>
        <time>2022-07-10T12:56:18Z</time>
      </trkpt>
      <trkpt lat="45.961458943784237" lon="9.381187800318003">
        <ele>2063.98</ele>
        <time>2022-07-10T12:56:29Z</time>
      </trkpt>
      <trkpt lat="45.961527843028307" lon="9.381204899400473">
        <ele>2062.2399999999998</ele>
        <time>2022-07-10T12:56:38Z</time>
      </trkpt>
      <trkpt lat="45.961555670946836" lon="9.381215125322342">
        <ele>2061.7600000000002</ele>
        <time>2022-07-10T12:56:50Z</time>
      </trkpt>
      <trkpt lat="45.961614344269037" lon="9.38120037317276">
        <ele>2060.6500000000001</ele>
        <time>2022-07-10T12:56:57Z</time>
      </trkpt>
      <trkpt lat="45.961640160530806" lon="9.381202636286616">
        <ele>2061.96</ele>
        <time>2022-07-10T12:57:07Z</time>
      </trkpt>
      <trkpt lat="45.96167360432446" lon="9.381213784217835">
        <ele>2062.0500000000002</ele>
        <time>2022-07-10T12:57:17Z</time>
      </trkpt>
      <trkpt lat="45.96172540448606" lon="9.381227111443877">
        <ele>2061.6799999999998</ele>
        <time>2022-07-10T12:57:24Z</time>
      </trkpt>
      <trkpt lat="45.961791705340147" lon="9.381244378164411">
        <ele>2060.21</ele>
        <time>2022-07-10T12:57:34Z</time>
      </trkpt>
      <trkpt lat="45.96180260181427" lon="9.381244713440538">
        <ele>2060.52</ele>
        <time>2022-07-10T12:57:35Z</time>
      </trkpt>
      <trkpt lat="45.961864460259676" lon="9.381225351244211">
        <ele>2058.98</ele>
        <time>2022-07-10T12:57:46Z</time>
      </trkpt>
      <trkpt lat="45.961870579048991" lon="9.38122970983386">
        <ele>2058.7199999999998</ele>
        <time>2022-07-10T12:57:47Z</time>
      </trkpt>
      <trkpt lat="45.961925648152828" lon="9.381252760067582">
        <ele>2055.3200000000002</ele>
        <time>2022-07-10T12:57:59Z</time>
      </trkpt>
      <trkpt lat="45.9619668032974" lon="9.381282348185778">
        <ele>2053.9299999999998</ele>
        <time>2022-07-10T12:58:10Z</time>
      </trkpt>
      <trkpt lat="45.961976610124111" lon="9.381338758394122">
        <ele>2053.1399999999999</ele>
        <time>2022-07-10T12:58:23Z</time>
      </trkpt>
      <trkpt lat="45.961967725306749" lon="9.381382763385773">
        <ele>2052.8299999999999</ele>
        <time>2022-07-10T12:58:39Z</time>
      </trkpt>
      <trkpt lat="45.961946435272694" lon="9.381453087553382">
        <ele>2051.4499999999998</ele>
        <time>2022-07-10T12:58:48Z</time>
      </trkpt>
      <trkpt lat="45.96194333396852" lon="9.381466330960393">
        <ele>2051.29</ele>
        <time>2022-07-10T12:58:49Z</time>
      </trkpt>
      <trkpt lat="45.961942495778203" lon="9.381495332345367">
        <ele>2051.4299999999998</ele>
        <time>2022-07-10T12:58:51Z</time>
      </trkpt>
      <trkpt lat="45.961968898773193" lon="9.381568841636181">
        <ele>2050.4200000000001</ele>
        <time>2022-07-10T12:58:57Z</time>
      </trkpt>
      <trkpt lat="45.961993122473359" lon="9.381631538271904">
        <ele>2049</ele>
        <time>2022-07-10T12:59:06Z</time>
      </trkpt>
      <trkpt lat="45.961999157443643" lon="9.3816420994699">
        <ele>2048.5100000000002</ele>
        <time>2022-07-10T12:59:07Z</time>
      </trkpt>
      <trkpt lat="45.96204592846334" lon="9.381681410595775">
        <ele>2048.5100000000002</ele>
        <time>2022-07-10T12:59:15Z</time>
      </trkpt>
      <trkpt lat="45.962066212669015" lon="9.381760871037841">
        <ele>2046.9400000000001</ele>
        <time>2022-07-10T12:59:23Z</time>
      </trkpt>
      <trkpt lat="45.962097393348813" lon="9.38184829428792">
        <ele>2046.27</ele>
        <time>2022-07-10T12:59:34Z</time>
      </trkpt>
      <trkpt lat="45.962149109691381" lon="9.381856005638838">
        <ele>2044.1800000000001</ele>
        <time>2022-07-10T12:59:43Z</time>
      </trkpt>
      <trkpt lat="45.962220020592213" lon="9.381814431399107">
        <ele>2040.9300000000001</ele>
        <time>2022-07-10T12:59:53Z</time>
      </trkpt>
      <trkpt lat="45.962305516004562" lon="9.381745867431164">
        <ele>2038.8199999999999</ele>
        <time>2022-07-10T13:00:06Z</time>
      </trkpt>
      <trkpt lat="45.962344910949469" lon="9.381674788892269">
        <ele>2036.1099999999999</ele>
        <time>2022-07-10T13:00:16Z</time>
      </trkpt>
      <trkpt lat="45.9623967949301" lon="9.381561214104295">
        <ele>2034.22</ele>
        <time>2022-07-10T13:00:30Z</time>
      </trkpt>
      <trkpt lat="45.962444823235273" lon="9.381490554660559">
        <ele>2032.6199999999999</ele>
        <time>2022-07-10T13:00:42Z</time>
      </trkpt>
      <trkpt lat="45.962453875690699" lon="9.381482172757387">
        <ele>2032.22</ele>
        <time>2022-07-10T13:00:43Z</time>
      </trkpt>
      <trkpt lat="45.962514476850629" lon="9.381496505811811">
        <ele>2029.0699999999999</ele>
        <time>2022-07-10T13:00:54Z</time>
      </trkpt>
      <trkpt lat="45.962537275627255" lon="9.381512515246868">
        <ele>2027.5899999999999</ele>
        <time>2022-07-10T13:00:58Z</time>
      </trkpt>
      <trkpt lat="45.962548423558474" lon="9.381528776139021">
        <ele>2026.74</ele>
        <time>2022-07-10T13:01:00Z</time>
      </trkpt>
      <trkpt lat="45.962594859302044" lon="9.381519136950374">
        <ele>2026.3099999999999</ele>
        <time>2022-07-10T13:01:06Z</time>
      </trkpt>
      <trkpt lat="45.962636768817902" lon="9.381520561873913">
        <ele>2025.8099999999999</ele>
        <time>2022-07-10T13:01:11Z</time>
      </trkpt>
      <trkpt lat="45.962647665292025" lon="9.381512766703963">
        <ele>2025.2</ele>
        <time>2022-07-10T13:01:12Z</time>
      </trkpt>
      <trkpt lat="45.962659316137433" lon="9.381509413942695">
        <ele>2024.8499999999999</ele>
        <time>2022-07-10T13:01:13Z</time>
      </trkpt>
      <trkpt lat="45.96269678324461" lon="9.381550317630172">
        <ele>2022.23</ele>
        <time>2022-07-10T13:01:18Z</time>
      </trkpt>
      <trkpt lat="45.962705165147781" lon="9.381559956818819">
        <ele>2021.8499999999999</ele>
        <time>2022-07-10T13:01:19Z</time>
      </trkpt>
      <trkpt lat="45.962712876498699" lon="9.381571523845196">
        <ele>2021.6099999999999</ele>
        <time>2022-07-10T13:01:20Z</time>
      </trkpt>
      <trkpt lat="45.96277205273509" lon="9.381656851619482">
        <ele>2019.24</ele>
        <time>2022-07-10T13:01:29Z</time>
      </trkpt>
      <trkpt lat="45.962791331112385" lon="9.381735390052199">
        <ele>2019.22</ele>
        <time>2022-07-10T13:01:35Z</time>
      </trkpt>
      <trkpt lat="45.962800802662969" lon="9.381744526326656">
        <ele>2018.8900000000001</ele>
        <time>2022-07-10T13:01:36Z</time>
      </trkpt>
      <trkpt lat="45.962858973070979" lon="9.381779814139009">
        <ele>2017.8399999999999</ele>
        <time>2022-07-10T13:01:47Z</time>
      </trkpt>
      <trkpt lat="45.96286877989769" lon="9.381808815523982">
        <ele>2017.8299999999999</ele>
        <time>2022-07-10T13:01:57Z</time>
      </trkpt>
      <trkpt lat="45.962863499298692" lon="9.38181116245687">
        <ele>2018.0599999999999</ele>
        <time>2022-07-10T13:02:16Z</time>
      </trkpt>
      <trkpt lat="45.962865008041263" lon="9.381813760846853">
        <ele>2017.9400000000001</ele>
        <time>2022-07-10T13:02:26Z</time>
      </trkpt>
      <trkpt lat="45.962869031354785" lon="9.381818370893598">
        <ele>2017.3499999999999</ele>
        <time>2022-07-10T13:02:43Z</time>
      </trkpt>
      <trkpt lat="45.962888393551111" lon="9.381763637065888">
        <ele>2016.26</ele>
        <time>2022-07-10T13:02:58Z</time>
      </trkpt>
      <trkpt lat="45.962890321388841" lon="9.381769252941012">
        <ele>2015.6500000000001</ele>
        <time>2022-07-10T13:03:13Z</time>
      </trkpt>
      <trkpt lat="45.962882274761796" lon="9.381771683692932">
        <ele>2015.76</ele>
        <time>2022-07-10T13:03:32Z</time>
      </trkpt>
      <trkpt lat="45.962887136265635" lon="9.381753327324987">
        <ele>2015.3699999999999</ele>
        <time>2022-07-10T13:03:49Z</time>
      </trkpt>
      <trkpt lat="45.962889399379492" lon="9.381747459992766">
        <ele>2015.6199999999999</ele>
        <time>2022-07-10T13:04:17Z</time>
      </trkpt>
      <trkpt lat="45.962882442399859" lon="9.381754249334335">
        <ele>2014.6900000000001</ele>
        <time>2022-07-10T13:04:31Z</time>
      </trkpt>
      <trkpt lat="45.962879927828908" lon="9.381763637065888">
        <ele>2015</ele>
        <time>2022-07-10T13:05:06Z</time>
      </trkpt>
      <trkpt lat="45.962877413257957" lon="9.381760871037841">
        <ele>2015.27</ele>
        <time>2022-07-10T13:05:34Z</time>
      </trkpt>
      <trkpt lat="45.962876575067639" lon="9.381756763905287">
        <ele>2015.01</ele>
        <time>2022-07-10T13:06:03Z</time>
      </trkpt>
      <trkpt lat="45.962871294468641" lon="9.38176279887557">
        <ele>2015.53</ele>
        <time>2022-07-10T13:06:40Z</time>
      </trkpt>
      <trkpt lat="45.962870707735419" lon="9.381766570731998">
        <ele>2015.23</ele>
        <time>2022-07-10T13:07:06Z</time>
      </trkpt>
      <trkpt lat="45.962871378287673" lon="9.381761290132999">
        <ele>2015.53</ele>
        <time>2022-07-10T13:07:24Z</time>
      </trkpt>
      <trkpt lat="45.962870288640261" lon="9.381758440285921">
        <ele>2015.6500000000001</ele>
        <time>2022-07-10T13:07:49Z</time>
      </trkpt>
      <trkpt lat="45.962877329438925" lon="9.381749052554369">
        <ele>2014.9200000000001</ele>
        <time>2022-07-10T13:08:16Z</time>
      </trkpt>
      <trkpt lat="45.962875233963132" lon="9.381752656772733">
        <ele>2015.3299999999999</ele>
        <time>2022-07-10T13:08:49Z</time>
      </trkpt>
      <trkpt lat="45.962875485420227" lon="9.381751399487257">
        <ele>2015.0799999999999</ele>
        <time>2022-07-10T13:09:20Z</time>
      </trkpt>
      <trkpt lat="45.962875317782164" lon="9.381753830239177">
        <ele>2015.1400000000001</ele>
        <time>2022-07-10T13:09:44Z</time>
      </trkpt>
      <trkpt lat="45.962876742705703" lon="9.381754836067557">
        <ele>2014.8199999999999</ele>
        <time>2022-07-10T13:10:07Z</time>
      </trkpt>
      <trkpt lat="45.962877832353115" lon="9.38176179304719">
        <ele>2015.26</ele>
        <time>2022-07-10T13:10:40Z</time>
      </trkpt>
      <trkpt lat="45.962876994162798" lon="9.38176229596138">
        <ele>2014.55</ele>
        <time>2022-07-10T13:11:13Z</time>
      </trkpt>
      <trkpt lat="45.962872970849276" lon="9.381755422800779">
        <ele>2015.1199999999999</ele>
        <time>2022-07-10T13:11:43Z</time>
      </trkpt>
      <trkpt lat="45.962877497076988" lon="9.381756680086255">
        <ele>2013.8299999999999</ele>
        <time>2022-07-10T13:12:06Z</time>
      </trkpt>
      <trkpt lat="45.96288101747632" lon="9.381761876866221">
        <ele>2014.49</ele>
        <time>2022-07-10T13:12:32Z</time>
      </trkpt>
      <trkpt lat="45.962879592552781" lon="9.381755758076906">
        <ele>2015.1300000000001</ele>
        <time>2022-07-10T13:12:56Z</time>
      </trkpt>
      <trkpt lat="45.962879341095686" lon="9.381761709228158">
        <ele>2014.72</ele>
        <time>2022-07-10T13:13:36Z</time>
      </trkpt>
      <trkpt lat="45.962882777675986" lon="9.38175986520946">
        <ele>2015.24</ele>
        <time>2022-07-10T13:13:56Z</time>
      </trkpt>
      <trkpt lat="45.962878754362464" lon="9.381757937371731">
        <ele>2015.29</ele>
        <time>2022-07-10T13:14:11Z</time>
      </trkpt>
      <trkpt lat="45.962885124608874" lon="9.381758272647858">
        <ele>2015.01</ele>
        <time>2022-07-10T13:14:23Z</time>
      </trkpt>
      <trkpt lat="45.962900966405869" lon="9.38170999288559">
        <ele>2014.48</ele>
        <time>2022-07-10T13:14:34Z</time>
      </trkpt>
      <trkpt lat="45.962920412421227" lon="9.381640590727329">
        <ele>2013.1600000000001</ele>
        <time>2022-07-10T13:14:44Z</time>
      </trkpt>
      <trkpt lat="45.962934410199523" lon="9.381613181903958">
        <ele>2012.51</ele>
        <time>2022-07-10T13:14:53Z</time>
      </trkpt>
      <trkpt lat="45.963004399091005" lon="9.381564734503627">
        <ele>2010.6800000000001</ele>
        <time>2022-07-10T13:15:04Z</time>
      </trkpt>
      <trkpt lat="45.963038513436913" lon="9.381589125841856">
        <ele>2009.53</ele>
        <time>2022-07-10T13:15:14Z</time>
      </trkpt>
      <trkpt lat="45.963118057698011" lon="9.381549647077918">
        <ele>2007.8</ele>
        <time>2022-07-10T13:15:25Z</time>
      </trkpt>
      <trkpt lat="45.963186621665955" lon="9.381567081436515">
        <ele>2006.22</ele>
        <time>2022-07-10T13:15:36Z</time>
      </trkpt>
      <trkpt lat="45.963205229490995" lon="9.381562303751707">
        <ele>2005.8699999999999</ele>
        <time>2022-07-10T13:15:43Z</time>
      </trkpt>
      <trkpt lat="45.963300196453929" lon="9.381538666784763">
        <ele>2002.8299999999999</ele>
        <time>2022-07-10T13:15:56Z</time>
      </trkpt>
      <trkpt lat="45.963360378518701" lon="9.381607566028833">
        <ele>2000.49</ele>
        <time>2022-07-10T13:16:09Z</time>
      </trkpt>
      <trkpt lat="45.963432211428881" lon="9.381662970408797">
        <ele>1998.5699999999999</ele>
        <time>2022-07-10T13:16:21Z</time>
      </trkpt>
      <trkpt lat="45.963455932214856" lon="9.381670095026493">
        <ele>1998.45</ele>
        <time>2022-07-10T13:16:24Z</time>
      </trkpt>
      <trkpt lat="45.963466158136725" lon="9.38167579472065">
        <ele>1998.3099999999999</ele>
        <time>2022-07-10T13:16:25Z</time>
      </trkpt>
      <trkpt lat="45.963561376556754" lon="9.381732791662216">
        <ele>1995.46</ele>
        <time>2022-07-10T13:16:38Z</time>
      </trkpt>
      <trkpt lat="45.963658522814512" lon="9.381781490519643">
        <ele>1993.0799999999999</ele>
        <time>2022-07-10T13:16:51Z</time>
      </trkpt>
      <trkpt lat="45.963667659088969" lon="9.381783166900277">
        <ele>1993.3</ele>
        <time>2022-07-10T13:16:52Z</time>
      </trkpt>
      <trkpt lat="45.963770169764757" lon="9.381819209083915">
        <ele>1990.1199999999999</ele>
        <time>2022-07-10T13:17:05Z</time>
      </trkpt>
      <trkpt lat="45.96384359523654" lon="9.381752237677574">
        <ele>1987.23</ele>
        <time>2022-07-10T13:17:16Z</time>
      </trkpt>
      <trkpt lat="45.963864801451564" lon="9.381729355081916">
        <ele>1986.3499999999999</ele>
        <time>2022-07-10T13:17:19Z</time>
      </trkpt>
      <trkpt lat="45.963918277993798" lon="9.38164503313601">
        <ele>1983.04</ele>
        <time>2022-07-10T13:17:28Z</time>
      </trkpt>
      <trkpt lat="45.963922888040543" lon="9.381634388118982">
        <ele>1982.76</ele>
        <time>2022-07-10T13:17:29Z</time>
      </trkpt>
      <trkpt lat="45.963966976851225" lon="9.381568087264895">
        <ele>1979.48</ele>
        <time>2022-07-10T13:17:39Z</time>
      </trkpt>
      <trkpt lat="45.963993379846215" lon="9.381520980969071">
        <ele>1977.22</ele>
        <time>2022-07-10T13:17:48Z</time>
      </trkpt>
      <trkpt lat="45.964030092582107" lon="9.381456272676587">
        <ele>1974.2</ele>
        <time>2022-07-10T13:17:58Z</time>
      </trkpt>
      <trkpt lat="45.964041659608483" lon="9.381367592141032">
        <ele>1971.55</ele>
        <time>2022-07-10T13:18:11Z</time>
      </trkpt>
      <trkpt lat="45.964065799489617" lon="9.381315037608147">
        <ele>1969.75</ele>
        <time>2022-07-10T13:18:18Z</time>
      </trkpt>
      <trkpt lat="45.964090023189783" lon="9.381254436448216">
        <ele>1967.45</ele>
        <time>2022-07-10T13:18:24Z</time>
      </trkpt>
      <trkpt lat="45.964097315445542" lon="9.381242953240871">
        <ele>1966.99</ele>
        <time>2022-07-10T13:18:25Z</time>
      </trkpt>
      <trkpt lat="45.964136961847544" lon="9.381200708448887">
        <ele>1963.53</ele>
        <time>2022-07-10T13:18:31Z</time>
      </trkpt>
      <trkpt lat="45.964153138920665" lon="9.381190566346049">
        <ele>1962.79</ele>
        <time>2022-07-10T13:18:33Z</time>
      </trkpt>
      <trkpt lat="45.964163616299629" lon="9.381187045946717">
        <ele>1962.48</ele>
        <time>2022-07-10T13:18:34Z</time>
      </trkpt>
      <trkpt lat="45.964174177497625" lon="9.381187465041876">
        <ele>1962.3699999999999</ele>
        <time>2022-07-10T13:18:35Z</time>
      </trkpt>
      <trkpt lat="45.964219607412815" lon="9.381182184442878">
        <ele>1961.73</ele>
        <time>2022-07-10T13:18:40Z</time>
      </trkpt>
      <trkpt lat="45.964229078963399" lon="9.381173718720675">
        <ele>1961.5999999999999</ele>
        <time>2022-07-10T13:18:41Z</time>
      </trkpt>
      <trkpt lat="45.964248608797789" lon="9.381170449778438">
        <ele>1960.8</ele>
        <time>2022-07-10T13:18:43Z</time>
      </trkpt>
      <trkpt lat="45.964258080348372" lon="9.381176736205816">
        <ele>1960.6099999999999</ele>
        <time>2022-07-10T13:18:44Z</time>
      </trkpt>
      <trkpt lat="45.964270569384098" lon="9.381200540810823">
        <ele>1960.1199999999999</ele>
        <time>2022-07-10T13:18:46Z</time>
      </trkpt>
      <trkpt lat="45.964274425059557" lon="9.38121747225523">
        <ele>1959.79</ele>
        <time>2022-07-10T13:18:47Z</time>
      </trkpt>
      <trkpt lat="45.964276185259223" lon="9.381234822794795">
        <ele>1959.4000000000001</ele>
        <time>2022-07-10T13:18:48Z</time>
      </trkpt>
      <trkpt lat="45.964282471686602" lon="9.381260639056563">
        <ele>1958.9100000000001</ele>
        <time>2022-07-10T13:18:50Z</time>
      </trkpt>
      <trkpt lat="45.96430828794837" lon="9.38132350333035">
        <ele>1956.8299999999999</ele>
        <time>2022-07-10T13:19:02Z</time>
      </trkpt>
      <trkpt lat="45.964356400072575" lon="9.381330963224173">
        <ele>1955.4000000000001</ele>
        <time>2022-07-10T13:19:13Z</time>
      </trkpt>
      <trkpt lat="45.964376013725996" lon="9.381336495280266">
        <ele>1954.8</ele>
        <time>2022-07-10T13:19:15Z</time>
      </trkpt>
      <trkpt lat="45.964461844414473" lon="9.381353929638863">
        <ele>1952.46</ele>
        <time>2022-07-10T13:19:27Z</time>
      </trkpt>
      <trkpt lat="45.964507861062884" lon="9.381307661533356">
        <ele>1950.9100000000001</ele>
        <time>2022-07-10T13:19:34Z</time>
      </trkpt>
      <trkpt lat="45.964572904631495" lon="9.381312020123005">
        <ele>1948.45</ele>
        <time>2022-07-10T13:19:45Z</time>
      </trkpt>
      <trkpt lat="45.964627806097269" lon="9.381372034549713">
        <ele>1947.26</ele>
        <time>2022-07-10T13:19:58Z</time>
      </trkpt>
      <trkpt lat="45.964676421135664" lon="9.381364909932017">
        <ele>1945.3699999999999</ele>
        <time>2022-07-10T13:20:08Z</time>
      </trkpt>
      <trkpt lat="45.964700477197766" lon="9.381320653483272">
        <ele>1944.1199999999999</ele>
        <time>2022-07-10T13:20:15Z</time>
      </trkpt>
      <trkpt lat="45.964718330651522" lon="9.381308415904641">
        <ele>1943.1600000000001</ele>
        <time>2022-07-10T13:20:25Z</time>
      </trkpt>
      <trkpt lat="45.964758479967713" lon="9.381333142518997">
        <ele>1941.8299999999999</ele>
        <time>2022-07-10T13:20:39Z</time>
      </trkpt>
      <trkpt lat="45.964819500222802" lon="9.381292993202806">
        <ele>1938.75</ele>
        <time>2022-07-10T13:20:49Z</time>
      </trkpt>
      <trkpt lat="45.964828217402101" lon="9.381289137527347">
        <ele>1938.28</ele>
        <time>2022-07-10T13:20:50Z</time>
      </trkpt>
      <trkpt lat="45.964877838268876" lon="9.381283102557063">
        <ele>1937.1199999999999</ele>
        <time>2022-07-10T13:21:00Z</time>
      </trkpt>
      <trkpt lat="45.964883202686906" lon="9.381213365122676">
        <ele>1934.78</ele>
        <time>2022-07-10T13:21:10Z</time>
      </trkpt>
      <trkpt lat="45.964903989806771" lon="9.381182519719005">
        <ele>1932.7</ele>
        <time>2022-07-10T13:21:21Z</time>
      </trkpt>
      <trkpt lat="45.964934835210443" lon="9.381197020411491">
        <ele>1930.96</ele>
        <time>2022-07-10T13:21:35Z</time>
      </trkpt>
      <trkpt lat="45.964973643422127" lon="9.381247144192457">
        <ele>1929.72</ele>
        <time>2022-07-10T13:21:42Z</time>
      </trkpt>
      <trkpt lat="45.964980265125632" lon="9.381258711218834">
        <ele>1929.46</ele>
        <time>2022-07-10T13:21:43Z</time>
      </trkpt>
      <trkpt lat="45.96503047272563" lon="9.381299028173089">
        <ele>1927.95</ele>
        <time>2022-07-10T13:21:52Z</time>
      </trkpt>
      <trkpt lat="45.965079003944993" lon="9.381203139200807">
        <ele>1925.05</ele>
        <time>2022-07-10T13:22:05Z</time>
      </trkpt>
      <trkpt lat="45.965104987844825" lon="9.381164163351059">
        <ele>1923.5999999999999</ele>
        <time>2022-07-10T13:22:15Z</time>
      </trkpt>
      <trkpt lat="45.965104233473539" lon="9.381052097305656">
        <ele>1920.5599999999999</ele>
        <time>2022-07-10T13:22:27Z</time>
      </trkpt>
      <trkpt lat="45.965092917904258" lon="9.38098487444222">
        <ele>1919.1400000000001</ele>
        <time>2022-07-10T13:22:37Z</time>
      </trkpt>
      <trkpt lat="45.965087553486228" lon="9.380916059017181">
        <ele>1917.3800000000001</ele>
        <time>2022-07-10T13:22:49Z</time>
      </trkpt>
      <trkpt lat="45.965048493817449" lon="9.380825618281961">
        <ele>1914.6199999999999</ele>
        <time>2022-07-10T13:23:01Z</time>
      </trkpt>
      <trkpt lat="45.965058635920286" lon="9.380805250257254">
        <ele>1913.48</ele>
        <time>2022-07-10T13:23:13Z</time>
      </trkpt>
      <trkpt lat="45.965045057237148" lon="9.38072981312871">
        <ele>1911.1500000000001</ele>
        <time>2022-07-10T13:23:27Z</time>
      </trkpt>
      <trkpt lat="45.965042961761355" lon="9.380677510052919">
        <ele>1909.27</ele>
        <time>2022-07-10T13:23:38Z</time>
      </trkpt>
      <trkpt lat="45.96503927372396" lon="9.380622273311019">
        <ele>1906.8800000000001</ele>
        <time>2022-07-10T13:23:46Z</time>
      </trkpt>
      <trkpt lat="45.965003399178386" lon="9.38058958388865">
        <ele>1905.1400000000001</ele>
        <time>2022-07-10T13:23:58Z</time>
      </trkpt>
      <trkpt lat="45.964988647028804" lon="9.380513224750757">
        <ele>1901.9300000000001</ele>
        <time>2022-07-10T13:24:10Z</time>
      </trkpt>
      <trkpt lat="45.9649767447263" lon="9.380488665774465">
        <ele>1901.49</ele>
        <time>2022-07-10T13:24:13Z</time>
      </trkpt>
      <trkpt lat="45.964978085830808" lon="9.380445750430226">
        <ele>1901.05</ele>
        <time>2022-07-10T13:24:17Z</time>
      </trkpt>
      <trkpt lat="45.964978085830808" lon="9.38043711706996">
        <ele>1900.9300000000001</ele>
        <time>2022-07-10T13:24:18Z</time>
      </trkpt>
      <trkpt lat="45.964959310367703" lon="9.380349358543754">
        <ele>1899.3599999999999</ele>
        <time>2022-07-10T13:24:27Z</time>
      </trkpt>
      <trkpt lat="45.964976828545332" lon="9.380284314975143">
        <ele>1897.3599999999999</ele>
        <time>2022-07-10T13:24:39Z</time>
      </trkpt>
      <trkpt lat="45.965028461068869" lon="9.380265455693007">
        <ele>1894.8900000000001</ele>
        <time>2022-07-10T13:24:51Z</time>
      </trkpt>
      <trkpt lat="45.965060396119952" lon="9.380300743505359">
        <ele>1892.5599999999999</ele>
        <time>2022-07-10T13:25:03Z</time>
      </trkpt>
      <trkpt lat="45.96511160954833" lon="9.380302336066961">
        <ele>1890.3699999999999</ele>
        <time>2022-07-10T13:25:13Z</time>
      </trkpt>
      <trkpt lat="45.965172797441483" lon="9.380363523960114">
        <ele>1888.21</ele>
        <time>2022-07-10T13:25:23Z</time>
      </trkpt>
      <trkpt lat="45.965222585946321" lon="9.380384311079979">
        <ele>1885.5699999999999</ele>
        <time>2022-07-10T13:25:36Z</time>
      </trkpt>
      <trkpt lat="45.965260975062847" lon="9.380390178412199">
        <ele>1883.99</ele>
        <time>2022-07-10T13:25:48Z</time>
      </trkpt>
      <trkpt lat="45.965355020016432" lon="9.38040979206562">
        <ele>1881.3299999999999</ele>
        <time>2022-07-10T13:26:01Z</time>
      </trkpt>
      <trkpt lat="45.965384691953659" lon="9.380390932783485">
        <ele>1880.4000000000001</ele>
        <time>2022-07-10T13:26:05Z</time>
      </trkpt>
      <trkpt lat="45.965396761894226" lon="9.380387077108026">
        <ele>1880.1600000000001</ele>
        <time>2022-07-10T13:26:06Z</time>
      </trkpt>
      <trkpt lat="45.965408831834793" lon="9.380386658012867">
        <ele>1879.8900000000001</ele>
        <time>2022-07-10T13:26:07Z</time>
      </trkpt>
      <trkpt lat="45.965420985594392" lon="9.380385736003518">
        <ele>1879.49</ele>
        <time>2022-07-10T13:26:08Z</time>
      </trkpt>
      <trkpt lat="45.965433726087213" lon="9.380385065451264">
        <ele>1879.2</ele>
        <time>2022-07-10T13:26:09Z</time>
      </trkpt>
      <trkpt lat="45.965516790747643" lon="9.380430327728391">
        <ele>1877.5999999999999</ele>
        <time>2022-07-10T13:26:20Z</time>
      </trkpt>
      <trkpt lat="45.965579738840461" lon="9.380456898361445">
        <ele>1876.71</ele>
        <time>2022-07-10T13:26:29Z</time>
      </trkpt>
      <trkpt lat="45.965590216219425" lon="9.380454132333398">
        <ele>1876.5</ele>
        <time>2022-07-10T13:26:30Z</time>
      </trkpt>
      <trkpt lat="45.965601615607738" lon="9.380453377962112">
        <ele>1876.3199999999999</ele>
        <time>2022-07-10T13:26:31Z</time>
      </trkpt>
      <trkpt lat="45.965612260624766" lon="9.380453797057271">
        <ele>1876.1300000000001</ele>
        <time>2022-07-10T13:26:32Z</time>
      </trkpt>
      <trkpt lat="45.965676214545965" lon="9.380455724895001">
        <ele>1874.9400000000001</ele>
        <time>2022-07-10T13:26:43Z</time>
      </trkpt>
      <trkpt lat="45.965721812099218" lon="9.380468800663948">
        <ele>1873.48</ele>
        <time>2022-07-10T13:26:51Z</time>
      </trkpt>
      <trkpt lat="45.965788699686527" lon="9.38046645373106">
        <ele>1871.4100000000001</ele>
        <time>2022-07-10T13:27:01Z</time>
      </trkpt>
      <trkpt lat="45.965835386887193" lon="9.380438374355435">
        <ele>1869.8199999999999</ele>
        <time>2022-07-10T13:27:11Z</time>
      </trkpt>
      <trkpt lat="45.965917278081179" lon="9.380432507023215">
        <ele>1868.0799999999999</ele>
        <time>2022-07-10T13:27:24Z</time>
      </trkpt>
      <trkpt lat="45.965975029394031" lon="9.380415407940745">
        <ele>1869.28</ele>
        <time>2022-07-10T13:27:31Z</time>
      </trkpt>
      <trkpt lat="45.966013837605715" lon="9.380410211160779">
        <ele>1866.47</ele>
        <time>2022-07-10T13:27:35Z</time>
      </trkpt>
      <trkpt lat="45.966025069355965" lon="9.380406271666288">
        <ele>1866.3399999999999</ele>
        <time>2022-07-10T13:27:36Z</time>
      </trkpt>
      <trkpt lat="45.966093800961971" lon="9.380400069057941">
        <ele>1865.8699999999999</ele>
        <time>2022-07-10T13:27:44Z</time>
      </trkpt>
      <trkpt lat="45.966104445978999" lon="9.380396464839578">
        <ele>1865.8299999999999</ele>
        <time>2022-07-10T13:27:45Z</time>
      </trkpt>
      <trkpt lat="45.966168735176325" lon="9.380293870344758">
        <ele>1864.25</ele>
        <time>2022-07-10T13:27:56Z</time>
      </trkpt>
      <trkpt lat="45.966219864785671" lon="9.38025145791471">
        <ele>1862.53</ele>
        <time>2022-07-10T13:28:05Z</time>
      </trkpt>
      <trkpt lat="45.966229168698192" lon="9.380246428772807">
        <ele>1862.21</ele>
        <time>2022-07-10T13:28:06Z</time>
      </trkpt>
      <trkpt lat="45.966246435418725" lon="9.38023779541254">
        <ele>1861.9100000000001</ele>
        <time>2022-07-10T13:28:08Z</time>
      </trkpt>
      <trkpt lat="45.966297313570976" lon="9.380219606682658">
        <ele>1861.25</ele>
        <time>2022-07-10T13:28:14Z</time>
      </trkpt>
      <trkpt lat="45.966306868940592" lon="9.380209883674979">
        <ele>1861.0799999999999</ele>
        <time>2022-07-10T13:28:15Z</time>
      </trkpt>
      <trkpt lat="45.966382473707199" lon="9.380129920318723">
        <ele>1859.22</ele>
        <time>2022-07-10T13:28:26Z</time>
      </trkpt>
      <trkpt lat="45.966484062373638" lon="9.380036545917392">
        <ele>1856.8800000000001</ele>
        <time>2022-07-10T13:28:40Z</time>
      </trkpt>
      <trkpt lat="45.966546926647425" lon="9.379898244515061">
        <ele>1855.1700000000001</ele>
        <time>2022-07-10T13:28:52Z</time>
      </trkpt>
      <trkpt lat="45.966572407633066" lon="9.379768660292029">
        <ele>1853.0999999999999</ele>
        <time>2022-07-10T13:29:03Z</time>
      </trkpt>
      <trkpt lat="45.966576933860779" lon="9.379757344722748">
        <ele>1852.8699999999999</ele>
        <time>2022-07-10T13:29:04Z</time>
      </trkpt>
      <trkpt lat="45.96661850810051" lon="9.379678890109062">
        <ele>1851.6199999999999</ele>
        <time>2022-07-10T13:29:15Z</time>
      </trkpt>
      <trkpt lat="45.966644072905183" lon="9.379642931744456">
        <ele>1850.3900000000001</ele>
        <time>2022-07-10T13:29:24Z</time>
      </trkpt>
      <trkpt lat="45.966665865853429" lon="9.379573864862323">
        <ele>1849.3099999999999</ele>
        <time>2022-07-10T13:29:34Z</time>
      </trkpt>
      <trkpt lat="45.966704087331891" lon="9.379579396918416">
        <ele>1847.95</ele>
        <time>2022-07-10T13:29:44Z</time>
      </trkpt>
      <trkpt lat="45.966734681278467" lon="9.379584090784192">
        <ele>1846.98</ele>
        <time>2022-07-10T13:29:48Z</time>
      </trkpt>
      <trkpt lat="45.966749349609017" lon="9.379582917317748">
        <ele>1846.52</ele>
        <time>2022-07-10T13:29:49Z</time>
      </trkpt>
      <trkpt lat="45.966761838644743" lon="9.379582749679685">
        <ele>1845.97</ele>
        <time>2022-07-10T13:29:50Z</time>
      </trkpt>
      <trkpt lat="45.966774914413691" lon="9.379586689174175">
        <ele>1845.29</ele>
        <time>2022-07-10T13:29:51Z</time>
      </trkpt>
      <trkpt lat="45.966788744553924" lon="9.379591466858983">
        <ele>1844.97</ele>
        <time>2022-07-10T13:29:52Z</time>
      </trkpt>
      <trkpt lat="45.966856386512518" lon="9.379607643932104">
        <ele>1844.5699999999999</ele>
        <time>2022-07-10T13:30:02Z</time>
      </trkpt>
      <trkpt lat="45.966966608539224" lon="9.379537152126432">
        <ele>1841.6300000000001</ele>
        <time>2022-07-10T13:30:16Z</time>
      </trkpt>
      <trkpt lat="45.966983372345567" lon="9.379529356956482">
        <ele>1841.28</ele>
        <time>2022-07-10T13:30:18Z</time>
      </trkpt>
      <trkpt lat="45.967048667371273" lon="9.379461044445634">
        <ele>1839.6900000000001</ele>
        <time>2022-07-10T13:30:27Z</time>
      </trkpt>
      <trkpt lat="45.967056043446064" lon="9.379447130486369">
        <ele>1839.47</ele>
        <time>2022-07-10T13:30:28Z</time>
      </trkpt>
      <trkpt lat="45.967116560786963" lon="9.379337914288044">
        <ele>1838.3</ele>
        <time>2022-07-10T13:30:40Z</time>
      </trkpt>
      <trkpt lat="45.967153022065759" lon="9.379267590120435">
        <ele>1836.75</ele>
        <time>2022-07-10T13:30:52Z</time>
      </trkpt>
      <trkpt lat="45.967204906046391" lon="9.379183184355497">
        <ele>1834.1900000000001</ele>
        <time>2022-07-10T13:31:03Z</time>
      </trkpt>
      <trkpt lat="45.967226531356573" lon="9.379124343395233">
        <ele>1833.22</ele>
        <time>2022-07-10T13:31:15Z</time>
      </trkpt>
      <trkpt lat="45.9672493301332" lon="9.379064328968525">
        <ele>1831.8299999999999</ele>
        <time>2022-07-10T13:31:24Z</time>
      </trkpt>
      <trkpt lat="45.967246564105153" lon="9.378979420289397">
        <ele>1829.51</ele>
        <time>2022-07-10T13:31:35Z</time>
      </trkpt>
      <trkpt lat="45.967215383425355" lon="9.378911275416613">
        <ele>1826.5</ele>
        <time>2022-07-10T13:31:44Z</time>
      </trkpt>
      <trkpt lat="45.967244887724519" lon="9.378878083080053">
        <ele>1825.1900000000001</ele>
        <time>2022-07-10T13:31:54Z</time>
      </trkpt>
      <trkpt lat="45.967285875231028" lon="9.378859139978886">
        <ele>1825.27</ele>
        <time>2022-07-10T13:32:04Z</time>
      </trkpt>
      <trkpt lat="45.967274392023683" lon="9.378793425858021">
        <ele>1824.1300000000001</ele>
        <time>2022-07-10T13:32:14Z</time>
      </trkpt>
      <trkpt lat="45.96721856854856" lon="9.378789151087403">
        <ele>1823.5699999999999</ele>
        <time>2022-07-10T13:32:23Z</time>
      </trkpt>
      <trkpt lat="45.967217814177275" lon="9.378804406151176">
        <ele>1822.6900000000001</ele>
        <time>2022-07-10T13:32:32Z</time>
      </trkpt>
      <trkpt lat="45.967193003743887" lon="9.378793593496084">
        <ele>1822.71</ele>
        <time>2022-07-10T13:32:59Z</time>
      </trkpt>
      <trkpt lat="45.967217646539211" lon="9.378778170794249">
        <ele>1822.8299999999999</ele>
        <time>2022-07-10T13:33:19Z</time>
      </trkpt>
      <trkpt lat="45.967236254364252" lon="9.378769369795919">
        <ele>1823.3900000000001</ele>
        <time>2022-07-10T13:33:52Z</time>
      </trkpt>
      <trkpt lat="45.96727623604238" lon="9.378789067268372">
        <ele>1823.01</ele>
        <time>2022-07-10T13:34:08Z</time>
      </trkpt>
      <trkpt lat="45.967299537733197" lon="9.378830557689071">
        <ele>1824.27</ele>
        <time>2022-07-10T13:34:18Z</time>
      </trkpt>
      <trkpt lat="45.967315211892128" lon="9.37881832011044">
        <ele>1824.3800000000001</ele>
        <time>2022-07-10T13:34:21Z</time>
      </trkpt>
      <trkpt lat="45.967319570481777" lon="9.378819828853011">
        <ele>1823.5999999999999</ele>
        <time>2022-07-10T13:34:31Z</time>
      </trkpt>
      <trkpt lat="45.967315714806318" lon="9.378838939592242">
        <ele>1823.6300000000001</ele>
        <time>2022-07-10T13:35:06Z</time>
      </trkpt>
      <trkpt lat="45.967307668179274" lon="9.378843130543828">
        <ele>1823.8499999999999</ele>
        <time>2022-07-10T13:35:43Z</time>
      </trkpt>
      <trkpt lat="45.96732510253787" lon="9.378850841894746">
        <ele>1823.8199999999999</ele>
        <time>2022-07-10T13:36:21Z</time>
      </trkpt>
      <trkpt lat="45.967322001233697" lon="9.37884422019124">
        <ele>1823.78</ele>
        <time>2022-07-10T13:36:52Z</time>
      </trkpt>
      <trkpt lat="45.967322420328856" lon="9.378849416971207">
        <ele>1823.9300000000001</ele>
        <time>2022-07-10T13:37:20Z</time>
      </trkpt>
      <trkpt lat="45.967319402843714" lon="9.378851260989904">
        <ele>1823.2</ele>
        <time>2022-07-10T13:37:49Z</time>
      </trkpt>
      <trkpt lat="45.967335579916835" lon="9.37884422019124">
        <ele>1823.6400000000001</ele>
        <time>2022-07-10T13:38:15Z</time>
      </trkpt>
      <trkpt lat="45.967354439198971" lon="9.378827372565866">
        <ele>1823.52</ele>
        <time>2022-07-10T13:39:05Z</time>
      </trkpt>
      <trkpt lat="45.967362066730857" lon="9.378840196877718">
        <ele>1823.4100000000001</ele>
        <time>2022-07-10T13:39:45Z</time>
      </trkpt>
      <trkpt lat="45.967382518574595" lon="9.378871880471706">
        <ele>1824.1300000000001</ele>
        <time>2022-07-10T13:40:26Z</time>
      </trkpt>
      <trkpt lat="45.967386038973927" lon="9.378877161070705">
        <ele>1824.26</ele>
        <time>2022-07-10T13:41:04Z</time>
      </trkpt>
      <trkpt lat="45.967364832758904" lon="9.378873305395246">
        <ele>1824.3099999999999</ele>
        <time>2022-07-10T13:41:53Z</time>
      </trkpt>
      <trkpt lat="45.967354942113161" lon="9.378885878250003">
        <ele>1824.8199999999999</ele>
        <time>2022-07-10T13:42:40Z</time>
      </trkpt>
      <trkpt lat="45.967369191348553" lon="9.378878502175212">
        <ele>1824.8900000000001</ele>
        <time>2022-07-10T13:43:22Z</time>
      </trkpt>
      <trkpt lat="45.967377824708819" lon="9.378876490518451">
        <ele>1824.71</ele>
        <time>2022-07-10T13:44:03Z</time>
      </trkpt>
      <trkpt lat="45.967387380078435" lon="9.378889231011272">
        <ele>1825.04</ele>
        <time>2022-07-10T13:44:41Z</time>
      </trkpt>
      <trkpt lat="45.967373382300138" lon="9.378844723105431">
        <ele>1824.79</ele>
        <time>2022-07-10T13:45:18Z</time>
      </trkpt>
      <trkpt lat="45.967367850244045" lon="9.378855284303427">
        <ele>1824.73</ele>
        <time>2022-07-10T13:45:51Z</time>
      </trkpt>
      <trkpt lat="45.967359552159905" lon="9.37887841835618">
        <ele>1825.0899999999999</ele>
        <time>2022-07-10T13:46:29Z</time>
      </trkpt>
      <trkpt lat="45.967356618493795" lon="9.378876406699419">
        <ele>1825.0699999999999</ele>
        <time>2022-07-10T13:47:14Z</time>
      </trkpt>
      <trkpt lat="45.967341111972928" lon="9.378866767510772">
        <ele>1825.3800000000001</ele>
        <time>2022-07-10T13:47:58Z</time>
      </trkpt>
      <trkpt lat="45.967342955991626" lon="9.378874730318785">
        <ele>1825.52</ele>
        <time>2022-07-10T13:48:45Z</time>
      </trkpt>
      <trkpt lat="45.967365000396967" lon="9.378803232684732">
        <ele>1824.9000000000001</ele>
        <time>2022-07-10T13:49:00Z</time>
      </trkpt>
      <trkpt lat="45.96741889603436" lon="9.378696447238326">
        <ele>1824.4000000000001</ele>
        <time>2022-07-10T13:49:09Z</time>
      </trkpt>
      <trkpt lat="45.96741252578795" lon="9.378682198002935">
        <ele>1824.26</ele>
        <time>2022-07-10T13:49:11Z</time>
      </trkpt>
      <trkpt lat="45.967396181076765" lon="9.37866928987205">
        <ele>1824.4100000000001</ele>
        <time>2022-07-10T13:49:29Z</time>
      </trkpt>
      <trkpt lat="45.967368856072426" lon="9.378647496923804">
        <ele>1824.54</ele>
        <time>2022-07-10T13:49:51Z</time>
      </trkpt>
      <trkpt lat="45.967362821102142" lon="9.378650095313788">
        <ele>1824.5599999999999</ele>
        <time>2022-07-10T13:50:13Z</time>
      </trkpt>
      <trkpt lat="45.967364246025681" lon="9.378649927675724">
        <ele>1824.46</ele>
        <time>2022-07-10T13:50:35Z</time>
      </trkpt>
      <trkpt lat="45.967371622100472" lon="9.37866342253983">
        <ele>1824.3099999999999</ele>
        <time>2022-07-10T13:51:12Z</time>
      </trkpt>
      <trkpt lat="45.967365335673094" lon="9.378670714795589">
        <ele>1824.1800000000001</ele>
        <time>2022-07-10T13:51:52Z</time>
      </trkpt>
      <trkpt lat="45.967361144721508" lon="9.378668451681733">
        <ele>1823.9200000000001</ele>
        <time>2022-07-10T13:51:53Z</time>
      </trkpt>
      <trkpt lat="45.967343542724848" lon="9.378642467781901">
        <ele>1824.6199999999999</ele>
        <time>2022-07-10T13:52:13Z</time>
      </trkpt>
      <trkpt lat="45.967363324016333" lon="9.378677336499095">
        <ele>1824.3399999999999</ele>
        <time>2022-07-10T13:52:36Z</time>
      </trkpt>
      <trkpt lat="45.967364329844713" lon="9.378643305972219">
        <ele>1824.48</ele>
        <time>2022-07-10T13:52:58Z</time>
      </trkpt>
      <trkpt lat="45.967418979853392" lon="9.378655711188912">
        <ele>1823.9100000000001</ele>
        <time>2022-07-10T13:53:21Z</time>
      </trkpt>
      <trkpt lat="45.967445382848382" lon="9.378693765029311">
        <ele>1823.52</ele>
        <time>2022-07-10T13:53:49Z</time>
      </trkpt>
      <trkpt lat="45.967454854398966" lon="9.378685131669045">
        <ele>1823.6300000000001</ele>
        <time>2022-07-10T13:54:26Z</time>
      </trkpt>
      <trkpt lat="45.967440269887447" lon="9.378671385347843">
        <ele>1824.98</ele>
        <time>2022-07-10T13:54:50Z</time>
      </trkpt>
      <trkpt lat="45.967413615435362" lon="9.378675492480397">
        <ele>1824.3699999999999</ele>
        <time>2022-07-10T13:55:01Z</time>
      </trkpt>
      <trkpt lat="45.967421075329185" lon="9.378658896312118">
        <ele>1824.48</ele>
        <time>2022-07-10T13:55:17Z</time>
      </trkpt>
      <trkpt lat="45.96736709587276" lon="9.378653364256024">
        <ele>1823.9400000000001</ele>
        <time>2022-07-10T13:55:28Z</time>
      </trkpt>
      <trkpt lat="45.967338513582945" lon="9.378704745322466">
        <ele>1822.5599999999999</ele>
        <time>2022-07-10T13:55:34Z</time>
      </trkpt>
      <trkpt lat="45.967314457520843" lon="9.378730058670044">
        <ele>1821.98</ele>
        <time>2022-07-10T13:55:43Z</time>
      </trkpt>
      <trkpt lat="45.967306913807988" lon="9.378747325390577">
        <ele>1821.9400000000001</ele>
        <time>2022-07-10T13:56:03Z</time>
      </trkpt>
      <trkpt lat="45.967284450307488" lon="9.378778086975217">
        <ele>1822.04</ele>
        <time>2022-07-10T13:56:31Z</time>
      </trkpt>
      <trkpt lat="45.967275062575936" lon="9.37877431511879">
        <ele>1822.6400000000001</ele>
        <time>2022-07-10T13:57:03Z</time>
      </trkpt>
      <trkpt lat="45.967274978756905" lon="9.378765346482396">
        <ele>1822.78</ele>
        <time>2022-07-10T13:57:25Z</time>
      </trkpt>
      <trkpt lat="45.967273805290461" lon="9.378760484978557">
        <ele>1822.9400000000001</ele>
        <time>2022-07-10T13:57:36Z</time>
      </trkpt>
      <trkpt lat="45.967263663187623" lon="9.378763251006603">
        <ele>1822.3699999999999</ele>
        <time>2022-07-10T13:57:51Z</time>
      </trkpt>
      <trkpt lat="45.967242205515504" lon="9.378746068105102">
        <ele>1821.96</ele>
        <time>2022-07-10T13:58:07Z</time>
      </trkpt>
      <trkpt lat="45.967178083956242" lon="9.378747744485736">
        <ele>1821.49</ele>
        <time>2022-07-10T13:58:22Z</time>
      </trkpt>
      <trkpt lat="45.967064592987299" lon="9.378666272386909">
        <ele>1819.8599999999999</ele>
        <time>2022-07-10T13:58:36Z</time>
      </trkpt>
      <trkpt lat="45.967045482248068" lon="9.378649760037661">
        <ele>1819.46</ele>
        <time>2022-07-10T13:58:38Z</time>
      </trkpt>
      <trkpt lat="45.96693710424006" lon="9.378556637093425">
        <ele>1819.29</ele>
        <time>2022-07-10T13:58:51Z</time>
      </trkpt>
      <trkpt lat="45.96692587248981" lon="9.378526546061039">
        <ele>1819.0899999999999</ele>
        <time>2022-07-10T13:58:55Z</time>
      </trkpt>
      <trkpt lat="45.966924950480461" lon="9.378508105874062">
        <ele>1818.8499999999999</ele>
        <time>2022-07-10T13:58:56Z</time>
      </trkpt>
      <trkpt lat="45.966923860833049" lon="9.378492347896099">
        <ele>1818.78</ele>
        <time>2022-07-10T13:58:57Z</time>
      </trkpt>
      <trkpt lat="45.966909527778625" lon="9.378352118656039">
        <ele>1816.8299999999999</ele>
        <time>2022-07-10T13:59:08Z</time>
      </trkpt>
      <trkpt lat="45.966828893870115" lon="9.378262180835009">
        <ele>1815.25</ele>
        <time>2022-07-10T13:59:21Z</time>
      </trkpt>
      <trkpt lat="45.966774998232722" lon="9.378243992105126">
        <ele>1814.3800000000001</ele>
        <time>2022-07-10T13:59:27Z</time>
      </trkpt>
      <trkpt lat="45.966764437034726" lon="9.378246339038014">
        <ele>1814.21</ele>
        <time>2022-07-10T13:59:28Z</time>
      </trkpt>
      <trkpt lat="45.966759910807014" lon="9.378164950758219">
        <ele>1813.46</ele>
        <time>2022-07-10T13:59:37Z</time>
      </trkpt>
      <trkpt lat="45.966756138950586" lon="9.378048609942198">
        <ele>1812.04</ele>
        <time>2022-07-10T13:59:47Z</time>
      </trkpt>
      <trkpt lat="45.9667226113379" lon="9.377978788688779">
        <ele>1809.28</ele>
        <time>2022-07-10T13:59:57Z</time>
      </trkpt>
      <trkpt lat="45.966726215556264" lon="9.377905866131187">
        <ele>1807.55</ele>
        <time>2022-07-10T14:00:06Z</time>
      </trkpt>
      <trkpt lat="45.966725209727883" lon="9.377892119809985">
        <ele>1807.27</ele>
        <time>2022-07-10T14:00:08Z</time>
      </trkpt>
      <trkpt lat="45.966765694320202" lon="9.377788184210658">
        <ele>1804.46</ele>
        <time>2022-07-10T14:00:18Z</time>
      </trkpt>
      <trkpt lat="45.966766029596329" lon="9.377765133976936">
        <ele>1803.9100000000001</ele>
        <time>2022-07-10T14:00:20Z</time>
      </trkpt>
      <trkpt lat="45.966769885271788" lon="9.377752393484116">
        <ele>1803.47</ele>
        <time>2022-07-10T14:00:21Z</time>
      </trkpt>
      <trkpt lat="45.966776423156261" lon="9.377735462039709">
        <ele>1803.23</ele>
        <time>2022-07-10T14:00:22Z</time>
      </trkpt>
      <trkpt lat="45.966770807281137" lon="9.377649379894137">
        <ele>1801.5699999999999</ele>
        <time>2022-07-10T14:00:31Z</time>
      </trkpt>
      <trkpt lat="45.966751780360937" lon="9.377553910017014">
        <ele>1799.9300000000001</ele>
        <time>2022-07-10T14:00:41Z</time>
      </trkpt>
      <trkpt lat="45.966728813946247" lon="9.377472773194313">
        <ele>1798.04</ele>
        <time>2022-07-10T14:00:50Z</time>
      </trkpt>
      <trkpt lat="45.966716408729553" lon="9.37740521505475">
        <ele>1797.52</ele>
        <time>2022-07-10T14:00:57Z</time>
      </trkpt>
      <trkpt lat="45.966681120917201" lon="9.377310834825039">
        <ele>1796.1500000000001</ele>
        <time>2022-07-10T14:01:05Z</time>
      </trkpt>
      <trkpt lat="45.966707104817033" lon="9.377174042165279">
        <ele>1793.73</ele>
        <time>2022-07-10T14:01:16Z</time>
      </trkpt>
      <trkpt lat="45.9667226113379" lon="9.377160212025046">
        <ele>1793.04</ele>
        <time>2022-07-10T14:01:18Z</time>
      </trkpt>
      <trkpt lat="45.966729233041406" lon="9.377151913940907">
        <ele>1792.8</ele>
        <time>2022-07-10T14:01:19Z</time>
      </trkpt>
      <trkpt lat="45.966755300760269" lon="9.377111261710525">
        <ele>1791.9200000000001</ele>
        <time>2022-07-10T14:01:23Z</time>
      </trkpt>
      <trkpt lat="45.966836353763938" lon="9.377025347203016">
        <ele>1788.6800000000001</ele>
        <time>2022-07-10T14:01:35Z</time>
      </trkpt>
      <trkpt lat="45.966870803385973" lon="9.37700305134058">
        <ele>1787.76</ele>
        <time>2022-07-10T14:01:41Z</time>
      </trkpt>
      <trkpt lat="45.966971386224031" lon="9.376917136833072">
        <ele>1784.0999999999999</ele>
        <time>2022-07-10T14:01:54Z</time>
      </trkpt>
      <trkpt lat="45.967079931870103" lon="9.376875814050436">
        <ele>1781.23</ele>
        <time>2022-07-10T14:02:05Z</time>
      </trkpt>
      <trkpt lat="45.967098874971271" lon="9.376880843192339">
        <ele>1780.74</ele>
        <time>2022-07-10T14:02:07Z</time>
      </trkpt>
      <trkpt lat="45.967157129198313" lon="9.376861061900854">
        <ele>1779.53</ele>
        <time>2022-07-10T14:02:13Z</time>
      </trkpt>
      <trkpt lat="45.967249246314168" lon="9.376825438812375">
        <ele>1777.8900000000001</ele>
        <time>2022-07-10T14:02:23Z</time>
      </trkpt>
      <trkpt lat="45.967303058132529" lon="9.376762909814715">
        <ele>1776.0899999999999</ele>
        <time>2022-07-10T14:02:30Z</time>
      </trkpt>
      <trkpt lat="45.967402467504144" lon="9.376736506819725">
        <ele>1774.95</ele>
        <time>2022-07-10T14:02:38Z</time>
      </trkpt>
      <trkpt lat="45.967534231022" lon="9.376636678352952">
        <ele>1774.48</ele>
        <time>2022-07-10T14:02:51Z</time>
      </trkpt>
      <trkpt lat="45.967598184943199" lon="9.376566605642438">
        <ele>1773.4200000000001</ele>
        <time>2022-07-10T14:02:59Z</time>
      </trkpt>
      <trkpt lat="45.967677645385265" lon="9.376498125493527">
        <ele>1771.5899999999999</ele>
        <time>2022-07-10T14:03:11Z</time>
      </trkpt>
      <trkpt lat="45.967720560729504" lon="9.37641522847116">
        <ele>1769.71</ele>
        <time>2022-07-10T14:03:21Z</time>
      </trkpt>
      <trkpt lat="45.967759620398283" lon="9.376322105526924">
        <ele>1766.6500000000001</ele>
        <time>2022-07-10T14:03:31Z</time>
      </trkpt>
      <trkpt lat="45.96779222600162" lon="9.376266114413738">
        <ele>1764.71</ele>
        <time>2022-07-10T14:03:38Z</time>
      </trkpt>
      <trkpt lat="45.967815862968564" lon="9.376190761104226">
        <ele>1762.6500000000001</ele>
        <time>2022-07-10T14:03:45Z</time>
      </trkpt>
      <trkpt lat="45.967877134680748" lon="9.37609906308353">
        <ele>1759.9400000000001</ele>
        <time>2022-07-10T14:03:57Z</time>
      </trkpt>
      <trkpt lat="45.967913679778576" lon="9.376053968444467">
        <ele>1758.78</ele>
        <time>2022-07-10T14:04:03Z</time>
      </trkpt>
      <trkpt lat="45.967936562374234" lon="9.375958582386375">
        <ele>1756.1500000000001</ele>
        <time>2022-07-10T14:04:15Z</time>
      </trkpt>
      <trkpt lat="45.967987859621644" lon="9.37586260959506">
        <ele>1753.3499999999999</ele>
        <time>2022-07-10T14:04:25Z</time>
      </trkpt>
      <trkpt lat="45.968050723895431" lon="9.375729756429792">
        <ele>1750.1900000000001</ele>
        <time>2022-07-10T14:04:38Z</time>
      </trkpt>
      <trkpt lat="45.96802038140595" lon="9.375660354271531">
        <ele>1747.8199999999999</ele>
        <time>2022-07-10T14:04:49Z</time>
      </trkpt>
      <trkpt lat="45.967976460233331" lon="9.375652894377708">
        <ele>1746.8</ele>
        <time>2022-07-10T14:04:54Z</time>
      </trkpt>
      <trkpt lat="45.967908650636673" lon="9.375665299594402">
        <ele>1744.8099999999999</ele>
        <time>2022-07-10T14:05:07Z</time>
      </trkpt>
      <trkpt lat="45.96784595400095" lon="9.375648451969028">
        <ele>1742.6300000000001</ele>
        <time>2022-07-10T14:05:17Z</time>
      </trkpt>
      <trkpt lat="45.967788621783257" lon="9.37561240978539">
        <ele>1740.6099999999999</ele>
        <time>2022-07-10T14:05:26Z</time>
      </trkpt>
      <trkpt lat="45.967773869633675" lon="9.375566896051168">
        <ele>1739.8900000000001</ele>
        <time>2022-07-10T14:05:30Z</time>
      </trkpt>
      <trkpt lat="45.967754423618317" lon="9.375554993748665">
        <ele>1739.23</ele>
        <time>2022-07-10T14:05:32Z</time>
      </trkpt>
      <trkpt lat="45.967718046158552" lon="9.375455249100924">
        <ele>1737.29</ele>
        <time>2022-07-10T14:05:41Z</time>
      </trkpt>
      <trkpt lat="45.967609835788608" lon="9.375353157520294">
        <ele>1734.3900000000001</ele>
        <time>2022-07-10T14:05:53Z</time>
      </trkpt>
      <trkpt lat="45.967590473592281" lon="9.375275289639831">
        <ele>1732.8800000000001</ele>
        <time>2022-07-10T14:05:59Z</time>
      </trkpt>
      <trkpt lat="45.967587875202298" lon="9.375245198607445">
        <ele>1732.1400000000001</ele>
        <time>2022-07-10T14:06:01Z</time>
      </trkpt>
      <trkpt lat="45.967594999819994" lon="9.375202786177397">
        <ele>1731.5</ele>
        <time>2022-07-10T14:06:04Z</time>
      </trkpt>
      <trkpt lat="45.967648979276419" lon="9.375086780637503">
        <ele>1728.05</ele>
        <time>2022-07-10T14:06:15Z</time>
      </trkpt>
      <trkpt lat="45.967690134420991" lon="9.374991310760379">
        <ele>1725.6800000000001</ele>
        <time>2022-07-10T14:06:25Z</time>
      </trkpt>
      <trkpt lat="45.967754339799285" lon="9.374890308827162">
        <ele>1722.8499999999999</ele>
        <time>2022-07-10T14:06:35Z</time>
      </trkpt>
      <trkpt lat="45.967756351456046" lon="9.374854853376746">
        <ele>1722.45</ele>
        <time>2022-07-10T14:06:37Z</time>
      </trkpt>
      <trkpt lat="45.967749981209636" lon="9.374828534200788">
        <ele>1722.3099999999999</ele>
        <time>2022-07-10T14:06:38Z</time>
      </trkpt>
      <trkpt lat="45.967815695330501" lon="9.374749660491943">
        <ele>1720.47</ele>
        <time>2022-07-10T14:06:47Z</time>
      </trkpt>
      <trkpt lat="45.967835476621985" lon="9.374712696298957">
        <ele>1719.23</ele>
        <time>2022-07-10T14:06:52Z</time>
      </trkpt>
      <trkpt lat="45.967854587361217" lon="9.374698447063565">
        <ele>1719.1600000000001</ele>
        <time>2022-07-10T14:06:54Z</time>
      </trkpt>
      <trkpt lat="45.967883756384254" lon="9.374693417921662">
        <ele>1718.52</ele>
        <time>2022-07-10T14:07:03Z</time>
      </trkpt>
      <trkpt lat="45.967890964820981" lon="9.374676402658224">
        <ele>1718.29</ele>
        <time>2022-07-10T14:07:19Z</time>
      </trkpt>
      <trkpt lat="45.967895574867725" lon="9.374657375738025">
        <ele>1717.1300000000001</ele>
        <time>2022-07-10T14:07:30Z</time>
      </trkpt>
      <trkpt lat="45.967889036983252" lon="9.374603480100632">
        <ele>1716.1199999999999</ele>
        <time>2022-07-10T14:07:43Z</time>
      </trkpt>
      <trkpt lat="45.967925749719143" lon="9.374558050185442">
        <ele>1715.02</ele>
        <time>2022-07-10T14:07:56Z</time>
      </trkpt>
      <trkpt lat="45.967943435534835" lon="9.374544220045209">
        <ele>1714.5599999999999</ele>
        <time>2022-07-10T14:07:59Z</time>
      </trkpt>
      <trkpt lat="45.967957936227322" lon="9.374516559764743">
        <ele>1714.0999999999999</ele>
        <time>2022-07-10T14:08:01Z</time>
      </trkpt>
      <trkpt lat="45.967947877943516" lon="9.374503483995795">
        <ele>1714.1900000000001</ele>
        <time>2022-07-10T14:08:08Z</time>
      </trkpt>
      <trkpt lat="45.968014765530825" lon="9.374457467347384">
        <ele>1713.03</ele>
        <time>2022-07-10T14:08:18Z</time>
      </trkpt>
      <trkpt lat="45.968038570135832" lon="9.37443919479847">
        <ele>1712.3299999999999</ele>
        <time>2022-07-10T14:08:21Z</time>
      </trkpt>
      <trkpt lat="45.968068074434996" lon="9.374383371323347">
        <ele>1710.6600000000001</ele>
        <time>2022-07-10T14:08:29Z</time>
      </trkpt>
      <trkpt lat="45.968153066933155" lon="9.374371385201812">
        <ele>1708.4400000000001</ele>
        <time>2022-07-10T14:08:40Z</time>
      </trkpt>
      <trkpt lat="45.968220373615623" lon="9.374355962499976">
        <ele>1705.21</ele>
        <time>2022-07-10T14:08:51Z</time>
      </trkpt>
      <trkpt lat="45.968286925926805" lon="9.37434003688395">
        <ele>1703.3</ele>
        <time>2022-07-10T14:09:01Z</time>
      </trkpt>
      <trkpt lat="45.968372672796249" lon="9.374306006357074">
        <ele>1701.21</ele>
        <time>2022-07-10T14:09:12Z</time>
      </trkpt>
      <trkpt lat="45.968444757163525" lon="9.374293684959412">
        <ele>1699.3900000000001</ele>
        <time>2022-07-10T14:09:20Z</time>
      </trkpt>
      <trkpt lat="45.968543831259012" lon="9.374248338863254">
        <ele>1697.96</ele>
        <time>2022-07-10T14:09:32Z</time>
      </trkpt>
      <trkpt lat="45.968653718009591" lon="9.374200478196144">
        <ele>1694.97</ele>
        <time>2022-07-10T14:09:44Z</time>
      </trkpt>
      <trkpt lat="45.968785313889384" lon="9.374189497902989">
        <ele>1692.9400000000001</ele>
        <time>2022-07-10T14:09:57Z</time>
      </trkpt>
      <trkpt lat="45.968833174556494" lon="9.374172817915678">
        <ele>1692.5799999999999</ele>
        <time>2022-07-10T14:10:02Z</time>
      </trkpt>
      <trkpt lat="45.968844657763839" lon="9.374167202040553">
        <ele>1692.3699999999999</ele>
        <time>2022-07-10T14:10:03Z</time>
      </trkpt>
      <trkpt lat="45.968942726030946" lon="9.374113976955414">
        <ele>1690.9100000000001</ele>
        <time>2022-07-10T14:10:14Z</time>
      </trkpt>
      <trkpt lat="45.969026880338788" lon="9.374071480706334">
        <ele>1689.8299999999999</ele>
        <time>2022-07-10T14:10:25Z</time>
      </trkpt>
      <trkpt lat="45.969046577811241" lon="9.37407567165792">
        <ele>1690.0799999999999</ele>
        <time>2022-07-10T14:10:28Z</time>
      </trkpt>
      <trkpt lat="45.969057893380523" lon="9.374054046347737">
        <ele>1689.73</ele>
        <time>2022-07-10T14:10:40Z</time>
      </trkpt>
      <trkpt lat="45.969095779582858" lon="9.37400191091001">
        <ele>1688.8699999999999</ele>
        <time>2022-07-10T14:10:50Z</time>
      </trkpt>
      <trkpt lat="45.969123439863324" lon="9.374012472108007">
        <ele>1688.5799999999999</ele>
        <time>2022-07-10T14:10:53Z</time>
      </trkpt>
      <trkpt lat="45.969145316630602" lon="9.374029906466603">
        <ele>1687.6300000000001</ele>
        <time>2022-07-10T14:11:02Z</time>
      </trkpt>
      <trkpt lat="45.969115644693375" lon="9.373996295034885">
        <ele>1687.95</ele>
        <time>2022-07-10T14:11:06Z</time>
      </trkpt>
      <trkpt lat="45.969126457348466" lon="9.373898226767778">
        <ele>1687.48</ele>
        <time>2022-07-10T14:11:17Z</time>
      </trkpt>
      <trkpt lat="45.969116063788533" lon="9.373884396627545">
        <ele>1686.4200000000001</ele>
        <time>2022-07-10T14:11:35Z</time>
      </trkpt>
      <trkpt lat="45.969123272225261" lon="9.373878948390484">
        <ele>1687.5999999999999</ele>
        <time>2022-07-10T14:11:48Z</time>
      </trkpt>
      <trkpt lat="45.969111118465662" lon="9.373865453526378">
        <ele>1687.01</ele>
        <time>2022-07-10T14:11:59Z</time>
      </trkpt>
      <trkpt lat="45.969126122072339" lon="9.373862268403173">
        <ele>1685.6099999999999</ele>
        <time>2022-07-10T14:12:08Z</time>
      </trkpt>
      <trkpt lat="45.96911002881825" lon="9.373872242867947">
        <ele>1686.1600000000001</ele>
        <time>2022-07-10T14:12:35Z</time>
      </trkpt>
      <trkpt lat="45.969119165092707" lon="9.373873164877296">
        <ele>1686.0999999999999</ele>
        <time>2022-07-10T14:12:52Z</time>
      </trkpt>
      <trkpt lat="45.969102401286364" lon="9.373844666406512">
        <ele>1686.3699999999999</ele>
        <time>2022-07-10T14:13:08Z</time>
      </trkpt>
      <trkpt lat="45.969082619994879" lon="9.373834524303675">
        <ele>1685.54</ele>
        <time>2022-07-10T14:13:21Z</time>
      </trkpt>
      <trkpt lat="45.969085386022925" lon="9.373833183199167">
        <ele>1684.9300000000001</ele>
        <time>2022-07-10T14:13:44Z</time>
      </trkpt>
      <trkpt lat="45.969056719914079" lon="9.373861681669951">
        <ele>1684.78</ele>
        <time>2022-07-10T14:13:57Z</time>
      </trkpt>
      <trkpt lat="45.969045571982861" lon="9.373870398849249">
        <ele>1684.8599999999999</ele>
        <time>2022-07-10T14:14:15Z</time>
      </trkpt>
      <trkpt lat="45.969044985249639" lon="9.373855730518699">
        <ele>1684.6800000000001</ele>
        <time>2022-07-10T14:14:35Z</time>
      </trkpt>
      <trkpt lat="45.969047080725431" lon="9.373853299766779">
        <ele>1684.79</ele>
        <time>2022-07-10T14:14:52Z</time>
      </trkpt>
      <trkpt lat="45.9690504334867" lon="9.373851539567113">
        <ele>1684.9000000000001</ele>
        <time>2022-07-10T14:15:12Z</time>
      </trkpt>
      <trkpt lat="45.969012882560492" lon="9.373867129907012">
        <ele>1684.01</ele>
        <time>2022-07-10T14:15:31Z</time>
      </trkpt>
      <trkpt lat="45.968994945287704" lon="9.373851791024208">
        <ele>1683.74</ele>
        <time>2022-07-10T14:15:48Z</time>
      </trkpt>
      <trkpt lat="45.96892143599689" lon="9.37379471026361">
        <ele>1681.4000000000001</ele>
        <time>2022-07-10T14:16:02Z</time>
      </trkpt>
      <trkpt lat="45.968962926417589" lon="9.373682141304016">
        <ele>1678.96</ele>
        <time>2022-07-10T14:16:15Z</time>
      </trkpt>
      <trkpt lat="45.969038866460323" lon="9.37360268086195">
        <ele>1677.23</ele>
        <time>2022-07-10T14:16:28Z</time>
      </trkpt>
      <trkpt lat="45.969093181192875" lon="9.373519364744425">
        <ele>1674.8099999999999</ele>
        <time>2022-07-10T14:16:40Z</time>
      </trkpt>
      <trkpt lat="45.969168953597546" lon="9.373457673937082">
        <ele>1671.5999999999999</ele>
        <time>2022-07-10T14:16:53Z</time>
      </trkpt>
      <trkpt lat="45.969182616099715" lon="9.373443759977818">
        <ele>1671.1600000000001</ele>
        <time>2022-07-10T14:16:55Z</time>
      </trkpt>
      <trkpt lat="45.969247994944453" lon="9.373457506299019">
        <ele>1668.6500000000001</ele>
        <time>2022-07-10T14:17:04Z</time>
      </trkpt>
      <trkpt lat="45.969322426244617" lon="9.3734844122082">
        <ele>1665.8399999999999</ele>
        <time>2022-07-10T14:17:16Z</time>
      </trkpt>
      <trkpt lat="45.96936366520822" lon="9.373535877093673">
        <ele>1664.0599999999999</ele>
        <time>2022-07-10T14:17:28Z</time>
      </trkpt>
      <trkpt lat="45.969425104558468" lon="9.373546941205859">
        <ele>1662.0599999999999</ele>
        <time>2022-07-10T14:17:40Z</time>
      </trkpt>
      <trkpt lat="45.969491070136428" lon="9.373517939820886">
        <ele>1659.78</ele>
        <time>2022-07-10T14:17:52Z</time>
      </trkpt>
      <trkpt lat="45.969568099826574" lon="9.373469157144427">
        <ele>1657.1400000000001</ele>
        <time>2022-07-10T14:18:05Z</time>
      </trkpt>
      <trkpt lat="45.969540104269981" lon="9.373393803834915">
        <ele>1654.72</ele>
        <time>2022-07-10T14:18:16Z</time>
      </trkpt>
      <trkpt lat="45.969513198360801" lon="9.373345440253615">
        <ele>1652.7</ele>
        <time>2022-07-10T14:18:28Z</time>
      </trkpt>
      <trkpt lat="45.969536164775491" lon="9.37326111830771">
        <ele>1650.5</ele>
        <time>2022-07-10T14:18:40Z</time>
      </trkpt>
      <trkpt lat="45.969604309648275" lon="9.373200265690684">
        <ele>1647.97</ele>
        <time>2022-07-10T14:18:54Z</time>
      </trkpt>
      <trkpt lat="45.969602633267641" lon="9.373070010915399">
        <ele>1645.3299999999999</ele>
        <time>2022-07-10T14:19:07Z</time>
      </trkpt>
      <trkpt lat="45.969567680731416" lon="9.37296942807734">
        <ele>1643.51</ele>
        <time>2022-07-10T14:19:16Z</time>
      </trkpt>
      <trkpt lat="45.969569524750113" lon="9.372861720621586">
        <ele>1642.24</ele>
        <time>2022-07-10T14:19:25Z</time>
      </trkpt>
      <trkpt lat="45.969507917761803" lon="9.372724760323763">
        <ele>1639.72</ele>
        <time>2022-07-10T14:19:38Z</time>
      </trkpt>
      <trkpt lat="45.969481095671654" lon="9.372621076181531">
        <ele>1637.98</ele>
        <time>2022-07-10T14:19:51Z</time>
      </trkpt>
      <trkpt lat="45.969427367672324" lon="9.37249593436718">
        <ele>1635.4400000000001</ele>
        <time>2022-07-10T14:20:03Z</time>
      </trkpt>
      <trkpt lat="45.96942082978785" lon="9.37238940037787">
        <ele>1633.3</ele>
        <time>2022-07-10T14:20:17Z</time>
      </trkpt>
      <trkpt lat="45.969479167833924" lon="9.372369619086385">
        <ele>1631.4200000000001</ele>
        <time>2022-07-10T14:20:27Z</time>
      </trkpt>
      <trkpt lat="45.969539601355791" lon="9.37237280420959">
        <ele>1629.1500000000001</ele>
        <time>2022-07-10T14:20:38Z</time>
      </trkpt>
      <trkpt lat="45.969551419839263" lon="9.372374983504415">
        <ele>1628.8900000000001</ele>
        <time>2022-07-10T14:20:39Z</time>
      </trkpt>
      <trkpt lat="45.969638340175152" lon="9.372397782281041">
        <ele>1626.8099999999999</ele>
        <time>2022-07-10T14:20:50Z</time>
      </trkpt>
      <trkpt lat="45.969712687656283" lon="9.372425358742476">
        <ele>1624.3599999999999</ele>
        <time>2022-07-10T14:21:03Z</time>
      </trkpt>
      <trkpt lat="45.969759458675981" lon="9.372489061206579">
        <ele>1621.8499999999999</ele>
        <time>2022-07-10T14:21:16Z</time>
      </trkpt>
      <trkpt lat="45.969815701246262" lon="9.372514793649316">
        <ele>1619.9300000000001</ele>
        <time>2022-07-10T14:21:29Z</time>
      </trkpt>
      <trkpt lat="45.969856772571802" lon="9.372527534142137">
        <ele>1618.02</ele>
        <time>2022-07-10T14:21:40Z</time>
      </trkpt>
      <trkpt lat="45.969824502244592" lon="9.37245829962194">
        <ele>1615.3699999999999</ele>
        <time>2022-07-10T14:21:53Z</time>
      </trkpt>
      <trkpt lat="45.969827184453607" lon="9.372405912727118">
        <ele>1614.02</ele>
        <time>2022-07-10T14:22:05Z</time>
      </trkpt>
      <trkpt lat="45.969871021807194" lon="9.372375570237637">
        <ele>1612.01</ele>
        <time>2022-07-10T14:22:18Z</time>
      </trkpt>
      <trkpt lat="45.969907566905022" lon="9.372309017926455">
        <ele>1610.02</ele>
        <time>2022-07-10T14:22:31Z</time>
      </trkpt>
      <trkpt lat="45.969906812533736" lon="9.372202316299081">
        <ele>1606.9000000000001</ele>
        <time>2022-07-10T14:22:46Z</time>
      </trkpt>
      <trkpt lat="45.969943106174469" lon="9.372176835313439">
        <ele>1604.3699999999999</ele>
        <time>2022-07-10T14:22:58Z</time>
      </trkpt>
      <trkpt lat="45.969972359016538" lon="9.372247159481049">
        <ele>1601.5999999999999</ele>
        <time>2022-07-10T14:23:09Z</time>
      </trkpt>
      <trkpt lat="45.969982920214534" lon="9.372255709022284">
        <ele>1601.8699999999999</ele>
        <time>2022-07-10T14:23:18Z</time>
      </trkpt>
      <trkpt lat="45.970001444220543" lon="9.372300216928124">
        <ele>1600.1199999999999</ele>
        <time>2022-07-10T14:23:26Z</time>
      </trkpt>
      <trkpt lat="45.970081156119704" lon="9.372241292148829">
        <ele>1597.9000000000001</ele>
        <time>2022-07-10T14:23:39Z</time>
      </trkpt>
      <trkpt lat="45.970138907432556" lon="9.372175494208932">
        <ele>1594.9000000000001</ele>
        <time>2022-07-10T14:23:48Z</time>
      </trkpt>
      <trkpt lat="45.970170171931386" lon="9.372130315750837">
        <ele>1593.21</ele>
        <time>2022-07-10T14:23:57Z</time>
      </trkpt>
      <trkpt lat="45.970169501379132" lon="9.372113803401589">
        <ele>1593.0699999999999</ele>
        <time>2022-07-10T14:23:58Z</time>
      </trkpt>
      <trkpt lat="45.970172518864274" lon="9.372030152007937">
        <ele>1590.5899999999999</ele>
        <time>2022-07-10T14:24:06Z</time>
      </trkpt>
      <trkpt lat="45.970172435045242" lon="9.371924875304103">
        <ele>1588.4200000000001</ele>
        <time>2022-07-10T14:24:15Z</time>
      </trkpt>
      <trkpt lat="45.970166902989149" lon="9.371912134811282">
        <ele>1588.3199999999999</ele>
        <time>2022-07-10T14:24:16Z</time>
      </trkpt>
      <trkpt lat="45.970160197466612" lon="9.371802164241672">
        <ele>1586.27</ele>
        <time>2022-07-10T14:24:26Z</time>
      </trkpt>
      <trkpt lat="45.970131698995829" lon="9.371724128723145">
        <ele>1584.8599999999999</ele>
        <time>2022-07-10T14:24:37Z</time>
      </trkpt>
      <trkpt lat="45.970075624063611" lon="9.371678195893765">
        <ele>1582.8099999999999</ele>
        <time>2022-07-10T14:24:50Z</time>
      </trkpt>
      <trkpt lat="45.970056680962443" lon="9.371645003557205">
        <ele>1582.8</ele>
        <time>2022-07-10T14:25:01Z</time>
      </trkpt>
      <trkpt lat="45.970030277967453" lon="9.371654978021979">
        <ele>1581.8800000000001</ele>
        <time>2022-07-10T14:25:13Z</time>
      </trkpt>
      <trkpt lat="45.970002030953765" lon="9.371702922508121">
        <ele>1580.75</ele>
        <time>2022-07-10T14:25:24Z</time>
      </trkpt>
      <trkpt lat="45.969963390380144" lon="9.37174835242331">
        <ele>1579.97</ele>
        <time>2022-07-10T14:25:30Z</time>
      </trkpt>
      <trkpt lat="45.969916367903352" lon="9.371782382950187">
        <ele>1579.05</ele>
        <time>2022-07-10T14:25:35Z</time>
      </trkpt>
      <trkpt lat="45.969901364296675" lon="9.371791016310453">
        <ele>1579.1500000000001</ele>
        <time>2022-07-10T14:25:36Z</time>
      </trkpt>
      <trkpt lat="45.969866663217545" lon="9.371788585558534">
        <ele>1578.47</ele>
        <time>2022-07-10T14:25:39Z</time>
      </trkpt>
      <trkpt lat="45.969854844734073" lon="9.371783388778567">
        <ele>1578.3099999999999</ele>
        <time>2022-07-10T14:25:40Z</time>
      </trkpt>
      <trkpt lat="45.969757698476315" lon="9.371748771518469">
        <ele>1577.1700000000001</ele>
        <time>2022-07-10T14:25:48Z</time>
      </trkpt>
      <trkpt lat="45.969683099538088" lon="9.37172438018024">
        <ele>1575.6500000000001</ele>
        <time>2022-07-10T14:25:56Z</time>
      </trkpt>
      <trkpt lat="45.969624342396855" lon="9.371748939156532">
        <ele>1574.47</ele>
        <time>2022-07-10T14:26:08Z</time>
      </trkpt>
      <trkpt lat="45.969565501436591" lon="9.371706359088421">
        <ele>1572.05</ele>
        <time>2022-07-10T14:26:20Z</time>
      </trkpt>
      <trkpt lat="45.969563154503703" lon="9.371695630252361">
        <ele>1571.9000000000001</ele>
        <time>2022-07-10T14:26:21Z</time>
      </trkpt>
      <trkpt lat="45.969563825055957" lon="9.37164818868041">
        <ele>1570.79</ele>
        <time>2022-07-10T14:26:25Z</time>
      </trkpt>
      <trkpt lat="45.969576146453619" lon="9.371634945273399">
        <ele>1570.2</ele>
        <time>2022-07-10T14:26:26Z</time>
      </trkpt>
      <trkpt lat="45.969573128968477" lon="9.37161541543901">
        <ele>1569.97</ele>
        <time>2022-07-10T14:26:27Z</time>
      </trkpt>
      <trkpt lat="45.96957522444427" lon="9.371598903089762">
        <ele>1569.8099999999999</ele>
        <time>2022-07-10T14:26:28Z</time>
      </trkpt>
      <trkpt lat="45.969578744843602" lon="9.37158071435988">
        <ele>1569.73</ele>
        <time>2022-07-10T14:26:29Z</time>
      </trkpt>
      <trkpt lat="45.969585618004203" lon="9.371558921411634">
        <ele>1569.5999999999999</ele>
        <time>2022-07-10T14:26:30Z</time>
      </trkpt>
      <trkpt lat="45.969591652974486" lon="9.371537631377578">
        <ele>1569.1400000000001</ele>
        <time>2022-07-10T14:26:31Z</time>
      </trkpt>
      <trkpt lat="45.969597855582833" lon="9.371520783752203">
        <ele>1569.0699999999999</ele>
        <time>2022-07-10T14:26:32Z</time>
      </trkpt>
      <trkpt lat="45.9696030523628" lon="9.371507121250033">
        <ele>1568.9300000000001</ele>
        <time>2022-07-10T14:26:33Z</time>
      </trkpt>
      <trkpt lat="45.969611518085003" lon="9.371465295553207">
        <ele>1568.3599999999999</ele>
        <time>2022-07-10T14:26:36Z</time>
      </trkpt>
      <trkpt lat="45.969622833654284" lon="9.371434450149536">
        <ele>1567.51</ele>
        <time>2022-07-10T14:26:39Z</time>
      </trkpt>
      <trkpt lat="45.969624342396855" lon="9.371359767392278">
        <ele>1566.6199999999999</ele>
        <time>2022-07-10T14:26:45Z</time>
      </trkpt>
      <trkpt lat="45.969622917473316" lon="9.371344177052379">
        <ele>1566.3499999999999</ele>
        <time>2022-07-10T14:26:46Z</time>
      </trkpt>
      <trkpt lat="45.96962409093976" lon="9.371309392154217">
        <ele>1565.99</ele>
        <time>2022-07-10T14:26:48Z</time>
      </trkpt>
      <trkpt lat="45.969615625217557" lon="9.371164133772254">
        <ele>1564.1800000000001</ele>
        <time>2022-07-10T14:26:58Z</time>
      </trkpt>
      <trkpt lat="45.969608165323734" lon="9.371108561754227">
        <ele>1563.6300000000001</ele>
        <time>2022-07-10T14:27:02Z</time>
      </trkpt>
      <trkpt lat="45.969583103433251" lon="9.370881915092468">
        <ele>1562.0999999999999</ele>
        <time>2022-07-10T14:27:16Z</time>
      </trkpt>
      <trkpt lat="45.969582432880998" lon="9.370852159336209">
        <ele>1561.5799999999999</ele>
        <time>2022-07-10T14:27:18Z</time>
      </trkpt>
      <trkpt lat="45.969583271071315" lon="9.370836149901152">
        <ele>1561.4400000000001</ele>
        <time>2022-07-10T14:27:19Z</time>
      </trkpt>
      <trkpt lat="45.969584444537759" lon="9.370817961171269">
        <ele>1561.23</ele>
        <time>2022-07-10T14:27:20Z</time>
      </trkpt>
      <trkpt lat="45.969583606347442" lon="9.3708008620888">
        <ele>1561.01</ele>
        <time>2022-07-10T14:27:21Z</time>
      </trkpt>
      <trkpt lat="45.969582097604871" lon="9.370784601196647">
        <ele>1560.9300000000001</ele>
        <time>2022-07-10T14:27:22Z</time>
      </trkpt>
      <trkpt lat="45.969575308263302" lon="9.370724922046065">
        <ele>1560.6199999999999</ele>
        <time>2022-07-10T14:27:26Z</time>
      </trkpt>
      <trkpt lat="45.969570027664304" lon="9.370682593435049">
        <ele>1560.3199999999999</ele>
        <time>2022-07-10T14:27:29Z</time>
      </trkpt>
      <trkpt lat="45.969560639932752" lon="9.370632385835052">
        <ele>1559.6099999999999</ele>
        <time>2022-07-10T14:27:32Z</time>
      </trkpt>
      <trkpt lat="45.969502301886678" lon="9.37050866894424">
        <ele>1559.5599999999999</ele>
        <time>2022-07-10T14:27:40Z</time>
      </trkpt>
      <trkpt lat="45.969487717375159" lon="9.370443960651755">
        <ele>1559.79</ele>
        <time>2022-07-10T14:27:44Z</time>
      </trkpt>
      <trkpt lat="45.969436671584845" lon="9.370386963710189">
        <ele>1558.8900000000001</ele>
        <time>2022-07-10T14:27:54Z</time>
      </trkpt>
      <trkpt lat="45.969372717663646" lon="9.370324853807688">
        <ele>1556.6099999999999</ele>
        <time>2022-07-10T14:28:06Z</time>
      </trkpt>
      <trkpt lat="45.969343381002545" lon="9.3702707067132">
        <ele>1555.3</ele>
        <time>2022-07-10T14:28:14Z</time>
      </trkpt>
      <trkpt lat="45.969352014362812" lon="9.370231898501515">
        <ele>1554.6400000000001</ele>
        <time>2022-07-10T14:28:19Z</time>
      </trkpt>
      <trkpt lat="45.969364838674664" lon="9.370144223794341">
        <ele>1553.1600000000001</ele>
        <time>2022-07-10T14:28:31Z</time>
      </trkpt>
      <trkpt lat="45.969361234456301" lon="9.370012460276485">
        <ele>1551.03</ele>
        <time>2022-07-10T14:28:42Z</time>
      </trkpt>
      <trkpt lat="45.969353104010224" lon="9.36998681165278">
        <ele>1550.0999999999999</ele>
        <time>2022-07-10T14:28:44Z</time>
      </trkpt>
      <trkpt lat="45.96933776512742" lon="9.36983878724277">
        <ele>1547.3599999999999</ele>
        <time>2022-07-10T14:28:57Z</time>
      </trkpt>
      <trkpt lat="45.969377495348454" lon="9.36972688883543">
        <ele>1545.1900000000001</ele>
        <time>2022-07-10T14:29:09Z</time>
      </trkpt>
      <trkpt lat="45.969417560845613" lon="9.369713729247451">
        <ele>1544.97</ele>
        <time>2022-07-10T14:29:11Z</time>
      </trkpt>
      <trkpt lat="45.969441868364811" lon="9.36969461850822">
        <ele>1544.3699999999999</ele>
        <time>2022-07-10T14:29:16Z</time>
      </trkpt>
      <trkpt lat="45.96944228745997" lon="9.369689505547285">
        <ele>1544.1700000000001</ele>
        <time>2022-07-10T14:29:17Z</time>
      </trkpt>
      <trkpt lat="45.96943692304194" lon="9.369673831388354">
        <ele>1544.0599999999999</ele>
        <time>2022-07-10T14:29:18Z</time>
      </trkpt>
      <trkpt lat="45.969432732090354" lon="9.369687242433429">
        <ele>1544.02</ele>
        <time>2022-07-10T14:29:19Z</time>
      </trkpt>
      <trkpt lat="45.969441365450621" lon="9.369692439213395">
        <ele>1543.75</ele>
        <time>2022-07-10T14:29:34Z</time>
      </trkpt>
      <trkpt lat="45.969436503946781" lon="9.369678692892194">
        <ele>1543.8299999999999</ele>
        <time>2022-07-10T14:29:56Z</time>
      </trkpt>
      <trkpt lat="45.96944279037416" lon="9.369677100330591">
        <ele>1543.53</ele>
        <time>2022-07-10T14:30:11Z</time>
      </trkpt>
      <trkpt lat="45.969450669363141" lon="9.369682464748621">
        <ele>1543.3599999999999</ele>
        <time>2022-07-10T14:30:31Z</time>
      </trkpt>
      <trkpt lat="45.969450669363141" lon="9.369679614901543">
        <ele>1543.46</ele>
        <time>2022-07-10T14:30:32Z</time>
      </trkpt>
      <trkpt lat="45.969446562230587" lon="9.369696294888854">
        <ele>1544.47</ele>
        <time>2022-07-10T14:30:39Z</time>
      </trkpt>
      <trkpt lat="45.969446478411555" lon="9.369706520810723">
        <ele>1543.0799999999999</ele>
        <time>2022-07-10T14:30:54Z</time>
      </trkpt>
      <trkpt lat="45.969447819516063" lon="9.369706688448787">
        <ele>1543.01</ele>
        <time>2022-07-10T14:30:59Z</time>
      </trkpt>
      <trkpt lat="45.969490148127079" lon="9.369697216898203">
        <ele>1542.3499999999999</ele>
        <time>2022-07-10T14:31:10Z</time>
      </trkpt>
      <trkpt lat="45.969493919983506" lon="9.369661593809724">
        <ele>1542.28</ele>
        <time>2022-07-10T14:31:26Z</time>
      </trkpt>
      <trkpt lat="45.969498362392187" lon="9.36965991742909">
        <ele>1542.24</ele>
        <time>2022-07-10T14:31:28Z</time>
      </trkpt>
      <trkpt lat="45.969522083178163" lon="9.36965698376298">
        <ele>1542.27</ele>
        <time>2022-07-10T14:31:37Z</time>
      </trkpt>
      <trkpt lat="45.969558041542768" lon="9.369594203308225">
        <ele>1541.72</ele>
        <time>2022-07-10T14:31:49Z</time>
      </trkpt>
      <trkpt lat="45.969530884176493" lon="9.369567800313234">
        <ele>1541.5599999999999</ele>
        <time>2022-07-10T14:32:06Z</time>
      </trkpt>
      <trkpt lat="45.969489142298698" lon="9.36948792077601">
        <ele>1540.46</ele>
        <time>2022-07-10T14:32:20Z</time>
      </trkpt>
      <trkpt lat="45.969466427341104" lon="9.369376273825765">
        <ele>1539.54</ele>
        <time>2022-07-10T14:32:35Z</time>
      </trkpt>
      <trkpt lat="45.969524513930082" lon="9.369304189458489">
        <ele>1538.1900000000001</ele>
        <time>2022-07-10T14:32:46Z</time>
      </trkpt>
      <trkpt lat="45.969562819227576" lon="9.369239900261164">
        <ele>1537.3800000000001</ele>
        <time>2022-07-10T14:32:53Z</time>
      </trkpt>
      <trkpt lat="45.969578912481666" lon="9.369179718196392">
        <ele>1536.96</ele>
        <time>2022-07-10T14:32:58Z</time>
      </trkpt>
      <trkpt lat="45.969527279958129" lon="9.369019372388721">
        <ele>1536.3900000000001</ele>
        <time>2022-07-10T14:33:14Z</time>
      </trkpt>
      <trkpt lat="45.969553850591183" lon="9.368927674368024">
        <ele>1535.5</ele>
        <time>2022-07-10T14:33:26Z</time>
      </trkpt>
      <trkpt lat="45.969561981037259" lon="9.36886983923614">
        <ele>1536.3299999999999</ele>
        <time>2022-07-10T14:33:33Z</time>
      </trkpt>
      <trkpt lat="45.96965535543859" lon="9.368781577795744">
        <ele>1535.9100000000001</ele>
        <time>2022-07-10T14:33:45Z</time>
      </trkpt>
      <trkpt lat="45.969702042639256" lon="9.368782248347998">
        <ele>1535.76</ele>
        <time>2022-07-10T14:33:50Z</time>
      </trkpt>
      <trkpt lat="45.969803463667631" lon="9.368812087923288">
        <ele>1535.03</ele>
        <time>2022-07-10T14:34:02Z</time>
      </trkpt>
      <trkpt lat="45.969885941594839" lon="9.368806472048163">
        <ele>1535.5999999999999</ele>
        <time>2022-07-10T14:34:17Z</time>
      </trkpt>
      <trkpt lat="45.969958445057273" lon="9.368744948878884">
        <ele>1537.3399999999999</ele>
        <time>2022-07-10T14:34:30Z</time>
      </trkpt>
      <trkpt lat="45.969985099509358" lon="9.368641264736652">
        <ele>1539.1199999999999</ele>
        <time>2022-07-10T14:34:44Z</time>
      </trkpt>
      <trkpt lat="45.970007395371795" lon="9.368559373542666">
        <ele>1541.21</ele>
        <time>2022-07-10T14:34:55Z</time>
      </trkpt>
      <trkpt lat="45.969999432563782" lon="9.368518469855189">
        <ele>1542.29</ele>
        <time>2022-07-10T14:35:04Z</time>
      </trkpt>
      <trkpt lat="45.969988284632564" lon="9.368523163720965">
        <ele>1543.2</ele>
        <time>2022-07-10T14:35:11Z</time>
      </trkpt>
      <trkpt lat="45.969973029568791" lon="9.368529785424471">
        <ele>1543.51</ele>
        <time>2022-07-10T14:35:16Z</time>
      </trkpt>
      <trkpt lat="45.969973783940077" lon="9.368443535640836">
        <ele>1545.3299999999999</ele>
        <time>2022-07-10T14:35:28Z</time>
      </trkpt>
      <trkpt lat="45.969989793375134" lon="9.368391064926982">
        <ele>1546.1900000000001</ele>
        <time>2022-07-10T14:35:38Z</time>
      </trkpt>
      <trkpt lat="45.969990463927388" lon="9.368314370512962">
        <ele>1547.75</ele>
        <time>2022-07-10T14:35:50Z</time>
      </trkpt>
      <trkpt lat="45.969977974891663" lon="9.368239101022482">
        <ele>1549.4400000000001</ele>
        <time>2022-07-10T14:36:05Z</time>
      </trkpt>
      <trkpt lat="45.969970179721713" lon="9.368208255618811">
        <ele>1550.0599999999999</ele>
        <time>2022-07-10T14:36:09Z</time>
      </trkpt>
      <trkpt lat="45.969933802261949" lon="9.368137344717979">
        <ele>1551.27</ele>
        <time>2022-07-10T14:36:21Z</time>
      </trkpt>
      <trkpt lat="45.969888791441917" lon="9.368051765486598">
        <ele>1553.0599999999999</ele>
        <time>2022-07-10T14:36:32Z</time>
      </trkpt>
      <trkpt lat="45.969912596046925" lon="9.36798102222383">
        <ele>1553.6800000000001</ele>
        <time>2022-07-10T14:36:44Z</time>
      </trkpt>
      <trkpt lat="45.969973029568791" lon="9.367952942848206">
        <ele>1556.1800000000001</ele>
        <time>2022-07-10T14:36:58Z</time>
      </trkpt>
      <trkpt lat="45.970042934641242" lon="9.367826711386442">
        <ele>1557.4000000000001</ele>
        <time>2022-07-10T14:37:11Z</time>
      </trkpt>
      <trkpt lat="45.970041174441576" lon="9.36774792149663">
        <ele>1557.05</ele>
        <time>2022-07-10T14:37:16Z</time>
      </trkpt>
      <trkpt lat="45.970070008188486" lon="9.367610206827521">
        <ele>1558.23</ele>
        <time>2022-07-10T14:37:29Z</time>
      </trkpt>
      <trkpt lat="45.970078306272626" lon="9.367520688101649">
        <ele>1560.04</ele>
        <time>2022-07-10T14:37:42Z</time>
      </trkpt>
      <trkpt lat="45.970114767551422" lon="9.367439551278949">
        <ele>1561.5</ele>
        <time>2022-07-10T14:37:56Z</time>
      </trkpt>
      <trkpt lat="45.970132956281304" lon="9.367350535467267">
        <ele>1562.77</ele>
        <time>2022-07-10T14:38:08Z</time>
      </trkpt>
      <trkpt lat="45.970175955444574" lon="9.367247605696321">
        <ele>1563.77</ele>
        <time>2022-07-10T14:38:19Z</time>
      </trkpt>
      <trkpt lat="45.970246279612184" lon="9.367167474702001">
        <ele>1565.28</ele>
        <time>2022-07-10T14:38:32Z</time>
      </trkpt>
      <trkpt lat="45.970315346494317" lon="9.367136377841234">
        <ele>1566.4000000000001</ele>
        <time>2022-07-10T14:38:45Z</time>
      </trkpt>
      <trkpt lat="45.97033454105258" lon="9.367077788338065">
        <ele>1567.71</ele>
        <time>2022-07-10T14:38:58Z</time>
      </trkpt>
      <trkpt lat="45.970370583236217" lon="9.367035292088985">
        <ele>1569.2</ele>
        <time>2022-07-10T14:39:10Z</time>
      </trkpt>
      <trkpt lat="45.970387095585465" lon="9.366947282105684">
        <ele>1570.47</ele>
        <time>2022-07-10T14:39:21Z</time>
      </trkpt>
      <trkpt lat="45.970357758924365" lon="9.366779560223222">
        <ele>1571.4300000000001</ele>
        <time>2022-07-10T14:39:41Z</time>
      </trkpt>
      <trkpt lat="45.970382150262594" lon="9.366671936586499">
        <ele>1572.73</ele>
        <time>2022-07-10T14:39:51Z</time>
      </trkpt>
      <trkpt lat="45.970406206324697" lon="9.366536317393184">
        <ele>1573.3199999999999</ele>
        <time>2022-07-10T14:40:02Z</time>
      </trkpt>
      <trkpt lat="45.970370247960091" lon="9.366415366530418">
        <ele>1573.6800000000001</ele>
        <time>2022-07-10T14:40:14Z</time>
      </trkpt>
      <trkpt lat="45.970345856621861" lon="9.36628402210772">
        <ele>1575.01</ele>
        <time>2022-07-10T14:40:25Z</time>
      </trkpt>
      <trkpt lat="45.970285004004836" lon="9.36613054946065">
        <ele>1577.5899999999999</ele>
        <time>2022-07-10T14:40:41Z</time>
      </trkpt>
      <trkpt lat="45.970246363431215" lon="9.366028206422925">
        <ele>1580.47</ele>
        <time>2022-07-10T14:40:58Z</time>
      </trkpt>
      <trkpt lat="45.970160868018866" lon="9.365928210318089">
        <ele>1583.4400000000001</ele>
        <time>2022-07-10T14:41:16Z</time>
      </trkpt>
      <trkpt lat="45.970095740631223" lon="9.365875571966171">
        <ele>1585.8</ele>
        <time>2022-07-10T14:41:32Z</time>
      </trkpt>
      <trkpt lat="45.970115186646581" lon="9.365777000784874">
        <ele>1585.3199999999999</ele>
        <time>2022-07-10T14:41:43Z</time>
      </trkpt>
      <trkpt lat="45.970119461417198" lon="9.365764344111085">
        <ele>1585.3499999999999</ele>
        <time>2022-07-10T14:41:44Z</time>
      </trkpt>
      <trkpt lat="45.970149384811521" lon="9.365699551999569">
        <ele>1585.53</ele>
        <time>2022-07-10T14:41:48Z</time>
      </trkpt>
      <trkpt lat="45.970205124467611" lon="9.365504840388894">
        <ele>1586.0599999999999</ele>
        <time>2022-07-10T14:42:01Z</time>
      </trkpt>
      <trkpt lat="45.970217697322369" lon="9.365295208990574">
        <ele>1588.8399999999999</ele>
        <time>2022-07-10T14:42:17Z</time>
      </trkpt>
      <trkpt lat="45.970277544111013" lon="9.365131761878729">
        <ele>1590.8</ele>
        <time>2022-07-10T14:42:34Z</time>
      </trkpt>
      <trkpt lat="45.97032574005425" lon="9.365050038322806">
        <ele>1591.3599999999999</ele>
        <time>2022-07-10T14:42:42Z</time>
      </trkpt>
      <trkpt lat="45.970439985394478" lon="9.364954400807619">
        <ele>1592.96</ele>
        <time>2022-07-10T14:42:55Z</time>
      </trkpt>
      <trkpt lat="45.970499999821186" lon="9.364862451329827">
        <ele>1594.27</ele>
        <time>2022-07-10T14:43:09Z</time>
      </trkpt>
      <trkpt lat="45.970516763627529" lon="9.364796904847026">
        <ele>1594.96</ele>
        <time>2022-07-10T14:43:14Z</time>
      </trkpt>
      <trkpt lat="45.970535036176443" lon="9.364634715020657">
        <ele>1595.2</ele>
        <time>2022-07-10T14:43:27Z</time>
      </trkpt>
      <trkpt lat="45.970546770840883" lon="9.364492641761899">
        <ele>1595.3699999999999</ele>
        <time>2022-07-10T14:43:38Z</time>
      </trkpt>
      <trkpt lat="45.970575856044888" lon="9.364330032840371">
        <ele>1595.8800000000001</ele>
        <time>2022-07-10T14:43:51Z</time>
      </trkpt>
      <trkpt lat="45.970582729205489" lon="9.364275131374598">
        <ele>1595.3099999999999</ele>
        <time>2022-07-10T14:43:54Z</time>
      </trkpt>
      <trkpt lat="45.970605611801147" lon="9.364049406722188">
        <ele>1595.4000000000001</ele>
        <time>2022-07-10T14:44:07Z</time>
      </trkpt>
      <trkpt lat="45.970661100000143" lon="9.363895431160927">
        <ele>1595.0899999999999</ele>
        <time>2022-07-10T14:44:21Z</time>
      </trkpt>
      <trkpt lat="45.970687754452229" lon="9.363865507766604">
        <ele>1595.01</ele>
        <time>2022-07-10T14:44:24Z</time>
      </trkpt>
      <trkpt lat="45.970755396410823" lon="9.363699378445745">
        <ele>1595.8</ele>
        <time>2022-07-10T14:44:39Z</time>
      </trkpt>
      <trkpt lat="45.970783140510321" lon="9.363556718453765">
        <ele>1594.95</ele>
        <time>2022-07-10T14:44:54Z</time>
      </trkpt>
      <trkpt lat="45.970835275948048" lon="9.363410957157612">
        <ele>1592.8099999999999</ele>
        <time>2022-07-10T14:45:07Z</time>
      </trkpt>
      <trkpt lat="45.970847848802805" lon="9.363380530849099">
        <ele>1592.25</ele>
        <time>2022-07-10T14:45:09Z</time>
      </trkpt>
      <trkpt lat="45.970840556547046" lon="9.36329847201705">
        <ele>1591.3900000000001</ele>
        <time>2022-07-10T14:45:20Z</time>
      </trkpt>
      <trkpt lat="45.970831336453557" lon="9.363242648541927">
        <ele>1591.4100000000001</ele>
        <time>2022-07-10T14:45:33Z</time>
      </trkpt>
      <trkpt lat="45.970880538225174" lon="9.363125469535589">
        <ele>1592.8299999999999</ele>
        <time>2022-07-10T14:45:47Z</time>
      </trkpt>
      <trkpt lat="45.970932338386774" lon="9.363102586939931">
        <ele>1592.5799999999999</ele>
        <time>2022-07-10T14:46:01Z</time>
      </trkpt>
      <trkpt lat="45.970963519066572" lon="9.363105101510882">
        <ele>1592.1700000000001</ele>
        <time>2022-07-10T14:46:16Z</time>
      </trkpt>
      <trkpt lat="45.971055720001459" lon="9.363094791769981">
        <ele>1589.3</ele>
        <time>2022-07-10T14:46:30Z</time>
      </trkpt>
      <trkpt lat="45.971110453829169" lon="9.363041566684842">
        <ele>1589.3699999999999</ele>
        <time>2022-07-10T14:46:43Z</time>
      </trkpt>
      <trkpt lat="45.971114728599787" lon="9.363031759858131">
        <ele>1589</ele>
        <time>2022-07-10T14:46:44Z</time>
      </trkpt>
      <trkpt lat="45.971122523769736" lon="9.362991861999035">
        <ele>1588.0599999999999</ele>
        <time>2022-07-10T14:46:47Z</time>
      </trkpt>
      <trkpt lat="45.971129899844527" lon="9.362862193956971">
        <ele>1586.8</ele>
        <time>2022-07-10T14:46:55Z</time>
      </trkpt>
      <trkpt lat="45.971129732206464" lon="9.362792121246457">
        <ele>1585.8800000000001</ele>
        <time>2022-07-10T14:47:00Z</time>
      </trkpt>
      <trkpt lat="45.971189830452204" lon="9.362667063251138">
        <ele>1584.8399999999999</ele>
        <time>2022-07-10T14:47:11Z</time>
      </trkpt>
      <trkpt lat="45.971234338358045" lon="9.362583076581359">
        <ele>1584.52</ele>
        <time>2022-07-10T14:47:18Z</time>
      </trkpt>
      <trkpt lat="45.971339112147689" lon="9.362488528713584">
        <ele>1585.6300000000001</ele>
        <time>2022-07-10T14:47:30Z</time>
      </trkpt>
      <trkpt lat="45.971384206786752" lon="9.362450474873185">
        <ele>1585.46</ele>
        <time>2022-07-10T14:47:37Z</time>
      </trkpt>
      <trkpt lat="45.971419913694263" lon="9.362357100471854">
        <ele>1585.1199999999999</ele>
        <time>2022-07-10T14:47:48Z</time>
      </trkpt>
      <trkpt lat="45.971452854573727" lon="9.362199017778039">
        <ele>1582.6500000000001</ele>
        <time>2022-07-10T14:48:03Z</time>
      </trkpt>
      <trkpt lat="45.971518568694592" lon="9.36205392703414">
        <ele>1581.6600000000001</ele>
        <time>2022-07-10T14:48:14Z</time>
      </trkpt>
      <trkpt lat="45.971592916175723" lon="9.361978489905596">
        <ele>1581.4400000000001</ele>
        <time>2022-07-10T14:48:22Z</time>
      </trkpt>
      <trkpt lat="45.971634071320295" lon="9.361932892352343">
        <ele>1581.4400000000001</ele>
        <time>2022-07-10T14:48:27Z</time>
      </trkpt>
      <trkpt lat="45.971705904230475" lon="9.361826274544001">
        <ele>1582.7</ele>
        <time>2022-07-10T14:48:38Z</time>
      </trkpt>
      <trkpt lat="45.971791315823793" lon="9.361754441633821">
        <ele>1584.97</ele>
        <time>2022-07-10T14:48:53Z</time>
      </trkpt>
      <trkpt lat="45.971828699111938" lon="9.361655451357365">
        <ele>1582.8299999999999</ele>
        <time>2022-07-10T14:49:04Z</time>
      </trkpt>
      <trkpt lat="45.971838505938649" lon="9.361552940681577">
        <ele>1580.7</ele>
        <time>2022-07-10T14:49:13Z</time>
      </trkpt>
      <trkpt lat="45.971837667748332" lon="9.361529890447855">
        <ele>1581.0899999999999</ele>
        <time>2022-07-10T14:49:28Z</time>
      </trkpt>
      <trkpt lat="45.971863986924291" lon="9.361479012295604">
        <ele>1580.0899999999999</ele>
        <time>2022-07-10T14:49:36Z</time>
      </trkpt>
      <trkpt lat="45.97189717926085" lon="9.361352864652872">
        <ele>1576.9400000000001</ele>
        <time>2022-07-10T14:49:47Z</time>
      </trkpt>
      <trkpt lat="45.971900867298245" lon="9.361342638731003">
        <ele>1576.6199999999999</ele>
        <time>2022-07-10T14:49:48Z</time>
      </trkpt>
      <trkpt lat="45.971922995522618" lon="9.361240547150374">
        <ele>1574.73</ele>
        <time>2022-07-10T14:49:59Z</time>
      </trkpt>
      <trkpt lat="45.971972364932299" lon="9.361197296530008">
        <ele>1572.98</ele>
        <time>2022-07-10T14:50:11Z</time>
      </trkpt>
      <trkpt lat="45.972011089324951" lon="9.361109705641866">
        <ele>1571.52</ele>
        <time>2022-07-10T14:50:22Z</time>
      </trkpt>
      <trkpt lat="45.972113516181707" lon="9.361052289605141">
        <ele>1569.21</ele>
        <time>2022-07-10T14:50:36Z</time>
      </trkpt>
      <trkpt lat="45.972182583063841" lon="9.361007530242205">
        <ele>1567.4000000000001</ele>
        <time>2022-07-10T14:50:48Z</time>
      </trkpt>
      <trkpt lat="45.972201274707913" lon="9.360902002081275">
        <ele>1565.4000000000001</ele>
        <time>2022-07-10T14:51:01Z</time>
      </trkpt>
      <trkpt lat="45.972210662439466" lon="9.360850621014834">
        <ele>1564.49</ele>
        <time>2022-07-10T14:51:06Z</time>
      </trkpt>
      <trkpt lat="45.972237233072519" lon="9.360733861103654">
        <ele>1563.22</ele>
        <time>2022-07-10T14:51:14Z</time>
      </trkpt>
      <trkpt lat="45.972245279699564" lon="9.36070972122252">
        <ele>1562.73</ele>
        <time>2022-07-10T14:51:16Z</time>
      </trkpt>
      <trkpt lat="45.972288362681866" lon="9.360573599115014">
        <ele>1562.5799999999999</ele>
        <time>2022-07-10T14:51:27Z</time>
      </trkpt>
      <trkpt lat="45.972332116216421" lon="9.360444350168109">
        <ele>1560.02</ele>
        <time>2022-07-10T14:51:39Z</time>
      </trkpt>
      <trkpt lat="45.972395483404398" lon="9.360325830057263">
        <ele>1557.26</ele>
        <time>2022-07-10T14:51:54Z</time>
      </trkpt>
      <trkpt lat="45.972514003515244" lon="9.360338738188148">
        <ele>1556.49</ele>
        <time>2022-07-10T14:52:05Z</time>
      </trkpt>
      <trkpt lat="45.972563121467829" lon="9.360343683511019">
        <ele>1556.3499999999999</ele>
        <time>2022-07-10T14:52:09Z</time>
      </trkpt>
      <trkpt lat="45.972711984068155" lon="9.36034519225359">
        <ele>1556.0599999999999</ele>
        <time>2022-07-10T14:52:22Z</time>
      </trkpt>
      <trkpt lat="45.972745092585683" lon="9.360339576378465">
        <ele>1555.47</ele>
        <time>2022-07-10T14:52:25Z</time>
      </trkpt>
      <trkpt lat="45.972821954637766" lon="9.36034913174808">
        <ele>1553.8399999999999</ele>
        <time>2022-07-10T14:52:32Z</time>
      </trkpt>
      <trkpt lat="45.972938882187009" lon="9.360331362113357">
        <ele>1552.8</ele>
        <time>2022-07-10T14:52:45Z</time>
      </trkpt>
      <trkpt lat="45.973021611571312" lon="9.360194569453597">
        <ele>1551.3800000000001</ele>
        <time>2022-07-10T14:52:58Z</time>
      </trkpt>
      <trkpt lat="45.973027059808373" lon="9.360187025740743">
        <ele>1551.3499999999999</ele>
        <time>2022-07-10T14:52:59Z</time>
      </trkpt>
      <trkpt lat="45.973089672625065" lon="9.360150899738073">
        <ele>1549.8199999999999</ele>
        <time>2022-07-10T14:53:08Z</time>
      </trkpt>
      <trkpt lat="45.973131163045764" lon="9.360141512006521">
        <ele>1549.53</ele>
        <time>2022-07-10T14:53:12Z</time>
      </trkpt>
      <trkpt lat="45.973174413666129" lon="9.360136147588491">
        <ele>1549.1700000000001</ele>
        <time>2022-07-10T14:53:16Z</time>
      </trkpt>
      <trkpt lat="45.973279774188995" lon="9.36018543317914">
        <ele>1548.53</ele>
        <time>2022-07-10T14:53:28Z</time>
      </trkpt>
      <trkpt lat="45.973358983173966" lon="9.360196329653263">
        <ele>1546.5599999999999</ele>
        <time>2022-07-10T14:53:43Z</time>
      </trkpt>
      <trkpt lat="45.973449591547251" lon="9.360199347138405">
        <ele>1543.53</ele>
        <time>2022-07-10T14:53:58Z</time>
      </trkpt>
      <trkpt lat="45.973537266254425" lon="9.360188450664282">
        <ele>1541.1900000000001</ele>
        <time>2022-07-10T14:54:12Z</time>
      </trkpt>
      <trkpt lat="45.973580935969949" lon="9.360155761241913">
        <ele>1539.5699999999999</ele>
        <time>2022-07-10T14:54:24Z</time>
      </trkpt>
      <trkpt lat="45.973643129691482" lon="9.360110750421882">
        <ele>1537.1800000000001</ele>
        <time>2022-07-10T14:54:37Z</time>
      </trkpt>
      <trkpt lat="45.973690822720528" lon="9.360070433467627">
        <ele>1536.02</ele>
        <time>2022-07-10T14:54:42Z</time>
      </trkpt>
      <trkpt lat="45.973828956484795" lon="9.360072026029229">
        <ele>1534.8</ele>
        <time>2022-07-10T14:54:56Z</time>
      </trkpt>
      <trkpt lat="45.973944626748562" lon="9.360052580013871">
        <ele>1533.6700000000001</ele>
        <time>2022-07-10T14:55:09Z</time>
      </trkpt>
      <trkpt lat="45.973969688639045" lon="9.360049311071634">
        <ele>1533.05</ele>
        <time>2022-07-10T14:55:12Z</time>
      </trkpt>
      <trkpt lat="45.974016794934869" lon="9.360071942210197">
        <ele>1531.6600000000001</ele>
        <time>2022-07-10T14:55:16Z</time>
      </trkpt>
      <trkpt lat="45.974157946184278" lon="9.360053418204188">
        <ele>1532.27</ele>
        <time>2022-07-10T14:55:31Z</time>
      </trkpt>
      <trkpt lat="45.974189881235361" lon="9.360008826479316">
        <ele>1533.4100000000001</ele>
        <time>2022-07-10T14:55:39Z</time>
      </trkpt>
      <trkpt lat="45.9741878695786" lon="9.359981501474977">
        <ele>1533.5899999999999</ele>
        <time>2022-07-10T14:55:41Z</time>
      </trkpt>
      <trkpt lat="45.974182086065412" lon="9.359949063509703">
        <ele>1533.24</ele>
        <time>2022-07-10T14:55:43Z</time>
      </trkpt>
      <trkpt lat="45.974220810458064" lon="9.359880918636918">
        <ele>1532.6199999999999</ele>
        <time>2022-07-10T14:55:49Z</time>
      </trkpt>
      <trkpt lat="45.974339665845037" lon="9.35985753312707">
        <ele>1533.73</ele>
        <time>2022-07-10T14:56:02Z</time>
      </trkpt>
      <trkpt lat="45.974403619766235" lon="9.35985853895545">
        <ele>1533.8199999999999</ele>
        <time>2022-07-10T14:56:16Z</time>
      </trkpt>
      <trkpt lat="45.974442344158888" lon="9.359854934737086">
        <ele>1532.1700000000001</ele>
        <time>2022-07-10T14:56:27Z</time>
      </trkpt>
      <trkpt lat="45.974470507353544" lon="9.359888294711709">
        <ele>1530.01</ele>
        <time>2022-07-10T14:56:43Z</time>
      </trkpt>
      <trkpt lat="45.97456706687808" lon="9.359961384907365">
        <ele>1528.1800000000001</ele>
        <time>2022-07-10T14:56:56Z</time>
      </trkpt>
      <trkpt lat="45.974648622795939" lon="9.360039504244924">
        <ele>1526.0899999999999</ele>
        <time>2022-07-10T14:57:08Z</time>
      </trkpt>
      <trkpt lat="45.974776698276401" lon="9.360126508399844">
        <ele>1523.6500000000001</ele>
        <time>2022-07-10T14:57:23Z</time>
      </trkpt>
      <trkpt lat="45.974812489002943" lon="9.360120473429561">
        <ele>1523.3099999999999</ele>
        <time>2022-07-10T14:57:26Z</time>
      </trkpt>
      <trkpt lat="45.97488465718925" lon="9.360076636075974">
        <ele>1522.8</ele>
        <time>2022-07-10T14:57:39Z</time>
      </trkpt>
      <trkpt lat="45.974947018548846" lon="9.360089711844921">
        <ele>1520.4400000000001</ele>
        <time>2022-07-10T14:57:53Z</time>
      </trkpt>
      <trkpt lat="45.975031675770879" lon="9.360077725723386">
        <ele>1518.1600000000001</ele>
        <time>2022-07-10T14:58:05Z</time>
      </trkpt>
      <trkpt lat="45.975048104301095" lon="9.360070265829563">
        <ele>1517.8800000000001</ele>
        <time>2022-07-10T14:58:07Z</time>
      </trkpt>
      <trkpt lat="45.975141897797585" lon="9.360110415145755">
        <ele>1516.3</ele>
        <time>2022-07-10T14:58:20Z</time>
      </trkpt>
      <trkpt lat="45.975204091519117" lon="9.360168250277638">
        <ele>1514.95</ele>
        <time>2022-07-10T14:58:31Z</time>
      </trkpt>
      <trkpt lat="45.975222866982222" lon="9.360193898901343">
        <ele>1514.77</ele>
        <time>2022-07-10T14:58:33Z</time>
      </trkpt>
      <trkpt lat="45.975317666307092" lon="9.360307389870286">
        <ele>1516.0999999999999</ele>
        <time>2022-07-10T14:58:47Z</time>
      </trkpt>
      <trkpt lat="45.975356977432966" lon="9.360327590256929">
        <ele>1517.0799999999999</ele>
        <time>2022-07-10T14:58:59Z</time>
      </trkpt>
      <trkpt lat="45.97538840956986" lon="9.360398920252919">
        <ele>1515.3900000000001</ele>
        <time>2022-07-10T14:59:14Z</time>
      </trkpt>
      <trkpt lat="45.975446160882711" lon="9.360432280227542">
        <ele>1512.6099999999999</ele>
        <time>2022-07-10T14:59:29Z</time>
      </trkpt>
      <trkpt lat="45.975554035976529" lon="9.360435716807842">
        <ele>1510.51</ele>
        <time>2022-07-10T14:59:44Z</time>
      </trkpt>
      <trkpt lat="45.975652607157826" lon="9.360461197793484">
        <ele>1508.79</ele>
        <time>2022-07-10T14:59:55Z</time>
      </trkpt>
      <trkpt lat="45.975721757858992" lon="9.360465807840228">
        <ele>1507.8299999999999</ele>
        <time>2022-07-10T15:00:05Z</time>
      </trkpt>
      <trkpt lat="45.975769869983196" lon="9.360488438978791">
        <ele>1506.51</ele>
        <time>2022-07-10T15:00:13Z</time>
      </trkpt>
      <trkpt lat="45.975800380110741" lon="9.360506040975452">
        <ele>1505.9100000000001</ele>
        <time>2022-07-10T15:00:16Z</time>
      </trkpt>
      <trkpt lat="45.975847486406565" lon="9.360521882772446">
        <ele>1505.4200000000001</ele>
        <time>2022-07-10T15:00:20Z</time>
      </trkpt>
      <trkpt lat="45.975945554673672" lon="9.360588602721691">
        <ele>1504.72</ele>
        <time>2022-07-10T15:00:33Z</time>
      </trkpt>
      <trkpt lat="45.975962234660983" lon="9.360612323507667">
        <ele>1503.8</ele>
        <time>2022-07-10T15:00:39Z</time>
      </trkpt>
      <trkpt lat="45.976039683446288" lon="9.360652640461922">
        <ele>1501.8</ele>
        <time>2022-07-10T15:00:51Z</time>
      </trkpt>
      <trkpt lat="45.976153342053294" lon="9.360626991838217">
        <ele>1499.5999999999999</ele>
        <time>2022-07-10T15:01:06Z</time>
      </trkpt>
      <trkpt lat="45.976257612928748" lon="9.360665045678616">
        <ele>1497.47</ele>
        <time>2022-07-10T15:01:23Z</time>
      </trkpt>
      <trkpt lat="45.976315615698695" lon="9.360745428130031">
        <ele>1496.05</ele>
        <time>2022-07-10T15:01:36Z</time>
      </trkpt>
      <trkpt lat="45.976376133039594" lon="9.360774932429195">
        <ele>1495.0999999999999</ele>
        <time>2022-07-10T15:01:47Z</time>
      </trkpt>
      <trkpt lat="45.976459449157119" lon="9.360759342089295">
        <ele>1492.6300000000001</ele>
        <time>2022-07-10T15:02:02Z</time>
      </trkpt>
      <trkpt lat="45.976518960669637" lon="9.360673176124692">
        <ele>1491.49</ele>
        <time>2022-07-10T15:02:17Z</time>
      </trkpt>
      <trkpt lat="45.976571515202522" lon="9.360625650733709">
        <ele>1489.98</ele>
        <time>2022-07-10T15:02:31Z</time>
      </trkpt>
      <trkpt lat="45.976657597348094" lon="9.360596062615514">
        <ele>1488</ele>
        <time>2022-07-10T15:02:40Z</time>
      </trkpt>
      <trkpt lat="45.976805370301008" lon="9.360668649896979">
        <ele>1486.51</ele>
        <time>2022-07-10T15:02:52Z</time>
      </trkpt>
      <trkpt lat="45.976815680041909" lon="9.360672757029533">
        <ele>1486.4400000000001</ele>
        <time>2022-07-10T15:02:53Z</time>
      </trkpt>
      <trkpt lat="45.976881980895996" lon="9.360732939094305">
        <ele>1486.1800000000001</ele>
        <time>2022-07-10T15:03:04Z</time>
      </trkpt>
      <trkpt lat="45.976972840726376" lon="9.360783817246556">
        <ele>1485.5999999999999</ele>
        <time>2022-07-10T15:03:19Z</time>
      </trkpt>
      <trkpt lat="45.977065712213516" lon="9.360803682357073">
        <ele>1484.8699999999999</ele>
        <time>2022-07-10T15:03:27Z</time>
      </trkpt>
      <trkpt lat="45.977135030552745" lon="9.360842406749725">
        <ele>1484.3399999999999</ele>
        <time>2022-07-10T15:03:33Z</time>
      </trkpt>
      <trkpt lat="45.977247515693307" lon="9.360926309600473">
        <ele>1484.7</ele>
        <time>2022-07-10T15:03:45Z</time>
      </trkpt>
      <trkpt lat="45.977338291704655" lon="9.361015241593123">
        <ele>1485.52</ele>
        <time>2022-07-10T15:03:56Z</time>
      </trkpt>
      <trkpt lat="45.977417249232531" lon="9.361107777804136">
        <ele>1485.99</ele>
        <time>2022-07-10T15:04:09Z</time>
      </trkpt>
      <trkpt lat="45.977481119334698" lon="9.361146418377757">
        <ele>1484.21</ele>
        <time>2022-07-10T15:04:24Z</time>
      </trkpt>
      <trkpt lat="45.977587820962071" lon="9.361161505803466">
        <ele>1481.2</ele>
        <time>2022-07-10T15:04:40Z</time>
      </trkpt>
      <trkpt lat="45.977707849815488" lon="9.36120224185288">
        <ele>1479.1600000000001</ele>
        <time>2022-07-10T15:04:53Z</time>
      </trkpt>
      <trkpt lat="45.977844474837184" lon="9.361288910731673">
        <ele>1477.8900000000001</ele>
        <time>2022-07-10T15:05:06Z</time>
      </trkpt>
      <trkpt lat="45.977941118180752" lon="9.36137574724853">
        <ele>1478.6099999999999</ele>
        <time>2022-07-10T15:05:18Z</time>
      </trkpt>
      <trkpt lat="45.978054190054536" lon="9.361448669806123">
        <ele>1480.8099999999999</ele>
        <time>2022-07-10T15:05:35Z</time>
      </trkpt>
      <trkpt lat="45.978120574727654" lon="9.361466523259878">
        <ele>1478.6600000000001</ele>
        <time>2022-07-10T15:05:49Z</time>
      </trkpt>
      <trkpt lat="45.978137170895934" lon="9.361462164670229">
        <ele>1477.5799999999999</ele>
        <time>2022-07-10T15:05:54Z</time>
      </trkpt>
      <trkpt lat="45.978177823126316" lon="9.361422182992101">
        <ele>1476.1400000000001</ele>
        <time>2022-07-10T15:06:06Z</time>
      </trkpt>
      <trkpt lat="45.978209590539336" lon="9.361381027847529">
        <ele>1474.55</ele>
        <time>2022-07-10T15:06:18Z</time>
      </trkpt>
      <trkpt lat="45.978257535025477" lon="9.361354373395443">
        <ele>1472.8800000000001</ele>
        <time>2022-07-10T15:06:35Z</time>
      </trkpt>
      <trkpt lat="45.978349735960364" lon="9.361332496628165">
        <ele>1470.1400000000001</ele>
        <time>2022-07-10T15:06:52Z</time>
      </trkpt>
      <trkpt lat="45.978446546941996" lon="9.361307853832841">
        <ele>1467.6300000000001</ele>
        <time>2022-07-10T15:07:08Z</time>
      </trkpt>
      <trkpt lat="45.97855132073164" lon="9.361295700073242">
        <ele>1465.25</ele>
        <time>2022-07-10T15:07:25Z</time>
      </trkpt>
      <trkpt lat="45.978650478646159" lon="9.361315649002791">
        <ele>1463.6600000000001</ele>
        <time>2022-07-10T15:07:42Z</time>
      </trkpt>
      <trkpt lat="45.978759611025453" lon="9.36143291182816">
        <ele>1462.25</ele>
        <time>2022-07-10T15:07:58Z</time>
      </trkpt>
      <trkpt lat="45.978805627673864" lon="9.361639777198434">
        <ele>1461.71</ele>
        <time>2022-07-10T15:08:13Z</time>
      </trkpt>
      <trkpt lat="45.978812417015433" lon="9.361847145482898">
        <ele>1462.9100000000001</ele>
        <time>2022-07-10T15:08:30Z</time>
      </trkpt>
      <trkpt lat="45.97880101762712" lon="9.361998941749334">
        <ele>1464.47</ele>
        <time>2022-07-10T15:08:47Z</time>
      </trkpt>
      <trkpt lat="45.978826750069857" lon="9.362150989472866">
        <ele>1464.76</ele>
        <time>2022-07-10T15:09:01Z</time>
      </trkpt>
      <trkpt lat="45.978869749233127" lon="9.36222156509757">
        <ele>1464.3399999999999</ele>
        <time>2022-07-10T15:09:12Z</time>
      </trkpt>
      <trkpt lat="45.978941330686212" lon="9.362295996397734">
        <ele>1464.6700000000001</ele>
        <time>2022-07-10T15:09:25Z</time>
      </trkpt>
      <trkpt lat="45.979003859683871" lon="9.362376462668181">
        <ele>1465.3900000000001</ele>
        <time>2022-07-10T15:09:41Z</time>
      </trkpt>
      <trkpt lat="45.979039734229445" lon="9.362434046342969">
        <ele>1464.23</ele>
        <time>2022-07-10T15:09:52Z</time>
      </trkpt>
      <trkpt lat="45.979111567139626" lon="9.362430945038796">
        <ele>1462.29</ele>
        <time>2022-07-10T15:10:06Z</time>
      </trkpt>
      <trkpt lat="45.979180131107569" lon="9.362385096028447">
        <ele>1459.29</ele>
        <time>2022-07-10T15:10:19Z</time>
      </trkpt>
      <trkpt lat="45.979244085028768" lon="9.362362129613757">
        <ele>1457.3599999999999</ele>
        <time>2022-07-10T15:10:32Z</time>
      </trkpt>
      <trkpt lat="45.979274846613407" lon="9.362347880378366">
        <ele>1456.0599999999999</ele>
        <time>2022-07-10T15:10:44Z</time>
      </trkpt>
      <trkpt lat="45.979320947080851" lon="9.36232415959239">
        <ele>1453.8699999999999</ele>
        <time>2022-07-10T15:10:58Z</time>
      </trkpt>
      <trkpt lat="45.979367550462484" lon="9.362270012497902">
        <ele>1451.97</ele>
        <time>2022-07-10T15:11:10Z</time>
      </trkpt>
      <trkpt lat="45.97941373474896" lon="9.362209411337972">
        <ele>1450.1700000000001</ele>
        <time>2022-07-10T15:11:22Z</time>
      </trkpt>
      <trkpt lat="45.979454470798373" lon="9.362155348062515">
        <ele>1448.45</ele>
        <time>2022-07-10T15:11:32Z</time>
      </trkpt>
      <trkpt lat="45.979469139128923" lon="9.362157359719276">
        <ele>1447.98</ele>
        <time>2022-07-10T15:11:34Z</time>
      </trkpt>
      <trkpt lat="45.979486741125584" lon="9.362284848466516">
        <ele>1446.1800000000001</ele>
        <time>2022-07-10T15:11:47Z</time>
      </trkpt>
      <trkpt lat="45.97951146773994" lon="9.362383084371686">
        <ele>1444.0799999999999</ele>
        <time>2022-07-10T15:12:00Z</time>
      </trkpt>
      <trkpt lat="45.9795325063169" lon="9.362508393824101">
        <ele>1441.1500000000001</ele>
        <time>2022-07-10T15:12:15Z</time>
      </trkpt>
      <trkpt lat="45.9795256331563" lon="9.362670164555311">
        <ele>1438.78</ele>
        <time>2022-07-10T15:12:31Z</time>
      </trkpt>
      <trkpt lat="45.979533595964313" lon="9.362778710201383">
        <ele>1435.8800000000001</ele>
        <time>2022-07-10T15:12:46Z</time>
      </trkpt>
      <trkpt lat="45.979531249031425" lon="9.362882142886519">
        <ele>1433.52</ele>
        <time>2022-07-10T15:12:59Z</time>
      </trkpt>
      <trkpt lat="45.979545749723911" lon="9.363048439845443">
        <ele>1430.8599999999999</ele>
        <time>2022-07-10T15:13:12Z</time>
      </trkpt>
      <trkpt lat="45.979561004787683" lon="9.36323351226747">
        <ele>1428.1400000000001</ele>
        <time>2022-07-10T15:13:28Z</time>
      </trkpt>
      <trkpt lat="45.979631328955293" lon="9.363284558057785">
        <ele>1425.9300000000001</ele>
        <time>2022-07-10T15:13:39Z</time>
      </trkpt>
      <trkpt lat="45.979645075276494" lon="9.363267458975315">
        <ele>1425.25</ele>
        <time>2022-07-10T15:13:41Z</time>
      </trkpt>
      <trkpt lat="45.979670388624072" lon="9.363236865028739">
        <ele>1424.03</ele>
        <time>2022-07-10T15:13:44Z</time>
      </trkpt>
      <trkpt lat="45.979678519070148" lon="9.36322957277298">
        <ele>1423.77</ele>
        <time>2022-07-10T15:13:45Z</time>
      </trkpt>
      <trkpt lat="45.979715567082167" lon="9.363219430670142">
        <ele>1422.8299999999999</ele>
        <time>2022-07-10T15:13:48Z</time>
      </trkpt>
      <trkpt lat="45.979734761640429" lon="9.363218257203698">
        <ele>1422.3800000000001</ele>
        <time>2022-07-10T15:13:49Z</time>
      </trkpt>
      <trkpt lat="45.979747418314219" lon="9.363206773996353">
        <ele>1422.0699999999999</ele>
        <time>2022-07-10T15:13:50Z</time>
      </trkpt>
      <trkpt lat="45.979758314788342" lon="9.363194033503532">
        <ele>1421.71</ele>
        <time>2022-07-10T15:13:51Z</time>
      </trkpt>
      <trkpt lat="45.979767283424735" lon="9.363184226676822">
        <ele>1421.3299999999999</ele>
        <time>2022-07-10T15:13:52Z</time>
      </trkpt>
      <trkpt lat="45.979784801602364" lon="9.363155560567975">
        <ele>1420.3699999999999</ele>
        <time>2022-07-10T15:13:55Z</time>
      </trkpt>
      <trkpt lat="45.979829728603363" lon="9.363090684637427">
        <ele>1418.4200000000001</ele>
        <time>2022-07-10T15:14:04Z</time>
      </trkpt>
      <trkpt lat="45.97986962646246" lon="9.363046679645777">
        <ele>1417.28</ele>
        <time>2022-07-10T15:14:16Z</time>
      </trkpt>
      <trkpt lat="45.979874236509204" lon="9.363016756251454">
        <ele>1416.5999999999999</ele>
        <time>2022-07-10T15:14:30Z</time>
      </trkpt>
      <trkpt lat="45.979880606755614" lon="9.363037459552288">
        <ele>1416.1600000000001</ele>
        <time>2022-07-10T15:14:49Z</time>
      </trkpt>
      <trkpt lat="45.979889491572976" lon="9.36304441653192">
        <ele>1415.49</ele>
        <time>2022-07-10T15:15:01Z</time>
      </trkpt>
      <trkpt lat="45.97990139387548" lon="9.363062186166644">
        <ele>1415.26</ele>
        <time>2022-07-10T15:15:24Z</time>
      </trkpt>
      <trkpt lat="45.979888904839754" lon="9.363056067377329">
        <ele>1415.1199999999999</ele>
        <time>2022-07-10T15:15:54Z</time>
      </trkpt>
      <trkpt lat="45.979892928153276" lon="9.363036956638098">
        <ele>1415.02</ele>
        <time>2022-07-10T15:16:24Z</time>
      </trkpt>
      <trkpt lat="45.979918157681823" lon="9.363075094297528">
        <ele>1415.04</ele>
        <time>2022-07-10T15:16:42Z</time>
      </trkpt>
      <trkpt lat="45.979892089962959" lon="9.363039387390018">
        <ele>1414.8800000000001</ele>
        <time>2022-07-10T15:17:01Z</time>
      </trkpt>
      <trkpt lat="45.979872727766633" lon="9.363036118447781">
        <ele>1414.9200000000001</ele>
        <time>2022-07-10T15:17:28Z</time>
      </trkpt>
      <trkpt lat="45.979856634512544" lon="9.363035280257464">
        <ele>1414.79</ele>
        <time>2022-07-10T15:17:48Z</time>
      </trkpt>
      <trkpt lat="45.979891754686832" lon="9.363070148974657">
        <ele>1415.01</ele>
        <time>2022-07-10T15:18:25Z</time>
      </trkpt>
      <trkpt lat="45.979887479916215" lon="9.363048691302538">
        <ele>1414.9100000000001</ele>
        <time>2022-07-10T15:18:59Z</time>
      </trkpt>
      <trkpt lat="45.979874823242426" lon="9.363044081255794">
        <ele>1414.98</ele>
        <time>2022-07-10T15:19:24Z</time>
      </trkpt>
      <trkpt lat="45.979876751080155" lon="9.363057324662805">
        <ele>1415.23</ele>
        <time>2022-07-10T15:19:57Z</time>
      </trkpt>
      <trkpt lat="45.979861412197351" lon="9.363026143983007">
        <ele>1415.3599999999999</ele>
        <time>2022-07-10T15:20:30Z</time>
      </trkpt>
      <trkpt lat="45.979893347248435" lon="9.363020360469818">
        <ele>1415.6500000000001</ele>
        <time>2022-07-10T15:21:14Z</time>
      </trkpt>
      <trkpt lat="45.979911955073476" lon="9.363024383783341">
        <ele>1416.3699999999999</ele>
        <time>2022-07-10T15:21:53Z</time>
      </trkpt>
      <trkpt lat="45.979901477694511" lon="9.363014493137598">
        <ele>1416.3199999999999</ele>
        <time>2022-07-10T15:22:11Z</time>
      </trkpt>
    </trkseg>
  </trk>

</gpx>